ECMWFFLT2_sfc_thetae_000.txt.gz
Theta_e
344 345 347 348 347 346 349 343 343 345 348 350 350 349 350 350 347 346 347 345 343 340 341 341 341 344 351 348 347 349 350 350 349 348 347 346 345 345 345 345 344 343 342 342 342 343 343 343 343 342 343 342 340 331 330 332 331 332 331 333 335 331
344 346 347 346 348 349 346 343 342 344 348 348 351 346 339 338 343 341 342 335 335 339 341 339 340 348 341 345 347 350 351 350 349 349 348 347 345 346 345 345 344 343 343 342 342 334 335 341 342 343 343 343 332 330 332 332 331 331 332 331 334 334
346 347 345 345 347 349 348 344 341 343 348 350 344 340 337 338 335 338 336 336 337 336 338 338 336 341 339 344 343 350 350 351 350 349 347 347 346 346 345 345 345 344 343 343 335 328 327 327 326 341 342 332 330 329 333 331 331 331 331 331 331 338
347 347 345 343 343 343 344 344 341 341 343 343 338 339 338 337 337 338 337 335 335 337 335 333 344 345 346 341 341 345 340 347 350 349 347 346 346 345 345 345 344 344 343 340 328 326 327 326 326 325 327 329 330 331 332 331 331 331 331 336 332 340
348 347 344 342 343 341 342 342 339 339 342 339 335 335 336 336 336 338 338 338 336 335 334 334 334 338 338 337 337 338 337 333 335 339 343 341 341 342 342 338 338 339 331 331 330 327 326 326 328 327 326 328 330 330 332 332 331 332 333 334 335 341
343 344 344 342 342 345 344 340 338 338 340 336 336 333 335 335 334 335 337 339 337 336 336 338 337 338 333 333 333 337 335 332 332 337 342 338 339 339 337 338 337 336 334 331 330 328 325 329 328 327 326 326 329 330 331 331 332 332 333 333 337 341
340 342 342 345 344 346 340 337 336 338 340 335 336 332 333 333 334 334 337 342 337 335 335 335 337 335 332 335 335 336 333 333 331 333 337 337 337 339 338 337 335 336 332 330 330 328 326 326 328 329 328 327 329 331 331 332 332 333 333 333 338 341
339 337 336 344 340 335 332 333 336 340 341 341 338 334 332 332 334 334 338 340 339 335 333 333 335 335 333 333 333 334 334 334 333 332 336 337 337 338 337 336 336 335 333 332 330 328 327 327 328 328 328 328 330 331 332 332 332 333 333 333 336 340
335 337 336 340 340 333 333 334 336 336 335 344 335 334 333 333 334 335 336 338 336 331 333 334 335 337 334 332 335 333 333 332 332 332 334 337 338 337 337 334 335 335 332 329 327 328 327 327 327 327 325 327 329 331 332 332 332 333 333 332 334 337
338 338 338 340 339 332 333 332 332 333 332 343 332 334 333 332 333 335 336 334 333 331 332 335 337 339 335 330 335 335 333 330 331 334 335 336 336 336 336 334 333 334 333 329 329 329 328 326 326 325 324 325 325 327 329 331 332 333 334 334 333 335
339 343 339 339 338 334 334 332 330 330 330 332 330 332 332 333 335 333 335 332 331 333 332 335 337 337 337 333 334 335 336 332 333 336 336 334 334 333 332 333 333 332 330 329 329 329 328 328 328 329 328 328 327 327 327 329 332 332 333 333 333 334
336 338 337 336 339 337 339 337 336 335 334 333 336 333 333 334 339 332 336 332 330 331 335 335 335 334 338 335 336 335 335 335 335 335 334 333 333 332 334 335 334 332 330 329 329 329 329 328 329 329 329 329 328 328 327 327 329 332 332 333 333 334
336 336 335 334 335 334 336 338 335 334 335 337 335 335 334 334 333 335 337 335 330 329 336 337 334 335 336 333 336 334 334 336 336 336 334 333 333 331 330 330 330 331 329 328 328 328 330 329 328 328 330 330 329 328 328 328 327 327 332 333 332 333
333 331 331 329 328 328 333 334 334 334 338 335 333 332 335 332 335 333 334 331 331 334 334 335 334 333 335 334 334 333 332 334 334 332 331 330 330 329 328 329 330 330 331 326 326 325 326 327 327 328 329 330 329 328 327 328 326 326 328 332 331 331
331 330 330 329 331 332 333 335 334 336 335 334 334 334 330 327 328 330 333 332 333 333 330 329 331 330 331 332 331 330 329 330 333 331 330 330 330 329 328 327 327 327 326 326 325 327 325 324 325 326 327 327 328 328 328 328 328 328 327 326 327 330
328 326 325 327 327 328 330 331 333 340 335 335 334 332 328 327 328 327 330 329 330 331 329 330 330 330 329 333 332 330 331 332 332 329 329 330 329 327 327 326 326 326 324 324 324 321 322 322 324 325 326 326 325 327 326 327 328 329 328 326 327 327
325 325 325 324 323 322 325 327 328 331 332 330 332 330 329 329 329 329 327 327 328 330 327 329 330 329 329 334 332 332 330 332 331 329 329 328 327 325 326 325 324 325 324 323 322 322 322 325 325 325 327 329 329 326 326 326 327 327 328 326 326 326
325 325 324 323 322 322 322 322 322 327 334 331 331 332 332 330 329 330 330 327 327 329 328 329 329 330 331 333 331 331 330 331 330 329 328 327 326 326 324 324 323 323 324 323 321 322 323 324 328 329 327 329 329 329 328 327 326 328 325 325 325 325
324 324 323 322 323 322 322 318 318 324 326 327 328 328 330 330 329 329 328 328 326 328 330 328 330 332 332 333 331 330 330 329 327 327 327 326 325 325 325 322 323 322 324 323 323 323 323 325 329 329 327 326 327 330 329 328 327 325 325 325 326 328
324 323 321 321 321 318 315 317 320 323 324 323 323 323 321 324 327 329 329 328 327 328 329 330 330 333 334 333 331 329 329 328 327 327 326 324 323 322 323 323 322 323 324 328 327 326 326 326 326 326 325 325 326 326 328 325 325 326 324 323 323 325
322 322 321 319 316 314 311 315 318 321 320 319 320 319 320 320 321 322 327 329 330 330 331 330 329 331 333 336 332 331 328 326 327 327 325 324 323 323 324 324 324 324 324 324 324 325 328 327 324 321 322 322 323 324 326 323 322 322 322 321 321 321
321 320 320 318 317 316 315 316 316 318 318 318 317 315 315 318 320 321 319 319 320 319 323 330 329 328 331 330 330 329 328 326 325 325 326 325 324 327 324 324 324 322 324 325 326 328 326 323 319 321 321 318 316 322 327 322 321 322 322 320 319 319
321 320 320 319 316 316 317 317 317 316 318 315 316 316 317 319 319 317 317 317 318 317 318 319 324 327 328 328 328 328 328 327 327 328 325 323 322 321 321 323 323 323 323 322 322 324 322 323 319 318 316 315 312 309 312 316 319 321 321 319 319 319
320 320 320 321 321 318 320 317 318 318 316 316 317 319 316 315 314 315 316 317 318 316 317 317 318 321 322 326 327 327 325 325 326 326 325 323 321 320 319 320 321 321 320 316 319 323 325 325 322 319 313 314 313 308 305 310 313 315 319 319 320 319
320 320 320 323 319 318 318 316 316 316 317 316 316 314 313 313 315 319 317 316 315 315 316 316 316 317 318 316 321 325 326 324 325 324 324 322 320 320 320 321 322 321 321 319 318 318 323 325 323 323 318 315 310 308 308 312 310 310 317 317 316 320
319 319 320 319 318 317 316 314 313 313 312 311 310 310 310 311 311 312 313 314 316 317 317 317 316 316 318 317 315 317 319 322 324 325 324 321 321 321 322 321 322 321 320 319 318 318 320 326 325 323 323 317 314 310 310 316 310 304 311 316 317 319
319 318 320 317 316 317 314 314 313 312 312 311 310 310 311 312 313 312 313 314 314 315 315 314 313 313 312 313 313 315 316 317 318 318 322 321 320 320 323 325 324 322 321 319 320 317 320 321 321 321 322 321 320 321 315 313 308 306 304 308 313 314
318 319 319 317 315 316 313 312 311 311 313 311 311 312 313 313 313 315 314 314 315 314 314 313 312 312 312 313 312 312 314 314 315 317 318 316 316 316 317 319 320 318 320 320 318 317 315 317 317 315 319 319 319 319 318 318 316 312 307 307 309 312
317 318 318 317 315 314 315 312 312 312 312 313 314 315 315 316 314 314 313 312 311 311 310 310 311 312 312 313 314 310 311 312 313 314 316 313 313 314 314 312 312 313 314 315 318 318 317 313 315 313 317 318 319 318 317 317 316 314 309 307 304 306
316 317 318 317 316 314 314 313 312 313 314 313 315 314 313 312 311 312 312 310 310 309 308 310 311 311 311 310 310 312 311 311 312 313 313 310 310 311 311 311 310 310 311 310 310 309 308 307 308 309 314 314 312 307 306 303 303 306 307 309 308 307
315 317 318 317 316 314 313 312 313 315 315 314 314 313 311 310 311 311 310 309 309 308 309 309 310 310 311 312 313 314 310 310 311 314 311 310 310 310 310 309 309 309 308 307 306 306 307 307 307 307 306 305 304 304 303 301 302 303 302 300 298 299
314 316 317 318 316 315 313 312 315 316 315 314 314 313 312 311 312 311 309 308 308 308 308 308 308 308 309 310 311 309 311 309 311 309 310 310 310 310 309 308 307 307 306 306 307 306 304 304 304 304 304 304 304 305 304 303 302 302 301 301 300 299
313 315 316 317 315 314 314 314 315 315 315 315 314 313 313 313 312 310 309 308 307 307 307 308 307 309 307 308 309 307 307 307 308 310 309 308 307 307 307 307 307 305 304 303 303 304 303 302 302 302 301 302 302 302 302 302 302 302 302 301 300 298
314 315 316 315 315 314 314 315 315 315 315 315 313 313 314 314 312 311 310 309 308 308 307 308 308 308 309 310 308 309 309 309 309 309 308 307 307 308 308 308 308 307 307 305 305 304 303 303 302 301 300 300 300 300 300 302 302 303 301 301 299 299
316 317 316 317 318 317 313 316 315 315 315 315 314 314 315 315 312 311 310 309 309 309 308 309 308 309 311 309 309 309 309 307 307 308 309 310 310 309 309 310 310 309 308 306 306 306 303 303 304 302 300 300 301 301 301 302 302 302 302 301 301 301
317 317 317 317 318 319 319 319 315 315 315 315 315 314 315 315 313 313 312 310 309 309 310 310 309 311 312 311 309 309 309 307 308 308 308 308 308 308 308 307 306 306 307 311 306 304 303 303 303 302 302 299 300 300 301 301 301 301 302 302 302 301
317 315 315 316 317 316 316 316 316 315 315 314 313 312 314 314 313 314 313 311 310 310 311 311 311 313 312 309 309 309 308 308 308 308 308 307 307 307 308 308 306 305 306 306 307 304 304 304 304 303 302 301 299 300 303 303 302 303 303 302 302 301

ECMWFFLT2_sfc_thetae_003.txt.gz
Theta_e
350 350 350 350 349 346 346 346 346 343 342 343 343 344 345 343 343 344 343 342 340 340 340 341 336 337 343 342 346 348 347 347 348 347 346 345 345 344 344 343 343 343 342 341 342 342 343 342 342 343 342 340 341 331 331 329 330 331 329 330 332 327
349 350 349 345 344 344 343 343 342 344 341 340 342 343 341 339 344 335 339 335 333 339 339 333 336 342 336 337 338 344 348 346 348 347 346 346 345 345 344 344 343 342 342 342 342 329 330 336 340 342 342 340 331 329 331 329 328 329 329 328 329 332
348 348 343 341 342 343 340 340 343 343 339 340 342 341 340 342 335 333 333 333 335 334 336 335 335 338 336 336 336 338 344 348 348 347 347 346 345 345 345 344 344 343 342 342 330 326 324 325 326 336 338 329 326 330 330 328 328 329 329 328 328 336
346 346 342 340 342 342 341 342 343 342 339 338 340 340 339 338 336 333 334 333 334 335 338 335 342 344 341 336 336 340 342 344 346 347 346 345 345 345 345 344 344 344 341 335 325 324 324 322 324 324 324 326 326 329 329 329 328 328 328 332 329 337
346 344 335 332 337 342 343 343 344 343 340 339 339 338 338 335 334 335 333 333 333 334 334 336 336 338 334 334 333 333 336 333 333 336 346 338 337 337 338 334 335 337 328 328 328 325 324 322 324 325 325 326 327 327 328 330 329 328 328 328 329 338
346 342 335 333 336 342 343 342 343 343 341 338 336 336 336 334 333 334 334 334 333 332 332 335 337 336 333 332 332 333 332 330 330 335 337 338 336 333 332 332 332 331 330 328 327 326 324 327 324 325 325 325 326 327 329 329 328 328 329 328 331 339
344 337 332 333 336 344 342 342 343 343 339 336 335 333 333 333 333 333 335 337 333 332 334 335 333 332 331 331 331 333 332 330 332 335 335 334 334 334 333 332 332 331 330 329 328 326 325 324 324 326 326 326 327 329 329 329 328 329 329 329 334 340
338 335 334 335 336 342 341 340 341 345 339 339 336 332 332 333 334 333 336 338 338 334 335 334 331 330 330 330 331 332 330 329 330 331 335 333 333 334 334 332 331 331 331 330 329 327 326 326 324 325 326 326 326 329 329 329 330 330 329 329 331 339
338 336 334 335 335 339 338 337 339 339 337 343 335 333 332 333 333 334 336 339 338 333 333 332 331 332 330 328 329 330 331 330 330 330 332 332 333 334 333 330 331 331 329 329 327 327 327 326 324 324 323 326 328 328 328 329 329 329 330 329 330 334
337 333 333 334 335 337 335 333 334 334 334 342 335 334 333 332 332 333 334 337 336 334 333 332 332 331 330 328 331 330 330 329 329 330 331 332 333 334 333 329 329 331 332 327 328 327 326 325 325 324 324 325 328 329 328 329 331 332 332 332 331 331
336 336 335 335 335 335 334 332 332 331 330 332 333 334 333 331 332 334 333 333 333 332 332 332 332 332 331 328 329 330 329 328 327 330 332 331 332 334 333 331 329 329 328 327 327 327 327 327 326 327 325 326 326 327 328 328 330 331 332 332 332 330
332 333 336 336 336 333 332 331 332 329 329 330 332 330 329 331 335 332 333 330 330 329 332 331 331 332 333 329 330 331 331 329 329 331 332 331 330 331 330 332 331 329 327 327 327 327 328 328 327 327 327 327 326 326 325 327 328 329 330 331 330 330
335 337 337 336 334 333 332 333 330 329 330 333 332 330 329 330 331 332 333 330 328 328 332 331 329 330 336 331 331 331 332 332 332 333 333 332 333 330 329 328 328 328 327 327 328 327 328 327 327 327 328 328 327 326 326 326 326 328 330 330 329 329
334 335 334 334 334 334 333 333 331 330 333 331 329 328 331 331 334 333 332 330 328 328 330 330 331 331 331 330 329 328 331 331 330 332 331 331 330 327 327 327 327 328 331 326 326 324 325 326 326 327 328 328 327 326 326 326 324 325 328 328 329 328
332 332 332 331 334 334 334 333 331 330 331 330 330 329 328 328 330 331 330 330 330 330 330 329 330 330 332 332 329 329 329 330 331 330 330 329 329 327 327 327 326 325 324 325 325 326 324 324 324 325 325 326 326 327 326 326 326 325 324 324 327 329
329 327 328 330 332 333 333 331 330 335 329 330 330 328 326 327 328 329 329 329 330 330 329 329 329 329 331 330 329 327 328 329 329 329 328 328 328 327 326 326 325 325 324 322 324 321 322 322 323 324 326 326 325 326 325 325 326 325 324 324 324 325
326 327 327 327 330 330 330 331 331 330 330 329 328 327 327 327 327 325 327 328 328 328 327 328 328 328 330 327 327 327 327 327 328 328 327 326 325 326 326 325 322 323 321 321 321 321 324 324 323 325 328 327 326 326 325 325 325 324 325 323 321 323
325 325 325 325 325 324 324 328 329 330 334 329 328 329 328 328 327 326 326 326 327 327 328 326 325 327 330 331 328 328 327 327 328 326 325 325 324 324 323 323 322 321 321 321 320 321 323 324 327 328 327 325 325 326 326 326 326 327 323 323 322 322
323 323 322 322 322 319 320 324 327 328 327 327 326 326 326 326 327 326 325 324 325 327 328 324 326 327 326 333 329 328 327 327 327 326 325 324 324 323 323 321 322 322 323 322 321 322 323 324 325 324 325 326 328 328 327 327 326 325 324 324 325 326
322 321 322 321 319 318 322 325 325 323 323 323 323 324 323 324 325 325 327 325 324 324 328 327 324 327 330 331 328 326 325 324 325 325 324 323 322 322 321 321 321 323 324 326 326 325 325 325 323 323 322 324 326 326 328 326 326 326 323 323 323 324
321 321 321 318 315 314 319 320 321 320 318 317 320 319 320 320 322 323 325 327 327 327 326 327 326 328 329 333 328 327 325 324 325 325 324 322 322 323 324 323 322 323 324 324 325 326 326 323 321 319 321 322 323 326 327 325 324 324 324 322 321 320
321 320 320 318 316 313 314 320 320 318 317 316 318 317 316 316 318 321 320 321 325 326 326 326 327 327 328 327 326 325 325 324 324 324 324 323 323 326 323 324 322 321 324 325 325 327 324 321 316 317 315 315 319 322 325 323 321 323 324 321 319 318
321 320 319 319 315 314 314 317 319 316 316 313 315 316 316 317 317 315 315 317 320 322 323 324 324 326 327 326 326 325 325 323 324 326 324 324 323 323 323 323 322 322 321 321 322 323 321 321 318 319 317 314 310 309 312 314 318 320 321 318 317 317
320 320 319 320 320 316 317 317 317 316 315 315 315 317 314 314 314 314 314 315 316 317 320 320 322 325 325 324 325 325 324 323 323 323 322 321 318 320 321 323 323 320 319 315 316 319 322 320 318 316 310 312 312 308 303 309 311 315 319 319 317 316
320 320 320 322 318 318 318 316 316 315 316 314 314 312 313 313 315 317 315 314 313 314 315 315 315 318 324 323 321 322 323 322 322 321 321 320 319 320 320 320 319 318 317 316 315 318 321 322 321 323 318 313 307 304 305 313 310 309 316 317 316 318
319 319 320 318 317 318 317 315 313 313 310 309 309 309 309 310 310 311 312 313 313 314 314 312 313 315 319 321 320 319 319 322 321 321 321 319 319 319 318 319 318 318 318 317 318 317 319 323 323 321 320 317 313 309 309 314 309 305 310 314 317 319
319 319 319 317 317 318 315 314 314 313 312 311 309 308 308 308 310 310 311 312 311 311 310 311 311 312 314 316 315 315 315 317 318 319 321 318 318 316 320 321 320 318 318 317 317 315 320 320 321 321 320 318 320 318 314 311 307 304 303 307 311 311
318 320 318 316 317 317 315 313 312 312 312 310 310 310 310 310 310 312 312 311 310 309 310 310 311 312 314 315 314 314 314 315 316 317 318 314 313 314 317 315 316 316 319 318 317 318 318 319 318 316 319 318 319 320 319 319 314 310 306 304 306 310
318 319 316 316 316 315 316 313 313 312 311 310 312 312 313 313 311 311 310 308 308 308 309 309 311 311 311 313 315 312 312 313 313 313 315 313 312 312 312 312 314 316 316 316 317 317 319 317 315 315 319 318 317 312 308 310 311 311 307 303 302 302
317 317 315 315 315 314 314 314 312 312 312 313 314 312 311 310 309 309 308 306 306 308 308 308 308 309 310 311 312 312 311 311 311 312 312 310 310 310 310 310 310 311 310 309 309 312 314 312 313 313 313 315 308 304 302 302 302 303 304 306 303 302
317 316 315 314 314 313 312 313 313 313 313 313 312 311 309 308 309 307 308 306 306 306 307 307 308 308 309 310 310 312 310 310 312 314 311 309 308 308 307 307 307 307 307 307 307 307 307 307 306 305 304 304 303 303 303 301 301 301 300 298 297 297
316 316 314 313 313 312 312 312 313 313 313 313 312 311 309 309 309 308 306 306 305 305 305 306 307 307 307 308 310 308 310 309 310 309 308 308 307 307 307 306 306 306 305 304 305 306 304 303 303 303 302 302 302 302 302 302 301 301 301 300 298 296
316 317 317 315 313 312 311 312 314 314 314 314 313 311 310 310 309 308 306 305 304 305 304 306 305 307 305 306 308 307 308 308 308 308 307 306 305 305 305 304 304 303 302 302 302 302 301 300 301 300 299 299 300 302 301 301 302 302 300 299 299 297
318 318 318 316 314 313 314 314 315 315 315 315 313 312 311 311 310 308 307 306 305 305 305 305 306 306 306 306 306 308 307 306 306 306 306 305 305 305 305 305 304 304 303 302 302 302 301 300 300 299 299 300 300 301 300 301 301 302 300 299 297 297
318 316 315 316 314 315 315 315 315 316 316 315 316 314 312 313 311 308 307 306 306 305 305 306 306 306 307 305 306 307 307 306 306 306 307 307 309 307 308 307 306 305 304 302 303 303 301 300 300 298 298 299 301 300 299 299 300 301 302 301 300 299
314 316 317 317 317 316 317 318 315 315 316 317 317 315 314 313 311 309 308 307 307 306 306 306 305 308 306 307 307 307 307 305 306 306 307 307 307 307 306 306 305 305 305 307 303 302 301 301 300 299 299 298 300 299 299 299 300 301 300 301 301 299
314 316 317 317 317 317 317 317 318 317 315 316 315 314 313 312 311 309 309 307 307 306 306 306 308 308 307 306 307 307 306 306 306 306 306 306 306 306 305 306 305 304 304 302 303 301 301 301 300 300 299 299 300 300 300 301 301 302 302 300 301 299

ECMWFFLT2_sfc_thetae_006.txt.gz
Theta_e
343 345 345 340 340 340 343 346 348 349 350 350 350 350 349 350 350 349 345 343 339 336 335 336 337 341 347 346 345 346 347 347 346 346 345 345 344 344 343 343 342 342 341 341 341 341 341 341 341 342 341 341 342 338 332 332 332 334 333 335 338 330
340 341 340 336 337 341 342 344 341 344 345 346 347 347 344 342 346 338 343 339 338 339 335 333 337 345 340 343 344 347 347 347 346 346 346 345 344 344 343 343 342 342 342 341 339 329 331 337 341 341 340 341 337 332 332 332 331 332 333 333 335 334
341 338 335 336 340 341 342 341 340 340 342 345 346 344 340 341 333 334 334 337 339 337 335 336 336 338 338 341 340 344 346 347 347 347 346 345 345 344 344 344 343 342 341 338 330 326 324 325 328 339 338 330 328 331 332 331 331 331 332 333 332 335
340 336 337 336 339 341 340 341 341 339 339 339 341 341 341 336 334 333 333 335 335 336 335 332 344 345 344 335 335 341 343 343 345 346 346 345 345 344 343 344 342 342 336 331 327 326 326 326 327 325 327 329 330 330 331 331 330 330 330 335 330 336
332 334 335 334 337 340 340 342 343 340 338 340 340 339 338 336 334 333 333 335 335 336 334 334 335 336 332 332 331 332 335 335 337 338 344 338 339 340 339 336 336 334 330 330 327 325 327 327 328 328 329 330 331 330 330 331 330 330 330 333 333 336
334 332 333 334 338 342 341 341 342 340 339 339 339 338 337 336 334 333 333 335 336 334 335 335 335 334 331 330 331 332 332 331 332 335 339 337 336 336 335 334 334 333 332 330 328 327 328 330 327 327 328 329 330 331 330 330 331 331 330 332 335 336
332 333 333 334 338 343 342 343 343 341 338 337 338 337 336 335 333 332 334 336 333 331 333 336 336 335 333 331 331 332 331 331 332 334 337 337 337 337 336 334 332 332 331 331 329 328 327 327 326 328 328 328 330 331 330 330 330 331 331 332 334 337
334 333 332 334 338 344 342 343 344 343 339 339 337 335 335 334 333 332 335 335 336 332 332 334 334 334 331 330 331 332 330 330 332 333 335 338 338 337 335 332 331 330 331 331 331 329 327 327 326 327 328 328 329 330 331 330 331 331 331 331 333 337
337 333 333 334 337 342 342 342 343 342 338 341 335 334 333 332 332 332 333 336 336 331 331 332 332 333 329 330 330 331 331 330 331 332 333 334 337 337 336 333 330 330 329 329 328 328 328 326 326 326 326 328 329 330 330 330 330 331 331 332 332 336
338 335 334 335 337 340 340 340 341 340 338 341 335 333 331 331 332 332 333 336 335 332 332 331 331 330 329 328 330 330 331 329 329 330 332 333 334 336 336 333 331 332 331 328 329 330 326 326 326 326 326 329 330 331 330 331 332 333 333 333 333 336
337 336 334 335 337 338 338 336 336 334 336 338 336 335 332 330 330 331 333 336 335 334 332 331 331 330 329 328 329 329 329 328 329 329 331 332 333 334 335 333 331 331 329 328 327 328 327 327 327 327 327 328 329 331 331 332 333 333 333 333 334 334
332 333 334 334 337 337 336 334 334 331 331 330 333 330 329 329 334 330 332 332 332 331 333 330 330 331 332 329 329 329 328 327 326 329 331 331 332 333 333 333 333 331 328 328 328 328 329 328 327 328 328 327 328 329 330 331 332 331 332 333 332 333
329 330 330 334 335 335 334 334 331 330 330 332 330 328 328 329 330 330 331 330 330 330 332 330 329 333 334 330 329 329 330 328 327 328 332 332 333 332 332 330 329 328 328 329 329 328 328 328 328 328 329 328 328 328 328 329 330 331 332 331 332 332
328 327 333 335 334 333 332 332 331 329 332 329 328 327 329 327 330 330 330 328 328 329 330 331 331 332 334 330 328 330 331 329 328 330 331 331 331 330 329 328 328 329 330 327 326 326 327 326 327 328 328 327 327 327 328 328 327 329 331 331 332 332
328 328 332 333 335 332 332 333 331 329 329 327 328 328 329 331 330 329 330 329 329 330 330 332 331 331 330 329 328 329 331 331 331 328 328 330 330 328 329 328 327 326 326 326 326 324 324 324 325 326 326 326 327 327 327 328 328 327 327 330 331 330
329 330 331 333 331 330 332 331 330 333 329 328 327 326 327 330 332 332 332 330 330 331 329 330 331 331 330 329 328 327 328 330 330 328 327 328 328 327 327 326 326 326 324 324 324 322 324 324 325 325 326 326 326 326 326 326 326 326 326 326 326 327
328 329 330 330 331 330 328 327 327 329 329 327 325 324 325 326 328 328 329 329 330 332 329 329 329 330 330 328 326 325 327 328 330 328 326 325 325 326 326 325 324 325 325 324 323 323 323 324 324 326 326 325 325 325 325 327 327 327 327 326 326 326
327 328 330 331 329 326 326 327 327 329 331 327 325 325 325 326 325 324 325 326 328 330 329 327 328 329 327 327 326 326 326 327 327 326 326 325 323 323 323 325 323 323 324 324 322 322 323 324 325 326 325 323 325 325 325 326 327 328 328 327 326 327
327 327 328 327 324 324 325 325 325 325 324 324 324 324 325 324 324 324 323 325 327 328 328 327 329 331 329 327 326 327 327 327 326 325 325 324 323 324 323 322 322 321 323 323 323 323 324 325 326 325 324 324 327 327 326 326 326 325 326 326 328 328
325 325 324 322 324 325 325 326 324 322 322 321 320 323 321 322 323 324 326 325 325 326 328 327 329 332 331 327 326 327 325 326 326 324 324 323 322 322 322 322 322 323 323 324 326 325 324 323 323 325 325 326 327 327 327 326 326 325 324 325 324 325
322 322 321 321 324 325 322 320 318 319 319 316 321 319 319 317 320 323 324 326 327 326 327 328 330 332 332 329 326 326 325 325 326 324 324 323 323 323 323 323 323 324 323 322 323 327 326 324 322 321 323 323 323 327 327 326 325 325 325 324 323 322
321 320 321 323 324 323 321 323 320 317 316 314 316 317 317 316 317 318 319 322 326 325 326 328 331 332 332 328 326 325 325 325 325 324 324 324 323 325 324 323 323 323 325 324 324 327 325 323 317 318 317 316 318 320 324 324 323 324 325 323 322 322
320 319 317 319 321 320 316 318 317 315 316 313 313 314 314 315 316 315 315 317 320 322 324 325 330 332 330 328 326 325 324 325 325 326 324 324 323 322 322 322 322 321 320 321 323 325 323 321 318 318 319 317 312 310 314 317 319 320 320 320 319 320
319 318 317 319 320 318 318 316 316 315 315 314 314 316 313 314 314 314 314 315 316 317 319 322 326 328 327 327 326 325 324 325 325 325 325 323 323 323 323 323 323 322 321 319 318 320 324 321 319 318 313 314 313 310 306 312 314 318 319 319 319 318
319 317 318 320 319 318 317 315 315 314 315 314 313 311 312 311 313 318 315 313 314 315 316 317 320 324 326 323 324 325 324 323 323 322 322 322 322 323 324 324 323 322 321 320 318 319 322 323 321 323 318 314 311 308 308 314 312 314 317 318 318 320
318 317 317 317 318 318 317 315 313 312 310 309 309 310 309 309 309 310 310 311 311 311 312 313 315 320 324 324 323 323 323 323 322 322 321 321 321 321 321 322 321 322 320 319 320 319 317 321 322 321 319 318 315 312 311 315 312 309 313 316 317 319
318 316 316 317 319 318 315 315 314 313 312 311 310 308 307 308 309 309 310 309 309 310 310 312 314 317 319 320 319 320 322 322 322 322 323 321 320 320 320 322 321 320 319 319 320 317 317 318 321 320 319 320 321 318 316 314 310 307 309 313 314 313
318 317 316 317 317 317 315 313 312 311 312 310 310 309 309 309 310 312 308 308 308 309 310 312 314 314 316 318 316 316 318 319 319 319 321 318 318 318 320 321 322 320 319 320 320 320 319 321 319 317 319 319 319 317 318 317 313 313 309 308 310 312
316 316 315 317 317 316 316 313 312 312 310 309 310 311 312 313 310 309 307 306 308 308 309 310 311 313 314 316 318 315 315 316 316 317 317 314 314 315 315 316 318 319 318 317 319 320 321 319 318 317 317 314 311 309 309 311 313 313 311 305 305 304
314 314 314 315 315 314 314 314 312 311 311 311 312 310 309 309 308 307 306 305 306 307 308 309 310 311 312 312 313 314 312 312 312 315 315 311 311 311 312 312 313 313 313 313 314 318 318 316 318 317 317 313 308 306 306 305 305 304 305 306 303 303
314 314 313 313 313 313 313 313 312 312 312 311 310 309 309 308 307 306 306 305 306 306 307 308 309 309 310 310 312 314 310 311 313 316 312 309 309 309 309 309 309 310 311 311 311 311 310 310 308 307 306 307 306 307 306 304 303 303 303 301 300 300
316 315 314 313 313 312 312 312 313 313 312 312 311 310 309 308 307 306 305 305 305 306 306 307 307 308 309 309 311 310 312 310 310 308 308 308 308 308 308 307 307 308 307 308 308 308 306 305 305 305 304 305 305 305 305 305 304 303 303 302 301 300
316 316 316 315 314 314 313 313 313 313 313 312 311 310 309 309 307 307 305 305 305 305 305 307 306 307 307 307 309 308 308 308 308 308 307 306 306 306 305 305 305 304 305 305 305 305 304 303 304 304 303 303 304 305 305 304 304 303 302 301 301 299
317 316 317 316 315 315 315 314 314 315 314 313 311 311 310 310 308 307 306 306 305 306 306 306 306 306 307 307 308 309 308 307 306 306 306 305 305 305 305 304 304 304 303 303 303 303 302 302 302 302 303 303 303 304 303 303 303 303 302 302 301 300
316 316 317 316 316 316 317 316 315 315 315 313 312 312 312 312 309 307 306 306 305 305 306 306 306 306 308 306 306 306 306 306 305 306 306 307 308 307 307 305 305 304 303 302 302 303 301 301 301 301 302 302 303 302 303 303 304 304 303 304 303 302
314 315 316 315 315 316 316 316 315 314 315 316 315 314 313 313 311 309 307 306 305 305 305 306 305 307 306 306 306 307 308 305 305 306 306 306 306 306 305 305 304 304 304 306 302 301 301 301 301 302 302 302 303 302 303 303 304 303 303 304 304 301
314 315 315 315 315 316 316 315 316 316 315 316 315 315 314 313 311 309 307 306 306 305 305 305 306 308 306 306 306 306 306 305 306 306 306 307 306 305 305 306 305 304 304 304 303 301 302 302 301 302 302 303 303 303 303 305 304 304 304 303 303 303

ECMWFFLT2_sfc_thetae_009.txt.gz
Theta_e
342 339 341 346 346 345 344 348 350 350 349 349 350 350 350 350 350 349 349 346 345 352 352 350 351 348 345 348 347 347 346 346 346 346 345 345 344 344 343 342 342 342 341 341 341 340 341 341 342 342 342 342 342 344 345 342 341 340 339 339 340 338
339 340 342 344 345 341 340 347 349 351 352 350 350 350 351 350 350 350 346 348 350 351 351 351 352 345 352 349 348 347 346 346 346 345 345 344 344 343 343 342 342 342 341 339 339 340 341 340 341 341 342 342 344 344 345 343 342 340 339 340 340 339
337 340 342 344 346 344 342 345 347 349 348 348 349 349 348 348 348 347 348 347 349 349 350 350 351 349 349 345 348 342 342 344 346 346 345 345 344 343 343 342 342 341 339 336 338 337 338 339 341 340 339 342 343 343 344 344 342 341 339 339 339 337
337 339 339 341 344 345 347 345 344 343 348 347 349 347 347 346 346 347 346 347 348 348 349 350 344 345 344 349 347 343 342 342 342 342 345 344 344 344 343 341 341 340 340 340 338 336 335 336 337 340 340 340 341 342 343 343 340 341 341 338 338 337
336 339 341 343 342 342 339 335 334 337 343 345 344 347 346 345 345 346 346 347 346 347 347 349 350 348 346 348 348 348 348 347 347 346 343 341 342 344 344 344 344 342 340 338 336 337 337 336 338 337 339 341 342 343 342 343 341 341 341 340 341 336
337 337 340 340 342 342 342 339 334 337 340 342 344 345 345 345 345 345 345 345 345 346 347 347 348 347 345 345 346 347 347 347 347 346 347 346 342 342 342 343 342 340 339 340 339 338 338 337 336 336 338 341 342 343 341 341 341 341 341 340 341 336
335 335 334 340 340 338 340 339 340 338 340 343 345 343 342 343 343 344 344 345 344 344 344 344 343 343 344 344 345 346 345 347 346 346 347 347 344 343 341 341 342 340 339 340 338 338 337 336 336 334 337 336 340 341 342 340 340 340 340 340 340 336
336 334 334 336 339 340 341 342 339 341 343 345 343 342 343 341 343 344 344 344 345 345 344 342 341 340 341 342 343 344 345 347 347 347 347 346 344 343 341 341 343 339 338 338 335 336 334 334 335 337 335 336 337 342 342 340 341 341 340 340 339 338
336 334 335 337 337 341 343 340 340 341 344 344 343 343 342 341 342 343 344 344 345 344 343 342 341 341 340 342 342 342 344 345 346 347 346 345 344 343 341 340 341 339 339 339 337 337 335 335 336 338 336 335 337 339 340 341 340 338 339 339 340 339
336 336 336 335 335 337 341 343 344 344 344 344 343 342 341 341 342 343 344 345 345 345 344 343 341 340 340 341 342 342 342 342 343 344 345 343 344 342 340 340 340 339 337 337 337 336 336 335 334 336 336 337 337 339 341 339 339 339 339 339 340 340
336 337 336 334 337 339 337 341 341 344 343 343 343 341 341 342 341 343 344 345 344 344 345 345 342 340 342 342 341 340 340 342 342 342 343 342 345 345 342 340 339 339 338 337 335 336 335 336 334 334 336 335 337 339 339 340 340 339 338 339 340 340
335 337 338 337 338 339 341 341 342 342 343 343 344 342 341 341 341 342 343 343 344 343 344 345 343 339 339 338 339 340 341 342 342 342 342 342 343 345 343 341 341 341 340 337 336 335 336 335 335 335 336 335 336 337 338 338 339 338 337 337 338 340
335 335 336 336 337 339 340 340 341 341 342 342 342 342 342 343 343 342 342 342 339 341 342 343 338 335 336 335 336 339 341 340 340 340 342 341 341 344 344 342 341 340 338 337 336 335 334 336 336 336 337 336 338 337 337 337 339 339 337 336 337 336
337 335 335 334 335 337 339 340 341 341 341 341 342 342 342 343 342 341 341 341 340 339 341 336 333 335 337 336 338 339 339 338 339 340 339 340 340 340 341 341 339 338 337 337 336 337 338 337 336 336 337 336 338 339 338 336 338 339 339 337 338 334
340 338 335 334 335 337 338 340 339 338 339 339 340 340 340 340 340 340 340 340 340 341 340 334 335 336 337 338 339 339 338 338 340 340 336 336 337 332 332 335 337 337 338 338 336 337 338 337 337 334 336 338 335 335 337 336 337 336 336 338 339 336
340 338 338 339 341 340 339 339 340 339 341 341 339 339 341 340 339 339 338 337 338 340 340 336 336 337 336 338 338 338 337 338 338 337 337 337 336 333 334 334 337 338 336 335 335 335 336 336 336 334 334 336 335 335 333 333 333 332 333 336 336 336
337 339 341 341 341 341 340 339 339 339 338 340 339 339 338 337 336 335 336 336 337 339 338 339 339 338 338 337 336 337 337 338 338 337 336 337 337 338 338 333 335 334 336 335 334 333 334 335 334 334 334 334 334 334 333 335 335 333 332 333 333 332
339 340 340 340 340 339 338 337 337 337 338 337 337 338 338 337 336 335 336 335 336 337 338 339 340 340 339 337 336 336 336 337 338 337 337 338 337 338 338 338 331 332 333 334 334 334 333 334 333 332 332 332 334 334 335 336 336 335 335 333 333 332
339 339 339 339 338 337 337 336 336 336 336 337 338 337 337 336 336 336 335 335 336 338 338 339 338 338 337 335 335 335 336 337 337 336 337 336 336 336 336 336 330 328 331 334 335 335 334 333 332 331 331 330 332 332 333 334 335 334 333 334 333 331
337 338 338 338 337 336 336 334 333 334 334 335 336 335 335 334 335 335 336 336 337 338 336 338 338 338 337 335 334 334 334 336 337 336 335 334 334 333 333 333 330 328 327 329 332 333 333 330 330 331 330 331 332 334 331 332 333 332 333 333 331 331
336 337 337 337 337 337 335 334 335 335 333 333 332 333 332 333 334 335 335 335 336 336 336 337 337 337 336 334 333 334 335 335 336 336 336 334 333 333 333 332 330 330 328 328 328 330 331 331 328 327 328 328 329 332 331 331 330 332 332 330 328 327
334 336 337 339 338 338 338 338 336 333 332 331 331 330 329 331 332 333 334 335 335 336 335 335 336 336 335 334 334 334 335 335 335 334 333 333 333 332 333 333 332 329 331 329 328 330 330 330 326 326 325 324 325 328 328 330 329 328 329 326 326 327
334 335 336 338 338 336 335 335 336 332 330 325 325 328 327 328 330 332 333 335 335 336 336 335 336 336 336 335 335 334 333 334 333 332 332 332 332 332 333 332 332 329 326 329 329 330 330 331 326 326 330 326 322 322 325 329 328 327 327 328 328 326
333 333 334 337 336 334 332 331 331 330 329 330 325 325 328 328 329 330 329 331 334 335 336 336 336 337 337 335 335 334 334 334 334 334 333 331 332 331 332 332 332 330 329 324 324 325 330 329 331 327 320 321 322 321 315 321 322 325 328 325 323 322
331 331 333 333 332 331 329 329 327 327 327 325 326 326 327 326 329 329 328 329 329 332 335 335 336 337 336 335 334 335 334 334 333 333 333 332 331 330 331 332 333 332 331 328 324 325 326 329 331 330 326 319 317 319 318 321 323 321 326 320 319 318
329 330 332 332 331 330 330 328 327 326 324 325 322 323 323 323 324 326 323 325 325 328 332 335 335 336 335 333 332 333 333 333 333 333 333 333 331 330 330 331 333 333 332 333 330 325 323 327 329 329 331 330 328 320 320 321 321 314 322 324 318 316
327 329 332 331 330 331 330 330 330 328 327 326 322 321 322 324 324 321 324 326 325 327 330 334 335 336 336 335 334 333 334 334 334 333 333 332 331 331 329 330 332 333 332 331 330 326 324 324 326 327 327 328 327 328 330 322 318 318 314 316 316 315
325 325 328 330 330 331 329 328 327 326 326 325 324 322 323 323 323 323 324 324 326 327 327 331 334 334 336 335 335 334 334 334 333 333 331 331 331 330 331 331 331 332 332 332 331 328 325 325 324 323 327 326 326 328 329 328 324 319 315 309 308 312
322 323 324 326 327 328 329 329 328 326 323 323 324 323 323 322 321 324 323 324 325 325 326 328 329 332 333 334 334 334 335 334 334 333 331 330 332 330 330 330 330 330 332 332 333 331 327 325 326 323 324 325 327 326 326 327 327 323 312 307 308 309
319 321 323 325 326 327 327 327 327 327 325 323 323 323 323 321 322 324 323 323 324 325 325 327 327 328 329 330 332 333 333 333 333 331 329 330 329 330 330 331 331 332 333 331 331 330 328 327 327 327 327 325 322 320 317 315 314 310 313 311 307 309
319 319 321 324 325 324 325 327 327 327 327 324 324 324 321 321 320 322 322 322 323 323 325 324 325 326 325 327 328 328 328 328 328 327 326 327 328 327 328 328 329 330 331 330 330 329 327 327 328 326 322 321 319 318 316 314 312 311 308 309 309 309
319 321 321 322 323 323 323 324 326 327 326 326 325 323 323 321 321 321 322 321 321 323 323 323 324 325 325 325 326 325 325 325 325 326 326 326 325 325 325 326 327 328 328 328 329 328 327 325 323 321 320 319 318 317 315 312 310 311 310 308 310 310
319 320 322 323 322 323 323 323 324 325 325 325 325 325 324 322 322 321 321 322 322 322 322 323 324 324 323 324 325 325 324 324 324 324 324 323 322 322 324 325 326 326 326 326 325 324 321 321 321 317 317 318 315 313 312 314 313 311 313 313 312 309
318 318 319 321 324 323 323 323 324 324 324 324 323 324 324 322 321 321 322 323 323 323 323 325 324 323 321 321 322 323 323 323 322 321 321 321 321 321 323 323 324 323 322 320 320 321 319 320 320 320 319 315 315 314 314 315 314 313 312 310 309 309
318 317 319 320 322 322 322 322 323 323 323 323 322 322 322 322 321 320 319 321 322 324 324 323 322 321 320 321 321 322 322 321 320 320 320 320 320 320 321 319 320 320 318 318 319 319 318 318 317 316 319 316 315 314 313 313 314 313 312 313 311 311
320 319 319 320 321 322 322 323 322 321 321 322 322 322 320 319 318 318 319 319 319 322 322 321 320 320 319 320 321 320 319 319 318 319 319 319 319 319 320 319 317 318 316 316 318 318 317 317 317 318 317 317 314 312 315 313 313 314 313 314 313 312
323 322 320 321 321 324 325 323 323 324 323 323 323 322 322 321 320 318 316 317 319 320 321 321 320 320 320 320 320 320 320 318 318 318 319 318 317 318 319 319 318 317 315 316 316 315 316 315 316 315 315 317 314 313 313 315 314 314 315 315 314 314

ECMWFFLT2_sfc_thetae_012.txt.gz
Theta_e
343 351 351 347 349 346 348 348 349 349 347 347 349 350 350 350 349 349 349 349 346 346 349 349 347 346 347 347 347 346 346 346 346 345 344 342 342 342 342 342 342 342 341 341 341 341 341 342 342 341 342 343 343 345 344 344 344 341 341 339 340 339
340 347 348 346 346 348 349 349 349 346 347 349 350 351 351 348 347 350 349 349 350 347 345 345 346 345 349 346 348 345 344 346 346 345 344 342 342 342 342 342 341 340 341 340 341 338 341 341 341 342 342 342 345 344 343 343 344 342 340 341 340 340
341 345 348 342 343 348 351 350 346 345 346 346 346 347 344 346 342 345 344 346 350 350 348 347 350 347 347 346 346 344 344 344 345 346 345 344 343 343 342 342 341 340 338 337 341 336 338 340 342 340 342 345 344 342 343 343 342 342 340 339 340 341
343 346 349 349 350 348 350 348 345 346 347 350 347 343 343 344 346 345 346 349 351 349 348 350 343 344 344 348 347 343 342 341 341 343 344 344 343 342 342 342 341 338 339 340 338 334 337 340 340 342 342 341 342 342 342 342 338 340 341 337 339 340
345 347 348 349 348 348 345 343 344 345 346 348 348 346 345 345 347 348 347 349 347 348 346 346 348 348 346 347 344 345 345 345 344 344 343 342 343 338 342 340 340 341 340 339 336 337 337 339 342 341 340 340 341 341 341 341 339 340 341 341 341 340
344 346 347 345 344 344 344 341 342 344 347 350 349 349 346 346 347 349 347 345 347 347 344 345 345 345 347 345 342 344 340 343 345 344 341 343 340 342 344 341 340 337 337 340 338 338 338 339 340 339 339 340 341 341 339 339 339 340 342 340 340 340
342 343 345 344 345 341 345 343 342 346 347 346 350 350 346 345 346 348 347 346 345 344 344 345 344 344 343 343 344 345 340 343 344 343 345 344 340 340 339 338 339 338 337 336 336 337 336 337 340 338 340 339 340 340 339 340 341 341 341 339 340 339
341 342 343 343 342 343 346 342 342 344 345 344 344 344 344 344 345 347 348 348 347 344 343 343 343 343 342 343 341 341 343 343 343 343 345 345 340 338 336 337 339 337 335 336 335 336 334 335 337 340 340 341 340 341 341 341 344 343 341 340 340 340
340 340 342 342 340 342 342 343 342 341 342 340 340 339 338 342 344 345 348 348 347 347 346 345 345 345 346 344 343 344 342 341 342 344 343 345 342 340 338 337 338 336 336 336 335 335 332 333 336 340 340 339 339 340 343 344 344 341 341 340 340 339
341 338 341 342 341 341 342 341 342 342 342 340 338 336 336 339 344 344 347 347 347 347 346 344 346 346 345 345 343 344 343 342 342 346 346 344 343 341 338 338 336 336 334 336 337 336 333 333 333 338 339 338 339 341 343 342 343 343 342 341 342 340
339 341 340 340 340 341 341 341 342 342 339 336 336 336 336 339 347 348 349 350 348 346 347 347 347 347 344 342 343 344 342 343 344 346 346 344 345 343 341 339 338 338 337 337 336 335 332 334 335 335 337 338 339 339 340 343 342 342 341 342 342 342
338 341 340 338 340 341 343 343 343 340 337 337 338 336 338 345 347 348 350 350 347 345 345 344 344 343 342 342 342 343 344 346 345 344 344 343 344 344 342 340 340 341 339 339 337 336 335 334 335 335 336 335 336 337 340 340 341 342 340 342 342 342
337 341 341 339 339 342 344 342 341 340 338 338 338 344 345 346 348 349 349 347 347 346 345 345 345 346 345 345 346 346 346 347 347 346 346 345 344 344 343 342 342 341 340 340 337 336 334 336 337 336 338 337 339 338 337 337 341 342 340 341 338 337
341 339 342 342 342 342 344 345 344 340 342 342 346 345 343 344 344 344 345 347 347 346 345 344 345 346 345 346 346 346 346 345 346 348 347 347 344 344 341 341 338 339 337 338 336 337 336 336 335 336 338 338 339 340 338 336 338 341 343 342 338 338
342 341 343 341 341 343 346 344 344 345 345 346 346 341 338 343 344 344 344 343 346 346 345 345 344 344 343 344 344 344 344 345 346 347 344 345 344 345 345 342 337 339 340 338 338 339 338 338 338 338 339 340 338 338 340 339 339 337 339 342 343 341
343 343 343 342 344 345 345 346 346 343 345 346 344 343 343 345 345 344 344 342 344 346 345 344 343 344 344 344 343 343 343 345 346 345 343 344 345 343 343 342 343 341 338 338 336 337 338 338 339 339 340 340 340 338 338 337 337 334 337 339 339 342
342 342 344 343 344 347 348 346 347 346 344 345 341 339 341 343 344 343 343 342 343 342 343 343 344 344 344 345 343 344 343 344 345 344 343 342 342 343 342 339 340 342 342 340 335 335 336 337 337 338 339 340 340 339 339 339 338 337 336 336 336 335
343 343 345 346 348 348 346 343 343 341 341 338 337 338 338 338 339 341 341 340 342 343 344 344 344 344 345 344 344 343 343 343 343 343 343 341 338 341 340 337 336 339 340 340 334 333 335 335 335 335 337 337 339 338 338 338 337 336 336 336 337 335
342 345 349 349 347 346 344 342 340 341 339 338 339 339 337 336 337 341 341 341 341 343 343 343 344 344 343 342 342 343 343 343 343 342 343 341 332 335 335 336 338 338 340 340 335 335 338 334 334 334 333 334 335 337 338 337 337 335 334 336 333 333
341 347 347 348 345 341 339 337 336 337 335 334 335 334 336 335 338 336 338 341 342 343 343 343 343 343 342 342 341 341 342 343 343 342 341 337 335 334 335 338 336 338 337 337 338 337 337 335 336 336 334 334 334 335 335 336 336 335 336 334 333 333
342 345 345 344 342 340 338 336 336 333 330 331 332 333 333 336 336 337 339 341 341 340 341 342 342 342 341 340 340 340 340 341 342 342 341 340 334 335 337 340 337 338 336 336 337 339 338 338 334 332 333 332 332 336 336 336 336 335 333 331 331 330
342 344 346 342 343 340 338 334 333 330 330 330 329 329 330 335 337 337 338 340 341 340 341 341 341 341 341 341 340 340 340 339 339 340 340 339 333 334 337 337 337 335 337 335 335 337 336 336 330 327 325 325 328 329 334 335 331 331 331 330 330 331
344 344 346 346 337 338 338 339 335 333 330 327 330 334 332 335 335 334 337 339 341 341 340 339 340 341 342 342 342 341 339 339 339 338 337 337 336 334 335 336 336 335 333 335 334 336 337 335 326 329 329 325 320 321 327 329 329 328 329 330 329 328
344 344 345 345 340 343 343 343 342 339 336 333 331 336 338 336 335 334 334 334 338 341 341 340 340 340 341 341 342 341 340 339 339 341 339 338 338 333 331 334 336 337 336 331 330 330 335 335 333 330 322 321 321 319 317 317 321 325 327 327 325 325
345 345 346 345 344 343 341 340 338 338 336 334 334 333 332 331 333 333 333 333 333 335 336 339 340 339 338 339 341 341 340 339 339 339 339 338 337 338 337 338 337 336 335 332 329 330 332 335 335 335 329 324 320 316 316 320 321 322 327 323 322 323
342 343 344 344 343 341 339 335 333 329 326 326 325 327 326 327 328 329 328 333 333 332 332 334 335 335 335 335 338 337 336 334 335 336 336 336 336 336 337 337 337 335 332 333 332 330 329 333 335 336 336 336 333 322 319 322 320 314 323 323 322 321
337 337 339 341 341 340 337 335 334 331 328 327 324 327 329 329 328 327 329 329 330 334 332 333 334 334 334 334 334 333 333 332 331 332 333 333 331 332 330 330 337 335 334 334 334 330 330 330 333 335 336 336 335 330 331 321 320 318 315 318 319 319
331 333 335 338 339 340 337 335 333 331 329 326 326 325 328 329 329 328 326 327 328 331 332 332 331 331 334 333 333 331 332 332 330 329 328 329 331 330 332 334 338 338 336 335 334 331 329 331 329 330 334 333 331 333 334 331 326 320 317 312 311 317
329 331 332 334 336 337 338 337 333 331 329 329 328 328 327 327 327 328 327 327 327 327 331 332 331 332 332 330 331 330 331 331 330 329 327 328 331 331 333 334 336 336 334 333 332 333 331 329 331 330 331 331 330 328 327 329 330 326 318 313 311 312
325 327 330 331 333 335 336 336 333 331 330 328 327 327 327 326 327 328 326 327 326 326 327 330 332 331 331 329 330 330 330 331 331 329 328 331 331 331 332 333 334 335 334 333 333 332 331 331 332 332 331 330 328 326 326 325 324 322 318 318 313 310
323 326 328 330 331 333 334 334 332 332 331 330 328 327 325 325 324 325 325 326 325 325 327 328 329 330 330 329 330 331 331 329 330 330 328 328 330 329 332 335 337 336 335 333 333 334 333 333 332 331 330 328 326 322 320 318 319 318 316 315 314 313
325 327 328 329 331 333 333 334 334 333 331 331 330 327 325 323 323 322 323 323 323 325 326 327 328 326 328 329 329 330 331 329 328 329 328 329 330 331 332 333 336 335 334 334 334 333 333 333 332 330 328 325 324 324 322 320 318 317 316 315 316 314
328 329 329 329 330 332 332 333 334 334 332 332 328 327 325 324 323 321 321 321 323 322 324 324 324 325 327 328 328 328 328 327 327 329 329 328 329 330 331 332 335 335 335 334 334 334 332 330 327 324 322 321 316 316 316 316 317 316 316 317 317 312
327 330 331 329 330 330 331 333 334 334 333 330 328 327 325 323 323 322 321 322 322 323 323 324 324 325 325 326 327 328 329 329 329 329 328 329 329 327 327 325 329 330 330 330 330 329 327 327 326 323 321 316 316 314 315 316 316 316 315 315 314 314
325 326 328 328 329 330 331 331 331 331 330 330 327 326 324 325 324 323 322 323 324 324 323 323 322 325 326 327 328 327 327 326 327 328 328 327 327 327 327 325 325 327 326 325 323 323 323 323 321 319 320 316 315 315 314 315 314 313 314 316 316 316
325 325 326 327 328 330 329 330 330 330 331 331 328 327 325 326 326 326 324 322 324 325 324 323 325 325 327 327 325 324 324 324 325 326 326 325 324 323 324 322 321 323 322 321 322 321 320 320 321 320 319 317 316 315 318 316 317 316 315 317 318 318
324 326 327 327 328 328 329 329 329 330 329 328 327 325 324 325 326 327 326 325 322 323 324 324 324 325 325 325 325 324 322 322 323 323 323 322 321 320 320 320 320 319 320 320 319 318 318 318 319 318 319 319 317 317 317 319 317 317 317 317 318 318

ECMWFFLT2_sfc_thetae_015.txt.gz
Theta_e
348 347 347 350 348 346 345 345 345 347 347 348 349 348 350 349 349 348 349 349 348 344 344 345 346 344 347 346 346 346 345 344 343 344 343 342 342 341 341 341 341 341 341 342 340 341 342 342 343 342 343 343 342 344 344 342 340 340 336 337 338 338
347 348 347 349 349 345 345 345 345 346 346 347 348 349 349 347 347 348 347 348 347 347 343 344 346 345 343 346 346 345 344 344 343 343 343 343 342 341 341 341 342 342 341 341 342 339 341 343 343 343 343 344 345 342 343 341 342 337 337 340 338 341
348 346 347 343 343 346 344 349 345 346 347 347 348 348 346 345 344 344 345 345 348 349 345 346 345 343 343 343 344 344 344 344 343 343 343 343 342 341 341 340 340 340 343 341 339 338 337 338 343 344 344 345 344 342 343 341 339 340 336 339 338 342
345 345 345 343 346 345 347 347 346 346 346 346 344 343 344 343 343 343 340 345 346 342 343 343 344 345 342 343 345 344 344 343 343 343 343 343 342 342 341 341 340 341 340 340 338 337 336 340 339 341 342 340 339 341 339 338 338 339 337 338 337 341
349 345 345 344 343 344 342 347 345 345 346 345 341 341 341 342 346 346 343 342 342 340 339 340 343 344 343 343 341 341 342 341 342 342 343 340 341 341 341 338 337 337 339 339 337 338 338 340 343 340 341 341 341 341 341 339 339 336 337 339 341 341
342 347 346 342 341 343 344 345 345 346 346 345 344 343 344 343 347 348 346 339 337 341 342 343 344 342 341 338 343 341 338 344 337 340 342 342 342 339 337 337 336 336 338 339 338 338 339 340 341 340 341 342 341 341 339 337 337 339 338 337 341 341
339 341 344 344 342 340 341 343 342 344 343 344 343 345 342 342 346 346 346 342 341 339 341 342 342 341 339 337 339 344 345 343 344 343 341 343 340 338 341 342 340 338 340 339 337 336 336 338 341 338 339 338 340 338 340 339 339 339 338 336 339 341
345 341 340 344 343 343 344 345 345 344 345 344 346 344 343 344 345 345 343 342 343 344 343 343 343 341 337 337 340 342 341 340 340 341 343 342 339 339 338 340 338 338 336 337 336 336 335 336 338 341 338 339 338 339 339 339 339 341 339 337 337 340
340 341 346 343 343 343 342 343 344 344 345 345 347 346 346 347 346 347 345 345 342 344 340 340 341 341 342 340 345 342 339 339 337 342 339 342 337 336 337 337 337 336 338 336 335 337 334 335 339 339 339 337 337 337 337 338 340 338 339 339 336 339
342 339 341 342 341 342 342 342 342 343 344 344 344 346 348 346 348 346 346 344 341 341 343 344 340 340 340 339 340 337 339 342 344 343 343 341 340 338 337 339 337 336 332 336 334 335 333 335 336 338 336 336 338 340 339 339 338 340 338 340 337 339
342 345 342 342 342 342 343 343 342 345 344 345 345 345 346 346 346 346 346 343 340 339 342 344 341 338 342 342 342 341 340 343 343 340 342 341 342 341 339 338 337 335 336 336 335 332 333 334 336 335 337 333 335 340 336 339 337 338 336 340 338 336
341 344 344 341 342 341 343 343 344 345 345 344 346 345 343 344 344 345 344 342 339 336 339 343 343 342 344 341 341 342 342 342 340 340 341 343 341 341 340 337 338 339 339 338 336 336 336 334 335 333 333 333 334 336 336 337 336 337 338 339 337 338
342 341 341 340 339 341 343 340 343 343 345 345 345 344 343 344 344 343 343 340 339 338 340 338 344 343 343 342 339 342 342 340 339 337 338 341 341 342 342 340 340 337 338 338 336 335 333 333 335 334 335 333 336 333 333 333 339 338 339 340 339 338
342 341 343 341 343 343 344 340 342 344 343 345 344 343 345 344 344 341 340 337 338 339 339 345 343 345 342 343 341 340 339 339 337 336 341 345 344 341 339 339 338 338 337 336 336 336 334 334 333 335 333 334 338 337 337 335 337 339 342 336 339 338
341 340 340 340 340 342 342 341 341 343 344 346 345 344 345 342 342 342 339 337 338 339 338 340 338 339 341 342 339 340 339 342 342 342 340 341 342 342 340 339 336 336 337 336 335 336 338 336 336 336 337 336 335 332 337 339 337 336 337 340 339 339
341 341 342 343 343 344 342 340 340 342 344 346 344 341 343 343 342 344 343 342 343 341 339 338 341 338 338 339 338 340 343 340 341 341 342 338 341 341 340 340 339 338 334 334 333 333 337 337 336 336 336 339 338 336 337 334 333 343 336 338 335 340
340 341 341 341 342 336 337 337 337 343 341 344 341 341 342 342 343 342 342 341 341 340 339 340 342 342 337 340 341 341 340 339 342 340 341 338 338 341 340 341 340 340 338 335 332 331 334 336 333 335 335 334 337 336 337 337 336 337 333 334 336 335
342 339 340 337 335 335 341 339 335 336 341 337 335 336 340 340 340 341 340 339 341 342 343 344 341 340 343 339 340 339 341 341 338 338 339 338 339 341 341 341 339 341 340 336 333 332 333 334 333 331 334 334 336 336 336 337 337 335 335 335 334 335
340 337 340 343 341 338 339 338 341 338 336 337 336 336 339 336 336 339 344 341 342 341 339 340 342 342 341 345 341 340 340 343 337 337 339 339 336 341 342 342 337 339 340 337 339 336 337 335 334 331 332 332 337 334 336 335 336 336 336 335 332 332
340 340 342 342 338 335 334 333 335 338 335 333 333 331 334 334 337 337 340 342 342 343 338 339 339 341 342 339 342 341 340 337 339 339 339 337 337 338 339 339 340 338 338 337 335 337 337 335 334 332 330 333 336 334 331 334 335 335 336 334 334 334
339 342 340 338 334 332 331 333 332 331 329 330 329 331 332 335 338 336 341 340 340 340 341 339 340 340 338 339 341 341 339 339 338 337 336 339 342 338 339 341 340 339 337 336 334 334 335 334 331 329 331 330 331 334 333 334 335 335 334 333 333 332
341 340 337 337 337 332 334 331 331 329 329 326 326 327 330 334 336 338 340 342 342 341 341 339 338 340 340 340 340 340 340 340 337 335 338 339 340 340 341 338 339 336 337 334 333 335 335 334 327 325 324 325 329 330 332 332 331 331 332 330 330 330
333 334 335 338 335 337 338 336 333 330 328 327 332 333 331 333 334 335 338 339 341 342 341 339 341 340 336 339 341 339 338 339 338 335 336 336 337 340 338 337 338 335 333 335 334 336 336 335 327 328 329 325 322 321 324 329 329 329 329 330 329 327
326 324 330 339 334 339 339 337 336 334 336 333 329 333 335 335 333 333 334 336 341 341 340 338 339 338 338 338 340 338 338 337 338 335 335 337 337 338 339 338 337 336 335 330 329 331 335 337 334 326 320 320 322 320 316 320 322 325 328 326 325 326
330 332 335 336 341 340 336 335 334 333 330 331 333 330 330 329 331 331 332 333 334 336 340 339 339 337 338 337 338 338 336 336 336 337 335 335 337 337 337 338 338 337 332 333 328 331 334 337 335 334 329 320 318 317 316 321 322 322 326 323 324 324
335 334 333 337 340 337 334 331 329 327 326 327 326 327 326 325 326 328 327 333 332 332 333 334 335 335 337 338 338 338 338 337 339 337 335 332 334 336 336 336 334 336 334 335 331 328 329 335 337 332 331 328 326 320 316 322 322 316 325 325 324 323
333 333 334 335 338 335 333 331 331 329 328 328 326 328 330 330 328 326 329 331 330 333 331 332 333 332 333 333 333 333 333 332 331 333 334 336 334 334 335 333 334 333 332 333 333 329 329 331 333 335 330 329 330 331 330 321 319 319 315 319 322 321
334 332 332 331 336 334 331 332 331 329 328 326 326 325 328 328 328 327 326 327 329 329 330 331 330 330 331 331 331 330 331 331 329 329 328 328 329 329 329 330 334 334 333 332 333 330 329 331 329 329 333 330 327 330 330 330 327 319 318 313 314 318
335 335 338 336 335 334 334 333 331 329 326 326 325 326 326 326 326 327 326 326 328 328 330 331 330 331 331 330 330 331 331 330 329 329 327 327 330 329 330 335 336 335 333 333 333 334 332 330 330 329 330 331 330 328 329 330 329 325 320 314 312 314
331 337 340 338 338 335 332 332 329 329 327 324 325 325 325 325 326 327 326 327 326 326 327 330 331 331 330 329 330 331 330 330 330 329 328 328 329 332 333 335 336 336 335 335 334 334 332 331 330 331 331 330 327 326 325 324 325 325 320 318 312 312
327 333 337 339 338 335 332 330 329 329 328 326 325 325 324 324 324 325 324 325 325 325 327 328 330 331 330 330 331 331 330 329 330 330 329 327 329 328 333 336 337 337 336 334 333 333 332 333 329 330 329 327 325 325 323 319 321 318 317 315 313 313
329 332 335 336 338 336 332 332 333 331 329 327 325 324 323 324 323 324 325 324 325 326 327 328 329 327 329 330 331 330 330 330 329 330 329 330 329 331 335 335 335 333 333 335 334 333 332 332 330 329 327 324 323 324 322 320 318 319 317 315 316 314
329 331 332 335 336 336 335 333 331 330 331 329 326 324 323 322 323 322 323 323 323 324 324 325 326 326 328 329 329 329 329 327 329 330 330 329 330 330 332 333 334 333 333 332 332 332 331 331 329 326 323 323 321 321 320 319 320 318 319 319 317 312
330 331 333 334 335 334 334 334 335 334 332 329 326 327 325 323 323 323 323 323 324 324 324 325 325 325 328 329 329 330 330 330 329 329 329 329 329 328 328 328 332 332 330 332 331 329 327 326 326 324 321 317 318 316 316 317 318 318 318 318 314 313
333 334 334 333 334 334 333 336 336 335 333 330 326 325 324 324 325 322 323 325 326 326 325 325 324 327 327 327 327 328 328 329 329 329 329 328 327 328 328 326 326 327 325 325 325 325 324 323 321 320 320 316 315 315 314 313 313 315 315 318 317 316
331 331 331 331 332 334 335 336 336 335 333 329 325 326 324 325 325 325 325 326 326 326 325 323 325 326 326 325 323 323 324 326 327 327 326 325 325 325 326 325 323 323 321 321 322 321 321 321 321 320 318 318 317 315 317 315 316 315 315 318 319 318
330 329 330 330 332 334 335 334 334 334 332 328 326 325 325 326 326 326 326 326 326 325 325 324 324 326 325 324 323 323 323 323 324 324 323 322 321 321 322 321 321 320 320 321 321 318 319 319 320 321 320 320 317 318 317 319 318 318 319 319 318 318

ECMWFFLT2_sfc_thetae_018.txt.gz
Theta_e
347 346 346 346 346 344 344 345 346 348 348 348 349 349 349 349 349 349 348 348 346 346 345 345 345 345 347 345 346 345 345 345 344 344 343 342 342 342 342 342 342 341 342 342 342 341 341 343 343 344 344 344 345 342 340 340 333 337 336 336 337 338
342 344 347 346 343 343 343 343 343 345 347 348 349 349 348 347 347 346 349 346 344 346 344 344 344 345 344 345 345 345 344 344 344 343 342 342 341 341 341 341 342 342 342 342 341 339 339 342 343 344 345 345 343 340 342 338 338 335 335 336 338 341
341 343 343 345 344 343 342 344 344 343 344 345 346 345 344 344 343 345 343 342 344 345 345 345 346 343 343 345 344 344 344 344 344 344 343 342 341 340 340 341 342 342 342 342 341 338 337 337 340 344 344 343 341 341 342 342 335 336 335 337 338 342
341 342 342 343 345 342 343 344 343 343 343 343 343 342 343 343 342 342 341 343 344 345 345 346 345 345 344 344 343 344 344 343 343 343 343 342 341 340 340 341 341 341 341 340 334 333 335 337 339 339 340 341 339 340 341 340 335 335 335 339 339 343
344 342 342 342 343 341 344 343 341 342 342 342 341 341 342 341 343 340 338 341 341 341 342 343 342 341 340 345 342 342 342 341 341 341 343 340 339 338 339 335 335 338 336 334 333 334 335 336 339 338 339 339 339 338 340 338 335 334 334 338 340 342
340 341 343 342 343 343 344 343 344 344 341 341 340 339 340 340 341 342 340 341 342 341 341 342 341 340 342 342 343 342 339 340 339 339 341 343 341 341 335 335 333 332 333 337 336 336 337 341 338 336 336 339 340 341 337 334 335 335 336 338 340 342
340 341 341 340 342 343 342 342 343 344 341 340 339 339 339 339 337 342 340 340 340 341 341 338 338 340 340 341 341 342 342 344 342 343 339 339 340 341 337 336 336 335 336 337 336 334 336 338 339 336 338 337 337 337 338 334 335 334 335 337 341 342
341 341 342 343 342 342 343 343 342 344 343 343 343 338 336 339 340 341 340 340 340 339 339 340 340 340 340 340 340 342 344 343 344 343 345 345 338 339 337 340 338 337 336 334 335 334 333 334 338 342 335 337 340 335 336 338 335 334 333 336 338 341
339 340 341 343 341 341 342 342 342 342 341 344 340 339 337 337 338 342 340 340 341 340 340 339 339 340 339 337 339 338 341 341 341 341 341 341 341 340 338 338 338 336 335 334 335 336 332 333 337 338 336 335 335 335 335 338 336 334 333 334 336 340
339 340 340 341 341 341 341 342 342 339 343 340 339 337 338 337 336 340 339 339 341 343 342 340 335 337 337 336 336 338 338 341 341 340 341 338 341 337 336 335 336 335 331 332 333 337 332 333 333 336 336 333 334 336 336 337 335 341 334 334 336 339
342 342 340 340 342 342 343 339 339 337 337 337 339 339 339 339 339 340 340 343 342 343 343 340 335 335 336 336 334 338 339 341 341 338 340 339 338 338 336 332 334 334 332 336 334 332 331 332 333 333 336 334 334 334 335 338 336 334 335 333 335 337
342 342 340 339 340 339 338 338 337 340 341 340 340 340 337 338 339 339 342 343 343 341 342 340 338 336 336 335 336 335 338 339 338 340 340 339 340 338 335 334 333 336 339 336 334 331 337 333 331 335 334 334 335 337 339 337 336 338 342 334 333 335
339 339 339 340 339 336 335 336 336 337 341 341 342 341 339 340 338 339 343 341 340 339 340 342 340 336 333 334 336 337 338 340 342 340 339 338 337 337 336 335 334 339 339 339 336 332 332 333 332 331 333 333 334 336 338 335 336 337 335 339 339 335
339 337 337 336 336 337 337 339 338 338 338 340 343 341 344 344 344 342 342 341 340 340 340 340 339 339 336 336 337 338 339 341 339 338 337 337 337 336 336 334 333 339 337 336 332 333 332 331 333 334 334 334 334 336 337 335 335 336 338 334 339 338
338 334 336 335 337 336 335 334 336 340 340 343 342 343 343 342 342 342 341 339 340 340 340 339 339 342 341 339 340 340 337 337 340 338 338 338 338 336 334 333 333 332 334 335 335 335 333 334 336 335 334 338 334 335 338 337 337 334 336 337 336 336
335 334 336 337 337 338 337 337 339 340 343 343 344 341 346 344 343 343 341 338 337 339 337 338 340 341 340 340 340 340 339 338 340 339 336 339 338 336 334 334 335 332 332 331 332 334 335 334 335 336 337 335 336 335 337 335 334 336 337 338 336 338
334 335 336 335 338 338 340 339 339 344 342 344 342 342 344 345 345 346 348 342 342 341 339 340 341 340 340 340 338 338 339 340 339 337 337 338 336 337 334 333 332 334 333 330 332 333 334 334 334 334 334 335 335 334 336 337 333 335 335 336 334 338
338 339 340 339 337 337 339 339 340 339 342 338 339 341 342 341 341 342 344 343 342 343 342 340 341 339 340 340 337 336 334 338 335 335 335 337 336 336 335 335 332 336 333 331 333 331 331 332 332 332 332 335 335 335 336 338 335 338 336 333 334 336
339 340 340 339 339 341 341 341 340 340 338 339 339 340 342 340 340 341 342 342 342 342 342 340 339 339 339 338 338 336 334 333 335 337 336 336 337 333 333 336 335 334 335 335 334 333 332 331 331 331 331 333 333 334 334 335 335 334 336 334 333 334
340 342 341 341 339 338 339 338 337 338 336 338 337 336 342 341 339 339 343 345 341 344 341 340 338 340 340 337 336 334 335 336 337 338 337 335 333 332 333 335 334 335 334 332 332 332 335 331 332 331 331 332 332 332 331 334 332 333 336 333 332 333
340 342 340 337 337 337 335 335 337 336 335 336 333 335 336 338 339 338 340 340 340 342 341 341 340 340 338 334 336 336 335 337 339 338 338 336 335 331 335 335 335 335 332 331 331 334 335 332 329 327 329 330 330 333 332 333 334 331 331 332 332 329
336 339 339 337 335 336 335 333 332 331 332 332 329 329 330 335 337 338 340 341 341 343 342 342 340 340 340 337 334 335 335 336 338 336 338 340 339 336 334 333 334 334 334 333 331 335 335 332 327 325 324 324 327 328 331 331 330 328 329 326 326 326
336 335 335 334 335 334 335 334 331 328 329 331 330 334 330 333 335 334 340 340 341 340 340 338 340 340 334 334 333 333 333 335 335 336 336 336 337 337 336 334 335 332 327 330 332 333 332 332 326 326 327 323 318 319 324 328 328 328 328 328 326 324
333 333 335 334 332 333 332 331 330 334 331 332 331 333 335 337 334 333 334 337 342 342 339 337 337 335 336 335 334 333 333 332 336 337 337 336 336 335 336 337 335 332 331 325 328 328 332 331 330 325 318 319 319 319 313 317 321 327 326 323 325 322
331 334 337 335 332 330 329 329 331 333 332 331 334 335 336 333 334 331 333 335 336 338 339 336 337 335 336 334 336 335 335 335 336 337 337 337 337 336 336 336 335 332 331 327 325 327 327 329 330 331 325 318 316 314 314 318 319 322 326 322 320 320
333 335 336 337 334 330 331 330 330 328 330 332 329 333 331 328 328 334 327 336 333 333 334 335 335 335 335 335 336 337 337 335 335 335 335 336 337 338 337 335 333 333 331 331 329 324 324 329 330 329 331 329 326 319 316 320 319 313 324 323 323 320
335 336 339 340 335 333 334 332 331 330 331 332 331 333 337 335 333 329 339 335 333 341 332 334 335 336 335 335 335 335 334 334 333 334 335 336 334 335 334 332 336 335 334 333 333 326 324 325 330 329 330 330 330 328 327 320 316 317 311 317 318 316
334 334 334 336 339 339 336 334 335 334 334 330 329 330 332 330 333 329 332 334 330 337 334 332 337 333 334 335 337 334 333 333 333 333 333 332 334 336 335 335 334 336 335 333 331 328 326 325 325 326 329 328 327 328 328 327 324 322 315 310 309 315
333 333 332 334 337 335 334 336 336 332 327 326 327 329 327 330 331 335 334 341 337 329 332 333 330 334 335 333 335 333 334 335 334 334 329 328 332 331 334 333 334 334 335 333 334 331 331 327 326 326 328 326 328 327 325 326 327 325 321 311 309 310
332 332 333 333 335 334 335 336 334 331 325 326 327 328 328 329 330 336 332 330 334 332 330 336 337 335 335 331 333 335 333 331 332 328 328 328 331 333 333 335 335 337 335 333 333 333 331 332 329 327 330 329 326 325 324 324 324 322 320 320 309 309
332 332 333 332 334 332 334 333 332 329 327 326 328 329 327 327 329 332 327 331 335 333 336 330 333 334 334 332 334 335 333 332 332 332 330 328 331 330 334 335 336 335 334 332 332 331 330 331 330 328 327 328 326 324 322 320 320 320 318 314 310 310
332 332 332 335 334 330 333 332 332 331 328 328 327 327 326 327 327 325 328 330 333 332 330 331 331 330 333 333 335 334 334 332 332 332 331 331 331 331 335 336 334 333 332 333 332 331 331 328 328 327 328 326 326 325 325 322 321 322 319 315 312 310
331 334 334 335 334 332 334 331 332 331 330 330 329 328 328 328 330 328 330 330 328 330 330 328 329 329 331 334 334 334 331 330 331 331 330 328 330 332 334 334 332 330 331 330 330 329 328 327 328 327 324 327 325 323 323 323 328 323 321 320 317 308
332 334 336 336 334 332 333 332 333 333 332 330 330 330 329 328 331 329 329 329 331 329 329 327 328 330 333 332 331 330 330 329 331 330 329 331 330 328 329 330 330 329 329 330 330 329 328 327 326 324 324 315 316 313 313 318 318 321 320 318 316 313
332 334 335 335 334 333 332 333 333 334 332 330 330 330 330 330 331 329 331 330 333 332 327 328 328 329 328 328 331 331 331 330 331 332 331 330 332 330 329 324 325 328 328 328 327 325 324 322 320 319 320 318 314 313 320 315 317 320 319 325 319 313
331 331 333 333 333 333 332 333 333 333 333 331 329 330 327 328 331 333 333 333 331 330 328 327 328 329 329 326 327 328 329 330 330 330 329 329 327 325 325 324 323 322 320 322 322 321 318 319 321 321 320 321 317 316 318 317 317 314 318 316 316 315
332 333 333 333 333 334 334 333 332 333 332 330 330 328 327 329 330 332 333 332 330 326 327 327 327 330 328 329 329 328 326 326 325 323 323 323 324 323 322 322 321 320 319 319 319 318 320 319 319 318 316 317 318 316 315 318 318 318 318 319 319 324

ECMWFFLT2_sfc_thetae_024.txt.gz
Theta_e
344 344 344 345 345 343 345 349 349 349 349 349 349 349 349 349 349 348 347 347 346 345 344 345 345 345 347 345 346 347 346 346 345 344 344 343 343 343 343 343 342 342 342 341 341 341 342 342 342 344 345 345 342 332 330 331 331 333 333 334 336 334
343 343 344 344 344 345 346 347 345 345 347 348 347 347 346 345 348 344 347 345 344 345 343 342 344 347 344 345 344 346 345 345 344 344 343 343 343 342 342 342 342 340 341 340 342 330 332 339 340 342 345 342 334 331 332 332 332 333 334 333 335 339
343 343 343 342 343 343 344 344 344 344 345 347 347 346 344 343 340 341 342 343 344 342 342 344 344 345 345 345 345 346 345 344 344 343 343 342 342 342 341 341 341 341 341 341 332 328 329 329 330 340 341 335 331 330 331 332 332 333 333 334 333 341
342 341 340 338 339 339 342 341 341 342 342 342 341 342 340 339 340 341 341 340 341 343 341 341 347 348 347 344 343 345 345 344 344 342 342 341 341 340 341 340 340 341 338 336 328 328 329 329 329 330 332 332 330 330 331 332 332 333 334 338 335 342
340 339 338 337 338 337 337 338 338 340 340 339 339 339 338 338 339 339 339 339 339 339 338 339 340 341 340 341 339 339 340 338 338 337 341 331 331 331 331 327 325 332 326 328 329 325 326 327 328 332 331 332 331 331 332 333 333 333 333 334 335 341
338 337 337 336 337 338 337 337 337 338 338 337 338 338 337 336 337 338 339 340 339 337 337 338 339 339 338 337 336 336 336 336 334 334 336 330 331 329 329 329 328 328 328 328 328 328 327 330 328 331 331 332 330 330 331 331 333 333 333 333 337 341
337 337 337 339 338 337 336 336 336 336 335 335 336 336 336 336 337 338 339 340 337 335 335 336 336 336 335 335 334 334 334 334 333 333 334 331 331 331 329 329 329 330 328 329 329 330 330 330 329 329 330 331 330 331 331 332 332 332 332 333 339 341
337 337 337 337 335 335 334 335 335 339 337 340 337 334 334 336 338 338 339 339 339 335 334 335 334 333 332 332 332 334 333 331 331 331 333 331 330 330 330 329 331 330 329 328 328 328 329 331 330 330 330 330 330 330 331 331 332 332 332 334 336 341
336 334 334 335 334 334 333 333 333 334 336 341 334 334 335 337 336 337 338 339 340 335 335 335 333 332 331 332 332 333 332 331 332 331 333 331 332 330 329 329 329 328 328 327 327 328 329 330 330 330 330 330 330 330 330 331 332 332 332 331 334 338
336 334 335 335 332 332 332 332 332 334 335 338 333 333 336 335 336 336 336 337 338 336 335 334 332 330 331 329 330 330 332 331 331 330 330 330 329 330 328 328 329 329 329 327 327 330 329 329 331 330 330 331 330 330 330 331 332 332 333 333 334 335
335 335 335 333 331 331 333 332 333 333 334 333 333 334 335 334 335 336 336 337 338 337 334 332 331 330 329 329 329 330 329 330 329 329 329 330 332 331 330 329 330 329 328 327 327 328 329 328 328 330 330 330 330 330 330 331 331 332 333 332 332 332
335 335 334 332 332 331 331 332 333 333 333 333 333 333 334 334 337 335 336 336 337 336 333 331 331 330 329 328 328 328 329 330 328 329 329 330 330 331 331 331 332 331 329 328 327 328 327 329 328 328 328 330 331 330 330 331 331 332 333 331 331 331
334 334 332 331 331 331 331 332 332 332 333 334 333 334 334 334 334 333 335 335 335 336 334 332 330 331 331 328 328 328 327 329 331 331 330 330 331 331 332 331 331 331 329 327 327 327 330 329 326 326 327 330 331 331 331 331 331 332 332 330 331 330
333 332 331 331 331 331 331 331 332 332 333 333 333 333 334 334 335 334 336 335 334 336 334 332 331 329 329 328 328 327 329 333 333 330 330 329 329 330 329 329 329 329 331 327 326 326 327 325 325 327 327 328 328 328 329 330 330 331 332 332 331 331
332 332 333 331 331 330 330 331 331 331 331 332 333 331 332 333 332 333 335 334 334 335 334 332 330 329 328 328 328 329 330 331 331 329 329 327 328 328 329 328 328 327 327 327 327 327 327 325 327 327 326 327 328 329 329 329 331 331 332 331 331 330
332 331 330 332 330 330 330 330 331 334 331 331 332 332 331 332 333 334 334 334 334 335 334 333 332 330 329 328 330 331 330 330 330 330 329 328 327 327 327 328 327 328 325 325 327 327 327 327 328 328 327 328 329 330 328 328 329 330 331 330 330 328
331 330 330 330 330 329 329 329 330 332 331 331 332 331 331 332 334 335 334 334 333 334 332 334 334 332 331 331 331 330 330 331 331 331 329 327 326 328 328 328 327 328 326 325 327 327 328 328 328 327 327 327 328 328 327 328 329 329 331 329 327 327
331 331 331 330 330 329 329 330 330 331 334 332 332 332 332 333 334 333 333 333 333 333 332 333 334 333 331 331 331 330 330 330 330 330 329 328 327 326 326 327 326 326 327 326 325 326 326 327 328 327 327 327 326 328 328 328 328 331 326 326 327 327
331 331 331 330 330 330 330 330 330 332 333 333 333 332 333 333 333 333 332 332 333 333 333 331 333 332 331 330 328 329 329 329 330 328 328 327 326 326 327 325 325 325 327 327 326 326 326 328 329 328 327 325 326 326 327 328 328 327 326 326 327 329
331 331 331 331 331 331 331 331 332 332 331 330 329 333 332 332 333 332 334 334 334 332 333 332 331 331 330 328 327 327 328 328 329 329 327 325 324 326 326 324 323 326 325 327 327 326 326 327 326 325 324 324 325 326 326 326 326 326 325 325 326 326
330 331 330 330 330 330 331 330 328 329 328 328 329 329 331 330 331 331 334 336 335 333 332 333 333 331 329 332 327 326 327 327 329 329 328 326 325 325 326 324 324 324 324 324 324 325 326 326 324 320 322 322 322 324 330 327 326 326 327 326 325 324
330 331 330 330 330 330 331 331 328 327 325 324 326 328 326 326 330 333 334 334 333 333 331 332 332 331 330 328 327 327 326 326 328 328 328 327 325 329 328 327 325 323 323 322 323 327 328 323 319 318 317 315 317 319 322 321 324 324 324 324 323 322
331 330 330 330 330 329 325 325 325 323 326 324 327 328 329 330 332 332 332 333 333 332 332 332 331 331 330 328 328 328 328 328 328 330 327 325 325 326 326 327 324 323 321 320 323 324 324 320 319 318 316 316 312 312 316 315 319 321 322 320 322 323
330 329 329 330 329 326 327 323 322 323 324 325 325 328 328 328 330 331 331 332 331 331 331 330 331 331 329 327 327 327 327 328 328 329 328 326 325 325 325 325 323 322 323 322 318 320 323 321 319 319 313 310 311 309 308 311 312 314 319 320 320 320
328 327 327 328 326 324 324 323 324 324 324 324 325 324 324 323 326 330 329 328 328 329 329 329 329 330 329 326 325 326 327 327 326 325 327 325 326 326 326 326 324 323 322 322 318 317 320 323 323 321 317 312 309 307 306 310 309 310 313 314 317 318
324 324 325 324 323 324 324 322 321 321 320 320 319 320 321 323 324 326 327 326 328 329 329 327 327 329 328 328 326 326 326 328 327 326 327 325 327 327 326 326 325 324 321 322 322 318 317 320 321 322 318 314 313 309 310 311 307 304 311 312 315 318
324 323 323 322 323 323 321 321 321 321 321 320 318 317 319 323 324 323 326 326 326 326 327 327 325 325 326 326 325 325 326 327 328 326 328 327 327 326 327 328 327 324 323 323 321 318 319 317 319 319 320 320 322 317 316 311 305 306 305 308 311 313
323 323 322 322 322 322 320 318 319 319 319 318 318 317 319 320 320 322 322 323 324 323 324 325 324 322 323 325 325 324 325 326 326 327 327 328 328 326 327 327 326 324 325 324 322 320 318 318 319 317 320 318 318 318 316 315 311 309 306 306 306 311
323 323 322 322 322 320 320 320 321 318 316 316 317 318 319 320 320 321 319 319 320 319 319 321 322 323 323 324 326 324 323 323 323 326 329 326 325 327 325 324 324 323 324 323 321 321 321 319 318 319 318 318 315 316 318 317 315 310 306 306 304 307
323 323 322 320 322 321 320 321 318 316 315 315 316 315 316 317 317 319 318 317 317 318 319 319 319 320 320 322 321 321 321 322 322 324 326 324 323 324 325 325 325 324 323 323 321 322 322 320 321 321 321 319 315 314 316 315 312 308 308 307 306 306
323 322 322 321 320 319 319 319 317 316 315 314 314 315 315 314 315 317 317 316 317 317 319 319 319 319 319 320 320 320 319 319 321 327 323 323 323 324 324 324 324 323 322 322 321 320 319 319 320 320 320 320 318 318 315 313 313 309 307 305 305 305
322 321 321 320 320 319 318 318 317 316 315 315 315 315 314 313 315 316 317 316 316 317 317 318 317 318 319 319 320 319 320 321 322 322 322 323 322 324 324 325 324 324 323 323 323 322 319 319 319 320 319 319 318 318 316 315 315 312 308 307 307 305
321 319 320 319 320 317 316 317 317 317 316 316 315 315 314 313 313 315 317 317 316 316 316 318 317 318 317 318 318 319 319 319 321 322 323 323 323 323 324 323 324 323 323 323 323 322 320 319 320 320 319 318 319 318 317 316 317 313 309 308 308 305
320 319 319 319 319 317 316 317 318 318 317 316 315 315 315 314 314 316 318 317 316 316 316 316 316 317 318 318 318 318 318 317 317 319 322 323 323 323 323 323 322 321 321 319 319 318 318 317 318 317 317 318 317 317 317 317 316 312 309 308 305 305
320 320 319 319 319 318 317 317 318 317 316 316 316 315 315 316 315 316 316 317 317 317 317 316 318 316 318 318 317 317 317 317 317 318 320 322 323 321 321 322 320 319 317 315 315 313 311 312 314 313 311 312 311 312 311 309 316 313 310 310 308 305
322 321 320 320 320 319 318 318 317 317 316 317 318 317 317 316 315 316 316 318 317 317 317 317 316 317 316 317 317 316 314 313 315 318 319 318 318 319 318 318 315 313 312 315 312 311 309 309 308 308 308 308 309 308 309 309 315 314 311 311 308 305
323 322 321 320 321 319 319 317 317 317 317 316 315 315 315 314 316 317 318 318 317 317 316 316 316 315 316 315 313 312 312 312 314 315 315 315 315 315 315 314 313 311 311 310 310 308 308 309 308 308 308 308 308 307 307 310 313 314 311 309 307 304

ECMWFFLT2_sfc_thetae_027.txt.gz
Theta_e
346 345 345 345 342 344 348 349 349 349 349 349 348 349 349 349 348 347 346 346 345 343 342 344 344 344 347 345 346 346 346 345 345 344 344 344 344 343 343 342 342 341 341 341 341 342 341 340 343 344 344 342 341 330 329 328 329 332 331 332 334 331
345 344 344 343 342 343 346 346 345 346 347 346 347 347 345 345 347 344 346 344 342 344 341 342 344 347 343 345 344 346 345 345 344 344 344 343 343 342 342 342 341 340 341 341 342 331 332 338 341 343 343 341 330 328 329 329 330 331 331 329 333 337
344 343 342 341 341 343 343 342 342 344 345 346 345 346 343 343 340 341 341 341 342 341 341 342 342 344 344 345 344 345 345 345 345 344 343 343 342 342 341 341 341 340 341 340 330 328 329 327 329 341 341 332 328 329 329 330 330 331 330 329 329 340
343 342 340 339 340 340 341 341 340 340 341 341 341 340 339 339 340 340 340 339 339 341 339 339 347 347 347 342 342 345 344 344 343 343 343 341 341 341 341 340 340 339 330 329 323 324 328 327 328 330 329 328 328 329 330 330 329 329 330 336 331 340
341 339 338 339 339 337 338 338 338 339 339 339 338 337 338 338 339 339 339 338 338 338 336 336 338 339 337 338 336 337 339 338 337 337 338 331 332 333 327 324 323 327 322 324 325 324 326 326 329 331 330 328 329 329 330 331 330 329 328 330 333 342
338 336 336 336 335 338 338 337 337 337 338 338 337 336 336 336 337 338 338 338 337 335 336 337 337 336 336 336 336 335 335 334 333 333 335 331 329 327 324 324 325 326 326 325 325 325 327 328 329 330 330 329 329 329 330 328 329 328 328 329 334 341
336 335 336 337 337 336 335 336 336 336 336 336 337 336 336 335 336 337 338 338 335 334 334 334 334 333 333 334 334 333 333 332 330 331 333 331 329 327 327 326 325 325 324 325 326 327 327 327 328 329 329 329 330 330 330 330 328 328 328 329 337 340
336 336 335 336 335 334 334 334 336 339 336 339 336 335 334 335 336 337 338 337 337 334 334 334 334 334 332 333 332 332 329 329 329 330 332 330 328 326 326 325 325 324 326 326 327 328 328 328 327 329 329 329 330 330 330 329 330 327 328 329 332 339
336 335 334 334 334 333 332 332 334 334 335 340 334 334 335 336 335 336 336 336 337 333 332 334 333 332 331 331 330 330 328 328 329 330 330 328 329 327 326 325 325 325 324 325 325 327 329 328 327 328 329 329 330 330 329 330 330 329 328 328 329 336
335 334 334 333 332 332 332 331 332 334 336 338 334 334 336 335 336 336 336 336 336 334 334 333 332 330 331 330 329 328 329 328 330 328 328 327 326 327 326 325 325 325 325 323 326 329 328 328 328 328 328 329 329 329 329 330 330 329 329 329 329 333
334 335 333 332 331 331 332 331 333 334 336 334 333 335 336 335 335 335 336 337 336 336 334 332 331 329 329 327 326 328 328 328 327 327 327 328 329 328 326 326 326 325 322 325 326 327 328 327 328 329 328 329 328 329 329 329 329 329 331 328 328 330
334 334 332 332 332 331 331 331 332 332 333 332 333 333 334 334 337 335 337 336 335 333 333 330 329 327 326 325 325 325 327 327 327 329 326 326 327 327 328 328 328 326 325 324 325 326 327 327 326 328 329 329 329 329 328 329 328 328 329 328 329 329
334 333 331 331 331 331 331 332 331 332 332 333 332 333 333 334 334 335 335 335 335 334 333 330 328 328 329 325 326 326 326 327 329 330 327 326 328 328 329 328 328 327 326 325 325 326 327 327 326 326 328 329 329 329 329 330 329 329 329 329 328 328
333 332 331 331 331 331 331 331 332 331 332 331 330 331 333 332 335 334 335 335 335 334 332 331 331 329 328 326 325 326 329 331 331 330 328 327 327 326 327 326 327 326 329 325 324 324 325 325 325 327 327 327 328 328 328 330 329 328 329 329 327 328
333 331 332 331 331 330 330 330 330 329 329 330 331 331 331 331 332 332 334 332 334 334 331 330 328 328 327 327 326 327 331 332 332 329 327 325 327 324 325 325 325 325 324 324 325 326 325 324 325 326 326 326 326 326 327 329 329 327 328 325 327 327
331 330 330 330 329 329 329 328 329 332 329 329 329 331 330 331 331 330 331 330 330 332 330 329 328 327 326 326 327 328 331 331 330 326 325 325 325 325 324 325 325 325 324 324 326 324 325 325 325 325 326 326 326 327 326 326 328 327 326 325 326 324
329 329 330 330 329 328 328 328 329 330 329 329 329 328 328 328 329 331 329 329 329 331 329 329 328 326 326 327 328 328 329 329 328 327 325 323 323 324 325 325 324 325 325 324 325 325 325 325 325 326 326 325 324 325 324 325 325 324 327 324 324 324
330 330 329 330 329 328 328 329 329 329 331 328 328 327 328 328 328 329 329 330 330 331 330 329 328 328 326 328 328 328 330 329 327 326 324 324 323 322 323 324 323 323 326 326 326 325 325 325 326 327 326 325 324 324 324 324 325 329 323 324 324 324
331 330 330 330 330 329 328 328 326 328 327 326 328 327 328 328 329 330 329 329 330 331 332 330 330 330 329 329 326 328 329 328 326 325 325 324 324 324 323 322 324 323 326 326 326 326 326 326 326 325 325 325 325 324 324 325 325 324 324 323 326 328
331 331 331 330 330 329 328 329 329 330 330 329 327 329 327 328 330 330 331 331 331 329 331 332 330 328 329 328 327 327 327 326 326 326 324 323 323 323 323 323 323 324 324 325 326 326 327 326 323 323 324 324 324 325 326 325 324 324 322 323 324 324
330 331 330 329 328 328 328 329 330 330 329 328 328 327 329 328 330 328 330 331 332 331 330 331 331 328 326 330 327 325 326 325 326 326 324 323 323 323 322 323 324 323 323 323 323 325 326 324 322 319 321 321 321 324 327 325 323 324 324 323 323 322
330 330 329 329 328 327 328 329 330 330 327 328 329 329 325 324 326 331 332 332 332 331 330 330 331 327 326 326 325 325 325 326 326 325 323 323 324 327 324 324 324 322 320 321 321 324 325 321 318 317 316 315 318 319 321 320 321 323 324 323 322 321
329 328 327 329 328 327 325 328 330 327 325 323 325 326 325 326 330 330 330 331 331 330 330 330 330 329 327 327 326 325 325 326 326 327 324 324 325 324 324 323 323 323 321 321 323 324 321 317 317 316 317 315 311 311 315 315 317 315 320 319 321 321
328 327 327 328 328 325 327 324 323 324 323 322 323 326 325 326 327 329 328 328 327 328 329 328 329 329 328 327 326 326 327 327 326 326 324 323 324 324 323 322 322 323 324 322 316 317 322 320 318 319 311 309 310 309 307 310 309 312 315 319 320 320
327 326 326 329 326 325 325 322 322 322 324 324 325 324 324 324 325 327 327 325 326 326 327 328 327 328 327 325 325 327 327 327 326 325 325 323 323 324 324 323 322 322 323 322 317 313 318 321 321 318 315 310 308 308 305 308 306 308 311 313 316 320
324 324 326 325 324 325 324 322 321 321 320 320 321 321 321 323 323 326 327 323 325 325 325 324 325 326 326 325 325 325 325 326 325 325 325 324 324 323 323 323 321 322 320 320 322 317 315 318 320 321 317 315 313 309 309 308 305 304 310 311 314 318
324 324 324 322 322 324 320 320 321 322 322 323 322 319 319 321 325 322 322 322 323 323 324 324 324 323 324 323 322 322 323 324 325 324 326 325 325 325 325 325 323 321 321 321 320 317 318 317 318 320 320 319 320 315 315 309 303 304 305 308 310 312
323 324 321 321 320 321 320 320 320 321 323 323 323 321 320 320 319 320 321 320 320 321 322 322 322 321 322 324 322 321 322 322 324 324 326 324 325 324 326 325 323 322 322 322 321 320 317 317 320 318 319 317 317 316 313 310 310 309 306 307 307 310
321 321 319 319 319 318 320 320 321 322 321 320 319 319 318 318 319 318 318 316 318 319 319 319 320 320 321 322 324 322 320 321 323 325 327 325 323 325 325 323 322 321 321 319 319 319 319 318 318 318 318 315 315 313 312 312 310 309 306 305 304 306
320 319 319 318 319 318 319 320 319 319 318 315 316 315 316 316 315 315 316 314 315 315 316 316 317 318 318 320 321 321 321 321 321 324 325 324 324 322 321 323 323 322 320 320 318 320 320 319 319 318 319 318 314 311 311 309 307 308 308 306 307 305
319 319 319 319 319 319 319 318 318 317 317 315 314 315 315 314 314 313 315 313 314 314 315 315 316 315 315 316 316 318 318 318 319 325 323 322 323 324 323 323 321 320 320 320 318 318 317 317 318 318 317 319 316 314 311 309 308 308 306 304 305 304
319 319 319 319 319 319 318 316 316 316 316 315 315 316 316 315 315 315 314 314 313 314 313 315 314 315 315 316 316 316 317 317 321 319 319 320 321 323 323 322 321 321 320 319 318 319 317 317 317 319 317 317 317 315 312 311 310 309 309 308 309 304
319 319 319 318 318 316 315 314 315 315 314 315 314 315 315 315 315 315 315 314 314 314 313 316 314 315 315 315 316 317 316 318 318 317 318 319 318 320 321 321 321 321 320 320 320 318 317 318 319 319 319 315 316 315 314 313 311 309 309 309 308 304
320 319 318 318 317 315 314 314 314 314 314 315 313 314 314 315 314 316 316 315 315 315 314 314 314 314 314 315 314 315 315 315 316 317 318 318 319 318 319 321 320 320 320 320 317 317 316 315 316 315 317 316 315 314 312 314 311 309 309 308 305 306
320 318 318 317 315 315 314 314 314 314 314 314 313 312 312 314 315 315 314 315 313 313 315 313 315 314 316 314 314 314 314 315 316 317 318 318 320 318 318 319 318 317 315 314 315 315 314 316 317 315 314 316 316 314 314 313 309 309 310 310 308 305
321 319 318 316 315 315 315 315 314 313 313 314 315 313 314 314 314 315 315 315 315 313 315 315 314 314 315 314 313 312 312 313 314 316 316 316 316 317 317 317 314 312 311 313 312 311 310 314 314 314 313 310 314 313 311 313 311 309 309 309 309 306
320 319 318 316 315 315 315 315 313 314 314 314 314 314 314 312 313 313 315 315 315 314 314 314 315 314 312 310 310 310 311 312 313 313 314 314 314 313 313 313 311 309 308 307 309 307 307 309 308 308 307 308 311 309 308 311 313 309 309 308 308 305

ECMWFFLT2_sfc_thetae_030.txt.gz
Theta_e
344 344 344 344 344 345 347 349 349 349 349 349 349 349 348 348 346 346 345 345 345 343 343 343 345 344 346 345 346 346 346 345 344 344 344 343 343 343 342 343 342 342 342 341 340 341 343 344 344 343 342 342 341 332 331 331 332 334 334 337 337 334
344 343 343 342 344 345 345 347 344 345 346 347 347 346 345 344 346 342 344 344 341 344 342 342 344 347 344 345 344 346 345 345 344 344 344 343 342 342 342 342 342 342 341 340 339 331 334 344 344 343 342 341 332 330 331 331 332 333 335 334 336 339
344 343 341 341 342 344 343 344 344 344 345 345 345 345 343 344 341 341 341 341 342 339 341 342 343 345 344 344 345 345 345 345 344 344 343 342 341 341 341 341 341 341 339 336 330 330 330 332 340 344 342 332 330 330 331 331 332 333 332 335 334 340
344 342 339 339 341 343 342 344 343 342 341 341 342 342 340 340 341 340 340 339 339 339 339 340 345 347 346 343 343 344 344 344 343 342 342 341 341 341 341 340 339 337 332 329 328 329 329 331 333 332 330 330 330 330 331 332 332 331 333 338 333 340
343 340 338 341 342 341 342 341 340 340 340 340 339 339 339 339 340 339 339 339 339 338 338 338 339 339 338 338 337 337 338 337 337 337 338 333 331 330 329 326 327 329 325 326 327 328 330 331 331 330 330 330 331 331 332 332 332 332 333 335 336 342
342 339 339 340 340 342 341 339 339 340 340 339 338 338 338 338 337 337 338 339 339 337 336 336 337 337 337 336 335 335 334 334 334 333 335 330 329 328 327 327 327 327 327 326 326 327 332 332 330 330 330 330 331 331 331 332 333 333 333 334 340 341
339 338 338 339 340 340 338 338 339 339 338 337 338 338 338 338 337 337 337 339 336 334 334 334 335 336 336 335 335 334 333 333 332 332 334 331 330 329 328 328 327 326 326 327 328 328 329 330 331 330 330 331 332 332 332 332 332 333 333 334 340 341
338 338 337 338 337 337 336 337 340 341 338 340 338 336 335 336 337 337 338 338 338 335 334 334 333 334 334 334 334 333 331 331 332 332 333 330 328 327 327 326 326 325 327 328 329 329 329 329 330 331 330 331 332 332 332 332 332 332 332 334 337 341
337 337 336 336 335 335 336 338 338 336 336 339 334 333 334 336 336 337 337 337 338 334 333 333 332 332 331 332 332 331 330 330 331 331 331 329 328 327 326 326 326 326 326 327 328 329 329 329 329 330 331 331 332 331 332 332 332 332 332 333 335 341
337 336 335 335 334 333 334 334 335 336 337 337 332 333 336 335 335 336 336 336 337 335 333 332 331 330 332 331 331 332 330 331 332 331 329 328 328 327 327 327 326 326 327 327 329 330 329 329 329 330 331 331 331 332 332 332 332 332 332 334 335 339
336 336 334 333 332 332 333 333 335 336 336 333 334 335 335 335 335 336 336 336 336 336 333 332 331 331 331 330 330 331 331 329 329 328 328 328 328 328 327 326 326 326 326 327 328 329 330 329 329 330 331 331 331 332 332 332 332 333 333 333 334 335
335 334 334 332 332 331 332 333 334 335 334 333 334 334 334 334 336 334 336 335 335 335 334 332 331 330 329 328 328 329 329 328 328 328 328 328 328 328 329 329 328 327 327 327 327 328 329 329 328 329 330 330 331 331 331 331 332 332 333 332 332 333
335 333 332 332 331 330 331 333 333 334 333 333 333 333 332 331 332 333 334 336 334 334 334 331 330 331 331 327 328 328 328 328 329 330 328 328 329 329 329 328 327 328 327 327 328 327 329 329 328 329 330 330 331 331 331 332 332 332 332 331 332 333
334 332 331 330 331 331 331 332 333 333 333 332 331 331 332 332 334 333 334 336 334 334 332 331 331 330 329 328 327 329 330 330 331 330 329 328 328 327 327 327 327 328 329 326 326 326 327 327 328 329 330 330 330 330 331 331 331 331 331 331 331 332
334 331 332 330 330 330 331 332 331 332 331 331 331 331 331 333 334 333 335 335 334 334 332 332 331 330 329 329 328 329 331 332 331 330 328 327 328 326 326 326 326 325 325 326 326 327 327 327 328 327 328 329 329 329 330 330 331 331 331 330 331 330
333 330 330 330 329 330 330 330 331 333 330 331 331 330 330 332 332 333 334 333 334 333 331 331 330 329 328 328 327 329 331 332 331 329 327 327 327 325 325 326 326 326 325 325 326 325 326 327 327 326 326 327 326 329 328 329 329 330 329 329 329 329
331 330 329 330 329 328 328 329 330 330 330 330 330 330 329 329 331 333 332 332 332 333 330 329 329 328 327 326 327 329 331 331 330 327 326 325 325 325 326 325 325 327 326 325 326 326 326 326 326 327 326 326 326 327 327 327 327 328 328 328 328 328
331 330 329 328 328 328 328 329 328 328 331 329 328 328 329 330 330 331 331 330 331 332 330 329 328 327 326 327 328 329 330 330 329 326 325 325 325 324 324 326 324 325 327 327 326 326 325 326 327 326 326 326 326 326 326 327 329 330 327 327 327 327
330 330 329 328 329 329 328 327 326 327 327 327 327 326 328 329 329 330 330 330 331 332 332 329 328 328 327 331 329 330 330 329 328 326 325 324 324 325 324 324 325 325 327 328 327 326 326 327 326 326 325 326 327 326 327 328 326 326 327 328 332 329
330 330 330 329 329 329 329 328 328 329 328 329 328 330 327 328 330 330 331 331 330 329 332 332 329 328 328 329 329 329 329 329 328 326 324 324 324 324 324 324 325 326 326 327 328 327 326 325 325 325 324 325 326 326 326 326 326 326 326 327 327 326
330 330 329 328 328 328 327 327 328 328 327 328 329 329 330 329 330 331 332 332 333 331 331 334 332 330 329 332 329 329 328 328 328 326 325 324 324 323 324 325 325 326 326 325 325 325 325 326 323 320 321 321 321 324 327 326 326 326 325 325 325 325
330 330 329 329 329 329 328 328 328 328 326 328 330 330 329 329 329 330 331 332 333 331 330 333 332 330 329 329 327 328 328 328 328 325 324 324 324 327 325 325 325 324 323 325 323 325 325 325 319 318 318 316 319 320 322 320 322 324 325 325 324 325
329 329 329 330 329 328 327 327 329 327 327 327 329 331 330 328 330 329 329 330 332 331 331 332 331 331 329 327 326 327 327 328 327 327 325 325 326 324 324 325 325 325 323 324 324 325 324 322 320 319 319 317 313 313 316 316 316 317 322 323 325 326
329 329 329 330 328 327 328 325 325 326 325 326 326 328 327 328 328 329 331 332 331 331 332 332 331 330 328 327 326 326 328 328 327 327 326 325 325 324 323 324 324 325 325 322 321 322 324 321 321 319 315 313 313 311 310 311 312 314 319 321 324 324
328 328 329 329 327 327 327 324 324 324 326 325 325 324 326 325 328 329 329 330 330 330 331 331 330 329 328 327 327 327 327 328 328 326 327 326 325 324 324 324 325 325 325 324 319 317 321 322 322 321 318 313 312 312 308 312 311 312 315 319 323 325
328 327 328 327 325 326 326 324 324 324 322 318 319 320 319 324 326 329 329 326 327 329 330 329 328 326 328 327 327 327 328 328 328 327 326 326 326 325 324 324 324 326 324 325 324 320 320 322 321 321 320 320 317 313 312 312 311 308 315 316 319 321
327 327 327 325 325 325 322 323 323 323 322 321 321 316 317 321 326 323 324 325 325 326 327 328 327 325 325 326 326 327 328 328 328 326 327 325 325 325 325 325 324 324 324 324 324 322 321 321 321 322 320 320 322 318 317 313 308 309 310 313 314 316
326 325 324 322 323 324 322 321 320 320 321 320 320 319 319 319 319 322 321 322 323 323 324 324 324 324 323 325 325 324 326 327 327 326 326 326 326 326 326 326 325 324 324 325 324 322 320 322 322 321 320 318 318 317 315 313 315 315 312 310 311 316
323 322 320 321 321 321 322 321 321 321 320 318 319 319 320 321 320 320 319 318 320 319 319 320 321 322 322 323 327 324 324 325 326 327 328 325 325 326 327 325 324 323 323 323 323 323 323 322 321 319 317 316 315 314 313 314 312 313 311 310 310 313
321 321 320 320 320 319 320 321 320 320 319 317 318 316 318 317 316 316 317 314 314 316 316 317 318 319 321 323 325 324 323 324 324 326 327 325 325 325 325 325 324 324 323 322 322 323 323 322 320 320 321 318 314 312 313 313 311 312 312 313 312 312
319 319 319 318 318 317 318 320 321 320 319 316 315 316 316 315 314 315 316 313 313 313 314 315 316 316 317 317 320 324 322 322 323 328 326 325 325 325 325 325 323 323 323 322 321 322 321 320 321 321 320 320 316 315 313 312 311 312 312 310 310 310
317 318 317 317 317 317 318 318 319 320 318 316 316 317 317 315 314 315 313 313 312 314 314 314 314 315 316 317 319 319 321 321 323 324 323 324 325 325 324 323 322 322 322 321 321 321 320 320 320 321 321 320 317 316 315 315 313 314 314 313 313 311
317 316 317 317 317 316 317 317 319 318 317 316 317 317 317 315 313 314 313 313 314 314 313 316 315 316 315 316 317 316 318 320 322 322 322 321 322 323 323 323 322 322 321 321 321 321 320 320 321 321 321 320 318 316 315 314 314 313 313 313 312 310
317 316 316 316 316 315 316 316 317 317 316 317 316 316 316 316 314 314 315 315 315 315 315 316 315 315 315 316 315 317 318 318 319 319 320 320 320 321 322 323 322 321 321 321 320 319 320 319 320 321 321 319 318 317 315 314 313 313 312 312 311 311
317 316 317 316 315 315 314 314 316 316 316 316 315 315 315 316 315 314 314 315 314 314 315 314 315 315 316 314 315 315 317 317 318 319 319 320 321 320 321 322 322 321 319 319 320 319 318 319 319 319 319 320 318 317 315 312 312 313 314 314 312 310
318 317 316 316 315 314 313 314 314 314 314 315 316 314 314 315 315 315 315 315 314 314 314 314 314 315 315 314 313 315 316 316 317 318 319 318 319 319 319 319 318 317 316 317 317 317 317 318 319 319 319 318 319 317 315 313 312 313 314 314 313 312
317 317 316 315 314 313 313 313 312 313 313 313 313 314 314 314 314 314 315 314 314 314 314 314 315 314 312 310 311 313 315 314 315 315 316 316 316 316 316 316 313 312 312 312 315 314 314 317 317 317 316 318 320 317 314 314 312 313 313 312 312 312

ECMWFFLT2_sfc_thetae_033.txt.gz
Theta_e
349 349 350 350 349 349 350 349 349 349 349 348 349 348 347 348 347 347 347 346 345 349 351 348 349 349 347 348 346 346 345 344 344 344 344 343 343 343 343 343 342 341 341 342 344 345 344 344 343 343 343 342 341 341 341 340 339 338 337 338 339 335
348 349 349 348 348 350 350 348 350 349 353 350 350 348 347 350 348 347 345 347 348 346 348 349 349 346 349 348 347 345 345 345 344 344 344 343 342 342 342 342 341 340 340 340 343 347 346 344 343 343 343 341 339 340 341 340 339 337 337 338 339 338
347 348 349 349 348 348 350 351 350 349 350 349 349 351 350 347 345 346 347 348 349 349 350 349 350 347 348 344 347 345 345 344 344 344 343 342 342 342 341 341 341 339 338 338 342 347 346 344 344 343 341 341 341 340 341 340 339 339 336 338 339 338
345 348 347 347 348 350 351 351 350 349 349 349 350 349 349 348 347 348 348 349 349 348 348 349 343 345 345 345 345 344 344 343 343 342 342 341 342 341 340 338 338 335 335 337 342 343 344 344 344 344 343 340 340 340 340 340 337 337 338 338 338 338
347 347 347 347 348 349 350 350 348 349 348 350 348 348 348 348 347 348 348 346 348 348 348 347 348 347 345 344 344 343 344 343 343 341 340 338 338 337 338 337 338 336 338 339 340 343 344 343 343 341 341 340 340 341 340 340 338 337 338 340 340 341
346 346 346 346 346 347 348 346 345 346 346 345 345 346 346 346 346 346 347 348 347 347 348 347 347 343 342 343 343 342 341 342 341 339 340 340 339 339 337 335 336 335 336 339 341 343 345 344 342 340 339 339 339 341 340 338 338 338 339 340 341 342
343 346 347 347 346 346 346 346 346 346 344 343 346 344 344 345 345 345 347 348 347 347 346 345 344 342 341 341 341 340 340 340 340 341 342 340 340 341 338 337 336 337 339 338 339 341 342 342 341 339 338 337 338 339 340 338 338 338 339 340 341 342
342 345 346 347 347 346 346 345 344 345 345 345 345 343 344 345 346 346 347 347 346 344 344 342 341 341 340 341 340 340 339 339 340 340 340 341 338 338 337 338 339 338 337 338 338 340 340 340 340 340 337 338 339 339 340 338 339 340 340 340 340 343
342 342 344 345 344 345 344 344 344 343 344 344 343 343 344 345 345 345 345 346 346 344 343 342 340 340 341 339 339 340 339 338 339 340 341 340 339 338 338 338 339 337 340 339 339 340 339 340 341 341 338 337 338 339 340 340 340 338 338 338 339 343
341 341 342 343 341 341 343 342 341 342 344 344 342 342 344 344 344 345 344 345 346 345 344 343 341 341 339 339 338 338 338 337 338 340 341 340 342 340 339 338 339 339 338 339 338 340 340 340 339 340 339 338 339 338 339 340 339 338 338 339 339 341
342 341 341 341 340 340 340 339 340 341 340 341 343 340 337 335 339 344 345 346 346 346 344 343 341 339 339 337 337 337 337 339 338 338 342 342 342 342 341 338 338 340 341 339 340 341 340 340 340 338 340 338 339 340 340 341 339 338 338 338 337 339
341 340 339 337 338 336 335 339 339 339 339 341 340 338 334 335 338 341 343 343 345 345 344 342 341 340 338 338 338 338 339 339 338 341 342 341 341 340 340 340 339 342 343 342 341 341 343 342 340 338 338 338 338 338 339 339 338 338 337 337 337 340
339 338 336 335 335 336 339 339 339 338 338 339 340 340 337 336 339 340 340 341 343 342 342 341 340 338 338 340 340 339 339 339 339 340 341 340 339 338 339 339 341 342 341 341 340 339 340 342 340 339 339 337 338 336 337 337 338 338 337 340 339 339
338 336 336 337 334 336 338 336 338 339 340 340 338 340 339 339 340 339 338 338 338 336 335 337 338 338 338 341 342 340 339 338 338 339 339 339 338 339 340 340 339 341 339 340 337 337 338 339 338 338 336 336 334 334 337 337 337 337 340 341 342 340
337 335 335 336 337 337 337 338 339 337 339 338 338 338 340 339 339 339 338 338 336 334 334 335 338 339 339 341 340 338 338 338 338 338 338 339 339 340 340 338 339 338 339 336 336 336 337 337 336 333 332 335 335 335 336 336 337 338 339 341 342 341
335 333 333 334 335 336 338 337 337 337 338 338 339 338 339 339 339 340 339 339 336 335 335 336 338 339 339 337 337 336 336 336 336 337 338 338 338 338 338 338 339 340 336 335 335 335 336 334 333 331 332 331 333 334 334 335 337 338 339 340 339 340
334 333 333 334 335 335 337 336 336 337 338 339 339 339 339 340 339 339 338 338 339 336 335 337 337 338 337 334 335 337 337 337 337 338 337 338 338 339 338 337 338 340 339 334 334 334 333 333 331 331 332 331 333 333 333 334 337 337 339 338 338 338
334 334 334 334 334 335 335 337 337 338 340 339 340 340 340 339 339 339 339 340 340 339 337 337 337 338 339 337 337 338 337 336 337 338 338 338 338 337 339 339 336 338 337 335 333 332 332 332 330 329 331 331 332 333 332 334 336 337 338 335 335 335
333 333 333 333 333 335 335 335 336 338 338 339 339 339 339 338 338 340 340 340 341 341 339 338 338 339 339 338 337 336 336 335 337 338 337 336 335 335 335 337 337 334 335 335 334 334 333 333 331 330 330 331 332 332 333 333 333 333 335 335 334 333
333 334 335 334 334 333 333 333 332 334 335 336 336 336 338 338 338 338 340 340 340 342 341 340 340 340 339 337 336 336 335 335 337 337 336 335 334 334 334 333 334 333 333 332 334 334 334 333 331 330 330 331 333 334 334 335 336 336 336 334 334 334
332 333 332 332 332 332 330 331 332 333 333 334 334 336 335 337 338 338 339 339 340 341 341 339 339 339 339 336 336 336 335 335 336 336 336 336 336 335 335 335 334 334 332 330 331 333 331 333 328 324 327 329 331 333 333 333 333 333 331 330 332 332
332 333 334 334 332 333 334 332 331 332 333 333 333 334 334 336 337 338 339 339 340 340 340 339 339 339 339 338 336 335 335 334 335 336 336 336 335 334 334 335 334 332 333 331 330 332 331 332 326 323 321 321 324 326 327 330 330 331 332 332 333 332
331 332 332 333 334 333 335 335 334 333 333 332 335 338 337 337 338 338 339 339 339 338 339 338 338 339 339 337 336 335 335 335 335 335 333 333 334 333 334 334 334 332 330 332 331 334 335 335 325 326 326 323 319 318 322 325 328 329 330 331 330 330
331 332 332 333 332 335 335 336 336 335 336 335 333 335 337 338 338 337 337 337 338 339 338 337 337 338 338 337 336 335 334 334 335 336 334 333 333 333 334 334 334 334 332 327 328 329 334 335 331 326 321 322 321 320 315 319 321 324 328 329 328 328
331 331 332 331 331 333 333 333 334 335 336 334 335 334 335 334 335 336 336 336 337 338 338 337 337 337 336 336 337 336 335 335 335 336 335 334 333 333 334 334 335 335 334 330 327 330 331 333 333 333 327 321 319 319 318 318 321 321 326 326 326 328
332 331 331 332 332 332 332 332 331 330 329 331 329 330 330 331 331 333 334 336 336 337 337 336 336 336 336 336 336 335 335 334 335 335 335 335 334 334 334 335 336 337 336 336 332 330 330 333 334 332 332 332 331 320 318 321 320 314 325 326 326 326
331 331 331 331 332 332 332 333 333 333 334 333 330 331 334 335 333 333 334 333 334 334 334 334 335 336 336 336 335 334 334 334 334 335 335 335 335 335 333 334 335 337 336 335 335 331 330 329 330 332 332 334 334 331 328 321 318 319 316 321 323 323
330 330 331 331 332 333 332 333 334 334 334 333 333 332 333 333 332 332 332 332 333 332 334 335 335 335 336 336 335 333 334 334 334 335 334 334 335 335 335 335 335 336 336 336 335 333 332 331 327 329 331 332 330 331 329 327 326 322 319 316 316 322
329 330 330 331 332 334 335 334 334 334 334 335 335 334 333 334 333 333 331 331 332 332 333 333 335 335 335 336 335 334 334 334 335 333 334 335 335 334 335 335 334 334 334 333 334 335 331 329 330 330 327 327 327 326 326 329 328 326 320 317 315 317
328 329 330 331 333 335 335 335 334 335 334 332 333 334 334 333 334 334 332 332 332 333 334 334 335 335 334 334 335 336 335 334 335 334 333 334 334 331 332 334 334 333 334 334 335 332 331 331 331 331 331 328 325 324 323 324 325 325 324 323 317 315
328 329 330 332 333 334 335 336 335 334 334 333 334 334 332 332 332 332 332 331 332 332 333 334 335 334 334 333 334 335 335 335 336 336 335 335 335 334 334 333 333 333 332 332 332 331 331 333 333 331 330 328 326 325 323 322 323 323 323 321 319 317
328 329 331 332 333 334 334 335 335 335 334 334 334 334 334 333 332 332 332 331 331 332 332 333 333 333 334 335 334 333 334 335 335 336 336 337 337 337 334 333 332 331 330 330 329 329 329 331 332 331 332 331 330 331 328 326 325 326 324 323 322 318
327 330 330 330 332 333 333 333 334 334 334 335 335 335 334 333 332 331 330 330 330 330 331 331 332 332 332 333 335 334 334 333 334 336 337 338 339 338 335 334 332 330 330 328 328 331 330 330 332 332 332 333 333 329 327 327 328 327 328 327 324 319
327 329 330 330 331 331 332 333 334 334 333 334 335 335 334 332 332 332 331 331 331 330 330 331 331 331 332 331 332 335 336 336 335 335 335 337 338 338 336 334 332 330 331 331 332 330 332 336 335 335 336 332 331 328 326 326 329 328 327 326 322 320
327 328 329 330 330 331 330 332 333 333 333 334 333 334 333 334 332 331 331 332 332 332 331 332 331 332 331 332 332 332 333 334 334 333 333 335 336 336 337 334 332 331 332 334 334 334 333 333 333 333 334 333 332 329 326 325 327 327 327 326 325 322
329 329 329 329 330 331 330 331 332 331 332 333 332 333 332 331 333 333 332 332 331 332 333 332 332 331 330 332 332 333 333 334 334 334 334 334 335 334 334 335 334 334 334 332 334 333 333 333 333 334 334 334 331 328 327 325 326 327 326 328 328 326
329 329 329 329 330 329 329 329 330 331 330 331 331 331 331 331 331 331 332 332 331 330 331 332 331 331 329 330 332 334 333 334 334 335 335 334 335 335 335 335 334 333 333 332 333 332 333 333 334 334 333 333 332 330 326 327 326 328 329 329 328 327

ECMWFFLT2_sfc_thetae_036.txt.gz
Theta_e
349 350 351 351 350 350 352 349 350 349 349 349 349 349 349 348 348 349 349 349 348 348 351 347 350 350 347 349 345 345 345 345 344 344 344 344 343 342 342 343 343 343 345 345 346 345 344 344 344 342 342 342 340 345 342 342 341 340 338 335 334 332
349 349 350 350 349 347 351 349 348 350 350 351 350 349 351 351 348 349 347 349 349 348 350 349 350 347 348 347 346 345 345 345 344 344 344 343 343 343 342 341 340 341 343 345 345 345 345 344 343 343 342 342 345 342 341 340 340 338 338 338 336 337
350 349 350 350 348 348 347 347 347 347 348 348 350 352 349 348 349 349 347 347 350 350 348 342 343 347 346 344 346 345 345 345 344 344 343 343 342 342 342 341 341 339 340 341 346 344 344 344 345 343 343 345 342 340 342 340 339 338 337 338 339 338
349 350 349 350 348 349 346 350 346 349 350 349 351 345 345 346 346 345 346 350 351 349 342 347 345 344 345 347 346 345 343 343 342 342 342 341 342 342 341 340 339 336 339 344 344 343 344 345 344 344 345 343 342 341 341 340 336 337 338 337 338 338
350 349 351 350 350 349 350 349 347 349 348 345 345 345 347 348 347 346 347 351 349 348 343 346 347 345 348 343 343 343 343 342 341 341 340 341 340 339 340 336 336 338 339 341 342 345 346 345 346 343 343 342 342 343 341 341 337 337 339 339 341 339
349 350 351 351 351 350 352 349 349 350 348 345 343 345 343 349 344 345 343 347 350 350 346 341 342 342 344 345 342 341 340 341 340 338 339 338 337 336 338 336 336 337 339 342 342 345 346 346 344 340 340 341 340 342 341 339 338 338 341 340 340 342
348 350 350 350 353 351 349 350 350 349 347 345 347 342 342 341 347 345 343 343 345 346 343 342 343 344 344 344 340 339 340 340 339 338 339 336 337 337 335 336 337 337 339 339 342 345 346 345 343 340 339 338 340 341 341 340 340 340 341 339 341 343
347 349 349 349 349 349 349 349 349 344 347 347 347 345 343 346 342 342 338 341 343 343 345 342 343 343 343 343 341 342 340 339 341 339 339 338 336 336 337 337 338 336 335 339 341 344 344 342 342 342 338 340 340 342 342 340 342 343 342 342 341 343
348 349 349 349 347 348 349 351 350 348 348 347 348 349 347 342 345 343 346 344 346 344 343 342 342 342 343 342 340 340 338 339 340 339 340 339 339 337 337 338 337 335 337 340 341 343 342 342 343 342 339 339 341 341 342 342 341 340 342 342 342 342
349 348 347 346 346 346 348 349 349 348 347 345 345 348 346 347 349 344 344 344 347 345 343 342 342 342 342 342 339 341 340 340 338 339 339 340 341 338 337 337 337 338 336 339 340 342 341 341 340 341 340 340 340 341 343 341 339 339 341 342 340 341
351 350 347 345 346 346 348 349 348 347 344 341 345 342 338 343 346 340 340 336 340 345 344 344 343 342 342 340 340 340 340 339 339 340 341 340 341 339 340 339 340 337 338 338 340 341 340 340 339 338 340 339 340 343 342 342 339 340 340 341 340 340
348 348 348 347 346 346 347 346 347 345 342 343 341 340 339 338 343 346 344 342 341 346 344 344 342 341 341 339 339 340 340 340 338 340 343 340 340 341 341 341 341 342 341 342 341 342 340 337 337 336 337 338 340 342 341 340 341 340 340 341 341 342
347 346 346 347 348 346 343 345 346 345 343 341 342 340 336 340 345 340 347 346 343 340 343 340 344 341 340 338 340 339 340 339 340 341 341 341 341 343 342 341 344 345 343 342 341 342 340 338 336 336 338 339 341 339 340 339 340 340 339 340 339 339
344 342 343 344 344 342 340 339 341 343 342 341 343 341 339 342 344 346 340 342 343 342 344 346 343 344 341 339 341 340 339 339 340 340 341 342 341 341 341 341 341 342 341 340 340 341 338 337 337 338 340 342 343 343 341 338 339 340 340 339 339 339
340 341 341 341 342 343 340 341 341 342 341 341 341 341 342 341 341 341 344 344 345 340 340 342 344 343 341 340 339 337 338 339 340 341 340 342 343 343 343 342 340 340 341 339 339 339 337 337 339 340 341 342 341 340 341 340 339 338 337 339 339 337
340 339 341 342 343 343 343 344 344 341 343 342 342 340 340 341 338 341 342 344 344 341 340 342 343 342 338 338 338 338 339 340 340 341 340 341 343 342 343 342 343 342 339 338 338 336 338 338 340 339 339 340 340 340 339 338 338 336 337 338 336 337
339 339 339 340 339 337 338 338 340 339 340 340 338 337 340 342 340 335 339 343 344 342 341 342 341 339 339 336 341 340 339 340 341 342 341 341 342 342 343 342 343 343 341 339 338 336 337 339 338 338 338 337 338 339 338 337 336 336 337 336 336 336
339 339 339 337 336 339 337 340 341 338 339 338 337 337 340 338 339 340 343 343 342 341 342 343 342 340 342 342 340 340 338 340 342 345 343 343 342 343 343 342 342 343 341 339 337 336 337 336 336 336 336 336 337 336 335 337 336 335 336 336 337 337
335 338 339 336 336 338 338 339 337 338 336 338 339 336 339 338 339 344 341 340 341 342 342 344 342 340 342 339 338 340 340 342 345 344 344 342 342 342 343 343 341 341 342 340 338 338 336 334 334 334 334 335 335 336 336 337 339 338 336 337 337 336
334 335 338 337 337 335 334 333 333 335 335 335 335 337 340 340 340 338 338 338 335 339 341 340 338 338 335 338 340 340 340 342 344 344 342 339 339 340 342 341 341 340 339 338 337 333 336 335 335 334 332 333 334 337 335 335 335 335 336 336 337 337
335 334 335 334 336 334 333 332 333 333 334 334 333 337 338 342 341 342 342 342 343 340 341 339 338 336 341 341 342 341 341 342 343 343 341 341 341 342 342 342 340 340 337 336 336 333 336 338 332 330 330 328 329 332 333 332 334 334 334 336 336 335
335 334 334 334 335 335 335 332 331 333 336 335 334 335 337 341 341 342 343 343 343 339 339 339 339 342 344 342 342 342 342 343 343 343 343 343 342 340 341 340 339 336 337 336 335 337 337 337 331 326 323 320 328 329 329 331 332 332 334 335 337 336
335 333 333 334 334 334 336 336 337 335 335 335 339 341 339 341 342 341 345 344 343 344 343 342 343 343 343 342 342 342 343 343 343 342 341 341 341 339 339 339 339 336 334 337 337 338 337 337 330 332 331 324 320 318 325 329 332 333 334 336 336 334
334 333 332 333 333 335 334 335 339 338 337 338 337 340 340 342 342 341 341 343 343 344 343 343 343 342 341 341 342 341 341 341 342 343 341 339 340 339 339 339 337 337 337 331 331 332 336 340 334 329 318 321 321 322 317 323 325 328 332 331 331 331
335 333 334 335 335 335 334 337 338 338 339 339 340 340 340 339 341 341 341 342 341 342 342 341 342 341 340 341 341 341 340 340 340 340 341 339 339 339 338 339 339 338 337 334 331 332 333 339 334 335 328 320 318 319 320 320 325 325 329 328 328 329
335 334 333 335 335 334 333 336 334 334 333 334 334 335 335 335 336 338 337 341 340 340 340 340 341 342 341 340 340 340 339 338 339 339 339 339 340 339 339 338 339 339 337 338 335 331 332 335 339 334 334 338 329 321 319 322 324 317 328 331 330 330
336 335 336 336 336 335 333 335 335 333 333 335 334 335 339 341 340 339 341 341 339 341 341 341 342 343 343 341 341 341 340 339 337 338 339 340 339 339 338 337 338 338 337 335 336 331 329 330 336 335 336 340 335 334 329 322 321 323 319 325 328 329
335 335 336 336 335 335 338 337 336 337 337 336 336 335 339 340 342 341 341 341 341 341 341 341 340 340 343 342 342 341 341 339 337 338 337 338 339 339 339 338 339 338 337 337 334 330 330 330 325 326 335 334 333 333 332 330 329 323 321 318 318 324
334 334 336 336 336 338 337 339 339 339 339 338 338 338 338 337 337 339 340 340 338 337 338 339 339 339 340 341 340 340 340 340 339 339 337 336 338 339 340 339 339 339 337 338 339 334 333 329 328 331 330 333 333 330 330 333 330 330 321 320 318 318
334 335 335 335 336 337 340 339 339 339 337 337 337 337 337 336 336 337 336 336 337 336 337 337 339 338 338 337 337 341 340 339 340 339 337 337 339 340 341 341 340 340 338 337 338 338 335 336 335 334 333 331 328 329 328 329 328 326 323 324 319 318
334 335 335 334 336 339 340 340 340 340 339 338 338 336 335 335 336 336 334 334 335 336 337 336 336 338 339 337 338 339 341 340 340 340 337 338 340 339 340 340 341 341 339 339 337 337 337 338 337 336 332 334 333 328 326 324 326 325 325 323 321 319
333 334 334 335 337 337 339 340 341 341 339 339 337 336 335 334 334 333 334 332 334 335 336 336 336 335 336 336 337 337 338 341 340 340 338 339 340 339 340 340 340 339 338 339 339 337 338 337 337 335 336 331 332 330 329 326 326 326 325 323 323 321
332 333 334 335 336 338 339 340 340 340 338 338 337 336 336 335 335 333 333 333 333 333 334 333 333 333 334 337 335 336 336 335 338 340 339 338 338 338 338 338 339 338 338 338 337 338 336 337 337 336 335 335 332 331 329 331 331 327 327 326 324 321
331 334 335 336 336 338 338 339 340 338 337 337 336 336 336 335 336 335 334 334 333 332 331 332 332 332 333 334 333 335 336 336 336 340 339 338 337 337 338 336 337 337 337 337 338 338 337 338 338 338 332 330 334 331 331 332 332 329 327 325 323 323
332 333 335 335 336 337 337 339 339 337 337 337 335 335 335 336 336 334 333 333 332 332 331 332 331 333 334 334 334 334 335 336 336 336 340 340 338 338 339 336 336 338 338 339 338 338 337 337 336 335 330 329 330 331 332 331 333 330 328 328 326 324
333 334 334 335 336 337 337 338 338 337 337 336 335 335 334 335 334 334 334 332 332 333 333 333 334 333 333 333 333 332 334 334 336 335 336 339 339 338 337 337 336 337 337 336 338 338 337 335 335 335 332 331 329 331 331 331 331 330 328 329 328 325
333 334 334 335 335 336 337 337 337 337 336 335 335 334 333 334 334 334 334 333 331 332 333 332 332 333 332 332 333 332 332 333 336 336 336 335 335 337 339 338 336 336 334 336 338 336 335 334 334 334 333 336 331 332 332 334 331 331 330 329 328 325

ECMWFFLT2_sfc_thetae_039.txt.gz
Theta_e
347 348 349 348 349 350 351 350 350 349 349 349 349 349 349 348 349 348 348 347 349 349 348 348 348 347 347 346 346 346 345 345 344 344 344 343 343 343 343 344 344 345 345 345 345 344 343 343 342 343 341 343 340 343 341 339 338 336 333 331 332 332
347 347 349 348 347 347 350 349 348 349 349 350 349 349 350 348 348 349 348 347 348 349 347 347 347 346 346 346 346 345 345 344 344 344 344 343 343 343 343 343 344 344 346 345 344 345 344 344 343 341 343 342 341 341 340 338 339 336 334 332 334 336
347 348 349 349 346 346 348 347 346 346 345 347 348 348 346 345 345 344 344 344 347 349 345 341 344 345 347 345 346 345 345 344 344 344 343 343 343 343 342 341 342 344 345 345 344 343 343 342 342 344 344 343 346 340 339 339 338 337 336 335 336 338
346 348 350 347 346 346 344 345 343 344 344 345 346 345 345 343 341 342 340 344 344 344 343 345 342 343 345 346 345 344 344 344 343 343 343 343 342 342 341 340 339 341 344 345 345 344 341 341 340 342 346 342 338 338 339 339 337 338 337 336 338 339
349 351 350 345 346 344 343 343 343 342 342 344 346 345 347 347 349 348 343 344 344 343 342 342 345 346 345 343 342 342 343 343 343 343 342 340 338 339 340 337 339 339 343 342 342 344 348 346 347 341 343 342 341 341 340 340 338 337 338 340 340 339
348 350 350 348 346 344 344 344 344 349 348 347 345 346 345 347 346 345 346 342 339 342 342 340 340 344 344 341 340 340 339 340 339 339 342 339 338 336 336 336 336 338 339 340 341 344 344 340 341 344 340 341 339 340 339 338 340 338 340 340 341 341
347 348 349 348 346 347 348 345 346 348 345 346 347 347 345 343 343 345 344 344 341 342 343 343 343 347 345 342 341 338 339 340 339 338 341 339 339 336 337 336 336 338 338 339 341 343 341 340 342 336 338 338 339 339 340 339 340 339 339 339 342 341
348 346 349 350 349 345 346 346 348 347 344 350 347 346 346 343 346 343 342 342 345 344 342 343 343 341 345 344 341 340 340 338 337 336 339 338 337 336 336 335 337 337 336 337 338 341 343 337 338 339 336 338 339 340 340 339 341 340 339 339 341 342
346 346 345 349 347 348 346 342 347 344 345 344 345 343 345 345 342 341 344 343 344 341 341 340 339 341 344 340 341 342 340 339 341 338 339 337 336 336 335 336 338 338 336 335 339 338 338 339 338 337 336 336 338 339 340 341 342 341 340 339 341 341
348 349 350 349 345 344 345 341 343 345 345 344 344 343 343 342 342 342 341 340 342 343 338 339 341 339 341 342 340 341 340 339 338 338 340 340 338 337 336 338 338 335 332 334 337 338 339 338 334 336 334 336 336 339 341 339 340 341 339 339 340 340
347 349 348 345 345 347 349 340 340 341 344 340 339 340 342 342 342 342 340 340 342 344 339 340 340 340 341 338 339 339 338 339 338 339 340 339 340 339 337 337 336 333 335 335 335 340 337 342 335 333 336 333 336 340 339 340 338 339 338 340 339 339
344 347 345 343 344 349 349 341 339 343 344 345 340 341 339 340 340 342 340 342 343 343 343 344 346 339 339 338 337 338 339 339 340 340 340 340 339 340 338 337 335 337 338 338 337 339 339 337 336 337 333 333 335 337 337 339 338 340 340 340 339 338
342 343 341 341 344 347 348 340 343 345 344 345 345 345 339 338 342 343 341 341 343 342 344 345 346 344 338 335 337 338 338 342 341 341 341 340 341 341 343 341 341 341 339 338 337 338 338 335 336 335 335 336 336 335 337 336 338 340 339 340 340 338
341 339 340 338 341 344 344 340 344 343 344 345 345 343 343 341 340 341 342 342 340 340 346 347 344 343 341 339 340 342 342 340 341 342 342 343 339 342 340 340 341 340 337 337 336 339 334 336 332 334 339 335 336 338 338 335 337 337 338 338 338 340
343 341 338 337 339 342 339 342 343 344 345 345 344 342 344 338 342 341 342 340 342 341 340 342 341 343 343 340 340 339 338 339 342 342 341 344 344 341 341 339 337 336 338 336 335 338 337 338 336 336 337 339 338 338 338 337 336 337 338 340 339 339
344 340 340 342 343 343 344 344 344 342 344 342 340 339 341 339 337 341 342 339 341 339 342 341 341 342 342 341 340 338 339 340 341 342 343 343 341 338 338 338 338 339 336 336 335 336 338 341 337 336 336 338 338 338 337 337 336 337 337 339 339 338
343 340 342 344 343 343 344 343 341 341 340 342 341 343 341 343 344 342 342 341 342 342 339 342 342 342 343 342 342 342 340 341 341 340 338 343 339 338 339 338 341 338 338 335 334 335 339 336 336 336 337 336 338 339 336 336 337 338 338 336 337 336
343 342 342 342 343 343 343 340 338 338 341 341 341 340 339 342 341 342 341 341 341 343 340 341 340 341 342 341 341 341 340 341 341 342 341 341 339 342 341 341 336 338 338 335 334 335 334 336 334 335 335 336 338 340 339 340 337 336 339 336 335 337
342 343 341 340 340 340 341 344 341 339 341 342 340 338 342 342 343 345 342 339 340 343 340 340 341 341 341 340 339 340 340 341 341 337 340 340 339 340 340 341 336 336 336 337 336 337 335 335 333 332 334 335 334 335 337 337 336 338 337 334 335 334
341 341 342 340 338 337 338 337 337 338 338 339 339 340 342 344 344 342 339 339 338 339 340 340 338 341 342 343 342 341 341 340 344 340 339 337 341 338 339 340 335 335 333 335 339 337 337 335 332 331 329 333 334 334 334 335 334 334 335 337 335 337
340 341 340 338 337 337 335 335 336 334 336 337 337 338 340 340 339 340 339 340 342 341 339 341 338 341 341 342 340 340 338 338 340 338 339 339 339 338 340 340 342 336 333 334 333 336 336 334 329 328 332 333 333 335 335 335 333 332 331 336 338 336
340 340 339 340 337 339 340 338 335 334 336 337 336 336 336 337 337 338 338 338 340 341 340 339 341 342 342 342 340 341 336 335 338 340 340 341 341 339 340 338 337 336 335 336 335 340 337 331 329 326 324 327 331 334 334 334 336 332 334 333 334 335
339 339 340 340 339 338 339 339 337 336 335 339 339 337 338 337 338 339 338 338 338 339 337 339 341 340 341 340 338 336 334 334 338 339 340 339 338 340 339 339 338 334 333 335 336 338 337 336 327 329 328 325 321 321 326 332 333 333 331 334 333 333
341 341 339 339 339 341 340 341 340 340 339 339 337 335 336 337 338 336 336 336 336 340 340 341 339 339 339 336 334 334 335 337 337 340 339 338 338 336 338 337 337 335 333 329 334 333 336 332 333 327 321 322 321 322 317 321 326 328 331 331 331 331
340 341 339 338 339 338 339 339 338 338 339 337 337 334 331 331 332 334 334 333 336 338 339 339 336 337 338 336 336 338 336 338 338 340 338 337 337 336 337 340 337 336 335 330 329 331 331 333 333 335 327 322 321 318 318 321 323 324 330 327 328 330
341 339 338 337 339 338 337 337 334 332 331 330 329 329 327 330 329 329 334 335 337 337 337 337 335 336 335 336 338 340 340 338 340 339 340 339 338 336 336 338 338 338 335 331 332 331 331 333 335 334 334 334 328 320 319 322 322 317 328 329 328 328
340 339 338 337 338 338 337 336 336 335 334 332 330 332 334 339 335 334 335 338 337 338 337 338 338 339 338 338 339 338 339 338 337 338 338 339 340 336 336 334 336 336 336 334 334 329 330 328 332 335 335 335 334 333 328 322 319 321 317 323 326 326
340 338 338 339 337 338 336 337 337 336 334 333 331 332 336 337 338 337 338 337 339 340 340 341 341 339 339 339 339 339 339 339 337 337 337 337 338 337 336 335 337 339 339 337 335 332 330 330 328 328 334 334 333 333 330 331 326 322 320 318 319 325
339 338 339 339 338 338 337 336 337 334 334 335 334 334 338 338 337 338 339 340 341 340 342 342 340 341 341 339 339 339 339 339 339 337 337 336 337 337 339 335 334 336 336 335 336 335 331 331 331 329 330 329 329 329 330 333 333 327 323 319 318 320
338 338 339 339 338 339 338 338 337 336 334 332 333 336 337 337 339 339 341 340 340 338 338 338 339 340 342 340 340 340 339 338 339 338 337 336 336 336 337 337 336 337 338 336 336 335 332 331 334 334 333 328 326 326 324 327 327 327 325 324 318 317
337 337 338 338 339 338 338 337 336 335 333 331 334 335 334 334 335 338 336 337 336 336 337 336 338 338 338 338 339 341 340 339 339 340 338 337 337 336 337 338 335 337 335 335 334 332 330 335 335 333 331 329 327 328 325 321 324 325 322 322 318 318
337 337 337 337 339 339 337 337 338 333 331 332 333 332 334 335 335 336 334 335 336 337 337 337 337 336 337 336 338 340 341 340 339 340 338 338 338 336 337 336 336 336 333 334 334 332 331 332 332 330 331 331 330 330 330 326 326 327 327 323 320 318
335 336 336 337 337 338 338 338 337 335 333 334 338 337 337 336 335 332 332 333 335 335 336 335 334 335 336 337 336 337 339 341 340 341 341 339 339 337 337 339 338 335 337 335 336 335 334 328 331 330 331 332 332 330 330 330 330 329 331 329 323 318
335 335 336 337 337 338 338 338 337 335 338 336 335 336 336 332 334 333 334 333 334 335 333 333 333 333 335 334 334 336 336 338 339 341 339 340 339 338 337 335 336 335 335 336 336 338 335 331 331 333 334 333 333 331 330 331 334 332 329 326 323 320
334 334 336 336 336 335 336 336 336 336 338 337 335 334 332 334 335 336 335 334 334 333 332 332 331 334 334 334 334 335 335 335 336 341 338 339 339 339 338 336 335 336 336 335 335 334 336 332 329 330 333 334 334 333 331 331 331 330 330 328 325 322
334 335 336 336 337 336 337 338 339 336 337 336 335 335 336 335 335 335 334 333 333 334 334 333 334 333 333 333 332 333 334 334 335 336 340 339 338 338 339 337 336 337 337 336 336 337 336 336 334 330 331 337 334 332 333 331 332 334 331 329 327 325
334 335 334 336 337 336 337 338 338 338 337 336 335 335 336 335 335 335 335 334 333 335 335 334 333 334 333 332 332 332 331 331 334 335 336 339 339 339 338 338 337 338 338 338 337 334 334 336 338 338 338 336 333 333 333 331 332 332 332 330 328 324

ECMWFFLT2_sfc_thetae_042.txt.gz
Theta_e
346 347 347 347 348 348 349 350 350 350 350 350 348 349 349 349 349 349 349 349 349 348 349 347 347 346 348 346 347 347 346 346 345 345 345 344 344 345 345 344 345 345 345 345 344 344 343 343 343 342 344 343 344 339 340 331 329 330 328 330 332 331
346 347 348 347 348 348 349 348 348 348 347 348 349 350 349 349 350 349 349 347 347 348 345 346 347 346 345 346 346 346 346 345 344 345 344 344 344 345 344 344 344 345 345 345 344 342 342 343 344 344 343 343 342 339 337 334 330 328 332 332 332 333
345 346 346 346 346 348 347 347 347 348 347 348 349 349 348 346 346 347 346 345 347 346 344 344 344 346 345 346 345 345 344 344 344 345 344 344 344 344 344 343 344 344 345 345 343 342 340 339 340 343 344 342 339 341 337 333 333 332 332 333 333 337
344 345 344 344 345 346 345 345 345 346 346 346 347 347 345 343 343 344 344 345 344 345 343 345 344 343 345 344 344 345 345 344 344 343 344 343 344 343 343 342 343 344 345 344 341 341 339 338 339 340 341 341 342 336 335 334 332 331 332 334 335 337
345 347 347 344 343 344 343 343 342 343 343 344 345 344 342 346 348 346 346 345 344 343 343 344 342 344 343 342 342 342 342 341 342 340 343 340 340 340 340 339 339 342 343 342 341 342 346 344 348 344 340 342 342 341 336 336 336 335 335 336 337 339
345 347 348 346 344 343 343 347 340 342 341 342 344 346 345 345 345 344 344 343 345 341 341 342 340 339 343 341 340 341 340 340 339 339 341 340 337 337 335 335 336 336 340 341 343 344 344 344 343 343 337 340 340 337 335 334 336 337 337 337 338 340
344 345 343 341 343 346 345 347 348 347 344 347 346 343 344 344 342 342 342 343 342 340 341 341 341 339 339 342 340 339 340 340 340 338 338 339 335 336 333 336 336 336 337 336 339 342 342 341 341 342 341 337 337 335 336 335 336 337 337 337 340 342
340 344 342 343 341 344 346 345 347 345 341 345 342 341 341 343 343 341 343 343 345 342 341 339 341 341 341 343 344 345 342 337 337 338 337 337 335 334 333 336 335 335 334 334 337 344 343 343 343 339 338 335 338 339 339 336 335 336 337 337 339 342
340 341 340 341 341 344 347 345 342 343 341 343 340 340 340 341 341 341 341 342 345 342 342 341 341 341 343 342 342 341 339 341 336 335 337 338 337 334 334 336 334 334 335 337 340 340 340 340 341 339 338 335 336 337 336 337 334 335 338 338 338 340
342 342 340 340 340 341 343 342 341 342 343 341 342 342 340 340 340 340 340 341 344 344 342 341 342 342 342 339 340 339 339 338 341 341 337 338 339 337 335 336 337 337 332 333 335 337 339 338 336 338 334 335 339 338 337 342 336 336 337 337 337 339
341 342 341 340 339 338 342 342 342 345 344 343 344 343 340 340 341 342 342 343 343 343 341 341 342 340 341 340 338 337 336 337 337 342 340 340 346 339 338 337 342 337 333 330 336 338 337 336 337 338 335 337 335 337 337 338 338 336 337 336 337 337
340 342 341 337 338 335 339 340 342 343 341 341 342 343 342 342 342 343 343 342 343 343 342 343 342 340 339 338 337 337 338 338 339 341 342 342 343 343 342 339 336 338 342 340 338 338 339 338 335 333 332 336 337 335 337 335 338 337 337 336 336 335
341 343 341 337 336 337 339 340 341 341 339 339 341 342 341 341 341 342 342 342 343 342 341 340 341 339 340 337 336 339 341 340 343 345 346 344 345 345 344 344 341 343 342 336 333 336 339 335 336 336 335 336 336 336 338 337 336 336 336 336 334 334
341 340 340 339 338 337 337 340 343 341 338 338 338 338 338 341 342 342 342 343 343 342 342 341 341 338 339 340 340 338 337 340 342 343 344 347 344 340 345 343 342 343 339 337 337 336 336 333 336 339 336 336 333 335 337 336 336 336 336 335 337 335
340 340 340 341 338 337 339 341 342 340 340 340 338 337 337 340 340 341 342 341 342 341 341 341 343 340 339 340 337 338 340 343 344 344 342 346 347 343 344 341 345 338 334 336 338 340 336 334 334 334 333 332 334 335 335 336 335 335 336 335 335 335
340 340 339 340 342 342 343 342 339 338 336 336 339 338 339 340 340 341 341 340 342 342 341 341 343 342 344 339 338 339 341 345 344 343 345 346 344 342 340 339 340 340 334 333 335 338 338 335 334 330 336 334 333 332 333 335 336 334 336 335 334 334
340 340 341 341 342 342 342 340 340 337 336 337 336 338 338 339 340 340 340 340 341 340 339 339 339 341 342 340 340 338 339 341 344 344 345 343 343 343 337 338 338 340 337 335 335 334 332 332 331 332 332 334 334 333 333 336 337 334 336 334 335 335
341 341 344 343 343 342 341 340 338 339 336 337 337 338 338 338 338 339 339 338 339 338 338 337 338 339 335 335 339 341 340 340 341 345 341 340 340 340 339 338 336 339 338 334 334 332 330 331 333 332 333 331 333 335 334 334 336 335 334 334 334 335
340 341 342 343 342 342 341 340 339 337 335 336 337 339 338 337 337 339 339 340 340 339 337 336 338 337 336 333 337 341 341 341 342 341 339 339 338 334 337 337 337 335 338 337 335 330 330 332 332 331 332 332 335 334 334 335 336 334 334 335 335 336
342 342 342 342 340 339 338 337 335 336 336 335 335 336 336 336 336 337 338 337 339 338 336 335 336 336 334 333 341 340 339 340 342 339 337 337 335 334 333 333 334 336 334 335 336 332 333 331 331 331 331 332 333 334 333 333 333 334 335 333 334 334
341 342 341 338 337 337 335 336 336 333 332 334 335 335 334 334 335 337 338 337 336 335 337 337 338 338 337 339 341 342 342 341 340 340 339 338 335 334 334 334 334 335 334 333 332 332 333 332 329 327 329 330 330 333 333 333 332 332 333 334 333 331
340 340 340 339 338 338 338 337 335 335 335 335 332 333 332 333 333 334 336 337 335 335 335 336 336 337 340 341 339 339 340 339 338 336 334 336 334 333 334 333 335 332 336 333 329 332 332 331 326 324 323 323 325 329 331 331 331 332 332 332 332 331
340 339 339 340 339 338 340 341 337 333 337 335 335 336 336 336 336 335 337 338 335 335 335 335 336 337 339 340 339 339 338 337 336 336 334 333 332 332 333 332 333 331 330 332 330 331 330 333 326 327 325 322 319 318 323 327 330 330 330 332 333 330
339 339 339 340 339 341 340 341 339 338 340 338 335 337 338 338 337 336 336 336 336 337 338 337 336 337 338 339 339 338 338 337 335 337 336 333 333 329 331 332 333 333 331 327 327 328 332 334 330 325 319 320 319 318 314 318 323 328 332 331 331 329
339 340 340 339 340 340 338 337 337 338 338 336 336 334 334 333 335 335 336 336 337 339 338 338 339 338 338 337 337 338 337 337 338 339 337 336 334 332 330 330 332 333 331 330 327 330 331 333 333 334 327 320 317 315 315 319 322 324 328 328 330 331
340 340 339 339 340 339 337 335 333 331 330 330 329 328 328 329 331 332 333 335 337 337 338 338 338 339 338 337 337 338 338 336 337 339 338 339 336 333 331 331 331 332 331 334 330 328 326 330 334 334 333 332 329 318 318 321 320 314 327 329 326 327
339 339 339 338 339 338 336 335 334 332 332 331 329 330 333 334 333 333 334 334 334 337 337 338 337 336 337 337 338 338 339 338 337 337 338 339 336 332 332 330 332 333 332 333 333 327 326 326 331 331 333 334 332 330 328 321 317 318 315 321 328 325
338 337 338 338 339 339 336 336 334 333 333 332 331 332 333 333 335 334 334 333 335 338 336 337 337 336 337 337 337 339 339 339 339 338 336 336 336 334 334 333 334 335 334 332 330 328 328 328 326 325 331 331 331 331 331 330 323 320 317 315 318 323
337 337 337 338 338 338 337 336 336 334 333 334 334 334 334 333 333 335 333 334 335 334 338 339 338 338 337 337 338 339 338 339 338 337 334 334 336 335 334 335 335 335 332 333 332 333 331 329 329 327 328 327 329 328 329 329 327 327 319 316 315 317
336 337 337 337 338 337 338 337 336 335 334 334 334 334 334 332 333 333 332 331 332 331 335 339 339 339 338 337 338 338 339 338 336 337 337 335 336 335 335 335 335 335 333 331 331 333 331 330 331 331 331 328 326 324 325 326 325 322 322 324 316 316
336 337 337 337 337 337 338 337 335 335 335 332 333 333 332 330 331 330 331 330 330 330 332 335 337 340 341 340 339 340 338 338 338 340 341 335 335 335 335 334 332 334 335 333 332 331 329 329 330 331 330 328 327 325 323 322 322 323 322 319 318 316
337 337 337 337 338 337 337 337 337 337 335 334 334 332 328 329 329 328 331 329 328 328 330 336 337 339 337 337 341 340 341 342 338 341 340 337 334 336 336 334 332 333 335 334 332 330 329 328 329 330 331 330 328 328 327 326 326 324 322 320 321 315
335 337 337 337 337 337 337 336 337 336 336 336 335 335 331 330 330 330 330 331 331 330 334 334 335 334 337 339 339 339 340 338 340 341 340 337 335 333 338 336 332 334 334 332 331 331 331 330 331 330 329 331 330 329 327 329 327 326 325 325 325 316
335 337 337 337 337 336 337 337 338 336 335 334 333 334 338 333 333 330 331 331 334 334 333 335 334 335 336 336 337 338 337 337 338 338 338 338 338 336 334 336 335 332 332 333 332 331 330 330 331 331 331 330 330 329 327 327 328 328 327 325 322 319
334 335 335 336 336 336 336 338 338 337 334 335 333 334 335 335 335 334 333 334 334 335 334 333 334 336 335 336 336 336 338 337 337 338 336 336 337 335 334 332 333 333 330 332 331 330 330 329 330 332 331 332 331 328 327 328 328 329 328 325 326 323
334 335 335 336 336 336 336 338 338 337 335 336 333 334 336 336 339 337 335 334 334 334 335 335 335 336 337 337 335 335 335 335 337 337 340 338 334 333 336 333 332 333 330 333 331 329 330 330 329 330 331 331 330 329 328 328 329 330 326 327 328 327
334 335 336 336 336 336 337 336 337 338 337 335 333 335 335 336 337 338 337 335 335 335 336 335 335 338 337 338 336 336 333 333 336 337 335 338 334 333 334 333 334 334 331 331 330 329 331 329 329 329 328 329 329 330 329 329 329 332 331 329 328 327

ECMWFFLT2_sfc_thetae_045.txt.gz
Theta_e
344 344 344 346 346 347 349 349 349 350 350 350 350 350 349 348 348 347 348 349 347 345 345 345 346 346 348 347 347 348 347 347 346 346 346 346 346 346 345 345 345 345 345 344 344 344 344 344 345 345 345 345 345 334 328 328 329 331 330 331 332 331
343 343 344 346 346 347 347 348 346 346 347 347 349 349 347 346 347 346 349 346 345 347 344 343 344 347 345 347 346 347 346 346 346 346 345 345 345 345 345 344 345 344 344 345 345 337 338 344 344 345 346 345 339 336 327 329 329 329 329 329 333 333
343 343 344 345 346 346 346 345 345 345 346 348 348 348 346 347 345 345 345 344 344 342 341 342 343 345 345 347 346 347 346 346 346 346 345 345 345 345 344 344 345 345 345 344 342 339 335 334 335 344 346 339 336 335 328 330 330 330 330 332 330 337
340 337 340 342 345 345 344 344 344 344 344 344 344 346 344 344 345 344 343 340 340 341 341 340 347 346 346 343 344 346 346 345 346 345 345 344 345 344 344 344 344 345 344 344 340 339 337 335 334 335 335 337 337 330 330 330 331 331 332 335 333 337
338 337 337 339 344 342 342 343 343 343 343 341 342 341 340 341 341 342 341 340 340 340 340 339 339 340 340 340 339 340 340 339 338 338 343 336 336 341 339 339 337 340 337 340 341 338 340 340 340 337 335 333 334 330 330 331 332 332 333 333 334 338
339 338 337 338 341 343 341 339 340 341 341 341 341 339 340 339 340 341 340 340 340 338 338 338 338 339 339 338 338 337 338 337 335 337 340 335 334 337 336 337 338 338 339 340 340 338 341 338 337 338 336 334 333 333 334 334 334 334 334 334 337 338
338 338 338 340 342 342 340 341 339 340 339 340 339 339 338 338 338 339 340 340 338 337 337 337 337 337 337 337 337 337 336 336 335 335 337 335 333 334 331 333 334 334 336 339 339 339 336 338 338 337 335 334 335 334 334 335 335 335 335 336 338 339
337 337 337 339 340 339 339 341 343 345 340 343 339 338 337 337 338 338 339 339 339 338 337 336 336 336 337 337 336 336 336 336 337 335 336 336 332 331 329 330 332 333 334 336 337 340 339 339 338 336 334 333 335 333 335 335 335 335 336 337 336 338
337 337 337 339 340 339 339 340 340 338 339 344 337 337 338 337 336 338 339 339 340 337 337 337 336 336 337 337 336 335 335 335 336 333 333 333 332 330 328 329 332 331 332 332 337 338 337 337 336 336 336 333 332 333 334 334 335 335 336 335 334 336
338 337 337 339 340 338 338 337 338 338 339 341 337 337 338 337 336 336 337 339 340 338 337 337 337 337 337 335 334 335 335 333 334 332 331 331 332 329 328 328 330 330 331 334 336 336 334 335 335 333 333 333 333 334 336 336 336 335 335 335 334 336
337 339 337 338 339 337 336 335 338 338 338 337 338 338 337 336 336 336 337 339 340 339 338 338 338 337 336 334 334 333 333 334 334 335 332 332 332 330 329 329 330 331 330 332 334 336 335 334 333 332 334 332 333 335 336 336 337 335 335 335 334 335
337 337 337 337 339 336 335 336 338 337 337 339 339 336 336 337 337 337 337 339 339 339 339 338 337 336 334 333 333 334 334 334 333 334 333 333 336 335 332 331 333 335 335 334 335 335 335 334 331 331 331 331 333 334 335 336 335 336 335 334 333 333
337 337 335 335 336 336 336 338 337 336 338 340 339 337 336 337 338 338 338 339 339 338 338 337 336 336 336 334 334 333 335 335 335 338 338 337 339 336 338 336 334 336 333 333 334 333 331 333 331 332 333 333 333 335 335 336 335 335 335 333 332 332
337 335 334 334 335 336 338 338 337 336 337 337 337 337 337 337 339 338 338 338 338 338 337 336 336 335 334 333 334 336 336 336 337 336 336 337 335 337 337 336 334 333 338 334 331 328 329 330 331 330 331 332 332 333 334 336 335 334 334 332 331 330
337 335 335 334 335 336 338 337 335 334 335 336 335 335 336 337 337 338 338 338 338 338 336 337 337 335 335 335 334 334 334 336 338 337 337 339 336 335 336 334 332 331 332 332 330 330 330 329 329 329 329 331 332 332 332 334 334 333 332 331 332 331
336 335 334 335 335 336 338 336 335 336 335 335 335 334 335 336 337 337 338 337 338 338 337 337 339 336 336 335 334 333 335 337 338 338 339 339 337 334 332 334 334 331 328 329 330 330 330 328 329 329 331 331 331 331 330 332 333 332 332 332 331 331
335 335 336 336 336 338 336 334 333 334 335 335 334 334 336 336 337 336 336 337 338 338 337 337 338 338 337 335 333 334 337 338 338 338 336 336 337 334 333 333 333 331 330 329 330 329 328 328 328 329 330 330 330 330 331 332 331 332 333 331 330 330
336 337 337 337 338 338 335 333 332 332 334 335 335 336 336 336 336 336 336 336 336 336 336 335 335 334 332 333 333 332 332 334 336 337 335 335 334 334 332 332 330 331 331 330 328 327 328 328 328 329 330 330 330 330 330 331 332 333 331 331 331 331
337 337 338 338 338 335 333 333 332 331 332 334 336 334 334 335 335 336 335 335 335 335 335 334 334 334 332 333 332 332 333 333 332 335 335 333 331 333 333 332 330 330 332 331 328 328 328 328 329 329 328 328 329 330 331 331 330 330 330 331 333 335
338 338 338 338 337 333 331 330 329 328 329 332 333 334 333 334 335 335 336 336 335 334 334 334 334 333 332 331 331 332 333 334 332 333 333 332 330 331 330 329 331 330 329 329 329 329 329 328 329 329 329 330 329 329 330 330 330 329 329 330 330 330
337 338 337 336 335 331 328 329 329 328 327 328 330 332 333 334 335 335 335 336 335 333 332 333 334 332 331 334 332 333 333 332 331 332 333 332 331 332 331 330 329 328 329 326 326 329 329 330 327 325 326 325 326 328 329 329 326 326 327 328 328 328
338 337 336 336 335 333 332 330 328 327 328 329 330 330 330 332 332 334 333 333 334 333 333 333 334 333 333 332 332 333 332 331 331 332 332 333 333 333 331 330 330 328 329 327 325 328 329 327 322 322 320 319 321 323 326 325 326 327 327 328 328 327
336 336 335 336 335 334 334 332 329 328 329 329 331 331 332 332 333 333 332 332 332 332 333 334 334 335 336 334 334 332 331 331 331 332 330 330 330 330 329 329 330 328 326 324 326 328 328 323 320 321 321 319 316 315 317 320 324 325 328 327 328 329
334 334 335 335 335 335 335 334 332 330 330 329 328 332 331 331 331 332 331 333 333 332 332 332 333 334 336 337 334 332 332 330 332 332 330 329 329 328 327 327 328 328 326 323 321 324 327 327 324 322 315 312 315 316 314 314 316 322 326 328 327 327
334 332 332 335 335 335 334 332 332 332 332 331 331 331 330 329 330 331 332 332 331 332 333 332 333 334 335 336 335 335 333 332 332 333 331 329 329 327 327 328 330 329 326 324 323 321 324 327 326 325 319 316 312 311 312 314 318 318 324 325 327 328
330 331 334 335 335 334 332 332 330 328 328 328 327 328 328 328 329 330 331 333 333 334 334 334 334 334 336 335 334 334 333 333 333 333 331 330 329 329 327 327 327 329 327 327 326 323 322 325 327 328 325 321 317 311 314 318 316 311 321 324 324 328
333 335 335 335 335 333 331 331 330 329 329 328 327 328 329 330 331 331 331 331 332 333 335 334 334 334 335 334 334 334 333 332 333 332 331 329 327 327 328 328 329 328 328 329 327 323 323 323 325 325 327 327 326 324 322 319 311 314 312 317 321 321
336 335 335 335 334 333 331 331 330 329 329 327 326 326 328 329 329 330 330 330 330 330 333 335 334 333 334 334 334 334 334 333 332 331 332 328 327 328 329 329 328 329 328 330 328 324 323 324 323 322 324 325 324 325 323 320 320 317 315 313 314 321
334 335 334 335 334 333 332 331 330 329 328 328 328 328 329 329 329 329 327 327 329 331 332 332 334 333 333 334 334 334 335 334 330 330 331 330 330 330 329 328 328 328 327 327 328 326 325 324 323 321 321 320 322 323 322 321 321 319 315 313 313 314
330 334 334 334 334 333 332 332 330 329 328 328 329 329 329 328 328 328 327 327 327 327 329 331 333 333 333 334 334 335 334 332 329 330 331 330 330 331 330 330 329 328 328 326 326 328 326 325 325 324 323 322 320 319 321 320 318 319 319 317 314 313
331 332 334 334 333 333 332 332 330 330 329 328 328 328 326 326 326 326 326 325 325 325 326 329 332 334 333 334 333 334 333 332 329 332 332 331 330 331 330 331 330 329 329 327 327 327 326 325 326 325 324 323 321 321 319 317 318 318 317 315 314 312
332 332 333 333 333 333 333 333 331 331 330 329 328 327 326 325 325 325 325 324 323 324 325 328 330 331 330 331 333 333 333 331 330 330 329 330 330 331 330 329 328 328 328 327 327 326 326 325 326 325 323 323 321 322 321 320 320 320 318 317 316 312
331 331 332 333 332 333 332 332 332 331 330 329 328 327 326 325 325 325 325 324 323 323 324 326 329 331 329 330 333 332 332 331 331 328 328 330 331 331 329 328 328 329 328 327 326 326 325 325 326 325 324 323 323 323 323 323 323 321 320 319 316 312
331 331 332 331 332 332 332 332 332 331 330 330 327 327 327 326 325 326 326 325 324 324 325 328 329 329 331 331 333 333 333 331 331 330 329 329 329 329 329 329 328 328 328 327 327 325 325 324 325 325 326 325 323 323 323 325 324 323 322 320 317 313
329 332 331 331 332 332 332 333 332 332 331 330 328 327 327 327 326 327 327 327 326 327 328 329 329 330 331 331 331 331 331 330 331 331 330 330 330 327 327 329 329 328 327 327 327 326 325 326 326 326 324 325 324 323 323 324 324 324 324 322 320 316
325 330 331 332 332 332 332 333 332 330 330 330 329 329 328 328 327 327 327 328 329 329 329 328 329 329 329 329 329 330 330 330 331 331 330 331 329 328 327 327 328 327 327 330 325 324 324 325 326 326 325 324 324 323 323 325 326 325 326 324 323 319
322 326 330 331 332 332 332 331 330 329 329 328 328 329 329 328 328 328 328 328 328 328 328 328 328 328 328 328 328 328 329 330 330 330 329 329 329 329 328 327 327 326 326 327 325 325 324 325 325 325 324 325 324 323 324 325 326 327 325 324 324 323

ECMWFFLT2_sfc_thetae_048.txt.gz
Theta_e
344 344 345 345 345 346 348 350 350 350 350 350 350 350 350 350 349 348 348 348 347 344 344 345 346 346 349 346 347 348 347 348 347 346 346 346 345 345 345 345 345 344 344 344 344 344 344 345 346 346 341 336 335 327 328 328 329 330 329 329 332 331
343 343 345 345 346 346 347 348 346 347 347 347 349 349 347 345 348 344 348 346 343 345 342 343 344 348 345 346 346 347 347 347 347 346 346 345 345 345 344 345 344 344 344 344 345 333 335 342 345 346 342 335 327 326 327 327 327 327 328 328 331 333
342 343 344 344 345 345 346 345 345 345 346 348 348 348 345 345 343 343 343 343 344 342 342 342 343 345 345 346 345 347 347 347 347 347 346 345 345 345 344 344 345 345 344 344 335 335 336 332 334 343 342 332 328 328 328 327 327 327 328 330 328 336
342 343 343 343 344 344 344 344 344 344 344 344 345 345 344 344 343 342 342 341 340 341 340 340 347 346 347 344 344 346 347 347 346 346 346 344 345 344 344 344 344 344 341 338 333 334 336 335 333 331 331 329 328 329 329 329 329 329 330 334 331 337
341 342 342 342 343 343 343 343 343 343 343 343 343 343 343 342 342 341 340 339 339 339 338 339 338 340 339 340 340 340 341 340 339 337 343 337 338 340 338 334 334 335 330 332 334 334 336 333 333 331 330 329 329 330 330 331 331 330 330 331 333 337
337 337 337 338 340 342 343 341 341 342 342 341 341 341 340 340 340 339 339 339 339 337 336 336 337 337 337 338 337 335 335 335 334 336 338 334 333 334 334 335 334 334 334 334 334 335 335 333 332 331 330 330 330 331 332 333 332 332 332 332 334 337
336 336 337 338 340 341 340 340 341 341 340 339 339 338 338 338 339 339 339 339 337 336 335 335 336 336 336 336 336 335 334 334 333 334 335 332 333 334 334 334 334 335 335 336 336 337 335 332 331 331 332 333 334 334 334 334 334 334 332 332 336 337
336 336 336 338 338 337 337 338 339 344 340 343 338 337 336 338 338 338 339 338 338 336 335 335 335 335 335 335 335 335 334 333 333 333 335 333 333 333 332 333 333 331 333 335 337 337 334 332 331 331 331 332 333 333 333 334 335 335 334 333 333 336
336 336 336 337 337 336 336 336 336 337 337 344 336 336 336 337 337 338 338 338 338 335 335 335 334 335 335 334 334 333 332 333 333 333 333 333 331 331 328 330 331 330 329 332 335 335 332 331 330 330 330 332 334 334 333 333 335 335 334 332 332 335
336 336 336 336 336 335 335 335 335 335 336 340 334 335 336 336 337 337 337 338 338 336 336 335 335 335 335 334 333 333 333 331 332 331 332 332 330 329 326 326 327 328 329 330 335 334 332 330 329 329 330 331 332 333 333 333 334 334 334 333 333 336
336 338 336 336 335 334 334 334 335 334 335 334 334 336 335 335 336 336 337 337 337 337 336 336 335 335 334 333 332 331 331 331 330 331 330 330 330 329 326 326 327 327 327 333 332 333 331 330 330 330 330 330 331 333 333 334 335 334 334 334 333 333
336 336 335 335 337 334 334 334 335 334 333 334 335 334 334 334 336 336 337 337 337 337 337 336 335 334 334 332 331 331 331 330 330 330 330 329 330 330 327 327 329 331 332 332 330 331 331 329 329 329 330 330 330 332 332 333 333 334 332 332 333 333
336 335 335 335 334 333 333 335 335 334 335 336 334 334 333 334 335 336 338 338 337 337 337 336 335 335 335 331 331 331 331 332 332 332 331 331 332 329 333 332 332 332 330 329 330 330 331 329 328 328 329 330 331 332 333 333 333 333 333 330 332 331
336 334 334 334 334 333 334 335 335 335 337 336 334 334 334 335 336 336 337 337 337 337 337 336 335 333 332 331 331 331 331 332 333 334 334 334 334 334 332 332 332 331 331 327 327 328 328 328 327 327 328 329 330 330 331 332 330 331 331 330 329 330
335 334 336 334 334 334 335 335 334 334 335 335 334 334 335 335 335 335 337 338 337 337 336 335 335 333 332 331 331 330 330 332 335 335 337 334 333 332 331 331 332 329 327 326 327 328 328 328 328 327 326 328 329 330 331 330 331 330 330 329 329 330
334 333 333 334 334 335 336 334 333 336 334 335 335 335 335 336 336 335 337 337 336 336 335 335 334 333 332 332 332 330 330 332 336 336 336 333 331 331 331 331 330 328 326 326 327 326 326 326 327 326 327 328 329 330 329 329 330 329 330 330 329 328
332 333 333 334 334 334 334 333 333 334 334 334 334 335 336 336 336 336 336 336 336 336 335 336 335 335 334 332 331 330 332 333 336 334 333 332 331 332 330 329 329 330 328 326 326 325 325 326 326 326 327 327 328 329 329 329 328 329 331 329 328 328
332 334 334 334 334 334 332 331 330 331 335 334 333 336 336 337 337 337 336 336 336 335 336 336 335 335 334 332 332 332 331 332 332 331 331 330 330 330 329 329 327 328 329 327 325 325 324 325 326 326 326 326 326 326 328 329 329 330 329 329 328 328
334 334 333 334 334 333 333 331 329 330 332 332 334 336 337 337 337 337 336 335 334 334 336 335 334 333 332 333 332 331 330 331 331 330 330 329 328 329 329 328 328 328 328 327 327 326 325 326 326 326 326 326 328 327 329 330 330 329 329 329 330 331
335 335 335 335 335 332 332 331 330 329 331 332 333 335 336 336 337 336 336 333 333 333 333 333 332 331 331 331 330 329 329 331 330 330 329 328 328 329 328 328 328 328 326 327 327 327 327 326 326 326 326 327 327 328 328 328 328 328 327 330 331 330
335 337 336 335 333 331 329 329 329 329 329 331 332 334 334 335 336 336 336 334 333 332 332 332 332 331 330 333 329 329 330 330 330 329 329 329 330 329 329 329 328 328 326 325 325 327 328 328 326 325 325 324 324 325 329 327 326 325 326 327 328 329
335 337 337 336 333 331 330 329 329 328 329 330 331 332 332 334 335 336 336 334 332 331 330 331 331 331 331 330 329 329 329 329 329 329 330 330 330 331 329 328 328 326 327 326 325 327 328 327 323 322 320 320 322 323 325 325 324 324 323 325 325 327
335 336 337 336 334 331 330 329 328 327 329 330 332 331 333 334 336 335 334 333 332 330 331 331 331 331 331 331 331 329 328 329 329 330 329 328 328 328 328 327 327 326 325 325 326 328 327 324 322 323 322 320 317 316 320 322 324 323 325 323 324 325
336 337 337 336 334 333 332 331 328 328 329 330 329 332 331 333 334 334 332 331 331 331 331 331 332 333 332 331 331 329 329 330 329 330 329 328 327 327 327 327 327 327 326 323 325 326 328 324 324 322 316 313 316 317 313 316 318 321 323 325 324 325
336 336 336 335 334 333 332 330 328 328 329 328 329 329 329 329 331 332 332 330 330 330 331 331 332 333 334 332 331 330 330 329 329 329 329 328 327 327 327 328 328 327 326 325 323 324 325 324 325 325 320 315 313 313 312 314 318 319 322 322 324 326
335 335 335 334 333 333 332 329 326 324 324 325 325 326 325 326 328 329 330 331 331 330 330 330 330 332 334 334 332 331 330 329 329 329 328 328 327 326 326 328 329 328 326 326 325 323 323 324 326 326 323 319 319 313 312 316 317 312 320 321 321 324
334 333 332 332 331 333 331 329 327 325 325 325 325 328 329 329 329 331 330 329 330 330 330 330 330 331 331 333 333 332 331 330 331 329 329 327 326 326 327 328 328 328 327 326 325 322 323 323 324 324 324 324 323 318 321 318 311 312 313 316 319 319
332 331 331 331 332 333 330 329 328 326 326 325 326 328 329 329 330 331 330 329 329 330 331 331 330 330 330 330 333 332 332 331 330 329 329 327 326 326 326 328 328 329 327 327 325 324 322 324 323 321 321 321 321 321 322 317 318 316 314 312 313 317
330 330 331 332 332 332 331 330 328 327 326 327 327 327 330 331 330 331 330 330 330 330 330 331 331 331 332 332 333 332 331 330 330 329 330 327 326 327 326 326 326 327 326 326 325 325 324 324 322 321 321 317 320 319 318 318 319 316 311 311 309 312
331 332 334 333 332 331 331 330 328 327 326 325 326 326 329 329 329 329 329 329 329 328 328 329 330 330 331 332 332 332 331 329 328 329 329 327 327 326 326 326 326 327 326 326 325 325 325 324 323 322 322 320 317 316 316 316 315 314 315 313 312 312
331 333 333 333 331 330 330 330 329 328 327 325 325 326 327 327 328 328 327 327 328 327 326 328 329 329 330 331 330 330 329 328 328 329 329 328 327 327 326 326 326 326 326 325 325 324 323 324 323 322 321 322 320 320 317 315 315 315 314 310 310 308
330 331 332 332 331 330 330 329 329 328 327 326 326 327 327 327 327 327 327 326 325 324 325 326 328 328 329 329 329 330 328 327 328 328 328 328 327 327 327 327 326 326 326 325 325 325 323 323 322 322 321 320 320 320 318 318 318 317 316 314 311 308
329 330 332 332 331 330 329 329 329 328 327 327 327 327 327 327 327 326 325 324 323 324 324 325 326 328 328 329 329 327 327 327 327 328 328 328 327 328 327 326 326 326 325 324 325 325 324 324 323 323 322 319 320 320 319 319 320 318 316 315 311 309
329 329 331 331 329 329 329 329 329 328 328 328 327 327 326 325 325 325 325 324 324 324 323 325 326 327 328 327 328 328 328 327 328 327 327 327 327 327 327 326 326 326 325 325 325 324 324 324 324 323 322 321 320 319 319 321 320 319 317 314 310 310
322 325 326 326 326 327 328 329 329 329 328 328 327 326 326 326 325 324 324 324 323 323 324 325 327 328 327 326 328 328 328 327 326 326 326 326 327 326 326 326 326 326 325 324 324 324 323 323 324 322 321 322 321 319 320 321 321 320 319 316 314 311
321 323 326 324 325 326 326 326 326 326 328 328 327 326 325 324 324 325 324 324 323 323 324 326 327 328 326 328 327 328 328 326 326 326 326 326 326 325 325 325 325 326 326 327 323 322 322 324 324 323 323 321 321 321 321 321 321 321 320 319 316 313
321 322 323 324 324 325 326 325 325 325 325 326 326 325 325 323 324 325 325 324 324 324 325 326 327 327 327 328 328 327 327 326 326 326 325 326 325 324 324 325 325 325 326 324 324 323 322 323 324 323 322 322 322 321 321 322 322 322 322 321 317 313

ECMWFFLT2_sfc_thetae_051.txt.gz
Theta_e
345 346 347 346 346 346 347 350 350 350 350 350 350 350 350 350 350 349 349 349 348 345 345 345 346 346 349 346 347 347 347 347 346 346 346 346 345 346 345 345 345 344 345 344 344 345 345 342 340 340 339 338 336 327 326 326 327 330 329 328 330 329
345 346 346 345 344 344 346 348 345 346 346 348 349 349 347 345 348 343 348 346 341 345 342 343 344 348 344 346 345 347 347 347 346 346 346 345 345 345 345 345 345 345 344 344 342 334 340 341 340 338 337 336 327 325 326 326 326 327 328 327 330 332
345 345 345 345 345 345 344 343 341 342 345 347 347 346 343 345 341 341 341 341 342 341 341 342 343 345 344 346 345 347 347 346 346 346 346 346 345 345 345 344 345 345 344 341 334 332 332 335 335 339 336 328 325 325 325 325 325 327 327 329 327 335
344 345 344 344 344 344 343 342 340 341 342 342 342 343 341 341 340 340 341 340 338 340 340 339 347 348 347 343 344 346 346 346 346 346 346 345 345 344 344 345 345 342 339 336 333 332 331 333 332 327 325 325 325 325 326 326 326 327 328 332 330 335
344 344 344 344 344 344 344 344 342 340 341 340 341 340 340 340 339 340 339 339 338 339 339 339 339 340 340 339 339 340 340 339 337 337 343 331 335 337 335 332 334 335 334 334 333 331 330 331 329 325 325 326 326 327 328 328 327 327 328 331 332 335
343 343 343 343 343 344 344 343 342 342 340 341 341 340 339 339 338 338 338 339 339 336 336 336 337 338 337 337 337 336 335 335 332 332 335 332 331 331 328 330 333 334 335 334 332 331 331 330 327 326 326 327 328 329 329 328 328 328 328 329 333 335
340 340 341 342 343 343 341 342 342 342 341 340 341 340 340 338 338 337 337 339 337 335 334 332 336 337 337 336 336 334 333 333 333 333 333 334 331 328 328 329 330 333 334 334 333 330 329 328 328 327 327 328 329 330 330 330 329 328 327 329 333 335
336 338 338 340 341 340 339 340 341 344 341 343 341 339 339 339 337 337 337 337 338 335 334 333 336 337 337 335 334 333 332 331 332 333 332 331 329 328 327 327 328 329 334 334 333 330 329 329 329 330 330 331 331 330 330 330 331 330 328 328 330 334
335 336 337 338 339 337 338 339 340 340 339 344 338 338 338 339 337 336 337 337 337 334 333 334 334 336 336 334 332 332 331 331 331 332 332 329 328 328 326 327 327 329 330 331 330 329 329 329 330 331 332 332 332 330 330 331 331 330 329 328 329 332
334 334 335 337 337 335 336 337 337 339 339 343 337 336 337 338 337 336 336 337 337 335 334 334 334 334 334 332 332 331 331 330 331 331 330 330 327 327 325 326 327 328 330 330 329 329 328 328 329 330 331 332 332 331 331 331 331 330 330 329 328 333
335 337 335 336 335 335 335 336 336 337 340 339 337 336 337 337 336 335 336 336 336 336 335 334 334 333 333 332 331 331 331 330 330 329 330 329 328 328 325 327 328 326 329 330 329 329 328 328 328 330 331 331 331 331 331 332 332 331 331 329 328 329
334 335 335 335 337 334 335 336 336 335 337 337 336 335 335 336 337 335 336 335 335 335 336 334 334 333 333 332 331 330 330 329 330 328 329 328 328 328 326 325 326 327 331 330 328 327 328 328 328 328 328 330 331 331 331 332 332 331 331 330 329 330
335 335 334 334 335 334 334 335 335 335 335 335 335 334 334 336 336 335 335 335 334 335 335 334 334 334 335 332 331 330 329 330 330 329 329 328 328 326 328 328 329 330 329 328 327 327 327 326 326 326 328 328 330 330 331 332 331 331 331 330 328 327
335 334 334 334 335 334 334 335 335 334 335 334 334 333 334 334 335 335 335 335 335 335 335 334 334 333 333 331 331 331 329 329 330 330 330 329 328 328 327 328 328 328 331 328 326 325 325 325 324 325 327 327 328 329 330 331 330 330 329 329 327 327
335 333 336 335 335 334 333 334 334 333 334 334 333 333 333 333 334 335 337 337 335 335 335 334 334 333 332 331 331 330 330 331 332 331 330 330 330 329 329 328 328 326 325 325 324 326 325 325 325 326 326 327 328 329 330 329 329 329 328 326 328 326
332 332 334 335 334 334 334 333 333 335 332 333 333 332 332 333 334 336 338 338 336 335 335 334 334 333 331 330 330 330 330 331 333 333 331 331 331 329 329 328 328 326 325 324 325 323 322 324 324 325 326 326 327 329 328 328 328 328 327 327 327 326
330 331 332 334 334 334 333 332 332 335 335 335 334 333 333 333 334 336 338 338 336 336 335 334 334 333 331 330 330 329 330 332 333 332 330 330 331 330 329 328 325 325 326 324 323 322 322 323 324 325 326 326 325 327 326 326 326 327 328 327 325 325
330 329 331 333 334 334 333 332 333 334 336 335 335 336 335 335 335 336 337 337 337 336 336 334 333 332 331 331 330 331 331 331 330 330 329 330 329 329 329 326 325 324 324 325 323 323 322 324 326 326 325 326 326 325 325 326 327 330 327 326 326 325
327 327 330 332 334 335 334 333 332 333 334 334 335 336 336 335 335 334 335 337 337 336 335 332 332 333 332 332 331 331 331 330 330 329 329 329 328 328 328 325 324 325 326 324 324 323 324 326 326 326 326 327 328 328 327 327 326 326 326 326 327 329
327 329 330 331 334 333 333 331 331 332 332 333 334 334 333 333 334 334 336 336 337 334 332 331 332 331 330 331 330 330 329 330 330 330 329 328 327 327 327 326 325 325 324 325 324 324 325 326 326 327 326 327 328 328 327 326 326 327 326 327 329 328
329 330 330 331 333 332 330 330 331 330 330 332 332 334 333 332 333 335 336 335 334 332 331 331 332 331 330 332 330 329 329 330 330 330 329 329 329 328 328 327 327 325 324 324 325 326 325 327 325 323 324 323 324 327 328 327 325 325 326 325 326 327
330 331 331 332 333 333 333 332 331 330 331 331 332 332 332 333 334 336 336 333 331 332 332 331 331 330 330 331 329 328 328 329 329 329 329 329 329 330 328 327 327 325 326 325 324 327 326 326 322 321 319 318 320 323 325 325 325 326 325 325 325 326
331 332 332 332 333 333 333 333 332 331 332 331 334 334 334 335 337 336 335 334 331 331 330 331 331 331 329 330 329 329 328 328 328 330 328 328 329 328 327 327 327 325 324 325 326 328 326 320 320 323 322 319 316 316 320 322 324 324 325 323 324 326
331 333 333 333 333 333 333 332 330 328 331 332 331 333 334 334 335 335 333 332 332 331 330 330 331 331 331 330 328 328 328 328 328 330 328 328 328 326 325 326 326 326 326 323 324 325 327 320 323 323 316 315 316 316 313 316 320 322 324 324 324 325
330 333 334 333 333 332 332 330 329 329 330 330 331 331 330 330 332 333 333 330 330 330 330 330 331 331 331 329 329 328 328 329 328 329 328 327 326 326 326 327 326 325 325 324 323 325 326 323 323 325 320 316 314 313 313 316 320 320 322 323 324 323
334 334 334 334 333 331 330 328 327 326 325 325 325 326 326 327 329 330 331 330 330 329 329 330 331 331 331 330 328 328 329 329 328 328 328 327 326 326 326 326 327 326 324 325 325 324 323 325 323 323 322 318 318 315 314 318 319 313 320 321 323 324
334 334 335 335 334 332 330 329 328 328 327 326 326 327 329 330 330 332 332 329 329 329 330 329 329 330 330 330 329 328 328 328 329 328 329 327 326 326 327 327 328 326 325 325 325 323 324 323 322 323 322 324 322 317 321 319 315 316 314 317 319 318
335 335 335 335 335 334 331 329 327 327 328 327 327 327 328 329 331 332 331 330 329 329 329 329 329 329 330 331 329 328 328 328 328 328 329 327 326 326 326 328 328 327 326 325 325 324 324 324 322 321 322 322 321 319 322 319 319 318 316 314 314 317
333 332 332 333 333 333 332 330 328 327 326 327 325 326 329 329 329 331 330 329 328 329 329 329 329 329 329 330 331 330 329 328 328 328 329 327 326 326 326 326 327 327 325 324 324 324 325 324 323 321 320 315 317 317 317 315 319 317 312 312 311 313
327 330 330 331 332 332 332 331 328 327 325 324 324 325 329 328 328 330 329 328 328 328 329 329 328 328 328 329 330 331 330 328 327 328 329 326 326 326 325 326 327 327 326 324 324 324 324 324 324 321 321 317 313 313 314 314 314 313 313 311 312 313
326 328 330 331 331 331 332 331 329 328 326 324 324 326 327 327 328 328 328 328 328 327 329 329 328 327 328 329 329 331 329 328 328 329 328 325 325 326 325 325 326 326 326 325 324 323 322 322 323 321 320 320 319 318 317 314 314 314 313 308 310 308
325 327 329 331 332 332 330 330 330 328 326 325 324 325 327 327 327 327 327 327 328 328 328 328 327 326 326 327 329 330 330 328 327 327 327 326 325 326 325 325 324 325 326 325 324 324 322 322 321 321 320 319 319 320 318 318 317 317 315 312 314 310
325 326 325 327 330 330 327 327 327 325 324 325 325 326 327 327 328 328 328 327 327 327 327 327 327 327 326 326 328 328 327 326 325 326 326 325 325 325 325 325 324 324 325 324 324 324 323 322 322 322 322 318 318 319 319 317 319 317 314 313 312 308
322 322 323 324 325 324 325 327 326 326 325 325 325 327 328 328 328 328 328 327 327 328 327 328 328 327 327 327 327 327 327 326 326 326 326 326 325 325 325 325 324 324 324 324 324 323 323 323 322 322 322 320 319 319 317 318 319 317 313 311 309 310
321 322 323 323 324 324 325 327 326 327 327 326 326 327 326 327 328 328 328 327 327 328 328 328 327 327 325 326 326 326 326 325 325 325 325 325 325 325 325 325 324 324 324 323 324 323 322 323 323 321 320 321 320 318 317 318 319 318 315 313 312 310
321 322 323 323 323 324 325 325 325 324 325 327 327 326 324 324 326 328 327 327 326 326 327 326 326 325 324 326 325 326 326 326 325 325 325 325 325 325 325 325 325 325 324 325 323 323 322 322 323 322 321 319 319 319 319 319 319 318 315 313 313 312
319 321 321 322 323 324 325 324 323 324 324 323 324 324 324 324 324 325 325 325 324 324 324 324 325 325 324 324 325 326 326 326 325 325 324 324 324 324 325 325 325 325 325 324 323 323 322 322 323 322 320 320 320 319 319 319 319 318 316 314 313 312

ECMWFFLT2_sfc_thetae_054.txt.gz
Theta_e
345 346 347 346 346 345 348 349 348 349 349 350 349 350 350 350 349 349 348 349 347 344 345 345 347 347 348 346 346 346 346 346 346 346 346 346 345 345 345 344 344 343 343 343 343 342 341 341 340 339 338 337 335 328 328 329 330 333 331 332 333 332
346 347 347 346 345 345 346 346 345 345 347 347 348 348 347 346 348 345 347 345 343 346 342 343 344 347 345 346 345 346 346 346 346 346 346 346 345 345 345 345 344 344 344 343 343 340 341 342 341 340 337 336 328 328 328 328 329 330 330 331 334 334
346 346 346 346 345 345 343 342 343 344 345 347 347 345 344 344 342 342 342 342 343 342 341 343 344 345 345 345 346 346 346 346 346 346 346 346 346 345 345 344 344 343 341 341 337 336 336 336 338 339 336 329 327 327 328 328 329 329 329 333 332 335
345 346 345 345 345 344 343 342 342 343 343 343 341 344 342 342 342 341 340 340 340 341 341 341 346 346 347 344 345 346 345 346 346 346 345 345 345 345 345 343 342 340 337 336 334 335 334 333 330 327 327 327 327 327 328 329 330 330 331 334 331 334
345 345 345 344 344 344 343 341 341 341 341 340 339 339 341 339 340 340 340 339 339 341 339 340 340 341 340 341 341 341 341 339 338 339 340 334 336 339 337 336 335 334 333 333 333 333 332 328 327 327 327 327 328 328 330 331 331 330 331 333 335 334
345 344 344 344 344 345 344 342 341 340 340 341 340 339 338 338 338 339 339 339 340 338 337 338 337 337 338 338 339 337 336 335 334 335 338 335 333 333 333 333 334 334 333 332 332 332 331 328 326 327 327 328 329 330 330 330 331 331 331 333 335 333
343 343 343 344 344 344 342 343 343 343 341 341 340 339 338 338 338 338 339 340 338 337 337 336 337 337 337 338 338 335 334 334 334 335 337 336 334 332 333 333 334 333 332 332 331 330 329 327 327 327 328 328 330 330 331 331 331 331 332 333 335 335
342 342 342 343 343 342 342 342 343 344 342 344 341 340 339 338 338 338 338 339 339 338 338 336 338 339 339 338 338 336 334 334 336 337 336 335 333 330 331 332 333 333 333 332 330 329 328 328 328 329 329 330 331 331 331 331 331 331 332 332 334 334
341 342 342 342 342 341 341 342 342 342 340 344 341 341 340 339 338 338 338 338 338 336 337 337 338 339 339 337 336 335 335 335 336 336 334 332 331 329 328 330 332 333 331 330 330 328 328 329 330 330 331 331 331 331 332 332 332 332 332 332 333 335
340 341 341 341 341 340 340 340 341 341 340 343 339 340 340 339 339 338 338 337 337 336 335 336 337 338 338 336 334 333 334 334 334 334 332 331 329 329 327 328 330 332 331 330 329 330 329 329 330 332 332 332 332 332 332 333 333 332 332 332 333 336
337 340 340 340 339 339 340 340 340 341 341 340 339 340 340 340 339 339 338 337 336 335 334 334 336 337 337 336 333 332 332 332 331 331 331 331 329 329 326 328 329 331 331 330 329 331 329 329 331 332 333 332 332 332 333 333 334 333 332 332 333 333
335 339 339 340 339 338 338 339 339 339 340 339 339 338 339 339 339 338 338 337 335 334 335 333 335 336 335 334 332 332 331 330 331 329 330 330 329 328 326 327 328 330 332 330 330 329 329 330 330 331 332 331 332 332 333 333 333 333 333 333 332 333
334 335 336 337 337 337 337 338 338 338 339 339 338 338 337 338 339 338 337 337 336 335 335 333 334 335 335 333 332 331 330 331 331 331 330 330 330 327 328 328 329 332 331 330 329 328 329 328 329 329 331 331 332 332 333 333 332 333 333 332 332 332
333 333 333 333 335 335 335 336 337 336 338 338 337 337 337 338 339 338 337 336 336 334 334 333 333 333 333 332 331 330 330 330 330 330 330 329 329 328 328 328 329 330 332 329 327 327 327 327 327 329 330 331 332 333 333 332 332 332 332 331 331 331
333 331 334 333 334 333 333 335 335 336 336 337 336 336 336 337 337 337 337 336 335 335 335 334 334 333 332 332 331 330 329 330 331 331 330 330 329 329 329 329 330 329 328 327 327 328 327 326 327 328 329 330 331 332 333 332 332 332 331 330 331 331
331 331 331 333 333 333 333 333 333 336 335 336 336 335 335 335 336 337 337 337 336 335 335 334 334 334 332 331 331 330 329 331 333 332 331 331 331 329 329 329 330 329 327 326 327 325 326 326 327 328 329 330 331 332 332 331 331 331 330 330 330 330
331 332 332 333 332 330 332 332 333 335 335 336 335 334 333 333 335 336 337 338 337 336 336 334 334 334 331 330 331 330 331 332 334 331 330 331 331 330 330 329 327 329 329 326 326 324 325 326 327 328 329 329 330 331 331 331 330 330 330 330 329 329
331 333 333 334 333 331 331 332 334 334 335 335 335 335 334 334 335 336 337 337 337 337 337 335 334 332 330 331 331 331 331 332 331 330 330 330 330 331 330 329 326 327 327 327 325 324 324 326 327 328 328 329 329 330 330 329 329 330 329 328 329 329
330 332 333 334 334 333 333 333 334 335 334 335 335 335 335 335 335 336 336 338 337 334 335 335 335 332 331 332 331 331 330 331 330 329 330 329 329 329 329 328 327 326 327 326 325 325 326 327 327 328 328 328 329 328 327 329 329 329 329 328 329 330
328 331 333 333 334 333 333 332 331 333 333 333 334 334 335 335 335 335 336 337 334 333 334 333 333 332 332 331 330 330 330 330 329 329 328 328 328 328 327 326 326 326 325 325 326 326 328 328 328 327 327 327 328 327 327 328 328 328 328 329 330 330
328 330 331 331 332 332 331 331 331 331 331 332 333 334 333 334 334 335 335 334 332 332 333 332 333 332 330 332 330 329 329 329 329 329 328 328 328 328 328 327 326 326 324 322 324 327 328 329 326 323 324 324 324 326 328 327 327 327 328 329 330 330
328 330 330 331 332 333 333 332 331 331 332 332 333 333 331 332 333 333 334 333 332 332 332 331 332 332 331 330 328 328 328 327 329 328 328 329 328 329 328 327 326 325 327 325 322 326 327 327 323 321 320 319 322 323 325 325 326 327 329 329 328 327
329 330 331 331 331 331 333 334 332 330 332 332 335 335 335 333 334 333 333 334 331 331 330 330 331 331 330 330 329 328 327 328 327 328 328 328 328 328 327 327 326 325 324 326 325 328 327 326 322 324 323 320 317 317 320 321 324 325 326 326 328 327
330 331 332 332 333 333 334 333 331 331 333 333 331 334 335 335 334 334 333 334 330 330 330 329 329 330 330 330 329 328 328 328 328 329 327 327 327 327 327 327 326 326 325 322 323 324 328 324 326 322 317 317 317 318 314 317 320 323 325 324 325 326
331 331 333 334 333 333 333 331 330 331 332 331 332 332 332 331 333 334 333 331 330 331 331 331 330 329 330 328 329 328 328 328 329 329 329 327 327 327 327 327 327 326 325 324 322 324 326 325 325 327 321 317 315 314 315 318 320 320 324 324 325 325
333 332 332 333 334 333 331 330 328 327 326 326 326 327 327 328 330 331 332 331 331 331 331 331 331 331 330 330 329 328 328 328 328 329 328 328 327 327 327 326 326 327 325 326 325 324 323 326 326 326 323 322 320 316 316 319 318 312 322 323 325 325
334 333 331 330 332 332 330 330 329 328 328 327 326 327 330 331 331 331 332 329 329 330 330 330 330 330 330 330 329 328 328 329 329 328 328 327 326 327 327 328 328 326 326 325 326 323 323 323 325 325 324 324 323 320 324 320 316 317 314 319 322 322
331 333 334 332 330 332 331 330 329 329 326 325 326 327 328 328 328 330 331 330 329 329 330 330 329 330 330 331 330 328 329 329 328 328 328 327 327 328 328 329 328 327 326 326 326 325 324 324 322 323 324 322 323 320 324 321 322 319 317 314 315 319
328 329 328 327 329 332 330 330 327 326 323 326 327 327 328 328 327 329 330 330 329 328 329 329 329 329 331 331 331 329 328 328 328 328 329 328 328 328 327 327 327 326 325 325 326 326 325 324 324 323 320 320 319 319 320 318 321 319 317 315 314 317
325 326 326 326 326 327 329 328 326 327 325 324 325 325 326 326 326 327 328 328 329 328 328 328 328 330 330 331 331 330 329 328 328 328 330 328 327 327 327 327 328 328 326 325 326 326 325 326 326 324 324 321 318 317 318 318 318 317 317 317 316 316
323 324 325 327 328 328 329 328 327 326 325 324 323 323 323 323 324 326 327 327 328 328 329 328 329 329 329 331 331 331 330 329 328 329 329 327 327 327 326 327 328 328 327 326 325 325 325 325 326 324 322 322 321 320 319 317 317 318 318 314 316 315
322 322 323 326 328 329 328 327 326 325 323 323 323 323 322 321 324 325 326 327 328 328 328 329 329 328 328 329 330 331 331 330 328 329 328 327 327 327 326 327 328 328 327 326 325 325 324 324 324 324 323 322 322 322 321 321 320 320 319 318 318 316
321 321 321 324 326 329 329 326 325 324 323 323 323 323 323 323 325 326 326 326 327 327 328 327 328 328 328 328 329 329 330 329 329 329 329 327 326 326 326 326 326 327 328 327 326 325 324 324 325 324 323 323 322 321 322 322 321 321 319 319 318 315
319 320 321 322 324 325 326 325 325 324 324 323 323 323 323 324 325 326 326 327 327 328 328 328 328 328 329 329 329 330 331 330 330 329 329 329 327 326 326 325 325 326 327 328 328 326 325 325 325 325 325 323 321 321 322 321 321 320 317 317 316 315
318 319 320 321 322 324 324 325 324 324 324 323 324 324 324 325 326 326 327 327 328 329 329 329 329 330 330 329 329 328 329 329 329 328 328 328 327 326 326 326 325 324 325 326 327 326 326 324 323 323 324 324 322 321 321 321 321 320 319 319 318 316
319 319 319 321 320 321 324 325 325 324 323 324 325 325 325 325 326 327 326 327 328 329 329 330 330 329 328 329 328 327 327 327 327 327 327 327 327 326 326 325 325 324 324 326 326 326 326 325 324 324 324 323 322 322 321 321 321 321 318 319 319 318
314 316 319 319 319 320 321 322 323 323 323 323 324 325 325 325 325 326 327 328 328 328 329 329 328 327 326 327 327 327 327 327 326 325 325 326 326 326 326 326 326 325 325 325 326 325 325 324 325 324 323 322 323 322 321 322 322 321 318 318 318 318

ECMWFFLT2_sfc_thetae_060.txt.gz
Theta_e
352 354 353 353 352 352 351 350 350 350 350 350 349 349 349 350 349 348 348 348 348 352 351 351 352 350 348 349 347 346 346 345 345 345 345 346 347 348 348 348 346 345 344 343 342 341 340 339 338 337 337 336 337 343 342 341 341 340 340 340 340 336
353 353 354 353 352 352 352 349 350 349 348 349 350 349 351 350 350 350 348 348 351 352 351 350 350 350 350 350 347 346 345 345 344 345 345 346 346 347 347 347 345 345 343 342 341 342 341 339 339 338 337 337 340 339 343 342 342 339 339 340 339 336
349 353 354 354 352 353 349 351 351 349 349 347 349 350 348 348 348 347 348 348 351 350 352 352 353 349 349 346 348 346 345 344 344 345 345 345 345 346 346 346 345 344 343 341 343 342 340 339 339 338 337 340 341 340 341 342 340 341 340 338 337 335
353 355 354 352 352 353 352 352 351 351 350 348 348 351 349 347 347 347 348 351 346 346 349 352 348 347 349 349 348 346 345 344 344 344 343 346 345 346 345 344 344 343 342 343 347 344 342 340 337 337 341 340 338 338 340 341 338 339 340 338 336 334
354 353 351 352 352 350 350 348 351 350 349 348 349 350 349 350 349 350 350 349 346 343 344 347 346 351 350 349 347 346 346 345 343 343 343 344 343 346 346 345 345 341 343 345 345 346 345 341 340 339 339 339 339 340 340 341 339 338 340 339 337 334
354 354 354 353 352 351 352 349 349 350 349 349 349 349 348 351 350 352 352 349 347 346 349 345 345 347 349 349 347 344 343 345 344 340 342 341 340 342 344 343 342 342 343 345 346 346 344 339 338 339 339 340 340 340 340 340 338 338 340 338 336 334
350 352 353 353 352 351 351 351 351 349 347 345 348 349 349 350 352 352 352 351 350 348 345 348 346 346 346 347 347 346 343 344 343 341 340 341 340 342 342 343 343 344 345 344 344 344 342 339 340 339 339 338 339 340 340 338 337 337 338 337 336 333
349 352 352 354 352 349 351 350 351 348 348 345 347 348 349 350 350 350 351 352 351 348 346 345 341 343 343 346 346 348 346 344 342 342 340 341 338 339 341 344 344 343 342 343 342 342 340 339 339 341 339 340 339 340 339 337 338 339 338 339 337 335
350 352 353 353 349 346 349 349 350 350 347 347 348 349 349 350 350 350 351 351 350 348 346 345 345 346 347 347 347 347 347 343 342 341 342 339 339 339 341 342 342 342 344 343 342 342 339 337 339 341 340 339 339 338 338 337 338 338 337 337 338 336
351 352 353 352 349 348 343 348 350 350 349 348 348 350 352 350 350 348 348 349 350 348 346 347 345 346 345 346 348 349 348 344 341 341 342 340 339 338 339 340 340 340 338 340 339 340 339 337 337 341 341 340 338 338 338 337 336 336 337 338 338 333
351 351 352 350 350 349 350 351 351 351 351 350 350 351 351 350 349 349 349 349 348 347 346 344 345 339 345 346 347 348 346 346 341 340 342 341 342 340 339 339 339 339 339 338 338 339 338 338 339 338 340 339 338 339 338 340 339 338 336 336 337 336
350 351 350 349 350 350 351 351 351 351 352 350 350 350 350 351 349 349 350 349 348 348 346 346 347 343 345 345 345 345 345 345 341 340 342 341 341 341 339 339 340 341 340 340 340 338 338 335 336 336 338 338 339 338 337 340 339 338 337 337 335 336
350 351 350 350 350 351 349 348 348 347 349 349 349 350 349 350 349 350 350 348 347 347 346 345 347 346 345 346 346 345 346 347 346 343 342 343 342 341 340 339 342 343 342 341 340 340 339 338 337 338 340 338 338 338 340 340 341 341 338 337 336 335
346 348 349 350 350 347 347 348 346 347 347 347 348 349 348 350 350 350 350 349 348 347 348 348 345 345 345 346 346 344 345 346 346 347 343 343 341 341 339 338 339 340 338 338 338 340 338 337 336 338 339 339 340 340 341 341 340 340 338 337 337 338
345 345 346 345 346 347 347 345 345 344 346 350 350 350 349 349 350 350 349 349 349 349 348 348 346 345 344 345 344 344 345 346 347 348 345 341 341 340 339 337 337 336 338 337 336 337 337 337 336 336 337 340 340 340 341 340 341 340 337 338 337 338
344 344 344 345 346 345 345 345 346 343 347 349 349 348 349 349 349 348 348 347 348 349 350 348 346 345 344 341 343 343 344 346 347 346 345 344 342 340 340 339 339 338 335 336 337 337 338 338 338 337 338 339 339 340 340 340 340 340 339 338 337 338
342 343 344 344 345 345 345 345 345 345 345 348 348 347 347 349 348 348 347 346 348 349 348 349 348 347 345 342 343 343 345 345 347 345 345 345 343 341 341 340 339 339 339 338 338 339 339 340 339 337 337 339 339 340 341 340 340 339 340 339 339 337
341 342 342 342 343 344 344 344 345 345 346 346 347 347 346 346 346 347 346 344 347 349 348 347 348 347 346 344 344 344 344 345 345 345 344 344 342 341 342 342 340 340 340 339 337 338 338 339 339 338 337 337 341 341 338 338 339 339 337 338 338 338
340 341 341 342 342 343 343 343 345 345 345 346 347 346 348 346 344 346 347 344 342 342 342 346 346 345 344 344 343 343 342 343 343 343 343 342 341 341 341 341 339 340 341 340 338 339 338 338 337 337 337 339 341 340 338 338 339 339 338 339 337 338
339 340 341 342 341 342 342 340 339 343 343 345 345 341 343 345 345 343 344 345 342 342 340 344 344 342 342 340 341 341 343 343 342 342 340 339 340 339 340 341 339 338 339 339 340 339 339 336 335 336 336 339 340 337 338 338 337 339 340 339 339 339
339 341 341 339 340 342 341 341 341 341 341 343 343 341 341 343 343 344 344 343 341 340 340 341 341 341 342 341 341 340 341 340 340 340 339 338 340 341 342 340 339 336 336 336 337 339 338 336 333 332 335 335 335 336 336 335 333 337 338 337 339 337
337 338 339 341 341 341 343 342 341 340 343 342 341 340 340 342 343 343 344 344 342 340 338 339 340 341 341 340 340 341 341 340 339 339 340 338 339 339 336 337 337 333 334 335 334 336 335 335 329 326 324 326 328 332 335 335 334 336 338 337 338 338
337 337 338 339 339 339 340 342 343 343 342 343 344 343 342 343 344 343 342 342 342 342 341 339 340 341 340 340 340 340 340 340 339 339 336 335 338 333 333 332 335 333 331 335 335 337 337 337 330 329 328 324 321 322 328 332 334 333 336 338 339 337
336 338 338 338 339 340 341 341 343 344 345 343 342 344 344 342 343 342 339 340 341 341 340 339 340 340 340 339 340 338 338 337 337 339 336 337 336 335 331 331 333 334 334 329 331 332 338 338 337 329 322 323 323 324 320 324 326 330 336 336 338 336
338 338 339 339 339 341 340 340 341 342 342 342 343 341 340 338 340 341 339 340 341 341 340 339 341 341 339 339 339 339 339 337 337 337 334 335 334 332 333 333 332 332 333 331 328 331 333 337 333 337 329 324 318 316 318 322 325 327 333 333 335 335
339 341 340 342 342 342 340 338 338 337 336 337 336 336 334 334 337 337 337 340 341 340 340 339 339 340 339 339 339 339 339 337 337 336 334 332 334 331 332 332 333 332 330 332 331 329 329 331 333 331 332 330 327 322 321 327 325 319 330 333 333 332
336 337 339 343 344 342 339 339 338 338 337 336 336 338 340 339 339 339 340 339 340 341 339 339 338 338 339 339 339 339 338 338 337 336 335 333 332 334 332 333 335 331 331 331 330 327 327 329 332 331 332 330 331 330 334 328 322 325 318 326 330 331
335 335 337 338 340 340 339 339 338 339 339 339 339 337 339 339 339 339 338 338 339 339 339 338 338 338 339 339 339 339 338 337 336 336 335 333 333 336 335 336 334 333 333 333 332 329 328 328 326 326 331 330 331 330 333 333 329 326 323 319 320 329
332 333 334 336 336 338 338 339 338 338 337 336 338 338 338 338 338 338 338 338 337 337 338 339 338 338 339 339 339 339 337 335 337 336 334 333 334 333 333 333 329 330 333 333 333 334 330 331 330 328 328 329 329 330 329 331 333 332 325 322 320 320
326 329 331 332 334 336 338 337 336 337 336 336 337 336 337 336 338 338 337 337 338 338 338 338 338 338 338 339 339 339 337 336 336 336 335 335 334 333 333 332 332 334 332 331 333 331 330 332 332 332 332 329 326 329 330 327 329 326 327 325 319 321
325 326 328 329 332 333 335 335 335 336 336 335 336 336 334 335 336 338 336 336 336 336 337 337 337 338 337 338 338 337 338 337 336 337 336 337 337 337 335 334 336 333 331 333 335 334 332 332 332 333 330 330 331 330 326 324 327 328 327 321 324 323
323 325 326 326 328 330 331 333 334 336 336 337 336 335 335 335 336 336 335 334 335 335 336 336 337 336 336 338 337 336 337 337 336 337 337 338 337 337 338 338 336 334 334 336 338 337 335 334 329 331 333 335 333 332 330 328 331 329 329 327 325 323
321 323 324 326 327 328 330 331 331 333 335 335 335 335 335 335 336 335 334 334 335 333 335 335 335 336 338 337 336 336 336 336 336 336 337 336 337 339 340 338 337 335 336 335 336 335 335 336 335 330 333 333 335 334 330 331 331 330 331 329 327 324
321 322 324 325 326 326 328 329 331 330 331 332 332 333 333 333 334 335 334 334 334 334 334 335 335 335 336 337 336 336 337 337 338 338 339 339 338 338 338 337 337 336 334 333 334 335 336 337 336 336 336 332 332 333 333 334 333 332 331 326 327 326
319 320 321 323 324 324 325 328 330 331 331 332 331 331 331 332 332 332 332 332 333 334 333 334 334 336 337 339 338 337 337 338 338 339 339 339 337 336 335 336 337 337 333 332 331 334 333 334 333 334 338 336 335 335 336 332 331 329 330 330 329 327
318 319 321 321 321 322 323 324 327 328 330 332 331 331 331 331 331 332 332 332 332 334 334 334 335 336 338 339 337 337 337 337 338 338 338 338 336 335 337 337 336 337 335 333 330 330 333 332 333 336 337 337 333 330 332 332 330 337 336 334 329 329
317 318 319 320 321 321 322 322 324 327 328 330 331 331 331 332 332 333 333 333 332 333 334 333 333 335 336 338 337 336 335 336 337 337 338 335 336 338 337 336 336 335 333 332 332 331 333 330 334 336 335 335 331 330 333 331 333 337 335 335 332 331

ECMWFFLT2_sfc_thetae_063.txt.gz
Theta_e
348 350 348 346 347 346 347 350 350 349 349 349 349 349 349 349 348 349 349 349 350 350 350 350 349 348 348 346 346 346 345 344 344 345 345 347 347 348 348 346 346 344 343 342 341 340 339 338 336 336 336 338 339 341 342 338 336 337 339 339 338 335
348 346 348 345 346 348 349 348 347 349 348 349 349 349 350 348 348 349 349 349 350 348 348 349 348 348 347 348 347 345 345 344 344 345 346 347 347 347 347 346 345 344 343 342 340 339 339 338 337 336 339 339 339 341 344 343 340 339 340 338 337 335
345 347 343 344 343 347 346 346 346 346 347 348 349 350 348 348 347 346 347 346 349 352 352 349 350 347 346 346 347 345 344 344 345 346 346 346 346 346 347 346 345 344 342 342 341 341 339 336 336 338 339 339 343 341 342 341 341 340 338 337 335 335
347 344 345 345 342 346 349 351 348 345 347 346 347 347 346 347 346 345 346 349 353 351 350 347 345 346 346 347 347 345 344 344 344 345 345 346 346 346 346 345 344 343 343 340 344 341 339 338 335 338 341 343 337 337 341 341 337 338 338 335 334 334
349 348 346 343 343 346 346 346 346 351 348 348 348 347 347 347 347 346 349 349 349 348 348 346 346 348 345 348 344 344 344 343 344 343 345 342 344 348 347 345 345 342 340 342 344 344 343 340 340 341 342 339 338 341 340 341 338 339 338 336 335 334
347 347 345 344 345 345 346 343 347 349 351 349 345 350 351 349 347 346 349 348 348 348 345 345 346 343 345 342 345 343 341 341 339 338 339 339 338 343 344 344 342 340 341 344 346 346 344 341 340 341 339 340 340 341 340 339 337 338 338 336 335 334
346 346 343 346 345 343 343 347 348 349 347 347 347 345 348 351 347 345 346 347 346 345 343 343 345 343 342 344 343 344 344 341 340 337 337 339 338 340 340 342 341 340 341 342 343 344 341 339 340 338 338 337 339 339 339 337 337 338 338 337 335 333
345 348 341 344 342 344 347 346 346 347 347 344 345 346 346 350 347 345 344 346 347 345 343 342 340 344 344 345 343 342 342 346 342 337 335 340 338 338 339 343 343 341 340 342 341 342 340 339 339 341 338 338 338 339 339 338 339 337 337 339 334 334
345 345 346 345 344 345 348 349 346 347 347 346 344 346 351 347 345 345 344 344 343 343 343 342 343 343 344 341 340 342 341 344 339 340 338 338 338 338 340 343 344 342 343 342 342 342 339 337 339 340 338 337 339 338 338 338 338 335 336 337 336 334
349 346 344 345 349 349 349 349 348 346 346 346 346 346 346 346 347 346 346 345 343 343 343 342 342 344 344 342 341 337 340 342 341 340 340 338 337 337 338 340 343 343 339 341 341 341 338 337 335 338 339 339 338 338 338 337 336 334 336 337 335 334
351 352 348 348 349 348 347 348 346 345 344 342 343 345 345 346 345 348 347 346 345 344 340 340 339 341 342 342 342 341 341 343 344 344 344 342 340 339 339 339 341 340 341 340 341 341 337 337 336 337 340 337 336 339 339 339 338 339 336 338 335 332
350 353 352 346 349 349 346 345 343 341 340 341 342 345 346 345 345 348 346 345 344 343 343 343 341 340 342 344 342 341 339 343 342 347 344 342 341 340 340 337 338 340 341 342 341 341 340 337 336 336 338 337 339 339 339 340 339 339 339 339 335 334
348 352 351 350 345 348 348 346 342 341 341 342 345 346 344 345 340 345 348 348 345 344 342 341 341 337 339 341 340 339 339 342 343 344 343 343 343 344 341 340 340 341 340 339 340 341 340 338 336 337 338 338 337 338 340 340 340 340 338 338 337 336
350 350 351 351 350 347 345 344 346 348 348 349 347 348 348 347 345 346 349 347 344 340 341 343 342 341 341 339 339 339 340 338 343 345 344 344 342 341 341 339 339 339 339 338 337 339 338 337 334 337 339 340 340 341 340 341 340 340 339 338 338 338
347 350 349 349 348 350 348 348 347 346 346 348 349 348 347 348 347 347 346 345 343 340 341 344 343 343 340 340 336 338 340 342 341 345 345 343 343 342 340 340 339 337 340 338 337 339 338 337 335 336 338 340 340 341 342 341 341 341 337 339 337 337
345 346 348 347 349 348 347 347 347 345 347 349 347 347 348 348 348 346 347 346 346 345 344 343 343 342 337 338 341 340 343 342 339 342 342 344 344 340 341 340 340 339 337 338 338 337 337 336 336 336 338 340 340 341 340 340 341 339 338 339 336 339
344 344 345 346 345 345 346 345 347 348 348 348 346 346 346 349 348 347 346 346 347 346 345 345 344 343 342 339 340 340 342 340 340 342 339 336 342 340 341 339 340 339 339 337 337 336 337 337 337 337 337 339 341 341 340 340 340 339 339 337 336 337
343 344 344 344 345 344 345 346 347 346 348 346 347 346 347 347 346 345 347 345 347 347 345 345 343 343 343 339 340 341 342 341 341 342 339 338 335 335 336 341 338 341 338 338 333 335 336 334 335 337 339 339 341 340 338 339 340 339 338 336 336 336
344 345 344 342 342 343 344 344 344 345 345 346 346 347 347 346 346 346 345 346 347 347 347 347 346 345 339 337 339 341 342 341 341 342 339 337 335 335 336 336 333 334 340 339 340 333 335 336 335 336 336 339 340 340 339 339 340 339 338 336 336 336
343 344 345 345 344 343 344 342 340 342 340 341 344 344 347 346 348 346 347 347 347 348 347 348 346 345 345 340 339 342 341 341 341 340 340 340 337 336 336 334 335 334 336 334 336 335 338 336 335 333 335 337 338 338 338 338 338 338 338 336 336 336
341 344 345 343 344 343 342 343 342 341 339 338 339 343 345 346 346 346 347 347 347 346 344 344 343 344 342 342 342 343 341 341 339 338 341 340 339 340 339 337 337 339 331 333 331 336 330 332 330 335 335 336 333 337 339 339 338 337 336 336 335 336
342 342 342 342 345 345 346 344 341 341 341 341 339 339 339 344 346 346 345 344 345 345 344 344 344 344 343 342 341 341 341 342 342 341 340 341 340 341 338 336 337 336 336 334 334 333 333 333 328 328 328 327 331 328 331 336 337 338 341 339 337 335
341 342 342 342 341 342 345 345 342 339 341 339 340 342 342 343 344 345 346 346 345 345 345 343 343 343 342 342 342 341 342 342 342 341 339 336 339 339 338 336 336 334 335 336 335 335 334 334 329 331 327 326 322 321 325 329 331 334 338 337 338 335
340 341 341 342 341 342 342 344 344 345 341 339 338 339 342 345 342 344 344 345 345 344 343 344 343 342 341 341 342 340 342 341 341 339 339 337 338 337 336 335 338 336 334 332 332 331 335 332 335 327 319 321 321 321 316 321 325 332 337 336 334 337
339 340 341 341 342 343 343 344 344 344 345 343 340 339 342 338 344 343 343 343 343 342 341 341 342 341 341 341 341 341 339 339 340 340 339 338 337 336 335 337 337 336 335 332 330 332 333 333 333 333 328 324 321 318 318 321 327 328 335 332 333 334
339 340 342 345 345 344 343 341 340 338 337 337 335 338 335 334 335 340 339 343 344 342 340 340 341 342 342 341 341 341 341 339 341 340 340 339 338 337 334 337 337 338 333 335 332 330 327 331 333 334 335 332 332 321 320 326 325 320 331 333 333 331
337 337 339 341 342 343 343 341 341 336 338 335 333 333 337 338 338 340 343 342 342 344 342 341 342 342 341 341 341 341 341 341 339 340 339 338 336 337 335 336 337 337 337 334 330 327 329 328 330 330 332 336 334 332 332 326 321 325 320 326 331 330
335 337 338 339 339 341 340 339 338 338 335 334 336 332 337 339 342 341 339 341 341 341 342 343 341 341 340 341 341 341 340 340 339 339 340 337 336 336 336 336 336 336 338 336 333 332 330 330 327 328 334 335 333 332 333 331 329 324 322 320 322 331
331 332 333 334 335 336 338 339 338 339 338 336 335 335 339 338 338 338 339 340 340 340 341 343 341 340 340 341 341 340 340 339 339 338 337 337 338 336 336 335 335 332 334 335 335 333 332 332 332 329 330 329 332 331 330 330 330 328 322 321 321 321
327 329 331 332 333 333 335 336 337 337 337 337 336 339 340 337 336 337 336 337 338 339 339 340 342 341 341 341 342 341 340 339 339 337 336 336 336 336 337 336 334 335 337 333 333 333 331 330 330 336 334 331 328 329 325 327 327 327 326 325 320 321
326 327 328 329 330 331 334 335 335 336 337 336 337 337 338 338 336 335 335 339 339 337 338 339 340 342 341 341 341 341 340 339 339 338 337 335 336 336 336 336 336 335 335 333 331 332 332 333 335 333 329 328 329 330 327 323 325 326 326 324 322 320
325 325 326 328 329 330 331 332 333 334 334 335 337 336 336 335 337 333 334 334 337 337 336 337 339 339 341 342 341 340 341 339 338 338 336 337 337 336 338 336 335 334 333 334 333 332 332 332 332 332 328 330 335 334 331 329 330 331 328 325 323 321
323 324 325 326 326 327 329 329 330 332 333 333 334 335 335 335 336 333 333 335 337 336 335 333 335 338 339 341 340 339 339 338 337 337 337 337 338 338 337 335 335 335 334 333 334 334 333 333 333 331 329 335 332 333 331 332 330 331 331 328 326 323
321 323 324 325 325 325 326 328 329 330 331 332 332 333 334 333 335 335 335 335 336 334 336 335 335 335 341 336 339 339 339 338 338 338 337 337 337 338 338 335 335 335 334 334 335 335 334 333 331 330 336 333 331 331 332 332 331 332 328 327 325 324
320 321 322 323 324 324 325 326 327 328 329 330 330 331 332 333 332 333 334 335 335 335 336 337 336 338 337 338 340 339 339 338 338 339 338 337 337 337 338 337 335 335 334 334 334 334 334 331 332 332 331 332 335 334 332 332 333 331 331 328 329 328
319 320 321 321 322 323 324 325 326 327 326 326 327 329 330 333 334 335 334 334 334 336 336 337 337 338 338 336 338 340 338 338 339 339 335 336 337 335 338 338 336 337 335 338 336 335 335 333 333 331 331 333 333 332 333 333 333 333 336 335 334 332
317 319 319 320 321 321 322 323 324 325 326 326 327 326 327 329 332 335 335 335 335 335 337 337 338 339 336 332 335 338 336 334 334 336 336 338 338 339 338 334 336 336 336 336 334 333 333 335 336 334 330 334 333 331 331 334 335 336 335 334 333 332

ECMWFFLT2_sfc_thetae_066.txt.gz
Theta_e
345 346 347 347 347 348 348 349 349 349 349 349 348 348 348 349 349 349 348 349 350 350 348 348 346 343 345 344 345 347 345 344 344 343 345 346 346 347 347 346 345 343 342 341 339 338 337 336 337 337 338 338 340 338 338 334 331 337 334 334 334 333
344 345 347 349 348 348 349 348 347 348 348 348 348 348 348 346 348 348 349 349 348 347 349 348 347 346 345 343 345 346 345 345 344 344 345 346 347 346 346 346 345 343 342 341 340 336 337 338 338 337 339 338 337 336 341 342 337 335 334 332 333 333
343 344 345 346 349 348 347 346 345 346 346 348 347 346 345 346 345 344 345 345 349 344 344 344 345 347 347 346 346 344 345 344 346 345 345 346 346 346 346 346 344 344 343 342 339 334 333 331 334 339 339 337 336 337 341 341 335 334 332 332 331 335
345 345 344 345 347 348 347 349 347 346 346 346 346 344 345 344 344 342 345 341 343 341 339 340 344 344 345 346 345 345 344 344 345 345 346 344 346 346 346 345 344 344 343 340 336 337 331 329 332 333 334 337 338 337 339 341 333 332 331 333 332 336
347 346 345 345 345 346 347 348 348 350 348 345 343 341 342 343 346 343 344 341 343 341 342 339 342 345 347 347 343 341 343 342 343 342 346 343 344 344 345 343 342 343 339 336 336 339 335 333 334 334 336 338 337 339 341 337 334 332 331 331 332 335
344 346 345 344 345 345 346 345 346 346 348 343 342 343 343 343 345 343 344 344 343 341 342 340 343 344 345 345 346 343 339 340 340 339 341 340 340 345 344 343 341 339 337 337 338 340 341 336 336 338 339 338 339 338 340 335 335 333 332 331 332 335
342 344 343 345 346 345 345 346 348 347 344 342 343 341 342 345 342 346 343 343 342 342 343 341 343 343 343 344 343 345 345 344 342 336 336 337 337 343 342 341 341 338 337 338 339 341 344 340 339 337 337 334 335 337 334 333 335 333 332 331 333 335
343 343 343 345 344 343 345 346 347 347 346 347 345 342 341 343 343 345 344 344 345 344 343 343 341 342 341 344 344 342 344 345 340 340 335 334 335 339 337 339 339 338 337 337 338 340 339 339 339 341 334 334 338 338 334 334 335 334 332 331 332 334
344 343 345 344 342 344 346 348 347 346 346 346 343 341 342 343 344 345 343 342 345 342 343 342 341 343 343 342 341 342 342 341 342 342 339 336 333 339 338 338 338 338 337 338 346 343 339 335 339 338 338 337 334 338 338 338 333 335 333 331 330 332
345 345 344 344 345 345 346 344 346 346 348 346 343 341 341 344 343 341 342 343 343 343 342 341 341 342 341 341 341 341 341 342 342 343 342 338 338 337 338 338 339 338 336 342 343 337 338 337 335 334 337 335 340 337 337 337 335 333 332 331 331 333
346 345 344 345 346 344 345 345 346 344 345 345 346 345 344 343 341 340 340 343 342 342 343 342 340 341 343 342 341 341 340 343 342 341 341 340 338 336 335 336 337 338 337 340 338 338 338 337 335 332 334 335 335 338 337 338 335 333 332 330 330 331
346 346 347 343 345 344 345 346 346 346 346 344 344 343 343 342 340 339 340 339 340 342 341 341 341 339 342 342 342 341 343 343 342 340 340 341 340 337 336 334 335 339 340 341 339 339 338 338 334 331 334 334 334 336 337 336 337 336 332 330 329 329
342 345 343 341 342 346 348 346 346 345 345 343 343 343 342 344 342 341 340 341 342 342 342 341 342 341 341 341 342 343 343 342 343 342 341 340 341 340 339 336 336 339 338 341 339 337 339 338 335 333 336 335 336 335 336 338 337 337 334 330 329 330
343 345 343 342 342 344 346 346 347 346 346 342 343 343 342 343 343 343 340 340 343 344 342 341 341 341 341 342 343 342 341 342 341 340 342 341 340 341 339 336 333 335 338 338 338 336 340 339 335 334 336 337 334 337 339 338 336 338 338 333 331 331
341 341 340 342 341 341 345 346 344 345 344 345 343 343 344 342 343 344 345 345 344 343 343 343 342 342 341 342 340 339 339 340 340 340 340 341 341 340 339 335 334 333 333 336 335 336 337 336 334 332 335 342 338 337 341 339 339 338 336 337 334 331
343 341 339 340 344 345 344 346 345 343 343 344 346 343 344 342 341 344 346 343 344 343 341 342 342 343 342 341 339 338 339 341 340 340 341 341 339 337 338 335 340 333 331 333 333 336 337 335 335 334 337 341 342 340 338 339 338 337 334 337 333 334
346 345 343 342 343 343 346 345 346 346 344 343 342 345 341 342 342 341 342 344 342 341 344 343 343 342 342 340 340 340 341 342 343 341 341 340 339 340 338 336 338 336 333 331 332 334 333 334 334 335 337 338 335 338 338 338 338 338 340 338 336 334
346 346 348 345 344 344 347 347 348 348 345 346 342 340 340 339 338 339 341 341 343 345 346 343 344 343 343 342 341 340 341 342 341 340 341 339 338 338 337 337 336 335 334 334 334 332 331 332 334 336 336 337 332 333 332 336 338 339 338 336 335 335
344 346 347 349 348 344 345 347 347 344 345 344 346 346 347 345 339 337 337 342 345 347 346 343 342 343 343 342 340 340 340 341 341 340 340 339 338 337 336 337 336 335 336 337 331 333 337 337 337 330 329 334 332 330 334 335 334 335 338 338 334 336
345 347 344 346 342 342 343 342 341 343 341 343 345 344 349 348 349 346 342 339 339 341 340 340 339 340 340 340 338 339 340 341 340 340 339 337 337 337 335 334 334 334 333 335 335 334 334 334 333 330 328 330 335 333 334 334 333 336 337 338 337 337
344 345 343 341 341 338 335 339 341 340 343 344 341 343 345 348 348 349 347 345 339 338 337 337 336 338 340 338 337 338 340 341 340 339 338 337 338 338 338 336 334 334 332 332 332 334 335 335 331 329 328 330 329 333 336 336 335 336 336 336 339 336
342 343 344 343 343 342 340 340 337 338 340 343 340 340 341 342 341 343 348 349 348 344 341 340 339 341 341 340 339 339 340 339 340 338 338 338 339 338 338 336 336 334 335 331 331 334 333 331 325 325 324 324 324 328 331 331 333 335 337 338 336 335
341 341 342 342 341 339 340 342 340 340 341 340 342 341 340 341 342 341 345 348 347 346 345 343 344 343 342 342 341 340 340 341 340 339 337 337 338 336 336 336 335 333 332 333 333 335 332 331 326 327 329 323 320 320 323 326 331 331 333 333 338 335
339 341 342 341 341 340 342 344 344 342 343 342 340 341 342 343 343 343 343 345 346 347 344 344 343 343 342 341 341 340 340 340 340 340 339 337 336 335 336 335 334 333 332 329 330 330 333 332 331 327 320 319 319 319 316 320 324 328 331 333 335 333
339 341 341 341 342 342 341 342 342 342 343 342 341 340 340 339 341 339 339 341 344 346 344 343 343 342 341 341 341 341 340 340 340 340 338 336 336 336 336 335 335 333 332 329 327 329 331 333 331 332 326 320 318 317 315 320 323 324 329 329 332 335
336 337 338 339 340 341 340 339 339 336 335 332 332 337 337 337 338 339 336 340 342 344 343 342 343 341 339 340 340 341 341 339 338 339 339 337 337 337 336 335 335 334 332 332 330 328 327 331 332 330 331 329 330 319 318 321 322 316 327 331 331 333
331 332 334 335 336 337 337 339 337 334 334 335 332 335 340 339 338 339 341 340 340 343 343 342 341 340 341 340 341 341 340 340 338 338 339 338 336 334 336 336 336 334 333 332 331 327 327 327 329 327 329 331 331 330 332 324 319 320 315 323 328 328
329 330 332 332 333 335 334 335 337 335 336 334 335 334 336 335 337 337 339 340 340 341 342 341 341 341 341 341 340 339 339 339 339 338 338 337 337 336 335 335 336 335 335 334 331 328 327 328 325 324 328 327 328 329 330 329 325 322 320 316 320 327
327 329 329 330 331 332 333 334 335 337 335 333 334 335 335 334 332 336 337 337 339 339 339 341 341 341 340 340 339 339 338 338 339 338 337 337 338 335 334 332 333 334 333 333 332 331 329 327 328 326 327 326 327 325 326 327 328 326 320 318 319 320
325 326 327 328 329 330 331 332 332 333 334 335 335 336 336 334 333 333 335 337 338 338 338 339 340 340 340 340 340 340 339 338 338 338 337 335 336 336 334 333 332 333 334 332 333 331 329 329 329 329 328 327 324 323 324 325 325 324 324 323 319 320
324 325 326 327 327 327 329 329 329 329 330 331 333 334 334 333 332 332 333 334 336 337 338 337 337 339 342 340 340 339 340 339 337 339 337 336 336 335 334 335 334 334 334 333 332 331 330 329 330 329 329 328 326 324 323 321 322 323 323 321 321 321
322 323 324 325 326 327 327 327 327 328 328 329 331 331 331 332 334 332 334 334 335 336 335 336 336 336 338 339 339 340 340 339 338 335 336 335 335 335 334 335 334 334 333 333 333 331 329 328 329 328 328 328 328 329 327 325 325 326 324 324 322 321
319 321 322 324 324 324 325 326 326 326 327 328 328 328 328 330 332 332 333 333 333 334 334 334 335 335 337 342 341 339 338 338 335 337 335 334 335 335 333 334 333 334 333 331 332 331 329 329 329 327 327 329 328 328 328 329 330 328 328 327 325 322
318 321 321 321 322 322 323 324 325 326 327 326 326 326 327 327 329 331 332 332 332 332 333 334 334 335 338 337 338 335 335 337 337 335 334 333 335 334 334 334 334 333 332 331 331 331 331 331 330 329 330 328 327 327 327 329 330 329 326 326 323 322
317 319 320 320 321 320 321 322 323 325 325 325 325 326 326 327 327 327 329 331 333 333 333 333 334 336 337 337 337 337 336 334 334 334 333 333 334 334 333 332 332 333 333 333 332 331 331 331 330 330 330 328 328 328 329 330 330 328 330 328 325 324
317 318 318 319 319 320 320 321 322 322 322 323 324 325 326 326 326 327 327 328 331 333 334 334 335 335 336 336 335 334 336 335 334 334 334 333 334 333 332 332 334 331 331 333 331 331 330 331 330 331 330 329 329 329 331 331 330 330 331 329 328 327
317 317 318 319 319 320 319 319 319 319 320 321 321 322 322 323 324 325 326 328 329 331 334 335 334 335 335 336 335 335 334 335 334 333 331 330 331 331 332 331 331 331 330 331 331 330 330 329 331 331 331 330 330 330 331 332 330 331 331 330 329 329

ECMWFFLT2_sfc_thetae_069.txt.gz
Theta_e
342 342 343 344 346 346 348 349 349 348 348 349 349 349 350 350 350 349 348 349 349 344 343 342 342 341 345 342 345 346 345 345 344 344 345 345 346 346 346 345 344 343 341 341 339 339 339 340 340 341 342 344 343 334 334 331 333 333 332 333 333 333
344 345 344 345 346 347 347 348 345 345 345 346 348 348 347 347 350 344 349 348 344 343 340 341 343 345 343 343 344 346 345 345 345 345 345 345 345 347 346 345 344 343 342 340 340 332 335 339 340 340 341 343 337 332 334 332 331 331 331 331 333 335
343 344 344 344 345 346 344 344 344 344 346 348 347 347 344 345 343 345 345 345 342 337 337 337 339 345 346 345 345 346 345 345 345 346 346 345 346 346 347 345 344 343 342 341 335 331 329 328 328 338 340 336 331 333 335 331 330 329 329 331 330 337
342 342 342 343 344 343 342 342 342 343 343 343 343 344 341 340 339 340 340 339 338 335 337 336 345 346 347 343 344 345 345 345 346 345 346 345 346 346 346 346 344 344 343 341 333 333 331 326 325 326 328 328 330 334 333 330 329 329 330 333 331 336
342 342 342 343 343 342 344 343 343 342 341 340 339 338 338 340 339 341 339 339 339 336 336 337 338 341 341 342 340 340 338 337 338 339 345 338 339 343 344 342 340 341 337 337 335 332 332 328 327 328 329 329 332 334 331 330 329 329 329 330 332 336
343 342 341 340 342 345 344 341 340 339 338 340 339 338 338 339 339 337 339 338 339 337 337 335 337 340 340 340 339 337 337 335 335 336 342 339 339 340 341 340 339 339 337 336 334 333 333 333 327 328 329 331 333 333 330 329 329 328 329 329 333 335
341 341 341 342 342 342 340 341 341 338 336 337 339 337 337 338 338 338 339 340 336 335 336 335 337 338 338 339 339 339 337 336 335 333 335 336 335 339 341 340 338 337 336 335 335 334 335 335 331 330 331 332 332 333 331 329 329 329 328 330 334 336
340 339 340 341 340 340 341 342 340 342 337 340 340 337 335 337 336 339 339 339 340 338 338 335 336 337 337 338 338 337 338 339 338 336 336 332 331 335 340 340 338 337 336 334 334 334 335 336 333 334 333 330 330 332 331 330 329 329 329 329 331 335
341 341 341 341 340 340 341 342 340 337 336 341 338 337 337 338 338 339 338 337 342 338 339 338 336 337 337 336 337 338 337 336 338 338 337 334 333 331 335 337 336 337 336 334 333 334 335 333 331 332 331 330 331 332 332 331 329 329 329 328 329 333
341 341 340 340 340 341 341 341 341 340 339 341 337 337 338 337 338 338 337 338 339 337 337 336 336 337 336 336 335 336 336 337 337 337 337 336 335 334 334 333 334 335 335 334 335 335 334 334 333 331 331 330 332 332 331 331 330 329 329 328 329 333
342 343 340 340 340 341 341 340 341 342 342 338 338 338 337 337 336 334 337 338 339 338 337 336 336 336 336 336 335 335 335 336 337 337 336 335 335 335 334 332 332 333 334 331 331 332 334 332 332 331 330 330 331 330 331 331 330 329 328 328 328 330
341 342 342 342 342 340 340 341 341 340 340 339 339 338 337 338 339 336 336 336 336 337 337 335 335 334 335 335 335 335 336 336 337 336 336 336 336 335 335 335 334 334 335 334 332 332 333 332 332 331 329 331 331 330 331 330 329 329 329 328 328 329
341 341 338 338 339 339 342 342 341 340 340 341 337 337 336 336 336 335 335 335 335 337 337 336 335 335 337 336 336 336 336 337 338 337 336 336 337 336 335 335 335 335 333 331 332 331 333 333 331 331 330 330 330 330 332 332 330 329 328 328 328 328
340 340 339 339 339 338 340 341 341 341 341 339 338 338 338 338 338 336 335 334 336 338 338 338 337 336 336 336 336 336 336 336 337 335 336 336 336 336 335 334 334 333 334 331 329 331 330 329 332 332 330 329 330 331 331 332 332 328 328 327 328 328
339 337 339 338 337 337 340 341 341 341 339 339 339 338 337 336 336 336 338 336 338 338 339 338 337 337 336 335 336 335 335 335 336 335 334 335 336 335 335 334 333 331 330 330 330 329 330 330 331 332 330 332 331 333 333 332 333 333 327 327 328 328
338 337 335 337 338 338 338 338 337 343 339 339 339 337 337 336 335 337 340 339 340 339 339 338 338 338 336 336 335 335 334 335 336 335 334 334 335 334 332 333 333 332 329 329 331 330 331 330 331 331 331 333 335 332 332 333 334 333 330 329 328 328
337 337 336 335 337 338 338 335 335 335 336 337 337 338 337 336 335 336 336 337 337 339 339 338 339 339 337 336 335 335 335 335 336 334 333 333 334 333 330 332 332 332 330 328 328 329 331 330 331 332 332 331 331 331 329 330 331 331 332 332 331 329
338 338 337 337 337 338 339 337 336 336 339 338 336 336 336 335 335 335 336 336 337 338 338 338 338 338 337 337 335 335 334 336 337 335 334 333 333 333 333 332 331 331 330 329 328 328 329 329 330 332 331 330 329 329 330 331 331 332 331 332 332 332
338 339 338 338 340 339 339 338 337 337 337 335 333 335 335 334 335 335 335 336 336 337 339 339 339 339 337 337 336 335 335 335 336 335 334 334 333 332 332 330 330 330 329 329 328 328 329 329 330 329 328 330 329 327 330 332 331 331 330 332 333 334
337 338 338 337 337 336 336 336 334 334 334 334 332 333 334 334 334 334 335 335 336 336 337 337 336 336 336 337 335 335 335 335 334 334 334 333 333 332 331 330 329 329 327 328 332 329 328 329 327 326 325 325 330 329 331 330 332 332 330 331 333 333
336 336 334 334 334 333 330 332 333 333 333 333 332 334 334 334 334 333 333 334 335 335 334 333 334 334 334 337 336 333 334 334 335 335 334 334 333 333 333 331 329 328 327 326 328 328 328 328 326 323 324 326 325 328 331 331 330 330 330 330 333 332
337 337 336 337 335 336 333 334 331 331 331 332 331 332 331 333 334 334 334 334 333 332 332 333 334 333 335 335 334 333 333 334 335 334 334 335 334 335 333 332 331 328 327 327 326 328 328 329 324 323 320 320 322 324 327 329 329 331 331 330 331 330
336 336 335 337 335 333 335 335 333 332 334 332 333 333 332 333 334 333 333 335 334 333 333 334 334 335 334 335 335 334 334 335 336 336 334 333 333 333 334 333 332 330 327 327 327 328 329 329 322 323 323 319 316 317 322 324 326 327 329 331 331 330
333 336 335 336 336 335 335 336 337 336 335 334 332 336 334 334 333 331 331 333 334 334 334 333 335 336 338 338 336 335 335 336 335 336 335 333 332 332 332 332 329 329 329 327 328 327 330 330 326 321 316 317 318 318 315 318 321 324 329 329 331 329
329 331 333 332 333 335 335 334 334 334 334 333 332 331 332 330 332 333 332 331 332 333 333 333 334 336 338 337 336 337 336 336 335 335 334 333 331 331 330 330 331 329 329 328 327 328 329 330 328 328 322 317 315 314 315 318 320 321 327 327 329 329
327 329 329 329 330 332 332 333 331 330 328 326 325 326 327 327 329 331 331 332 334 333 333 332 334 335 336 335 336 337 336 336 336 334 331 329 328 328 328 331 328 329 327 330 328 327 327 330 330 329 327 324 323 317 316 319 319 314 325 326 325 329
325 326 327 327 329 330 330 331 331 332 332 329 327 327 330 331 330 330 333 333 335 336 338 335 333 334 335 336 336 335 335 334 333 331 330 331 330 330 330 329 330 330 330 329 328 325 325 327 329 328 328 327 327 325 326 321 317 318 316 320 324 325
323 324 325 326 326 328 328 329 329 330 330 331 330 329 329 328 328 329 329 331 333 334 335 335 335 334 335 335 335 334 334 333 335 332 330 331 331 331 331 330 331 330 330 330 328 326 325 326 325 324 327 326 325 326 326 325 324 320 317 316 319 325
322 323 325 326 326 327 328 327 327 327 326 328 330 331 332 332 328 328 327 329 331 333 334 334 335 335 335 335 336 334 333 333 331 331 332 331 332 332 330 329 328 328 327 328 328 328 327 327 326 325 323 323 325 323 324 322 324 323 318 315 315 320
321 321 323 324 325 325 326 326 325 325 325 325 326 327 328 328 329 329 328 329 330 331 332 332 334 334 334 335 335 334 333 332 331 332 332 332 331 330 330 329 329 328 328 328 330 329 328 327 326 327 326 324 322 322 322 321 320 321 322 320 316 318
320 320 321 322 323 323 324 324 323 324 324 324 325 324 323 323 326 326 327 329 330 331 333 333 332 333 333 334 334 333 332 331 331 331 331 331 330 330 329 330 330 329 328 328 327 328 327 327 327 327 326 325 323 322 321 319 320 322 321 319 319 319
317 318 319 320 321 321 321 322 323 323 323 323 323 323 322 322 324 324 325 325 327 328 329 330 330 329 330 331 332 332 332 332 332 330 330 330 330 330 329 330 330 330 329 328 328 328 329 328 327 326 327 326 325 325 324 323 323 324 322 321 320 319
314 315 316 318 319 320 320 320 321 320 320 321 320 322 323 323 323 322 322 323 324 325 327 328 328 329 330 332 332 332 332 329 330 331 331 329 328 328 328 329 329 329 329 328 329 329 328 328 328 326 326 327 326 326 325 326 326 325 324 323 322 319
313 314 315 315 317 318 318 319 319 318 319 319 320 321 322 321 320 320 321 321 323 324 325 326 328 329 330 332 332 332 331 330 330 331 330 330 329 329 330 330 328 329 329 329 329 328 328 328 328 328 327 326 325 326 326 328 327 326 324 322 321 320
312 313 313 314 315 315 316 317 316 317 318 318 319 320 320 320 319 318 319 321 322 323 323 324 326 329 330 330 331 331 331 330 331 330 330 329 329 329 329 329 329 328 328 329 328 327 327 327 327 327 327 326 326 326 326 327 328 326 326 325 324 323
312 312 312 314 313 313 314 314 315 316 316 318 319 319 319 319 319 319 319 319 319 320 321 322 325 326 327 329 330 330 331 330 330 330 330 330 329 329 329 327 327 327 327 329 329 328 328 327 327 328 327 327 326 325 325 326 327 328 327 327 326 326
311 311 312 313 312 312 313 313 314 315 315 316 317 316 317 317 318 319 318 317 317 318 320 321 322 325 325 327 329 329 329 330 329 329 329 329 328 328 329 328 327 327 326 328 327 326 327 328 328 328 328 327 325 325 326 327 327 328 328 326 326 326

ECMWFFLT2_sfc_thetae_072.txt.gz
Theta_e
342 343 343 343 343 344 347 348 348 349 349 349 350 350 349 349 349 349 347 348 347 340 338 338 339 340 345 343 347 346 346 346 345 345 345 345 347 346 345 344 343 341 341 340 340 340 340 341 342 342 343 343 340 331 330 329 330 332 331 333 333 331
340 341 342 344 344 344 345 346 341 342 343 345 348 349 347 344 349 341 348 345 340 341 335 335 337 344 340 342 343 346 346 346 345 346 345 345 346 346 345 345 344 342 342 341 340 330 332 336 340 341 343 340 332 331 330 330 330 330 331 330 333 335
340 341 342 341 343 344 342 341 340 340 343 347 346 346 342 343 340 340 341 341 339 335 334 334 337 343 341 345 343 345 346 346 346 346 345 345 345 346 346 345 344 343 342 342 334 329 327 326 325 335 337 330 330 330 329 329 329 329 329 331 329 337
341 341 341 340 342 341 340 340 340 341 340 340 339 340 336 335 335 336 339 337 335 337 334 332 345 348 349 340 340 345 345 345 346 346 346 343 345 345 346 346 344 344 342 338 329 328 330 327 326 324 324 327 330 329 328 328 328 328 329 333 330 337
341 341 340 341 341 338 339 339 338 338 338 336 334 334 335 336 337 336 336 336 335 336 333 333 335 337 338 337 336 336 338 336 336 336 344 334 335 340 341 338 337 338 331 331 331 331 327 328 329 327 325 327 331 329 328 328 328 328 329 330 332 337
340 340 340 339 338 341 341 338 337 336 335 336 333 334 334 333 335 336 335 337 339 334 333 332 332 333 336 335 335 334 333 333 333 333 339 333 334 335 335 338 336 336 335 335 334 332 328 331 330 329 328 327 331 329 328 328 328 328 328 328 333 336
339 339 338 338 338 340 338 338 337 336 335 334 335 333 335 335 335 334 336 338 334 333 333 331 331 333 334 335 336 334 334 333 331 330 332 333 332 334 336 336 335 335 334 335 335 334 331 330 330 331 331 329 331 329 328 327 327 327 327 329 335 337
338 338 336 337 337 338 337 338 338 341 336 339 336 333 333 336 336 336 337 338 337 334 334 332 332 332 333 333 336 336 335 335 334 331 331 330 330 330 335 336 335 336 336 336 335 334 332 332 332 332 332 330 330 328 327 327 327 327 327 328 331 335
339 338 337 337 337 336 338 338 336 333 332 343 334 334 333 335 334 335 336 338 340 334 335 332 332 333 333 332 333 334 334 334 333 333 333 331 329 328 330 334 336 337 336 335 332 331 332 333 332 331 331 331 329 328 327 327 327 327 327 328 329 333
338 338 338 337 337 336 337 336 335 334 333 341 335 335 333 334 333 335 336 336 336 335 335 333 332 332 332 332 331 332 333 332 333 333 332 332 332 331 330 330 331 332 334 334 334 332 332 331 331 330 329 329 328 329 328 327 327 327 327 328 329 333
339 342 337 337 336 335 336 335 336 336 337 338 335 335 333 332 336 336 335 334 335 335 333 332 331 331 332 332 333 333 333 331 333 334 333 331 333 332 331 331 330 330 330 331 329 329 331 330 329 330 330 328 329 329 328 328 327 327 328 328 329 330
339 339 338 336 337 336 336 336 338 337 336 335 336 333 333 334 337 334 334 333 333 333 335 332 332 332 334 333 333 332 332 332 333 332 333 333 333 333 332 331 333 332 332 332 331 329 329 329 329 329 330 329 330 328 328 328 327 327 328 328 328 329
338 338 335 336 335 336 336 338 337 336 337 338 337 335 334 335 334 332 331 331 331 332 333 334 333 333 336 332 332 332 331 333 333 334 334 333 333 333 333 333 331 332 331 330 329 329 330 329 328 329 329 329 328 327 329 328 327 327 327 327 327 328
337 336 335 335 336 336 337 337 337 335 337 335 334 333 335 333 334 333 333 331 332 333 334 333 333 332 332 332 332 332 333 333 333 334 334 333 332 331 331 331 331 330 333 332 328 328 327 327 328 328 329 330 329 328 328 328 328 327 327 327 327 327
337 334 337 335 335 334 336 338 337 336 335 334 333 332 332 332 332 334 331 331 332 333 335 335 334 333 332 331 331 332 331 333 331 332 332 332 332 331 330 331 330 329 328 328 329 329 328 327 327 328 329 330 329 328 329 328 328 327 327 327 327 327
334 333 332 333 334 335 336 335 335 341 335 334 334 332 333 332 333 332 334 334 333 334 335 334 334 333 332 332 330 332 331 330 331 332 331 330 332 330 330 328 329 329 326 327 327 328 329 328 327 328 329 330 330 331 329 330 328 326 326 326 326 327
334 333 333 334 334 335 335 333 332 333 334 335 333 333 333 333 333 333 333 334 332 335 335 334 333 333 331 332 330 332 331 330 331 331 330 328 329 329 328 328 326 330 327 326 326 327 328 328 328 330 330 329 329 329 329 328 329 327 326 325 326 326
335 335 334 333 334 334 335 334 334 330 337 334 332 333 333 332 333 332 331 332 333 334 335 334 333 333 332 333 332 332 330 330 331 331 330 328 328 328 328 327 327 327 328 326 325 325 325 327 328 329 328 329 327 326 327 328 329 332 328 326 327 327
335 334 335 335 337 336 335 332 331 330 332 331 331 330 331 330 331 330 329 330 332 333 335 336 336 335 334 334 333 332 331 330 331 331 331 330 329 327 328 328 328 327 328 328 327 326 326 326 327 328 328 327 327 326 327 328 329 329 328 329 330 330
333 333 333 333 333 331 330 330 329 328 329 329 330 331 331 330 330 330 330 331 331 331 332 334 334 335 335 335 332 332 331 331 330 330 332 332 331 331 330 328 328 328 327 327 329 327 326 326 327 326 326 325 326 327 327 327 328 329 329 330 331 332
332 331 330 330 329 328 326 326 328 327 327 329 329 331 330 330 329 329 329 330 329 330 329 329 331 331 333 335 334 332 330 331 330 329 331 332 332 332 332 330 328 328 327 325 326 327 327 326 324 322 322 324 324 325 329 329 327 327 328 329 330 330
334 334 334 334 332 331 329 330 329 328 326 327 327 328 328 327 328 330 330 329 330 330 329 328 330 330 331 330 331 331 332 332 331 328 328 332 332 332 330 330 331 330 329 327 324 323 324 325 321 321 318 316 319 322 325 328 328 328 328 329 329 329
333 331 332 334 335 334 332 334 331 330 329 328 329 329 330 330 330 330 329 329 329 329 329 329 330 331 330 331 331 331 332 329 329 329 329 330 329 328 328 330 331 330 329 326 326 326 325 327 321 319 318 318 317 317 320 321 324 326 328 328 329 329
328 328 329 330 332 334 337 337 337 335 333 330 328 332 330 329 330 330 330 330 328 329 329 330 330 330 331 333 332 332 331 331 330 331 330 329 329 329 329 329 329 330 329 326 327 328 329 328 325 319 316 317 318 316 315 317 320 323 328 329 329 328
326 326 327 328 330 332 333 333 334 334 333 330 331 330 330 330 329 329 330 329 330 330 331 330 329 329 331 332 333 334 333 331 331 330 330 330 329 329 330 330 331 330 329 327 326 328 328 329 328 326 322 316 314 313 315 317 318 320 325 326 328 328
325 325 325 327 329 329 330 330 330 329 329 329 328 329 329 329 329 329 329 330 331 331 331 331 330 329 331 332 332 332 332 333 331 330 330 330 330 330 328 328 328 328 328 329 328 327 327 328 329 329 327 326 322 317 315 317 316 312 322 326 327 328
322 323 325 326 327 328 327 328 328 328 329 328 327 327 330 332 332 332 332 331 332 332 331 331 330 330 330 331 332 332 330 330 330 329 330 328 328 327 328 327 328 327 327 327 325 323 324 325 327 328 328 326 325 325 321 318 315 315 314 319 325 325
320 322 323 325 325 326 325 326 326 326 327 326 326 325 327 329 330 331 330 330 330 332 331 331 331 330 331 332 332 332 331 330 331 331 330 329 328 328 329 329 329 329 329 328 327 325 324 325 323 323 327 325 323 324 324 323 322 319 315 314 318 324
320 320 320 322 322 322 324 324 325 325 324 325 326 325 327 327 326 327 327 328 329 330 332 331 330 330 331 332 333 333 330 330 330 330 331 329 328 329 329 328 328 329 328 328 328 328 325 324 324 323 323 324 324 323 324 323 323 322 316 314 315 319
319 320 321 321 321 320 322 323 321 321 321 321 323 324 325 324 323 324 323 325 326 327 328 329 331 331 331 331 331 331 330 330 330 330 331 330 329 328 329 328 329 329 329 327 327 326 325 325 325 326 325 324 321 321 321 321 321 321 319 318 314 316
317 318 320 320 320 320 320 319 319 319 319 319 320 321 321 320 320 320 320 321 323 325 326 326 327 328 329 330 330 331 331 331 329 330 330 329 329 329 329 328 329 328 328 327 326 327 326 326 327 326 326 325 323 322 320 319 320 320 319 317 316 317
313 314 315 318 319 319 318 317 318 318 318 319 319 319 318 317 318 317 318 318 321 322 322 323 323 325 326 328 329 329 330 330 330 329 328 329 329 330 330 330 330 329 328 328 328 328 327 326 326 325 325 325 325 325 324 322 322 322 320 319 318 317
311 312 313 314 314 315 316 316 316 317 317 319 318 318 316 316 317 316 317 318 318 318 319 319 321 322 324 326 327 328 329 329 329 329 329 328 328 329 330 330 329 329 328 328 328 327 327 326 326 325 325 326 326 326 325 325 324 322 322 322 320 317
310 311 312 312 313 312 313 314 315 315 316 317 316 316 316 315 316 316 316 315 316 317 318 318 320 321 323 324 325 327 329 329 329 329 329 328 328 328 329 328 328 327 327 328 328 328 327 327 327 327 327 326 326 326 326 326 325 324 322 321 319 318
309 311 312 311 311 311 312 312 313 314 315 316 316 315 316 316 315 315 314 313 313 315 316 317 318 320 322 322 322 323 324 324 324 324 325 326 327 327 327 328 328 329 329 329 329 328 327 327 326 326 327 327 326 326 326 326 325 324 324 323 321 320
308 310 312 312 310 310 310 311 312 312 313 314 315 314 315 315 315 315 313 311 311 312 314 315 317 319 320 318 317 318 318 317 318 320 321 323 324 326 326 326 327 328 327 329 327 326 326 326 326 326 326 326 326 325 327 326 326 325 325 325 324 323
309 310 311 311 310 309 309 309 309 310 311 312 313 312 313 313 313 313 311 310 311 312 313 314 315 318 316 316 316 315 312 311 310 311 314 318 321 324 326 326 326 327 326 327 327 326 326 326 326 327 326 325 326 326 326 326 326 326 326 324 324 324

ECMWFFLT2_sfc_thetae_075.txt.gz
Theta_e
340 340 340 339 338 339 343 345 345 346 346 346 346 347 347 348 348 348 347 347 344 339 336 336 336 338 345 342 346 345 345 344 344 345 345 345 345 344 344 343 343 341 341 341 341 341 340 341 341 343 342 341 339 329 328 327 328 329 328 331 333 328
338 339 339 341 340 341 343 345 339 340 341 343 347 348 345 343 347 340 347 341 338 341 333 335 336 345 337 341 342 345 345 344 344 344 343 345 345 345 344 344 343 342 342 341 341 331 330 336 339 342 341 341 331 328 328 328 327 329 329 328 331 334
338 338 339 338 341 342 341 339 338 338 341 346 346 347 341 341 338 338 340 338 336 331 332 332 335 341 341 344 341 345 345 345 345 345 344 344 345 345 345 344 344 343 342 342 332 328 327 324 325 337 338 331 328 328 328 328 327 328 328 328 327 338
338 337 338 338 339 339 337 336 336 336 338 338 337 339 338 337 336 338 339 336 333 334 331 329 345 348 346 339 337 345 345 345 345 345 345 341 345 345 346 345 344 343 335 334 332 331 329 325 324 321 322 326 327 328 328 328 328 327 328 332 328 338
338 337 337 338 339 337 335 335 334 335 336 335 335 334 333 333 333 334 334 333 332 334 330 329 332 335 337 335 333 333 333 334 331 332 342 328 331 335 338 337 334 335 332 334 333 331 328 327 327 324 324 326 327 326 327 328 327 327 327 330 329 338
338 337 337 336 336 339 339 333 333 334 333 332 332 332 332 333 333 332 332 334 335 331 330 329 329 331 335 332 333 332 330 330 328 329 338 331 330 333 335 336 337 335 333 334 333 331 328 330 327 327 324 327 328 326 326 326 326 327 328 328 331 338
337 337 336 335 337 336 334 333 332 333 332 330 332 332 332 334 333 333 333 336 333 332 332 329 328 331 334 333 332 332 330 329 328 328 330 331 329 329 332 335 335 335 333 334 335 334 331 329 328 328 327 327 329 327 326 325 326 326 327 328 332 338
336 335 333 335 336 335 333 333 334 339 334 337 335 331 331 334 335 335 336 335 335 332 333 330 328 330 333 333 333 332 332 333 330 328 328 329 329 327 330 332 334 335 336 336 335 335 333 331 330 329 330 328 329 327 326 325 326 326 326 327 330 337
335 335 334 335 335 334 334 333 335 332 331 341 331 330 331 335 335 335 336 336 337 331 334 331 328 329 331 331 330 332 332 332 331 330 329 328 327 325 326 330 332 335 336 335 332 333 332 332 331 330 329 329 328 327 326 325 325 326 326 326 328 333
335 335 334 334 334 335 334 332 331 331 331 338 331 330 333 333 334 335 335 335 336 335 334 333 330 328 329 330 330 329 333 331 331 330 331 329 329 328 327 326 327 329 330 331 332 332 333 331 330 330 328 328 327 327 326 325 325 326 326 327 327 331
335 338 334 333 332 333 335 332 332 331 331 333 334 333 331 330 334 336 336 335 336 338 336 334 331 329 332 330 329 330 331 330 332 331 331 329 329 329 328 327 328 328 327 327 328 330 331 330 329 330 330 328 327 327 326 326 325 326 326 326 327 328
335 336 335 334 336 334 334 333 334 333 333 332 335 332 331 332 336 336 336 335 336 336 337 334 331 329 333 332 331 329 329 329 329 329 331 331 330 331 329 328 329 329 329 329 328 328 328 330 329 329 330 330 328 327 326 326 325 326 327 327 327 328
334 334 333 333 332 332 332 334 334 332 334 338 335 333 331 332 334 335 334 335 335 336 336 336 333 332 334 331 330 329 329 329 330 330 330 331 331 330 331 329 329 329 328 326 326 327 328 327 328 329 329 329 327 328 328 326 326 326 326 327 327 327
334 333 334 332 332 332 332 333 334 333 337 337 336 336 335 331 333 334 332 330 332 335 336 335 333 331 329 328 330 331 330 330 330 332 333 331 329 328 328 328 329 328 332 328 327 326 325 326 327 327 327 328 327 328 328 327 327 327 327 327 327 326
337 333 335 332 332 331 334 334 333 333 335 336 336 335 335 335 333 333 331 329 329 331 333 334 333 331 329 328 327 329 329 329 329 333 333 333 332 330 329 329 327 328 327 327 326 328 326 326 326 327 327 327 327 327 327 328 327 326 326 327 327 326
333 332 330 332 331 332 332 331 331 339 332 332 333 332 332 333 334 334 335 335 333 332 331 331 331 331 331 329 328 329 328 328 329 331 331 331 331 329 328 329 328 326 325 326 326 327 326 326 326 326 327 327 327 329 327 328 328 327 327 327 327 328
329 329 330 330 330 332 332 329 330 329 331 332 333 332 333 333 334 332 331 332 334 336 336 335 335 335 334 333 332 331 331 330 331 330 329 328 328 328 327 328 325 326 325 326 325 325 326 325 326 326 327 326 326 326 326 327 328 328 328 327 327 327
333 332 330 330 330 330 332 331 330 328 336 333 332 332 332 331 331 330 329 329 330 333 337 338 338 337 336 336 335 334 332 331 331 331 330 328 329 328 329 329 328 326 326 325 324 324 325 325 326 326 326 324 323 324 325 327 328 332 327 326 327 326
332 331 330 332 336 335 332 329 327 328 329 330 328 328 329 328 329 328 327 327 330 330 333 335 335 335 334 333 334 334 333 333 333 331 330 331 332 331 330 330 329 329 327 328 327 324 325 324 325 325 325 326 326 325 325 327 328 329 327 327 327 328
333 333 331 331 331 331 332 329 329 327 326 327 326 328 328 327 327 327 328 329 328 327 328 330 330 332 332 334 333 334 334 333 331 330 331 332 333 333 331 330 329 329 329 328 329 328 325 323 323 323 324 324 325 325 325 326 327 327 327 327 329 330
332 333 333 333 331 329 327 326 324 326 325 325 328 330 327 326 326 328 329 327 327 327 327 326 330 328 329 332 335 335 334 332 328 330 331 332 332 332 333 332 330 330 329 328 328 328 327 326 325 323 321 321 321 323 326 326 325 326 326 327 328 329
329 329 330 332 332 331 329 331 329 326 326 324 325 325 326 327 328 329 328 327 327 327 326 326 329 328 329 327 328 328 329 329 330 330 330 330 331 333 332 331 331 330 330 329 328 327 327 326 322 321 320 318 317 318 323 325 324 325 326 327 328 328
326 327 328 330 330 331 331 332 329 326 326 326 326 327 328 327 329 328 326 325 326 325 326 326 327 329 328 328 327 327 328 327 327 328 328 328 328 328 329 329 330 329 329 329 329 329 326 328 324 320 320 319 317 315 316 320 323 324 325 326 327 327
325 326 326 328 330 331 332 329 329 329 327 326 327 331 328 327 327 326 327 326 325 325 326 325 326 326 327 327 327 328 329 328 329 330 329 328 328 328 328 329 329 329 328 325 327 328 329 327 327 323 317 316 317 316 314 315 318 322 326 325 325 326
324 325 326 327 327 329 330 329 329 328 329 327 326 326 327 327 327 329 329 328 328 327 328 327 327 326 328 329 329 329 330 331 330 328 328 328 328 328 329 329 330 329 329 327 326 328 329 329 328 328 324 318 316 314 315 316 313 315 323 324 325 326
322 323 324 325 327 327 326 327 326 325 323 322 321 322 323 323 323 324 325 326 328 329 329 327 326 328 328 330 328 328 329 330 329 328 327 328 329 329 329 329 330 329 329 329 327 326 325 328 329 328 327 326 324 319 318 316 315 312 319 324 326 326
320 320 322 323 325 326 325 326 326 325 323 321 320 320 323 324 323 323 323 324 326 328 329 328 328 328 328 328 328 328 328 328 328 326 327 326 326 327 327 327 328 327 327 327 327 323 323 324 326 328 328 327 327 326 323 318 315 317 314 317 323 325
318 319 319 321 321 324 324 324 324 323 324 323 323 322 323 322 322 323 321 322 323 325 326 327 327 328 328 328 330 329 329 326 327 327 327 326 326 326 326 326 326 327 328 328 327 325 324 325 322 323 327 327 326 327 326 324 322 319 317 314 317 324
317 317 318 320 319 320 322 321 321 321 321 322 324 323 323 322 320 320 319 320 322 323 323 324 325 326 326 326 328 328 329 328 328 328 329 328 328 327 326 326 326 327 328 328 328 328 326 325 325 324 324 324 325 325 325 324 324 322 317 315 315 318
315 316 318 318 317 317 318 320 319 319 319 319 320 320 320 319 318 319 318 319 320 320 320 321 322 323 324 324 325 327 327 328 328 328 330 330 330 329 328 328 329 328 329 328 329 328 327 327 326 326 325 324 322 322 322 322 321 321 320 319 315 316
313 314 315 317 318 317 318 318 318 319 318 318 318 317 316 316 317 317 316 317 318 319 320 320 320 321 322 323 323 326 327 327 328 328 328 328 328 329 330 330 330 330 329 328 328 328 327 327 326 326 325 325 323 323 321 319 320 320 320 317 316 316
312 312 312 313 313 314 316 317 318 318 318 318 317 316 315 314 315 314 314 314 316 317 318 319 320 320 320 320 321 321 322 322 322 322 323 324 325 326 328 329 329 329 329 329 329 328 327 326 326 326 326 326 325 325 324 323 323 322 321 320 319 317
310 310 311 311 310 311 312 314 316 316 317 317 316 315 315 314 315 313 313 312 313 314 316 316 318 319 318 317 318 317 316 315 315 317 319 321 322 324 326 327 327 328 328 328 328 328 327 326 326 325 325 327 326 325 325 326 325 324 323 323 321 318
309 309 310 310 309 309 310 311 313 315 315 315 314 315 314 314 314 313 312 311 311 313 314 315 316 317 317 316 313 311 312 311 311 311 314 315 316 319 322 324 326 326 326 328 328 328 327 327 327 327 327 326 326 326 325 326 325 325 322 321 319 319
309 309 309 309 308 308 309 310 311 312 313 313 312 312 312 313 311 310 310 310 311 312 312 313 315 316 316 314 309 309 310 309 308 308 308 308 308 311 313 316 322 325 326 327 327 328 327 327 326 327 326 326 325 326 326 326 326 325 325 323 322 321
307 307 308 309 307 308 308 309 309 309 310 311 312 309 308 309 309 309 308 308 309 311 311 312 313 314 314 312 307 306 306 307 307 307 306 305 305 307 307 311 316 317 319 325 325 326 326 326 325 325 325 326 325 325 326 326 326 327 326 325 323 323
308 309 309 309 308 308 308 308 307 307 308 309 309 307 306 306 307 307 307 307 308 308 310 311 311 313 312 311 306 305 304 304 304 305 304 303 303 303 304 307 308 310 313 314 316 320 324 325 326 326 326 326 325 325 326 326 326 326 326 325 325 324

ECMWFFLT2_sfc_thetae_078.txt.gz
Theta_e
340 339 337 336 336 338 343 345 344 345 345 345 345 347 347 348 348 347 347 347 342 338 337 337 338 342 346 346 345 345 345 344 345 345 345 345 345 345 345 344 344 342 343 343 339 338 340 342 343 343 344 344 343 332 331 331 331 333 331 335 337 330
341 340 337 337 339 340 341 344 340 340 340 342 346 347 345 345 347 340 344 339 338 340 333 335 335 343 338 343 341 345 345 345 344 344 344 345 346 345 345 345 344 343 342 340 336 329 329 335 341 342 342 341 331 330 331 331 331 331 333 333 334 333
341 341 341 342 342 344 341 339 338 340 343 346 346 345 342 342 340 341 339 338 337 333 333 334 337 340 340 345 343 345 345 345 345 345 343 345 346 346 345 345 344 344 340 338 331 329 327 325 326 337 341 331 329 330 330 330 330 332 332 332 332 336
341 341 341 341 342 342 341 338 337 337 338 340 341 341 341 341 341 342 340 336 334 337 331 329 343 346 343 336 331 341 345 345 345 345 344 337 341 342 343 342 342 341 336 335 332 330 327 327 326 325 328 329 330 329 330 330 331 330 330 332 330 337
341 340 340 338 341 340 338 336 336 336 336 336 338 337 338 337 337 338 337 334 333 334 330 330 332 335 337 336 329 332 333 333 332 335 341 335 332 333 336 337 337 337 335 335 334 331 329 328 329 328 329 329 330 330 330 331 330 330 330 331 334 337
341 340 340 340 339 342 337 335 335 337 334 332 332 332 333 333 333 334 332 335 336 331 330 329 329 332 335 334 335 332 332 331 330 333 337 335 331 333 335 337 337 337 336 336 335 333 333 331 329 328 328 330 329 330 329 329 329 330 330 331 334 338
340 339 339 339 339 338 336 334 334 334 332 331 331 332 332 333 333 334 334 337 332 331 332 329 329 331 333 333 334 333 332 331 330 329 331 333 331 330 333 335 336 336 336 336 336 336 333 330 330 330 329 330 330 329 329 329 329 329 330 330 333 337
339 339 338 340 339 338 336 333 336 337 332 339 334 331 331 333 335 335 336 335 335 333 333 330 329 330 333 333 334 334 333 334 332 329 329 330 329 328 327 330 334 335 336 336 336 336 335 334 331 330 330 329 331 329 329 328 329 329 329 330 331 336
339 339 338 339 338 337 336 333 334 332 331 342 330 331 332 334 334 335 335 336 337 332 333 331 329 330 331 332 331 332 334 334 333 332 332 330 330 327 326 328 331 332 333 333 333 333 335 334 332 331 331 330 330 330 328 328 328 328 328 329 330 333
338 338 337 337 335 335 334 332 331 330 332 339 331 331 333 333 333 335 335 336 337 335 333 333 332 330 331 331 331 331 333 332 332 333 332 332 331 331 330 328 328 329 330 330 331 331 335 332 331 332 330 330 330 330 329 328 327 328 328 329 330 332
340 341 335 333 332 334 334 331 333 331 331 333 335 335 332 331 335 335 335 336 336 337 337 335 334 332 333 332 332 331 332 331 332 333 333 332 331 332 331 331 330 330 329 328 330 330 332 331 331 331 332 331 330 329 329 329 328 328 328 329 329 331
337 339 334 334 337 336 335 334 334 332 333 334 338 334 333 334 336 335 336 335 335 335 336 336 334 334 335 334 334 334 334 333 334 334 334 332 332 331 332 332 331 331 331 331 330 330 330 330 330 330 330 330 331 329 328 328 328 328 328 329 329 330
337 334 332 333 334 334 334 336 336 335 337 339 338 335 334 333 334 335 336 336 336 336 337 336 336 334 335 334 334 334 334 335 335 335 333 333 333 331 331 331 330 332 331 330 329 329 330 330 329 329 330 330 330 330 329 327 328 328 328 329 329 329
336 333 334 334 333 333 335 336 336 335 339 339 337 336 337 335 335 335 335 334 335 336 336 337 335 334 333 333 333 333 333 333 334 335 335 334 334 333 331 329 330 330 332 332 329 328 328 328 329 329 329 330 330 330 330 329 328 328 329 329 330 330
337 335 336 335 333 334 336 336 334 334 337 337 337 336 334 334 334 335 335 334 333 333 335 336 336 335 334 333 332 331 331 332 333 334 334 335 336 333 332 331 330 330 329 329 329 329 330 328 328 328 329 329 330 330 330 330 330 328 328 330 329 329
333 333 332 335 332 333 333 333 334 339 334 336 335 334 333 333 335 335 336 336 335 335 335 335 335 335 334 334 333 333 333 332 331 333 333 333 334 333 331 331 331 329 329 329 328 329 328 328 328 328 329 329 329 331 330 329 330 329 329 329 329 329
331 331 333 332 331 333 331 331 331 331 333 334 334 334 334 334 334 334 333 333 335 336 337 336 336 335 334 334 334 334 335 334 333 332 331 331 331 332 331 331 330 330 329 328 328 327 328 328 327 328 329 328 328 330 329 329 330 329 329 328 329 329
335 335 334 333 334 333 332 331 330 329 335 332 332 332 332 331 330 330 330 331 331 333 336 338 338 337 336 336 336 336 336 336 334 333 332 331 331 331 331 331 331 330 329 328 328 328 328 328 328 328 328 328 327 327 328 329 330 332 329 328 328 328
334 334 333 334 337 335 332 329 328 330 331 331 328 330 331 330 329 329 329 330 331 332 334 335 337 338 337 336 336 336 336 336 336 334 333 333 332 332 332 332 331 331 331 330 329 329 329 329 329 329 329 329 328 327 327 328 330 330 329 329 328 329
332 334 334 332 333 333 332 331 332 332 332 331 329 332 330 329 329 329 331 331 331 329 329 332 332 333 335 336 335 335 336 336 335 334 333 333 333 333 333 332 331 331 331 330 331 330 330 328 328 327 327 328 329 328 327 328 328 329 330 329 329 330
329 331 332 332 333 332 331 330 329 329 328 327 331 330 328 327 328 329 330 330 330 328 328 328 331 329 329 331 333 333 333 334 333 332 332 331 333 332 332 333 332 332 330 329 330 330 330 330 326 325 327 326 326 327 328 329 327 328 328 329 330 329
328 328 330 331 331 331 331 332 332 331 329 328 329 328 328 329 329 329 329 329 329 328 327 327 330 330 331 329 328 328 328 329 331 331 331 332 331 332 331 330 331 329 331 330 329 330 330 328 324 323 323 323 323 323 324 326 326 327 328 328 329 328
326 326 328 331 330 330 331 332 331 330 330 329 329 331 330 331 331 329 329 329 329 328 328 328 328 330 330 329 329 329 329 330 330 330 330 329 330 329 329 328 329 327 327 330 330 331 329 329 325 325 324 320 319 318 320 322 325 326 326 327 328 327
325 326 326 328 329 330 332 331 332 331 330 330 329 331 329 329 329 329 328 329 330 329 328 328 328 329 329 328 328 329 330 330 331 332 330 329 329 328 329 329 329 329 329 325 327 328 331 330 328 326 319 319 319 318 316 319 319 323 326 327 326 326
323 324 325 327 327 328 328 327 328 327 328 327 325 325 324 323 324 327 326 326 327 329 328 327 328 328 329 328 329 330 330 331 332 331 331 329 329 329 330 330 330 329 328 327 325 328 329 330 328 329 325 320 318 315 316 319 318 321 324 324 325 326
321 322 322 323 325 325 324 323 322 322 321 321 320 320 319 319 321 322 323 325 327 327 327 326 326 327 327 329 328 329 330 331 331 330 330 330 330 329 329 328 330 329 328 329 327 326 326 329 330 330 329 328 325 319 318 321 319 315 322 324 326 326
318 319 319 319 321 323 320 321 321 321 322 321 319 319 320 321 321 322 323 324 324 325 325 324 325 325 325 326 327 327 328 329 329 330 330 329 328 328 328 328 329 328 328 328 327 324 324 325 328 328 329 329 328 327 325 320 316 319 316 321 323 325
316 318 317 318 318 320 318 318 319 319 321 319 319 318 318 318 319 321 320 321 322 321 323 324 324 324 323 324 326 327 327 328 327 328 330 329 329 329 329 329 329 329 329 328 327 325 325 326 324 324 328 327 327 328 327 326 324 320 318 315 318 325
314 315 315 316 317 317 320 318 318 317 317 318 319 318 319 319 318 319 317 318 318 319 320 322 323 322 321 322 324 323 322 322 322 324 325 324 325 326 326 326 328 328 328 329 329 329 327 326 326 325 325 325 326 325 326 326 326 324 318 316 316 318
311 312 313 313 314 315 316 318 317 316 315 315 316 316 316 315 315 315 314 315 316 317 318 319 321 319 318 317 317 317 317 316 317 319 321 321 321 322 323 324 324 325 326 326 329 329 327 327 327 327 326 325 323 323 323 322 323 322 322 320 316 317
310 311 311 311 312 313 315 317 317 316 315 314 314 314 313 312 312 312 311 312 313 315 317 318 319 317 314 312 313 313 312 312 313 314 315 315 316 317 320 322 324 325 325 325 326 327 327 328 328 327 326 326 324 323 321 319 319 321 320 318 318 318
310 310 310 310 310 311 313 315 316 316 315 314 314 313 312 310 310 310 311 310 312 313 314 316 317 315 311 310 310 310 310 309 309 309 309 310 310 311 313 315 319 321 323 325 326 326 325 325 325 326 326 326 324 324 323 322 323 322 320 319 319 318
308 309 309 309 309 310 311 312 313 313 312 312 311 311 310 309 309 309 309 310 311 311 313 313 314 313 309 308 308 308 308 307 307 308 307 306 307 308 308 310 313 317 319 320 323 324 324 324 325 324 324 325 325 324 324 325 325 323 323 323 320 317
308 309 309 308 308 308 309 310 311 311 310 309 308 308 308 307 308 308 309 309 310 310 310 311 312 311 308 307 306 306 306 305 305 305 305 305 305 305 305 307 309 311 312 315 318 318 320 321 324 326 327 325 325 325 325 326 326 325 323 321 320 319
308 308 308 307 307 307 307 307 308 309 308 308 307 306 306 307 306 306 307 307 308 309 309 310 311 311 308 306 305 304 304 303 302 303 303 303 303 303 303 304 307 307 309 311 312 313 315 317 319 322 324 325 324 325 325 325 325 324 325 324 323 321
307 307 308 307 306 306 305 306 306 307 307 308 308 306 305 306 306 306 306 306 306 307 308 309 310 311 310 307 305 303 303 302 301 301 301 301 300 301 301 301 303 304 305 307 306 308 311 313 315 318 320 323 324 324 326 326 326 325 326 326 325 324
306 307 307 306 305 305 305 304 304 306 306 306 305 304 304 304 304 305 305 305 305 305 306 307 307 308 307 307 304 303 301 301 300 300 300 300 299 299 299 299 300 300 301 302 303 304 306 308 310 313 316 318 321 323 325 326 326 326 326 325 325 325

ECMWFFLT2_sfc_thetae_081.txt.gz
Theta_e
344 346 346 347 347 347 346 346 346 346 345 345 346 347 348 348 348 348 347 346 345 349 349 349 347 346 346 347 346 345 345 344 344 344 345 345 345 345 344 343 343 341 338 336 337 341 343 343 345 346 344 344 344 345 344 342 341 341 340 339 339 337
342 344 346 345 346 346 347 346 347 348 348 347 347 348 348 348 347 348 345 348 349 347 348 346 346 345 346 346 346 346 345 345 344 344 344 345 345 345 345 344 343 340 338 337 336 340 341 343 343 344 344 344 345 344 343 343 342 340 339 340 339 339
343 344 345 345 345 346 345 346 346 347 347 346 348 348 347 347 346 346 346 346 347 347 346 346 348 347 347 345 346 346 345 345 346 345 344 344 344 343 343 343 342 340 336 334 340 338 338 337 342 343 344 345 344 343 343 342 342 341 339 340 339 339
343 344 343 343 344 345 345 345 345 346 346 347 347 346 346 346 345 345 344 346 347 347 347 347 345 346 346 348 346 345 344 345 344 343 341 343 342 341 339 339 339 339 339 340 341 338 336 337 340 343 345 343 342 342 342 342 340 340 341 338 337 338
344 344 343 343 343 342 344 344 345 346 344 345 346 345 346 346 345 345 346 346 346 346 347 347 347 347 347 347 346 346 347 346 345 345 341 344 344 343 343 342 345 344 344 343 341 340 340 338 341 341 342 342 341 342 342 342 341 339 340 341 340 337
343 344 343 343 343 343 343 343 344 345 344 344 345 345 345 345 345 346 346 346 346 346 346 345 345 345 345 346 346 346 345 346 345 345 344 343 342 343 343 341 342 342 344 345 344 344 343 341 341 341 341 341 341 342 341 340 340 340 341 341 341 337
343 343 343 343 343 343 343 343 345 344 344 344 345 344 343 343 344 344 344 345 345 345 345 346 345 344 344 344 345 345 345 345 345 344 345 344 343 343 341 340 340 342 343 342 343 344 344 343 343 341 341 340 340 340 341 340 340 340 341 340 341 337
342 342 342 343 343 342 343 343 344 346 345 345 344 343 343 343 343 343 343 344 344 343 343 342 342 343 343 345 344 344 343 345 345 345 345 345 343 341 342 341 342 340 338 339 338 342 341 342 342 343 340 340 340 341 341 340 341 341 341 341 340 339
342 342 342 343 342 342 343 344 344 344 344 345 344 344 343 342 342 342 342 342 343 341 341 340 341 341 342 343 344 344 344 343 343 345 344 344 343 343 342 341 342 340 340 339 339 340 339 339 340 340 338 336 337 338 340 340 341 339 340 340 340 339
342 342 342 341 341 341 342 343 343 344 345 345 344 343 342 342 341 341 341 341 342 342 340 340 340 340 341 341 341 343 344 343 344 345 345 343 343 343 342 342 343 341 338 338 338 341 340 339 338 339 338 338 338 339 339 339 339 339 339 340 340 340
343 343 343 341 341 341 343 343 343 344 344 343 343 343 342 342 342 341 341 341 341 341 341 340 340 340 340 340 341 342 342 343 344 344 344 343 344 343 343 343 343 342 342 341 342 343 340 340 339 337 339 337 338 341 340 340 339 339 338 339 340 340
344 343 343 342 343 342 342 343 343 343 343 343 342 341 340 341 342 342 341 340 340 340 340 340 339 339 340 340 341 341 342 341 342 343 342 342 343 342 342 342 342 343 343 343 343 343 344 342 340 338 339 338 341 341 340 340 339 339 338 339 339 340
343 343 342 341 341 342 343 343 343 343 343 341 341 340 340 340 340 340 340 341 340 340 341 341 341 340 341 341 341 341 340 340 341 342 342 342 342 341 341 342 342 342 341 342 341 342 343 343 341 341 341 339 340 340 340 340 340 340 338 338 338 338
342 341 341 341 341 341 342 343 343 344 343 342 342 343 342 341 341 341 341 341 340 341 341 341 340 340 340 340 340 339 339 341 341 341 342 342 342 342 340 340 339 339 339 339 339 341 340 339 339 340 341 341 341 341 341 340 339 340 339 339 339 340
341 341 341 341 341 345 345 344 342 342 342 343 343 342 342 342 342 341 341 341 340 340 340 340 341 341 341 341 340 340 340 340 341 342 342 342 341 340 339 338 338 336 337 338 338 339 340 339 339 339 340 341 341 341 340 340 341 339 338 340 341 340
341 340 340 340 341 342 342 344 345 343 343 344 343 341 342 340 340 341 341 340 340 340 340 340 340 341 341 342 341 341 341 341 341 341 340 340 341 339 340 339 340 336 334 335 336 336 338 337 338 337 338 339 339 340 338 339 339 339 340 340 339 340
339 341 341 340 341 342 342 342 342 342 341 341 341 340 340 339 338 338 338 338 339 339 340 340 341 341 341 342 342 341 341 341 341 340 339 338 339 339 337 336 337 338 336 334 334 334 335 336 336 337 338 338 337 338 338 339 339 339 340 339 339 339
339 341 341 341 343 343 342 341 341 340 341 340 339 340 339 339 338 337 338 337 337 337 339 340 341 341 342 342 342 341 340 340 341 340 339 339 338 338 336 336 335 338 338 336 335 335 334 334 334 334 335 336 337 338 338 339 340 339 339 338 338 338
341 342 343 344 344 343 342 342 342 341 340 339 338 338 339 338 337 338 337 337 337 338 338 338 339 340 341 340 340 340 339 340 340 340 339 338 338 338 337 338 336 336 338 337 336 336 336 335 334 334 333 335 336 337 338 339 338 338 338 338 338 338
340 341 343 343 343 343 343 343 340 339 337 337 337 337 337 337 337 337 337 337 337 337 337 338 338 339 338 338 338 338 338 339 339 338 337 336 336 336 336 336 336 336 336 337 337 335 336 335 334 334 334 334 336 337 337 338 339 337 338 338 338 338
338 340 342 341 341 342 340 340 338 335 332 334 334 335 334 336 337 337 337 337 337 337 337 338 338 337 337 336 336 337 336 337 338 337 335 335 335 335 335 334 333 334 333 333 334 337 336 335 330 330 333 334 334 336 338 339 339 338 337 337 338 337
336 338 338 339 339 340 339 339 338 335 334 333 333 332 333 334 335 335 336 336 336 336 336 336 337 337 337 336 335 335 336 335 336 336 336 336 334 334 333 333 332 331 333 331 331 335 335 334 330 328 326 327 331 335 339 340 337 336 336 336 336 336
331 333 334 336 337 337 339 338 337 334 333 331 333 333 332 332 333 332 333 333 334 334 335 335 336 336 336 336 336 336 335 336 336 335 335 335 335 334 334 332 333 330 329 332 332 335 335 334 330 332 331 327 325 324 330 333 334 334 336 337 337 335
329 330 332 333 335 336 336 336 335 334 333 332 330 332 331 332 331 331 329 331 331 332 332 332 333 334 334 334 334 334 336 336 335 335 335 333 333 332 333 333 332 332 331 328 331 331 336 336 336 330 322 323 323 324 319 325 328 331 335 336 336 334
328 328 330 332 333 336 336 334 332 331 331 331 330 329 329 328 328 329 328 328 329 330 330 329 330 330 331 331 332 332 333 333 333 333 333 332 332 332 333 333 332 331 331 328 327 330 334 335 334 336 329 322 322 320 321 323 325 326 334 332 333 335
326 327 329 331 333 334 334 333 331 329 327 326 324 324 324 324 324 324 325 328 326 327 327 327 327 327 328 329 327 328 329 329 330 331 331 331 330 330 330 331 331 330 330 331 327 328 328 334 336 334 333 332 328 320 320 324 323 318 331 333 333 334
325 326 327 329 331 333 331 330 330 328 328 326 324 323 324 325 324 324 325 324 324 326 326 325 324 324 324 324 324 324 324 325 326 326 326 326 325 325 326 327 330 330 330 330 330 326 326 328 332 333 333 333 333 333 331 325 319 321 317 326 331 331
323 324 325 327 328 329 328 328 327 326 325 324 323 321 322 322 323 323 322 322 324 324 325 322 320 319 319 319 320 319 320 320 321 323 324 323 324 325 325 326 327 327 329 329 329 327 327 328 326 327 332 330 330 332 332 332 328 321 318 316 319 328
321 322 324 325 325 325 326 325 325 324 322 322 322 321 321 321 320 321 320 321 322 322 323 321 317 315 315 316 316 315 316 315 316 318 319 319 320 321 322 323 323 324 326 327 328 329 327 327 327 325 326 327 328 328 329 329 327 326 321 318 318 321
319 320 322 323 323 323 323 323 322 321 320 319 320 319 319 317 318 319 319 320 321 321 321 320 318 315 314 314 315 314 313 314 314 315 315 315 315 317 318 321 323 324 324 324 327 327 326 327 327 327 327 326 325 326 326 326 326 325 323 324 317 318
317 318 319 320 321 321 321 321 320 319 318 317 317 317 316 316 316 317 318 318 319 319 319 316 315 314 313 313 313 313 312 312 313 314 312 312 313 314 315 317 320 322 323 322 323 325 325 326 327 326 326 326 325 324 322 321 321 322 322 320 320 320
316 317 317 318 318 318 317 317 317 316 315 315 315 314 314 313 314 314 315 315 316 316 316 314 312 310 310 311 311 310 310 309 309 310 309 309 311 310 311 313 316 317 318 319 321 321 321 322 322 324 326 327 326 326 325 324 324 324 322 321 321 320
314 316 316 316 316 315 315 314 314 314 313 313 313 313 313 313 314 313 314 314 314 313 314 313 311 309 309 309 309 309 308 307 306 307 308 308 308 309 309 310 312 313 313 314 315 315 315 317 319 320 322 325 326 326 326 328 328 326 325 325 323 319
313 315 315 314 314 313 313 313 313 313 312 312 313 313 313 312 312 313 313 312 312 312 312 312 311 309 309 308 308 308 308 307 307 307 307 307 308 308 307 308 309 308 308 310 310 309 311 313 314 317 318 319 322 323 325 327 327 326 325 323 321 321
312 313 313 313 313 312 312 312 312 312 312 312 311 311 311 311 311 311 311 311 310 311 310 310 309 310 308 307 307 307 307 306 306 306 306 306 306 306 307 307 307 306 307 307 306 307 308 309 309 311 313 315 317 320 322 324 325 325 326 325 323 323
312 312 312 312 311 311 311 311 311 310 310 310 310 310 309 310 310 310 310 310 309 310 310 310 310 308 307 306 306 305 305 305 305 305 305 305 305 305 306 305 304 305 304 306 305 306 307 308 308 310 311 314 314 316 318 320 321 322 323 325 325 325
311 312 311 311 311 311 311 311 310 310 309 309 308 308 307 308 308 308 308 308 308 308 309 309 308 307 306 305 305 305 305 304 304 305 305 304 304 305 305 305 304 304 304 304 305 305 306 306 308 309 310 312 312 313 315 317 318 318 319 321 324 325

ECMWFFLT2_sfc_thetae_084.txt.gz
Theta_e
346 347 347 348 348 346 347 347 348 346 346 347 348 348 349 349 349 348 346 346 348 346 347 347 349 345 347 348 346 344 344 344 344 344 344 345 344 344 343 341 340 338 338 339 344 344 345 345 345 344 344 344 345 343 343 343 343 343 342 341 343 340
344 345 346 344 345 347 347 346 347 348 348 349 348 349 349 348 348 349 345 348 345 343 345 344 344 342 346 348 349 346 345 344 345 344 344 344 345 344 344 342 339 339 337 337 339 348 346 346 346 345 344 345 345 345 345 344 344 341 341 342 342 340
344 344 345 344 346 345 343 345 345 346 346 347 348 349 348 348 346 345 345 342 346 349 348 349 350 347 345 341 348 345 345 345 345 344 343 343 342 342 342 341 340 339 338 336 343 343 341 344 348 345 345 347 346 345 346 345 345 344 341 342 341 341
342 343 341 342 344 344 343 345 345 346 348 347 346 346 345 346 344 346 343 348 348 349 350 351 350 348 349 348 346 345 345 344 344 343 341 345 341 343 341 340 340 337 337 341 343 341 339 341 342 347 347 344 344 344 345 345 342 343 343 340 340 341
344 344 343 342 343 342 345 345 346 347 347 345 345 346 346 346 346 347 347 349 348 348 348 349 349 349 349 349 348 348 348 348 348 346 342 346 345 344 346 344 342 343 341 340 340 342 343 341 342 342 343 344 343 344 343 344 342 341 343 345 344 341
344 345 345 343 342 342 344 342 345 348 346 346 345 346 346 347 346 348 348 348 349 349 348 347 348 347 348 349 349 348 349 350 349 349 347 345 340 343 343 341 342 342 340 339 341 344 344 342 341 342 341 343 343 344 343 340 341 343 344 343 345 340
343 343 344 345 345 342 342 344 343 344 344 344 345 346 344 345 346 346 347 347 347 347 346 347 347 348 347 349 348 348 348 349 350 349 350 349 347 343 340 340 341 342 342 340 339 341 344 344 343 340 341 340 342 342 342 341 340 341 342 342 344 339
342 342 344 344 344 341 343 344 345 345 345 344 343 343 344 343 346 346 346 348 347 346 345 345 346 347 348 349 349 348 348 347 350 349 350 350 347 346 343 339 341 340 338 340 339 342 340 341 343 344 340 340 342 343 343 341 341 342 341 342 342 343
342 343 343 344 343 342 343 345 344 344 343 344 345 345 345 347 347 346 347 347 348 347 346 346 345 345 346 346 348 348 346 348 348 349 348 347 348 348 347 346 343 338 340 339 339 341 340 339 341 342 341 340 340 340 343 343 343 341 339 340 341 342
343 343 343 343 342 343 343 343 345 345 346 348 349 349 349 349 349 349 347 347 347 347 346 345 345 345 344 345 346 347 347 346 346 347 347 347 348 348 347 347 347 345 341 339 338 340 339 339 338 340 339 339 340 341 342 341 341 341 341 342 343 342
345 344 345 343 344 345 346 345 347 349 349 348 350 351 351 351 349 349 347 348 347 346 347 346 346 344 344 345 346 346 345 347 345 346 347 347 348 347 347 346 346 346 346 345 343 341 338 340 340 338 340 339 339 342 342 342 340 340 339 341 343 345
347 346 345 346 346 345 348 349 350 349 349 350 351 350 349 349 349 346 346 346 346 346 346 346 346 345 345 345 344 344 346 346 345 346 348 347 346 346 345 345 346 348 348 348 346 345 345 340 339 338 338 338 341 341 340 341 342 342 341 342 343 345
349 348 347 346 347 350 349 349 349 349 349 350 349 347 346 346 346 346 346 346 346 346 347 346 346 345 345 346 346 347 345 345 345 345 346 346 345 346 345 344 346 346 345 346 346 347 346 345 344 342 342 341 341 341 343 343 343 343 341 342 343 342
348 348 348 349 348 346 348 349 350 351 350 348 347 347 347 347 346 347 347 346 346 345 345 346 346 346 344 344 345 345 343 344 344 346 346 347 344 344 343 344 343 341 340 341 342 345 344 344 342 343 344 345 344 344 344 344 343 343 343 344 344 345
347 348 349 347 349 348 348 349 349 348 347 348 347 346 346 346 346 346 346 345 345 345 346 345 346 346 345 345 345 344 343 343 346 346 345 345 345 344 344 343 343 341 341 339 340 342 343 343 343 343 343 345 344 344 345 344 344 343 342 344 345 344
347 346 345 346 349 348 350 350 347 345 347 347 345 345 345 346 346 345 345 345 345 345 345 345 345 345 345 345 344 343 343 346 346 346 344 344 345 343 344 343 343 342 339 339 339 339 342 342 342 342 343 344 343 343 343 343 343 343 343 345 344 346
344 346 347 346 347 347 346 346 346 346 346 346 345 344 344 345 345 344 344 343 344 345 345 345 346 346 345 346 343 345 344 346 348 346 346 344 344 344 344 341 342 343 342 340 340 340 341 342 341 341 342 341 342 342 343 343 343 344 345 344 344 344
345 345 346 345 346 346 346 346 345 344 345 344 345 344 344 345 343 343 344 342 343 343 344 344 345 345 348 345 345 344 345 345 345 345 345 344 344 345 344 344 342 343 342 341 340 341 340 340 340 340 340 342 343 342 342 342 343 343 343 343 344 344
343 345 345 346 347 347 346 346 345 345 344 343 344 343 344 343 343 343 343 343 343 343 343 343 343 344 344 343 344 344 345 344 344 344 343 343 344 343 343 343 342 342 345 344 341 342 341 340 339 339 339 340 342 342 343 343 344 343 342 345 344 344
344 344 345 346 344 345 344 343 341 342 341 341 342 341 343 341 343 342 343 343 342 342 342 343 342 343 342 342 342 342 342 343 342 342 341 342 340 341 340 340 340 340 340 341 342 342 343 341 341 341 339 340 340 341 341 340 343 342 342 342 344 344
345 345 343 344 344 343 341 341 340 338 337 340 339 341 340 342 342 341 342 342 342 342 342 342 341 342 341 341 341 342 341 341 341 341 341 340 340 339 339 338 337 338 337 337 339 342 342 342 339 336 338 339 338 341 341 342 341 341 341 342 342 341
341 343 343 342 342 341 341 339 338 337 337 338 338 337 337 339 338 339 339 340 340 341 341 340 341 342 341 340 340 339 340 340 340 341 341 340 339 338 339 338 337 336 340 336 336 338 341 340 333 332 328 330 333 336 340 341 340 341 341 339 339 340
340 340 340 342 340 340 342 343 341 340 338 336 338 338 337 336 336 335 335 336 337 338 338 338 339 339 339 338 338 338 339 339 340 339 340 340 340 339 338 337 337 335 334 337 336 338 341 341 331 333 333 330 325 324 330 335 341 339 338 338 339 340
338 340 340 341 340 341 342 342 342 340 338 337 335 336 336 335 334 334 333 334 334 335 336 336 337 337 336 336 336 336 336 336 337 338 335 333 332 334 336 337 337 336 336 330 332 334 339 339 336 331 324 325 325 325 319 323 327 332 335 337 339 337
338 338 339 339 340 341 340 339 338 337 337 337 338 336 333 331 331 332 332 332 331 333 332 332 333 332 332 331 332 333 332 331 330 330 331 330 328 329 329 330 331 333 334 331 329 332 334 337 336 336 330 325 323 321 320 323 326 327 333 333 334 336
334 336 337 338 339 339 339 336 335 333 332 332 331 332 330 329 329 328 328 330 330 328 327 327 327 327 327 327 327 329 330 329 329 328 328 327 327 327 327 328 328 330 330 332 331 329 330 334 335 335 335 333 330 322 322 325 325 319 330 331 331 333
333 334 335 335 335 335 335 336 335 333 333 332 329 328 329 329 328 327 328 327 327 326 323 323 323 323 324 324 324 325 326 327 326 326 327 327 326 327 327 327 328 328 328 329 331 327 328 330 332 334 334 335 334 333 333 327 321 322 319 326 329 330
331 331 332 332 331 333 332 332 331 331 330 330 329 327 326 326 327 326 326 325 326 323 322 321 321 320 321 321 322 321 323 324 323 323 323 323 323 325 326 327 328 329 329 329 329 327 327 329 327 327 332 331 332 332 333 332 330 324 320 319 322 328
328 329 329 330 330 330 330 330 329 329 327 327 327 326 325 325 324 325 324 325 325 323 321 321 320 320 320 320 320 320 321 321 322 322 322 323 323 324 325 325 324 324 324 324 324 327 327 326 327 326 327 328 329 329 329 330 330 328 322 320 319 321
326 326 327 328 328 327 327 327 327 326 326 324 324 323 323 321 322 324 323 323 323 320 320 321 320 318 319 318 318 319 318 318 318 318 318 319 320 321 321 322 323 323 323 323 323 323 322 322 323 324 326 326 325 326 327 326 326 325 325 324 319 320
324 324 325 324 325 325 325 325 325 324 322 321 321 321 320 320 321 321 321 320 320 319 319 318 318 317 317 317 318 317 317 317 318 318 317 317 318 317 318 319 321 322 321 320 319 319 320 322 322 322 321 322 323 324 324 324 323 324 324 322 321 321
322 322 322 323 323 323 322 322 322 322 320 320 320 320 319 318 319 319 320 319 319 319 318 317 316 315 316 316 317 317 317 317 316 316 316 316 317 316 317 318 318 317 317 318 317 315 316 317 317 318 319 320 320 322 323 323 325 326 324 323 322 321
319 320 320 321 320 320 321 320 320 320 319 319 318 318 317 317 318 318 318 318 317 316 316 315 314 314 315 316 316 315 315 314 314 315 315 315 315 315 315 315 315 314 314 314 313 313 313 315 315 315 315 318 320 320 319 321 323 323 323 324 323 320
317 319 319 319 319 318 318 319 319 319 318 318 317 317 316 316 317 317 317 316 315 315 314 314 314 314 314 314 314 314 314 314 314 314 314 314 314 314 314 313 313 311 311 312 311 312 312 313 314 315 316 316 317 317 319 320 320 320 320 319 318 319
317 318 318 318 318 317 317 318 317 317 316 317 315 315 315 316 316 315 315 315 315 314 313 314 313 314 313 313 313 313 313 313 313 313 313 313 313 314 314 313 312 311 310 310 311 311 311 312 312 312 314 314 314 315 316 317 318 318 319 319 318 318
317 316 316 317 317 316 316 316 315 315 315 315 315 315 314 314 314 315 315 314 313 313 313 313 313 313 312 312 312 311 311 311 311 312 312 312 312 312 313 312 311 311 310 311 311 311 311 311 311 312 312 313 313 313 315 316 315 315 315 317 317 317
317 316 316 316 316 315 315 314 314 315 314 314 314 313 312 313 313 313 314 313 312 312 313 313 312 312 311 311 311 310 310 310 310 310 311 311 310 311 312 312 312 311 311 312 312 311 311 310 311 311 311 311 311 312 313 314 314 313 314 315 315 315

ECMWFFLT2_sfc_thetae_087.txt.gz
Theta_e
348 349 347 347 345 344 348 348 349 349 348 349 349 349 349 349 348 347 348 348 349 351 347 351 349 347 345 345 344 344 343 343 343 344 343 343 342 340 341 341 339 340 338 341 344 346 346 347 346 345 344 344 345 343 347 345 342 341 340 341 342 335
346 347 347 345 345 345 347 346 348 350 351 351 350 350 351 349 349 347 348 347 347 343 344 344 346 347 347 349 347 345 345 344 343 344 344 343 344 344 342 340 339 340 341 340 341 348 349 348 347 344 346 344 345 346 346 344 342 339 337 340 341 338
346 346 345 344 344 342 343 343 343 346 348 348 352 350 348 347 346 344 345 342 344 347 348 347 346 346 349 349 350 346 346 345 344 344 343 344 344 345 344 341 340 339 340 341 341 343 344 346 347 347 346 346 347 346 344 344 344 343 335 341 340 342
344 343 342 343 343 344 342 343 342 343 346 347 347 345 345 345 343 344 342 347 348 349 349 350 344 343 344 346 348 346 346 346 346 344 344 344 344 344 344 341 342 339 340 339 337 340 338 343 347 347 347 347 347 341 343 342 341 340 341 338 339 343
342 342 343 342 340 340 343 341 342 345 346 343 344 343 344 344 345 346 347 350 348 348 348 347 349 350 349 348 346 346 346 347 347 347 345 347 345 343 344 341 338 336 332 333 337 340 341 339 342 343 344 341 342 344 342 342 339 337 339 342 344 345
341 341 341 340 340 340 343 343 344 345 345 345 343 344 345 343 346 348 347 348 348 348 349 349 349 350 350 350 347 345 346 348 349 347 344 345 343 344 344 341 342 338 340 340 337 338 341 340 340 339 338 341 342 343 342 339 340 341 342 340 347 345
341 343 342 341 341 340 341 344 345 345 343 342 343 345 342 343 347 348 348 348 348 349 349 348 349 351 350 352 352 351 353 346 347 348 348 350 345 345 340 340 341 340 341 338 337 338 339 340 340 337 338 337 339 340 341 341 341 340 342 341 345 345
341 341 342 342 342 339 340 344 346 344 344 342 342 342 343 345 347 346 348 350 349 350 348 347 349 349 350 350 347 350 346 344 346 345 347 347 345 348 344 343 343 339 337 339 339 341 340 339 340 342 339 337 336 339 341 339 341 340 338 339 341 345
340 341 343 342 341 341 344 345 345 345 344 344 344 342 342 346 347 349 349 351 351 351 348 349 349 348 348 348 348 349 347 347 348 348 348 347 346 344 345 343 345 342 340 340 339 341 339 339 341 341 339 337 337 337 338 340 341 339 340 340 340 345
341 342 343 343 343 343 344 344 344 346 343 346 347 349 349 349 350 350 349 351 350 349 349 348 348 347 346 348 348 349 348 348 347 349 349 348 348 347 345 344 343 341 340 340 339 340 340 340 338 340 339 339 340 341 342 340 338 339 340 341 341 341
342 343 342 342 344 345 345 345 347 348 349 348 348 347 349 350 349 350 351 351 351 349 350 350 348 346 347 346 346 348 347 348 346 348 349 348 349 348 347 346 345 344 344 343 345 343 341 341 340 338 339 337 337 340 339 341 340 340 339 340 340 341
343 344 345 344 346 346 347 348 348 348 347 349 351 349 347 349 348 349 348 348 348 349 348 347 347 346 347 346 347 347 347 348 346 346 348 348 347 348 346 345 345 347 348 344 346 345 346 344 343 340 340 338 339 339 339 339 339 338 339 339 340 340
345 347 346 346 347 348 346 346 345 347 349 350 351 351 349 349 349 348 349 348 348 347 348 347 347 346 346 348 347 348 347 347 348 348 349 347 347 348 348 347 347 347 345 345 344 344 345 345 343 342 343 341 341 340 340 339 340 341 342 338 348 349
347 347 348 348 348 346 347 345 345 346 348 350 349 348 348 348 347 347 348 347 347 347 346 347 347 347 346 346 348 348 347 346 347 347 347 348 346 347 345 345 345 344 342 341 341 342 341 342 341 342 342 342 342 343 342 342 341 341 340 338 340 342
344 344 344 345 346 348 347 343 345 348 349 350 349 348 348 349 348 348 348 346 347 347 346 346 347 347 348 347 347 346 346 346 348 348 347 348 345 346 346 345 344 343 344 342 341 342 342 341 342 341 341 343 343 342 343 342 342 342 339 341 342 342
341 340 342 342 340 344 344 348 346 347 349 349 347 348 348 348 348 346 346 346 346 346 346 346 346 346 347 348 346 345 346 349 348 349 348 348 348 346 346 345 346 345 342 342 342 342 342 341 342 342 343 343 343 343 343 342 342 342 342 343 340 343
336 336 337 337 341 339 340 347 347 349 349 348 347 346 346 348 347 347 345 346 345 346 346 346 347 347 348 348 345 346 346 349 349 348 348 348 347 346 346 346 346 346 345 341 341 340 342 343 341 340 343 343 343 343 343 343 343 342 343 343 343 343
337 339 341 338 340 339 344 345 346 345 347 345 348 346 347 348 346 345 345 345 345 345 345 345 346 346 349 348 346 347 347 347 346 346 346 346 346 347 347 345 343 345 343 341 337 338 338 340 341 341 340 340 342 342 343 343 344 342 341 341 343 343
337 337 339 340 341 344 345 346 345 345 345 345 346 345 346 344 343 345 344 344 344 345 344 344 345 345 346 343 344 344 345 344 344 343 343 342 343 344 344 344 342 341 343 340 339 339 340 340 339 340 340 341 342 342 342 342 342 343 343 343 343 343
338 338 339 340 339 344 344 342 342 342 341 341 343 342 344 343 344 342 343 344 343 344 343 344 343 344 344 343 342 342 342 343 342 342 341 342 341 340 340 340 340 339 339 340 342 340 340 340 339 339 339 341 343 344 343 342 343 343 342 343 343 343
337 333 337 339 341 341 340 341 340 339 339 340 340 341 341 342 342 342 343 342 342 342 342 342 342 342 342 341 342 342 342 341 342 342 340 340 340 340 341 340 339 339 338 337 337 341 341 342 338 335 338 338 339 341 341 341 343 343 343 342 341 340
336 339 338 337 341 343 341 341 339 338 339 339 339 338 338 341 341 340 341 341 342 342 342 341 341 342 341 341 341 340 341 340 340 340 339 340 339 338 339 339 338 336 338 336 336 338 340 340 333 330 328 329 331 334 338 340 342 342 343 343 342 341
334 336 340 339 340 340 341 343 342 339 338 337 340 340 339 339 339 338 338 338 338 339 339 338 338 339 338 339 339 338 338 337 336 336 335 334 334 334 334 335 335 335 334 336 335 337 338 339 331 332 332 328 324 323 329 330 339 341 341 339 339 340
337 339 339 341 339 343 343 343 343 342 342 340 337 337 338 337 337 337 336 336 335 336 336 336 336 336 336 335 336 335 336 335 335 334 333 332 332 332 333 333 333 333 334 330 331 333 336 337 334 331 322 324 325 324 320 323 326 331 334 334 335 337
338 339 339 340 342 342 341 340 339 340 340 339 339 337 335 333 333 333 332 331 331 333 332 331 331 330 330 330 331 332 332 333 332 332 332 331 330 329 331 331 330 330 331 329 327 329 332 335 334 334 329 324 322 321 320 324 327 327 331 331 333 336
337 338 339 339 340 340 339 337 336 335 334 333 332 332 329 329 329 329 328 330 329 328 327 327 326 326 326 327 327 328 329 329 329 328 329 329 329 328 328 328 328 328 327 329 327 325 327 331 333 333 334 333 331 325 322 326 324 318 328 330 331 331
334 335 336 336 338 338 337 336 335 334 334 334 330 329 330 329 328 328 328 327 326 326 325 324 324 325 325 325 326 326 327 327 327 326 326 326 326 326 326 326 326 325 325 326 325 323 324 327 330 332 332 333 332 331 331 326 321 322 319 325 328 329
332 332 333 334 335 336 333 332 333 332 332 332 330 327 327 327 327 327 326 325 325 324 324 323 323 323 324 324 324 324 325 325 324 324 323 324 323 324 325 325 326 325 325 324 323 321 322 324 322 323 327 327 328 329 330 329 329 323 320 318 320 327
331 331 331 331 331 331 332 332 331 331 328 329 329 327 327 327 326 326 325 323 322 322 322 322 321 322 322 322 322 322 322 322 322 321 321 321 322 322 322 323 323 322 322 321 321 321 320 320 321 320 321 322 323 324 325 327 327 326 322 318 318 320
328 328 328 329 329 329 330 330 329 330 328 327 326 325 325 324 324 325 323 321 321 320 320 320 321 320 321 321 321 321 320 320 320 320 320 320 321 320 320 321 322 321 320 318 320 319 318 319 320 320 320 319 318 319 320 321 323 322 323 323 319 319
326 326 327 326 326 326 327 328 327 326 325 325 325 324 322 322 322 323 321 320 320 319 320 318 319 320 320 320 321 320 319 318 319 319 318 318 319 318 319 320 320 320 319 318 317 317 318 318 318 318 318 318 317 317 316 316 317 318 318 317 317 318
324 324 325 325 324 325 325 325 325 324 323 323 323 322 321 320 321 321 321 319 319 318 317 318 318 318 319 319 318 318 318 318 317 318 318 318 318 318 318 318 317 317 317 316 316 315 316 314 315 315 315 316 317 317 318 317 317 317 316 316 316 315
321 323 323 324 323 323 323 324 323 322 321 321 321 320 320 320 320 319 319 318 317 316 316 315 316 316 316 317 316 316 316 316 316 317 317 317 317 317 317 316 315 315 314 314 313 313 313 313 314 313 313 315 315 315 315 317 317 316 316 316 315 312
320 321 322 322 322 321 322 322 322 321 320 320 319 319 319 318 319 318 318 317 317 315 315 315 315 314 315 315 314 315 315 315 315 316 316 316 317 317 317 315 315 314 314 314 314 314 313 313 313 313 314 312 313 314 315 316 315 314 313 312 311 311
320 320 321 321 321 320 319 320 320 320 319 318 317 317 317 318 318 317 317 316 315 315 314 314 313 314 315 314 314 313 313 313 313 314 314 315 315 316 316 316 314 315 315 315 315 314 313 314 313 313 313 313 313 314 314 314 313 313 313 312 311 311
319 319 319 318 318 318 318 318 317 317 317 317 316 316 316 316 316 316 316 315 314 315 315 314 314 313 313 313 313 312 312 312 313 313 313 313 313 314 314 314 312 312 313 315 314 313 313 313 313 313 313 313 313 312 314 313 313 313 313 313 312 311
318 318 318 317 317 317 317 316 316 316 316 315 315 315 314 315 315 315 315 315 314 314 315 314 313 313 312 312 313 312 311 311 311 312 312 312 312 312 312 312 311 310 311 313 313 312 312 311 312 312 312 312 311 312 312 311 312 312 312 312 312 311

ECMWFFLT2_sfc_thetae_090.txt.gz
Theta_e
344 345 344 345 347 348 348 350 349 349 350 350 349 349 349 349 349 349 349 349 349 348 348 345 344 342 346 341 343 342 342 343 343 344 342 341 341 342 341 341 341 338 341 341 342 345 346 347 347 346 346 346 346 343 340 342 344 336 336 332 336 335
346 346 344 343 345 347 348 348 348 348 349 349 349 349 348 348 350 346 349 348 349 349 349 347 348 347 346 344 344 345 344 344 344 344 343 343 342 340 341 341 341 342 341 341 343 342 346 347 348 347 346 345 343 340 341 344 342 334 334 333 335 340
345 344 344 343 343 344 346 347 345 347 349 350 350 349 348 349 347 344 344 346 349 350 349 347 348 347 349 348 345 346 345 343 344 344 345 344 344 344 342 341 340 340 340 343 341 337 343 342 345 347 347 345 341 342 343 344 342 338 335 339 334 343
343 345 343 340 341 342 343 344 343 346 348 348 349 348 348 346 342 344 343 350 354 349 351 349 346 350 351 347 346 346 346 346 345 343 344 345 344 345 345 344 342 340 342 337 335 337 337 343 343 344 344 343 343 344 344 340 339 336 336 339 336 346
345 345 343 340 339 340 343 342 341 346 345 346 346 346 346 350 351 350 348 351 351 350 350 352 350 349 351 352 346 345 345 345 345 343 343 342 342 340 344 340 335 340 332 331 331 332 335 341 343 342 343 343 343 344 341 342 341 337 338 340 339 345
344 345 344 341 341 340 342 340 341 343 344 343 345 345 349 349 348 350 350 352 349 348 348 350 349 348 350 349 348 350 349 349 347 348 346 341 343 345 339 341 337 332 329 330 329 332 341 341 341 341 342 343 340 342 341 337 334 342 342 341 338 345
343 344 345 343 342 340 340 346 346 347 345 345 348 345 347 347 348 351 351 351 350 347 343 345 346 348 346 346 346 346 348 348 346 347 347 343 345 349 347 342 343 340 338 337 334 336 341 339 337 336 334 333 334 336 339 339 336 340 340 340 340 346
342 344 347 346 342 340 346 345 347 346 346 348 346 348 347 348 349 350 352 350 351 346 344 344 345 347 344 344 344 345 347 348 344 346 349 348 350 347 347 345 345 342 338 336 335 342 340 339 341 341 336 336 334 334 333 334 338 339 335 335 339 345
339 344 347 346 339 344 344 346 345 345 349 346 347 348 347 348 348 349 349 348 349 349 348 346 345 345 344 340 343 349 350 348 345 346 345 347 349 345 343 347 348 344 343 340 341 339 339 338 343 339 337 336 335 334 334 336 339 338 337 341 341 343
341 345 345 347 344 347 344 344 349 349 350 352 350 348 349 350 355 351 349 349 349 351 349 347 346 346 342 341 347 348 352 351 345 346 347 344 344 346 348 346 344 343 340 347 342 340 341 340 341 338 337 336 338 337 337 341 338 337 346 341 344 340
344 346 345 343 347 345 346 348 348 349 349 348 350 349 351 354 353 349 351 352 350 349 351 349 346 346 346 344 347 349 349 347 348 349 351 346 353 351 348 348 346 345 348 344 346 345 341 344 340 341 340 336 337 347 340 336 339 337 337 341 341 343
344 345 344 340 337 335 337 336 340 346 349 349 352 350 350 352 350 351 351 351 351 353 350 351 354 349 350 349 349 347 350 350 348 350 349 349 349 350 347 345 343 344 346 346 342 342 342 341 340 337 337 335 339 339 339 339 339 338 336 339 344 339
338 337 337 338 338 338 340 339 339 338 339 349 348 349 350 349 353 352 351 351 351 352 356 349 354 351 348 347 348 352 349 349 352 352 351 350 350 350 351 346 350 347 347 344 341 340 342 339 337 338 339 335 336 341 343 340 337 338 339 337 339 343
337 337 338 340 339 339 338 339 340 338 339 341 348 348 347 351 351 350 349 351 348 352 352 352 352 350 351 348 352 349 346 347 351 350 351 353 349 348 349 346 347 345 345 344 339 339 339 339 338 338 337 339 337 338 340 340 336 336 340 337 341 341
336 336 337 340 340 340 339 339 340 341 339 338 342 346 348 349 348 347 348 349 351 350 351 352 351 351 349 349 344 347 345 347 347 349 346 348 347 347 346 343 341 341 343 342 339 339 339 337 338 337 338 339 338 338 339 338 338 338 337 337 340 338
338 337 338 337 337 340 340 340 342 341 341 340 340 343 346 348 347 348 348 348 349 350 350 351 351 350 351 347 346 345 349 351 348 347 347 347 345 343 345 343 342 341 339 338 338 337 338 338 340 338 338 338 340 341 339 338 339 338 338 339 337 339
335 337 336 338 339 338 340 340 341 341 341 341 340 342 345 348 348 348 346 346 349 348 347 348 348 348 351 348 347 347 347 347 351 348 348 348 345 341 342 343 344 344 342 338 339 337 336 336 337 338 338 339 339 340 339 340 340 340 342 339 338 337
336 338 339 337 340 339 340 341 341 341 339 337 339 339 347 344 345 345 346 344 345 347 347 345 346 346 348 347 347 347 345 345 344 347 345 346 343 343 342 343 340 343 341 340 337 335 335 336 337 337 337 337 338 339 338 339 340 340 339 338 339 339
336 339 340 339 338 339 340 340 339 340 339 339 339 339 343 344 343 343 344 344 344 346 344 344 343 343 343 342 341 341 341 342 341 341 340 339 339 339 339 340 339 338 341 340 338 338 337 337 336 337 336 336 338 339 340 340 340 339 339 339 339 339
338 339 338 339 338 337 339 338 336 337 337 336 336 337 342 341 341 340 342 342 342 342 341 342 341 342 342 341 340 340 340 340 340 339 338 336 336 336 336 336 336 336 336 336 338 339 338 337 336 336 335 337 339 340 340 340 340 340 339 339 339 339
338 337 337 338 335 335 334 335 335 336 334 333 335 339 339 340 339 340 340 340 340 341 340 340 339 340 338 339 339 339 338 336 336 336 335 334 335 335 335 335 334 335 334 333 333 335 336 335 333 330 332 331 333 335 336 338 339 339 339 339 340 337
338 338 337 336 337 337 338 336 334 331 333 333 336 337 335 337 338 338 338 337 338 337 336 336 337 337 336 335 335 335 335 334 334 333 334 334 333 334 333 332 331 330 332 331 330 334 334 332 328 326 324 325 327 331 334 336 338 341 340 338 336 335
336 337 338 338 337 336 338 339 337 334 333 334 337 337 336 337 337 335 335 334 334 334 333 331 332 333 332 332 332 332 332 333 332 332 331 331 331 330 331 330 329 328 327 329 329 332 331 331 325 327 327 325 321 321 325 334 335 339 339 338 338 335
336 335 336 337 336 336 337 337 338 335 338 337 334 337 337 335 333 331 330 331 330 330 329 329 328 329 329 328 329 328 329 330 329 330 329 328 328 327 328 328 327 327 326 322 323 325 329 330 330 326 319 320 320 321 317 322 323 327 330 331 333 333
335 335 335 335 336 337 338 336 335 335 339 337 338 335 333 330 330 328 327 326 326 327 327 326 327 326 327 326 326 327 326 327 327 327 327 325 326 326 326 325 324 324 323 322 320 322 324 327 327 329 325 322 319 317 317 320 322 322 329 326 327 329
335 337 336 336 336 338 337 335 333 331 332 332 329 329 327 327 326 325 324 326 325 325 325 325 324 324 324 325 324 325 325 324 325 326 326 327 325 323 322 322 322 322 322 323 321 319 319 323 324 326 325 324 324 319 318 320 319 315 324 325 326 327
334 336 336 336 337 338 336 336 336 333 333 330 326 327 328 328 327 326 327 325 323 324 323 323 323 322 322 323 324 324 323 323 322 322 325 322 321 321 321 321 323 322 321 321 321 317 317 318 320 321 321 322 322 321 322 318 315 317 314 320 323 324
332 331 333 335 335 336 336 335 334 332 331 328 327 325 326 326 327 325 324 323 323 322 322 322 321 320 321 321 322 322 321 321 320 320 321 319 319 320 321 322 321 321 320 319 318 316 315 317 314 315 318 318 318 319 319 320 320 317 315 312 314 320
329 330 331 332 332 332 333 334 334 332 329 328 328 327 326 326 324 323 321 322 321 319 320 321 320 320 320 320 320 320 319 318 318 319 319 319 319 319 320 319 318 318 317 317 316 316 316 314 314 314 314 315 316 316 316 317 318 317 313 311 311 312
327 328 329 330 331 330 330 331 329 330 327 326 326 325 325 324 323 323 321 320 321 321 319 320 320 319 319 318 318 318 317 317 317 318 318 317 317 318 318 317 317 317 315 315 314 315 315 313 314 314 314 313 312 313 313 313 314 313 313 313 309 309
326 327 327 328 328 327 328 327 326 326 326 325 325 324 323 322 322 321 319 318 318 319 319 319 320 318 318 317 317 317 317 316 317 318 317 315 316 316 316 315 315 315 314 314 313 314 314 314 313 313 312 313 311 311 310 310 310 311 310 309 308 308
325 325 325 326 327 326 325 325 325 324 323 325 324 322 322 321 321 319 319 317 318 319 318 319 318 316 316 316 316 315 316 315 315 315 315 316 316 316 316 314 315 314 313 314 314 314 313 312 312 312 312 312 312 312 312 312 312 311 309 308 308 306
322 324 324 325 324 325 325 323 322 322 322 322 322 322 322 321 320 319 318 317 316 315 316 315 314 314 314 314 314 314 313 313 313 314 315 315 315 315 316 315 313 314 314 313 313 313 311 312 311 310 311 312 313 314 312 313 312 310 310 309 308 305
321 323 323 323 322 322 322 323 323 321 321 320 320 321 320 318 318 317 317 315 315 315 314 313 313 313 313 312 312 312 313 313 313 313 313 314 315 314 315 312 312 313 313 314 313 313 312 313 312 312 311 310 310 312 312 311 309 309 307 307 305 304
319 321 321 320 320 319 319 320 320 319 319 319 318 317 317 318 317 316 315 315 316 315 313 312 311 313 313 313 312 312 311 312 312 312 312 312 313 313 313 312 311 312 313 314 313 312 311 311 310 311 310 310 310 310 308 308 308 308 307 307 306 305
319 319 319 319 318 318 318 318 318 317 318 318 317 317 316 316 316 316 316 315 314 313 312 311 312 312 312 312 312 310 309 310 311 311 311 311 310 310 311 311 310 310 309 312 311 310 309 310 308 310 309 310 309 308 307 307 307 307 307 307 306 305
318 318 318 317 317 317 317 316 316 316 316 316 315 314 314 315 315 316 317 314 313 312 313 313 312 313 312 312 311 311 310 309 310 310 310 310 310 309 310 310 309 308 308 310 310 310 309 308 308 309 308 308 306 306 305 307 307 306 306 306 305 304

ECMWFFLT2_sfc_thetae_093.txt.gz
Theta_e
342 343 345 346 346 347 349 350 349 350 350 350 350 349 349 350 350 349 348 348 348 342 341 340 342 342 346 343 345 343 344 344 343 342 341 341 341 340 341 343 341 342 341 342 341 343 345 346 347 347 347 348 348 343 338 337 338 341 332 335 335 334
339 341 344 346 347 348 348 348 346 346 346 347 348 349 346 344 351 343 349 347 344 346 342 339 339 347 341 341 341 343 343 344 344 344 342 342 341 341 341 342 343 342 343 343 342 336 339 347 348 348 348 348 344 338 338 337 338 339 333 332 333 337
339 340 341 343 345 347 346 345 345 346 347 349 349 348 344 347 343 343 346 345 346 345 344 342 343 346 345 345 344 345 344 344 345 345 345 345 344 343 342 343 342 341 342 342 339 335 334 339 341 349 350 346 341 340 339 339 339 339 332 333 332 344
339 339 338 340 343 343 343 343 343 344 345 345 345 347 344 345 344 341 344 342 344 345 343 342 351 350 351 345 342 346 346 344 344 344 345 344 345 345 345 345 344 344 341 338 331 330 332 335 339 341 342 341 340 340 339 339 340 338 335 340 334 347
340 339 337 338 339 340 340 341 342 343 345 344 344 344 344 345 344 341 342 343 344 346 345 343 341 343 344 341 340 340 341 340 341 339 345 338 338 340 342 340 339 339 336 331 328 328 330 332 338 339 341 340 339 340 340 341 340 336 334 337 337 345
341 338 335 335 336 339 339 337 338 342 342 342 344 343 342 341 342 342 342 345 345 341 341 342 341 340 341 341 341 341 339 339 339 343 343 338 337 338 338 339 338 332 330 328 326 326 327 331 334 339 338 339 338 339 339 339 333 332 335 334 336 346
339 336 335 336 336 338 334 335 338 341 340 339 341 341 339 340 342 342 345 347 340 337 338 338 339 339 339 339 339 340 339 341 339 339 344 338 339 341 339 337 337 334 330 328 326 327 328 330 334 338 337 338 338 338 335 332 332 333 333 334 338 346
339 337 336 337 335 334 337 339 341 343 342 343 340 339 340 341 344 344 347 347 345 339 338 337 339 340 338 338 339 338 341 340 339 339 341 344 342 341 340 340 339 340 337 332 332 336 336 336 334 335 335 333 333 332 330 329 329 330 332 334 336 345
337 338 335 334 334 338 338 339 339 340 339 347 338 339 340 341 342 344 344 347 345 340 339 338 338 339 337 336 337 339 341 341 339 338 339 338 343 341 337 337 340 341 340 338 337 335 337 337 337 333 334 333 333 334 333 334 333 333 333 335 336 340
336 335 335 337 337 338 337 337 337 339 342 344 343 343 343 343 341 343 343 344 346 343 340 340 339 338 335 337 337 338 343 342 339 338 340 339 338 338 338 339 338 338 338 337 336 336 339 337 335 335 334 334 333 332 332 335 334 333 336 335 337 339
338 338 336 335 335 335 334 334 336 336 339 339 341 344 342 342 339 340 345 345 344 344 344 340 338 339 337 335 336 339 340 340 339 340 340 339 338 341 339 338 338 337 338 338 339 340 339 338 335 336 337 335 333 333 336 333 337 335 334 334 338 335
335 337 336 336 337 335 334 336 337 336 335 336 337 336 337 337 341 338 340 343 345 343 344 341 340 340 339 339 338 338 339 338 336 339 341 340 339 340 340 339 341 339 338 337 337 336 337 335 335 334 334 334 333 334 335 336 335 334 335 334 336 335
337 337 335 334 334 336 336 337 338 336 337 338 337 336 337 338 338 338 338 337 343 344 344 341 344 340 342 339 337 337 339 340 341 340 341 342 342 341 341 340 339 340 339 338 337 336 337 335 333 334 335 335 334 335 337 336 334 334 334 334 334 335
336 336 336 336 335 335 336 337 337 336 337 336 337 336 337 339 340 340 338 339 339 342 344 342 342 341 340 339 339 338 339 337 338 341 341 343 341 340 339 340 339 337 341 337 336 335 334 334 333 333 334 335 334 334 335 335 335 333 333 334 334 335
336 335 337 336 336 336 337 337 337 338 337 337 339 339 338 338 339 341 341 339 337 340 341 343 343 341 342 338 336 338 336 336 337 341 341 341 340 339 339 338 336 336 336 335 335 335 335 333 333 334 335 335 334 335 335 335 336 335 336 334 333 336
333 333 333 335 336 336 336 337 337 341 338 338 338 337 337 336 338 338 340 338 337 338 343 341 342 342 340 339 336 338 338 338 340 341 340 339 339 337 338 338 338 335 333 333 334 334 334 333 333 334 334 334 334 335 336 336 336 336 337 336 336 335
334 334 335 336 336 336 337 337 338 338 338 338 337 336 337 337 337 338 338 337 336 339 341 341 341 342 341 340 339 338 340 339 340 339 338 337 337 337 336 337 335 337 334 331 333 332 332 332 333 333 333 333 334 335 334 334 335 336 338 336 335 335
334 334 334 335 335 336 337 336 336 335 336 335 337 336 336 337 337 338 337 335 338 340 339 338 338 339 338 339 337 336 336 337 337 336 335 335 334 334 334 333 332 333 334 333 331 331 331 332 334 334 333 333 333 333 334 335 335 337 336 335 335 334
334 334 334 336 336 336 336 335 336 335 336 336 335 335 334 334 335 337 337 338 338 337 338 336 336 336 336 336 335 334 333 334 335 333 333 332 332 331 331 331 329 330 332 331 330 331 330 329 331 331 332 332 332 333 334 335 336 335 335 334 335 337
335 335 335 334 333 333 334 332 332 332 331 332 332 333 334 333 335 337 337 336 335 334 335 335 333 332 332 334 334 333 332 332 333 332 330 329 329 328 328 328 327 328 327 329 330 330 328 327 327 326 327 327 328 329 330 332 334 335 335 335 335 335
333 333 333 332 331 330 329 330 331 330 329 331 331 332 334 335 334 333 333 333 331 329 329 331 331 329 328 330 329 331 330 330 330 330 331 330 330 329 329 327 325 326 325 324 325 326 325 326 323 322 323 322 324 327 329 329 332 332 331 333 335 334
333 333 332 330 331 331 330 330 328 329 329 329 330 331 331 331 330 330 329 328 328 326 326 327 328 327 326 326 325 325 327 325 325 326 327 328 327 328 325 324 323 321 323 322 321 323 324 324 320 319 318 319 320 323 324 327 326 326 326 328 330 332
332 331 331 333 332 332 332 332 330 328 329 330 333 333 330 329 328 326 325 325 325 324 324 324 325 327 324 324 323 322 323 324 323 325 322 322 322 321 321 320 320 319 318 320 320 323 322 321 317 319 319 315 314 316 319 321 323 322 324 325 325 326
332 332 332 333 333 333 333 333 332 331 332 333 329 330 328 326 324 323 323 324 323 323 323 322 323 323 323 322 321 321 321 321 322 322 320 319 318 318 318 318 319 319 318 315 316 318 320 319 319 317 313 314 314 314 311 315 316 319 324 323 324 323
331 330 330 333 332 332 332 331 332 332 333 332 331 328 326 324 324 324 321 320 321 322 321 321 321 321 323 320 320 320 319 319 318 318 321 317 316 316 317 317 317 316 316 314 313 314 316 318 318 319 317 315 312 312 311 313 315 316 320 320 321 321
331 331 332 333 334 333 331 330 329 329 327 326 325 326 323 322 321 319 318 320 320 320 320 319 319 319 319 321 318 318 317 316 316 317 318 316 316 315 316 316 316 315 314 314 312 312 311 315 317 316 318 317 318 313 311 313 314 309 317 319 319 319
330 330 331 332 334 333 331 329 329 331 329 324 323 324 325 325 323 322 321 319 318 318 318 317 317 317 316 318 317 316 315 315 316 316 318 315 314 314 315 315 315 313 312 313 312 310 310 310 312 313 314 314 316 316 315 312 308 310 307 312 314 314
327 329 331 332 332 332 331 330 329 328 327 325 323 322 323 322 322 322 320 319 318 317 318 317 316 315 315 316 316 315 315 314 315 316 316 313 313 314 314 314 314 312 312 312 312 310 309 310 309 309 312 310 312 312 312 313 312 309 308 305 306 311
325 325 326 327 326 326 329 328 327 326 324 324 324 324 323 323 321 321 318 319 318 318 317 315 315 314 314 314 316 315 313 313 314 315 316 313 313 312 312 311 310 310 309 310 312 312 308 307 308 306 307 307 307 307 309 310 310 309 306 304 303 303
323 323 324 324 324 323 324 326 324 323 322 321 322 322 321 320 320 319 317 318 318 316 315 313 313 313 313 313 313 314 313 312 313 315 316 312 312 311 311 310 310 310 309 308 309 309 308 307 308 307 307 307 305 305 306 306 305 305 305 305 301 301
321 322 322 322 321 321 321 322 322 322 321 320 320 321 320 319 319 318 316 316 315 315 314 312 311 311 311 312 312 314 312 312 313 315 314 311 310 311 310 310 309 309 309 308 307 307 308 308 307 307 307 306 305 306 305 303 302 303 303 301 301 301
319 320 321 321 321 320 320 319 319 320 321 321 321 321 320 319 318 316 315 314 314 313 311 311 310 308 308 310 311 309 311 310 311 310 310 310 310 311 310 310 309 309 309 308 308 310 307 306 306 306 305 306 306 308 305 303 303 302 301 301 301 300
317 318 318 319 319 318 318 318 318 318 319 321 321 321 320 319 318 316 314 313 311 309 308 308 308 307 307 308 309 308 308 308 307 309 310 310 309 310 307 307 308 308 308 307 307 307 305 305 306 304 304 306 306 305 304 304 304 302 302 302 301 298
316 317 317 317 317 317 317 317 317 316 317 317 317 317 316 315 314 313 313 311 309 308 307 307 307 307 308 308 308 308 308 308 308 308 309 308 308 308 307 306 305 306 306 307 306 305 305 305 305 304 305 304 303 302 303 304 303 302 302 300 298 297
315 315 315 314 314 314 314 315 315 315 315 316 315 315 315 315 313 313 313 310 307 307 307 306 307 308 309 307 307 307 308 306 306 306 306 306 307 306 306 305 305 305 306 307 305 305 304 304 305 303 303 302 303 301 301 303 302 301 301 299 298 297
314 314 315 314 313 313 313 314 314 314 315 316 316 314 314 314 313 313 310 308 307 306 307 307 308 307 308 307 306 305 306 305 305 305 306 306 305 304 305 305 303 303 303 309 305 304 304 303 303 303 302 302 301 300 301 302 301 300 299 299 298 297
314 314 313 313 312 312 312 313 313 314 313 313 313 313 312 312 312 311 309 307 307 307 308 307 309 308 306 306 306 305 304 304 304 304 305 305 305 304 304 303 303 302 303 303 305 303 303 303 303 302 302 301 301 300 300 300 300 299 298 298 297 297

ECMWFFLT2_sfc_thetae_096.txt.gz
Theta_e
344 344 346 347 346 346 348 349 349 350 350 350 349 349 349 349 349 349 347 347 346 340 339 339 339 339 345 341 344 343 344 344 342 341 341 340 341 341 342 342 343 344 344 344 343 342 343 344 345 347 349 349 350 342 336 333 333 336 330 332 337 330
341 342 344 346 347 347 347 347 343 344 344 346 349 349 346 342 350 341 348 345 340 341 338 336 336 346 341 341 341 343 343 344 343 343 342 342 341 341 342 341 342 343 343 343 343 337 336 339 342 344 348 350 346 339 336 335 333 335 334 330 333 332
342 343 343 345 346 346 345 343 342 343 345 348 348 347 341 346 341 341 343 342 343 340 339 337 339 344 342 344 342 343 343 344 344 344 344 345 345 345 344 344 345 344 344 343 336 330 331 331 331 341 345 344 340 339 338 337 335 334 336 331 332 336
341 342 343 343 344 343 342 342 342 343 343 342 339 344 340 340 340 339 342 339 341 340 342 338 346 349 350 342 340 345 345 344 344 345 344 344 345 344 344 344 345 345 343 338 330 328 328 327 328 331 334 337 338 338 337 336 335 336 333 334 332 338
341 341 342 342 342 341 340 341 341 342 342 339 340 339 340 340 339 339 338 340 340 342 339 337 338 340 339 339 337 336 337 337 338 337 345 338 337 338 338 336 336 336 332 331 329 327 326 326 329 331 333 335 337 337 336 336 337 337 336 333 336 341
339 340 340 341 341 342 342 340 340 341 340 340 341 340 341 341 340 340 338 342 343 338 337 337 336 337 339 336 336 336 336 335 335 339 340 338 336 336 336 336 337 336 333 330 327 325 324 328 325 326 332 335 337 337 336 335 336 335 334 332 335 343
337 337 338 339 340 341 339 339 340 340 340 339 339 339 339 338 338 340 342 343 336 335 334 334 334 336 334 335 335 335 336 338 338 336 341 338 335 336 337 337 335 335 335 333 331 328 326 326 326 327 329 335 336 337 336 336 334 331 331 332 335 343
336 335 335 337 337 338 337 337 338 343 342 340 340 338 337 337 343 343 343 343 342 335 334 333 334 334 334 333 334 334 334 337 338 337 339 340 339 336 337 337 337 337 337 336 332 330 332 334 333 330 332 334 334 333 332 330 328 327 328 332 333 341
336 334 334 334 335 336 334 336 337 339 339 343 338 337 337 339 341 342 342 343 345 337 335 335 334 334 334 332 333 335 336 339 338 337 336 335 335 337 335 334 334 337 338 336 335 334 334 336 334 332 331 331 331 331 331 331 331 331 331 331 333 338
336 334 333 333 333 333 334 334 336 338 339 343 339 339 338 337 337 339 339 342 342 338 338 337 334 335 334 332 332 333 337 339 337 336 334 336 335 334 334 334 335 335 335 334 333 336 336 335 335 334 333 332 332 332 331 330 331 330 331 332 332 336
336 337 334 334 333 332 333 333 334 335 335 335 336 336 335 335 335 335 336 337 337 340 339 337 335 334 333 331 332 334 336 337 335 336 337 337 336 335 335 334 335 334 333 333 334 334 334 334 333 333 333 332 332 331 331 332 332 333 333 332 331 332
334 335 335 334 334 333 333 334 333 335 334 335 336 335 335 336 337 335 336 335 335 335 338 337 337 336 334 333 334 333 334 335 335 336 338 336 336 337 336 337 338 337 336 333 334 333 334 332 332 332 332 333 332 332 332 332 332 331 331 332 331 332
335 334 333 333 333 334 334 334 334 334 335 335 334 334 334 335 336 337 338 336 334 335 337 335 337 337 339 335 334 333 334 333 334 336 336 337 336 336 335 335 336 336 337 334 334 333 334 333 332 332 333 334 334 333 333 334 334 332 332 331 332 331
333 333 333 333 333 333 333 333 334 334 336 335 334 335 336 336 338 336 337 336 335 335 334 334 335 336 336 335 333 332 333 332 333 336 338 338 335 334 335 335 334 334 337 333 332 332 331 331 331 331 332 333 333 333 332 333 332 333 332 332 332 332
335 335 335 333 333 333 334 334 333 333 334 335 335 334 334 335 335 336 336 335 336 336 335 334 336 334 334 334 333 334 333 332 335 338 336 336 334 334 334 334 333 333 332 331 331 333 332 330 330 331 332 332 332 333 333 333 334 334 334 333 332 332
333 333 332 334 334 334 334 334 335 337 334 334 334 333 332 333 334 334 335 333 335 336 335 334 337 339 336 335 334 334 334 335 336 334 333 333 333 331 331 331 331 331 329 329 330 330 330 329 329 330 331 331 331 332 332 332 333 333 334 334 334 334
332 332 333 333 333 333 334 335 335 334 334 333 333 333 333 333 334 333 334 333 333 335 336 338 337 337 336 335 333 333 333 333 333 332 331 330 330 330 329 329 328 330 328 325 327 327 325 326 327 329 330 329 330 330 330 330 331 332 334 333 333 333
332 333 333 333 334 334 334 333 333 333 334 332 332 332 333 334 334 333 333 333 335 335 334 334 335 335 334 334 331 330 331 332 331 330 329 328 327 328 328 326 325 327 327 326 326 324 322 323 326 328 328 327 327 327 328 329 331 333 331 332 332 333
333 333 333 334 334 332 332 332 333 332 331 331 331 331 332 332 332 333 333 335 334 332 331 330 330 332 332 331 330 329 329 329 330 329 327 326 326 326 326 324 323 324 325 326 324 322 321 321 324 325 325 325 325 325 326 327 329 326 327 328 330 331
333 333 333 333 332 331 331 331 329 329 329 330 330 332 331 331 332 330 329 329 329 329 329 328 327 327 328 328 328 328 327 328 329 329 326 324 323 322 321 321 321 322 321 322 322 320 320 320 321 319 321 323 323 323 323 326 323 323 325 325 326 327
333 333 331 330 330 329 328 328 327 327 327 328 330 330 329 327 326 327 326 326 326 326 326 326 326 326 324 327 325 326 324 324 325 325 324 322 321 321 321 321 319 320 319 318 318 318 318 319 317 316 316 318 320 321 322 323 321 322 323 323 323 323
332 330 329 329 330 328 327 327 327 327 328 329 329 326 324 324 324 325 325 324 325 324 324 325 326 324 324 323 322 322 322 320 321 322 321 321 320 322 318 318 318 316 318 317 315 316 316 317 313 312 313 315 314 319 319 320 319 320 322 322 321 320
330 328 328 330 329 329 328 329 328 327 329 330 330 327 325 325 324 321 322 323 323 322 322 322 322 323 321 320 319 319 319 319 319 321 316 316 316 316 316 316 316 314 313 315 316 316 315 315 310 312 312 310 308 312 314 315 316 317 320 320 319 317
328 327 329 331 331 330 330 329 329 331 330 327 324 325 323 323 321 320 320 321 321 320 320 319 320 321 319 318 317 316 316 316 317 318 315 314 314 314 314 314 313 314 312 310 311 311 314 313 312 312 307 309 311 309 306 308 311 314 317 318 316 314
328 327 329 331 330 330 331 330 331 329 328 326 325 322 320 319 320 321 319 318 318 318 318 317 317 318 319 315 315 315 315 315 315 315 315 314 313 312 312 312 312 312 311 308 308 308 310 313 311 314 310 309 308 308 307 309 310 308 312 314 313 312
327 328 329 329 330 330 330 329 327 325 324 323 321 319 316 315 315 315 315 316 316 316 316 315 315 315 317 316 314 314 314 314 314 314 314 312 312 312 311 310 310 310 310 310 308 307 306 311 311 312 312 313 314 308 306 309 307 303 310 312 311 309
328 328 329 330 330 330 328 329 328 326 325 323 321 320 320 318 317 315 316 314 314 314 314 313 313 314 314 315 313 313 313 313 313 313 315 312 311 310 310 310 311 310 309 310 308 305 305 305 307 308 310 311 313 312 310 306 302 304 300 305 307 305
328 328 327 329 330 329 329 328 326 324 324 322 321 320 320 319 319 318 315 314 314 314 314 314 314 313 314 315 314 312 313 313 313 313 314 310 310 309 310 311 311 309 310 309 307 305 304 305 303 304 309 307 308 310 308 306 305 302 301 298 299 303
324 324 323 325 327 328 329 327 325 324 322 322 321 320 320 320 318 318 315 315 313 313 313 313 313 313 312 313 315 312 311 312 312 312 315 310 310 309 308 308 307 307 307 308 309 308 305 304 305 304 304 305 305 305 305 304 303 303 301 297 297 298
320 320 321 322 325 326 326 326 324 323 322 320 320 318 318 317 316 316 314 313 312 311 311 311 311 311 310 311 311 312 311 311 311 313 313 309 308 308 307 307 307 308 307 306 306 307 306 305 304 304 304 304 302 301 300 300 299 299 299 300 296 297
319 319 320 320 321 322 323 323 322 322 320 318 317 316 314 313 314 314 312 311 310 310 310 309 309 309 309 309 310 312 309 310 311 313 310 308 307 307 307 307 307 306 306 306 305 304 304 304 303 303 302 302 301 300 298 297 297 298 297 296 295 295
317 318 318 319 319 319 320 320 320 320 319 318 317 316 313 312 313 312 310 309 309 309 308 308 307 306 306 308 309 306 308 307 308 307 306 306 305 304 305 306 306 305 304 304 304 304 302 302 301 301 300 300 300 300 300 298 298 297 296 295 294 292
316 317 317 317 316 317 317 317 317 318 318 319 317 316 315 314 313 310 309 308 307 306 306 306 305 305 305 306 307 306 305 305 305 306 306 305 305 304 303 304 305 304 303 303 302 302 302 301 301 300 299 300 300 299 298 298 297 296 295 295 294 291
314 315 315 315 315 314 314 314 315 316 317 317 316 316 315 313 312 310 309 308 307 306 305 305 304 304 304 305 305 305 305 304 304 305 305 305 304 304 303 303 303 303 302 302 302 301 301 301 300 300 300 299 298 298 297 297 296 296 294 293 292 291
312 313 313 313 313 313 313 313 314 314 314 314 313 313 312 312 310 309 308 307 306 305 305 304 304 304 305 304 304 305 305 303 304 303 303 302 304 303 302 303 303 304 304 302 302 302 301 301 300 299 298 298 298 297 297 297 296 295 295 294 293 292
312 312 313 313 312 311 311 312 313 313 313 314 314 312 312 311 309 309 308 306 305 305 305 304 305 304 304 303 303 302 303 302 303 303 303 302 302 302 302 302 301 301 302 305 301 300 300 300 299 298 297 297 297 296 296 296 296 295 294 295 294 293
311 311 311 311 311 311 311 311 311 311 311 311 311 311 310 309 309 308 308 306 305 304 305 305 306 305 303 303 303 302 301 301 301 301 301 302 302 301 301 301 300 300 300 301 302 300 300 299 298 298 297 297 296 295 295 296 295 296 296 294 295 293

ECMWFFLT2_sfc_thetae_102.txt.gz
Theta_e
348 348 348 348 347 346 348 349 348 349 348 348 348 348 348 348 347 346 347 345 342 336 334 334 335 335 345 341 343 343 344 343 342 341 342 343 343 344 345 345 345 345 345 345 345 342 338 337 339 340 341 341 339 334 336 335 335 337 338 336 341 332
346 347 347 347 346 345 346 347 343 344 343 345 347 348 345 342 347 338 347 341 337 343 332 332 334 344 342 344 342 343 343 342 343 344 343 344 344 344 344 344 344 344 345 345 344 333 331 334 336 338 338 338 331 332 335 336 336 335 338 336 339 335
345 346 346 346 344 344 343 343 341 342 344 346 346 346 341 345 336 339 342 340 341 336 336 336 339 343 344 345 342 343 343 344 344 345 345 345 345 345 344 343 343 344 343 342 335 331 330 329 328 334 334 329 329 331 333 334 335 336 336 336 341 339
344 346 345 345 345 343 341 341 342 342 340 341 342 343 341 343 342 340 341 340 341 341 341 338 346 347 347 340 336 341 345 346 346 344 345 341 342 342 342 340 340 341 338 336 332 331 330 328 329 327 327 327 328 330 332 334 335 335 336 337 339 342
345 345 344 344 344 342 341 341 342 341 339 340 341 341 339 339 339 337 335 341 339 341 339 338 337 337 337 337 334 334 335 336 337 334 342 337 337 336 336 334 334 336 333 334 333 332 330 330 330 328 328 328 329 331 333 335 336 336 336 336 338 340
344 344 344 344 344 343 342 341 341 340 338 338 339 339 339 337 335 335 334 336 341 339 339 337 336 338 339 336 335 334 334 334 334 337 339 338 336 337 336 336 337 337 337 335 334 333 332 334 330 329 330 331 330 332 334 335 336 337 337 336 335 339
343 343 343 344 344 343 341 341 341 339 337 337 337 337 337 335 335 334 334 339 338 336 336 334 334 334 334 333 334 333 333 334 335 335 339 338 337 335 335 336 336 336 335 336 337 336 333 331 329 330 333 332 333 334 335 335 335 335 334 332 332 339
342 342 342 343 342 342 341 339 339 341 336 339 337 335 334 335 335 335 339 338 342 333 332 331 333 333 334 332 333 333 332 334 335 336 337 338 334 334 334 334 335 335 335 336 335 335 335 335 334 333 333 333 333 333 333 332 332 332 331 331 332 337
341 341 341 342 341 341 340 338 338 337 335 342 334 334 333 335 336 338 338 339 339 331 330 331 331 333 334 332 330 331 334 334 335 334 334 333 333 334 334 333 334 335 334 333 333 335 336 334 333 333 333 333 333 333 333 332 332 332 332 332 332 335
340 340 340 340 339 338 337 336 334 334 334 339 332 333 334 334 334 335 336 338 339 335 334 334 333 332 333 330 330 332 334 333 332 334 333 334 334 333 333 334 334 334 333 332 333 334 334 333 333 333 333 333 333 333 333 333 333 334 334 333 333 335
337 340 338 338 333 331 333 331 331 331 334 333 333 335 333 332 331 332 333 334 334 338 334 333 333 332 331 330 330 331 332 332 334 335 334 334 335 335 333 334 335 334 334 332 332 333 333 332 331 332 333 333 333 333 333 334 334 334 334 335 334 334
334 336 335 333 333 329 330 331 330 330 330 330 333 331 331 332 334 332 332 331 332 333 335 332 333 333 333 331 331 331 331 333 333 334 335 334 334 334 335 334 334 335 333 332 331 331 332 330 329 330 331 332 333 332 332 333 333 333 334 333 333 332
333 333 331 330 329 328 330 331 331 330 331 333 332 331 331 332 333 333 332 331 332 334 333 332 332 333 337 331 331 331 332 333 333 333 333 333 333 332 331 331 331 333 331 330 329 328 328 328 328 329 330 331 331 330 331 332 332 332 330 329 329 328
332 331 331 330 330 329 329 330 331 331 333 331 331 333 334 334 335 333 333 332 333 334 332 332 332 332 332 332 332 332 332 331 332 331 331 331 330 330 329 329 329 328 329 327 325 326 324 325 326 328 329 329 329 329 330 330 329 327 326 324 324 323
333 331 332 330 330 330 329 330 330 331 331 332 333 333 333 334 334 333 332 332 333 335 333 333 334 332 333 333 332 331 331 331 330 330 329 328 327 327 327 326 327 326 324 323 323 324 322 322 324 326 327 328 327 328 328 327 325 322 320 321 320 319
331 330 329 330 329 330 330 332 334 334 331 331 332 332 332 332 332 332 332 332 334 337 334 335 335 333 332 331 331 330 330 330 329 327 326 326 326 325 325 325 325 324 321 320 320 319 320 320 322 324 325 326 327 326 325 324 321 318 318 318 317 316
330 330 330 330 331 332 333 333 332 331 331 331 331 332 332 331 331 331 331 331 333 336 334 333 332 331 330 330 329 329 329 328 328 325 324 323 323 324 323 323 322 322 320 318 318 317 318 319 321 323 324 325 325 324 323 321 318 317 317 315 314 313
330 330 330 332 333 333 333 332 332 332 333 332 331 331 331 332 331 330 330 329 331 333 333 331 331 330 330 330 328 328 328 327 325 323 322 321 321 322 321 322 320 320 318 317 315 315 315 316 319 321 322 323 323 322 321 318 316 316 314 314 312 310
331 331 332 333 333 332 331 330 330 330 331 331 330 329 329 328 327 327 327 328 329 329 329 327 328 328 326 324 324 325 325 325 323 321 320 319 319 320 320 320 319 318 318 316 314 314 314 314 318 318 321 321 321 320 320 317 314 312 312 312 310 309
332 333 333 332 332 330 329 329 328 330 329 329 328 327 325 325 325 325 326 325 325 326 326 326 325 326 325 323 323 323 322 322 321 320 318 317 317 317 317 318 318 316 314 314 314 314 313 314 315 315 319 319 320 319 317 314 312 311 311 311 309 307
332 332 331 330 330 329 327 328 329 328 326 326 325 324 323 323 323 323 324 324 324 324 324 324 323 322 322 323 321 321 320 319 319 319 317 316 316 316 317 317 316 316 313 311 311 312 312 314 313 312 314 316 318 319 317 313 311 310 310 310 309 306
332 331 331 331 330 328 327 328 328 327 325 325 323 321 321 322 323 323 322 322 322 321 320 321 321 320 320 319 318 318 317 317 317 317 316 316 316 316 313 314 315 312 313 311 309 311 311 312 310 309 310 312 315 316 316 312 309 308 309 309 308 306
331 330 330 331 329 327 328 330 328 326 324 322 323 323 322 322 321 319 319 320 320 319 319 318 319 319 317 317 317 316 315 315 315 316 313 312 312 312 312 311 312 311 309 311 310 311 310 312 309 311 312 311 308 309 313 311 310 307 306 306 307 306
330 329 329 330 329 328 330 328 327 325 323 322 320 322 320 320 318 317 316 317 318 318 317 317 317 317 316 316 315 314 314 314 313 314 312 311 310 310 310 310 310 311 309 306 307 308 310 309 309 309 306 307 310 305 303 306 306 307 306 303 303 304
329 329 329 330 328 330 328 324 323 322 322 320 321 319 317 316 317 317 315 315 315 317 317 316 316 316 316 314 314 313 313 313 312 312 312 310 309 309 309 309 308 308 307 306 305 306 307 308 306 308 310 307 304 303 302 305 304 306 307 303 301 301
329 329 328 328 329 328 325 322 320 319 318 317 316 316 315 313 313 313 312 314 315 316 316 315 315 315 316 315 312 312 312 312 311 311 311 310 309 309 309 308 308 307 306 307 306 305 304 306 306 306 304 305 306 304 302 302 302 299 305 304 303 300
330 329 328 328 329 328 323 322 321 321 319 317 316 316 315 315 313 313 313 313 313 314 314 314 314 314 313 314 312 312 311 311 311 311 312 309 308 308 308 308 309 307 306 307 306 303 303 303 304 304 303 303 302 302 302 300 297 298 295 300 301 299
330 329 328 329 329 327 323 322 321 320 320 317 315 313 314 313 314 314 312 312 312 312 312 312 312 312 313 315 313 311 311 311 311 312 311 308 307 307 307 307 307 306 306 305 303 302 300 301 300 300 303 300 300 299 298 298 300 299 297 291 294 298
329 329 328 330 329 327 325 323 322 320 317 316 315 314 315 315 313 313 311 312 312 311 311 311 311 311 311 312 315 311 310 310 310 310 311 307 307 306 305 304 303 303 303 303 303 302 300 298 298 297 298 298 298 297 296 296 296 297 292 289 291 290
327 327 328 329 329 327 326 324 321 318 316 316 316 315 314 312 311 311 310 310 310 310 310 309 309 308 309 309 309 310 309 309 309 310 309 305 305 304 304 303 303 303 302 301 301 300 299 298 298 297 297 296 294 294 294 293 293 293 293 293 290 289
327 327 328 329 328 326 325 323 320 318 316 315 314 313 311 310 309 309 309 309 309 308 308 307 307 307 306 307 308 310 307 307 308 309 307 305 304 303 303 302 302 302 301 299 298 298 298 298 297 296 295 295 294 293 292 291 291 292 292 290 290 289
325 327 328 328 327 325 324 322 320 318 316 315 314 312 309 308 308 308 308 307 307 306 305 305 305 305 305 305 306 305 307 305 306 304 304 304 304 303 303 302 301 301 300 300 299 298 296 295 295 295 295 295 295 295 295 294 294 293 292 291 291 289
323 326 327 328 326 325 323 322 320 318 317 316 315 313 311 310 309 308 307 306 305 304 303 303 303 303 304 304 305 304 304 304 304 305 304 303 303 303 302 301 300 299 299 298 297 297 296 296 296 295 295 296 295 295 295 296 295 294 294 293 292 290
321 324 325 326 325 324 324 322 321 319 318 317 315 313 311 309 309 308 307 305 304 304 303 303 302 302 303 304 303 304 303 303 304 305 305 304 303 302 301 300 299 298 298 298 298 297 296 297 296 296 296 295 295 295 295 296 295 295 293 293 291 290
318 320 323 323 324 323 323 322 320 319 317 316 314 311 310 309 307 306 306 306 305 305 303 303 302 303 305 303 303 303 303 302 302 303 303 303 303 302 302 301 300 299 299 298 297 297 296 296 295 295 295 296 295 295 295 296 295 294 294 294 292 292
318 318 320 321 321 321 320 320 319 317 316 315 314 311 310 309 307 307 307 306 305 304 303 302 302 301 302 301 301 301 302 301 302 302 302 301 301 301 300 299 299 298 297 299 296 296 296 296 295 295 295 295 294 294 295 295 295 295 294 294 294 293
316 316 317 318 318 318 318 318 316 316 314 312 311 309 308 307 307 307 307 306 304 304 303 302 301 302 300 300 300 300 300 300 300 301 301 301 301 300 300 299 298 297 297 297 297 295 296 295 295 295 295 295 294 294 294 295 295 295 294 294 294 294

ECMWFFLT2_sfc_thetae_108.txt.gz
Theta_e
350 354 353 353 355 356 354 350 349 349 348 347 346 346 345 344 344 345 345 344 346 344 347 347 347 343 344 345 343 343 342 343 344 344 344 345 345 345 346 345 345 345 345 346 347 344 343 342 342 343 343 342 345 346 343 340 341 342 342 343 344 341
351 352 354 354 356 352 352 350 352 351 350 348 346 346 348 348 345 347 344 347 347 344 344 346 347 345 344 347 345 344 345 345 345 345 345 346 347 346 346 345 345 346 346 345 347 350 348 346 345 344 343 345 346 341 344 343 344 343 342 344 344 344
351 351 353 352 350 353 351 351 350 349 348 347 348 348 347 347 347 345 345 344 346 349 348 349 350 348 349 347 348 344 345 346 346 346 346 346 347 347 345 345 344 346 347 346 349 339 338 340 344 347 347 352 342 343 345 347 347 347 345 344 344 346
348 351 351 350 351 353 351 350 349 349 348 348 348 346 346 347 346 347 346 349 348 350 350 351 349 350 350 350 348 346 345 344 345 345 344 349 346 347 346 343 345 346 346 347 341 337 338 339 339 343 344 342 342 345 346 347 345 346 346 344 344 345
350 351 350 349 349 350 350 348 348 347 347 345 346 346 347 348 349 349 348 350 349 349 349 349 350 350 350 351 351 349 350 350 352 349 347 347 347 343 347 344 344 346 342 341 341 342 341 343 344 344 346 345 346 347 347 348 347 345 346 346 347 345
349 350 350 349 348 348 349 348 348 346 345 345 345 346 346 348 348 349 348 349 350 350 349 349 350 351 351 352 351 350 350 351 351 350 350 351 348 350 349 346 346 346 346 349 347 348 348 347 346 345 345 347 346 347 347 345 346 348 347 348 344 343
348 349 350 349 349 349 348 347 347 346 344 342 344 345 345 346 348 348 349 350 350 347 348 348 348 349 348 350 350 349 349 350 351 351 351 351 350 351 349 348 347 348 347 347 346 347 349 348 346 344 345 343 345 345 346 344 345 346 347 345 342 341
347 348 349 350 350 348 347 347 346 347 345 342 343 343 345 345 348 347 350 351 351 348 347 346 348 347 348 350 349 349 350 349 349 350 351 351 350 349 348 348 349 347 346 347 345 346 346 346 346 346 345 344 344 345 346 344 347 349 347 346 343 340
345 347 348 349 348 347 348 347 345 344 342 344 345 345 345 347 347 348 350 351 350 350 348 349 349 349 349 350 350 351 349 350 350 351 351 349 349 349 349 347 348 345 348 347 346 346 344 344 345 346 343 342 342 342 344 345 346 345 346 343 342 339
345 347 347 349 347 347 346 344 344 344 345 346 345 347 348 346 347 347 347 350 349 349 349 349 349 349 350 351 350 352 351 350 350 352 351 351 348 347 346 346 346 345 343 345 344 345 343 343 341 343 341 341 341 343 344 343 343 343 343 342 340 338
347 349 348 346 347 348 347 345 345 345 346 345 346 348 348 348 347 347 348 350 349 349 350 351 350 349 350 351 351 350 350 351 350 351 350 348 349 349 347 346 346 344 345 343 343 343 341 343 342 339 341 339 341 343 343 343 341 340 339 341 339 339
347 348 348 346 347 346 346 345 346 345 345 347 349 346 345 348 347 347 349 350 349 350 351 352 352 351 351 350 349 349 350 350 349 349 350 348 347 348 348 345 345 346 346 345 343 342 343 341 341 339 339 339 341 340 339 339 338 337 336 337 338 338
347 348 347 347 346 346 346 345 345 345 346 347 347 348 347 347 347 348 350 349 349 352 351 350 352 351 349 349 350 350 350 351 350 350 350 349 348 348 348 345 346 345 344 344 342 342 342 342 340 340 340 339 339 336 336 335 334 334 332 334 333 333
347 347 347 347 347 345 346 345 345 345 347 347 346 346 347 348 348 348 349 349 349 351 351 351 350 351 351 349 349 350 349 348 347 348 348 348 345 345 343 342 343 342 341 342 339 341 340 340 338 339 339 337 337 335 333 331 330 330 330 330 331 331
346 346 347 347 347 346 347 345 343 344 345 347 346 346 347 348 347 347 347 347 350 351 350 349 349 350 349 348 347 349 348 347 348 348 346 345 344 344 342 341 342 341 341 340 338 339 339 338 337 337 337 337 334 331 330 328 327 326 326 328 328 327
346 345 346 347 347 346 346 346 344 344 346 346 345 345 345 347 347 347 346 347 347 348 348 348 348 350 349 348 347 347 345 346 346 344 343 344 344 341 342 342 341 341 339 338 337 337 338 336 337 335 336 334 330 328 325 324 323 323 323 325 324 325
344 345 345 345 346 346 346 345 345 344 344 345 345 345 346 347 346 346 346 345 347 348 346 346 347 347 347 347 345 345 344 344 344 341 342 341 340 340 341 339 339 339 339 337 336 335 336 336 334 333 332 330 327 326 324 322 321 320 321 321 321 319
344 344 343 343 344 344 345 344 343 343 344 344 346 347 346 345 345 345 346 345 346 346 346 345 346 345 345 344 343 342 342 342 341 341 340 339 337 339 339 339 337 336 335 335 333 334 333 334 332 330 329 326 326 322 320 319 319 318 317 317 318 317
343 343 343 344 344 343 344 344 344 343 343 343 344 344 344 343 343 344 343 344 343 344 344 344 344 344 343 341 341 341 341 340 340 339 338 337 336 336 336 336 335 335 333 332 330 332 334 333 331 328 326 325 324 322 319 317 317 316 315 316 315 315
341 342 343 342 341 340 341 340 339 340 340 340 342 340 342 341 342 342 342 343 343 343 343 343 342 342 343 342 340 338 338 338 336 335 334 334 334 334 334 333 333 332 332 331 330 332 333 331 329 327 324 323 322 321 319 317 316 314 314 314 314 315
340 341 340 338 338 338 337 337 339 339 338 340 339 341 340 341 341 341 341 342 342 342 342 342 342 341 338 336 337 336 335 332 332 332 333 333 333 333 333 332 331 331 329 330 328 332 332 331 327 323 324 323 321 320 318 317 315 313 312 313 312 312
340 340 339 339 338 339 339 339 339 339 338 337 337 338 337 338 339 339 340 340 340 341 340 338 337 335 335 335 334 332 333 332 333 333 332 331 331 330 331 331 331 327 328 326 326 330 331 330 323 322 319 320 319 319 317 314 313 312 312 312 312 313
339 339 340 340 339 339 340 342 342 339 338 337 338 337 336 333 333 333 334 335 336 334 333 332 332 332 333 333 332 331 332 333 332 331 331 331 330 329 329 329 330 327 323 324 323 326 327 330 324 325 326 321 317 317 316 311 311 310 311 311 311 311
338 338 339 340 340 342 342 343 342 340 339 338 335 333 333 334 331 329 329 331 332 331 331 330 330 330 330 331 331 331 332 331 330 330 328 328 327 326 328 328 328 326 325 320 320 319 326 327 326 324 321 320 322 320 316 315 310 309 309 310 310 311
338 338 339 340 340 340 340 339 338 337 336 333 332 330 328 327 329 328 328 328 328 329 329 329 330 330 330 330 330 330 329 328 327 327 326 324 324 325 326 327 326 325 326 320 316 317 318 321 323 323 321 320 316 318 312 316 314 311 310 308 309 310
338 339 339 340 341 339 337 335 333 330 328 328 325 326 326 325 324 325 325 327 328 328 328 328 328 328 328 328 328 327 327 325 325 325 324 324 325 325 326 325 325 323 321 323 318 315 312 315 315 316 317 316 318 317 310 316 315 304 307 308 308 308
338 338 339 340 340 338 338 337 337 335 333 330 328 329 331 329 326 324 326 326 326 328 327 327 327 327 327 327 327 326 326 324 323 323 323 323 322 323 323 323 323 322 320 320 321 313 311 309 310 312 312 313 314 315 317 316 308 308 303 305 305 307
339 338 339 339 339 339 338 337 337 336 335 333 333 329 328 326 325 325 326 325 325 326 327 327 327 326 326 326 326 325 324 323 320 321 320 319 321 321 321 320 321 320 320 321 321 318 316 314 308 307 312 311 310 311 313 313 312 310 306 308 304 306
337 338 339 339 338 338 338 337 337 336 334 334 333 328 325 324 323 325 325 324 323 323 326 327 328 327 325 324 324 323 322 321 320 319 318 319 319 319 319 319 317 316 316 315 316 315 314 312 312 309 310 311 312 310 309 311 311 311 308 306 301 303
336 337 339 339 338 338 339 338 336 335 333 331 327 325 324 324 324 324 323 323 323 324 326 326 326 325 324 324 323 323 320 319 320 318 317 318 317 316 316 316 315 314 314 313 314 313 311 311 312 313 313 313 311 310 310 308 308 308 308 307 301 301
336 337 338 337 338 338 338 337 335 335 331 329 327 325 323 324 324 324 322 323 323 323 326 325 324 324 323 323 323 322 320 319 319 319 317 315 315 313 312 312 312 313 313 312 311 312 312 312 311 311 311 309 308 308 306 305 306 306 306 306 304 302
336 337 338 337 338 337 337 337 337 336 332 330 328 326 325 323 323 324 323 322 322 323 324 324 324 322 323 322 322 320 320 319 318 318 316 316 315 313 312 311 310 310 311 312 312 311 311 310 311 310 310 309 308 308 308 307 307 307 305 304 305 304
335 337 337 337 337 337 337 337 336 336 334 332 330 329 327 325 325 324 323 321 321 321 322 323 322 322 321 321 321 319 319 317 317 317 316 314 313 312 311 310 310 310 310 310 310 311 310 311 311 308 307 308 308 307 306 307 308 307 307 307 306 303
334 336 337 336 337 337 336 336 336 335 334 333 332 330 327 325 327 326 323 322 322 322 324 323 322 321 320 319 320 320 319 318 316 315 314 313 312 311 310 307 309 308 309 309 310 310 310 310 310 310 309 307 307 306 306 307 307 306 306 305 303 303
334 335 336 336 337 336 335 335 335 336 334 333 330 328 326 327 327 324 322 323 323 323 322 322 320 320 320 319 319 318 317 316 315 315 314 313 311 311 310 308 309 309 309 309 309 308 308 309 308 308 309 307 307 306 306 306 306 306 306 305 304 303
335 335 336 336 335 334 333 333 334 334 334 331 328 327 325 325 325 324 322 322 322 322 321 321 321 320 319 319 318 317 316 315 315 314 313 311 310 309 309 308 308 308 307 308 307 307 307 308 308 308 308 307 306 305 306 306 306 306 305 306 305 304
335 335 336 334 333 333 332 332 332 332 331 328 327 325 324 323 322 322 321 320 320 320 321 320 319 320 319 319 318 317 315 315 314 313 312 311 310 309 309 308 308 308 308 308 308 307 307 307 308 307 307 307 306 305 305 307 306 306 306 306 305 304

ECMWFFLT2_sfc_thetae_111.txt.gz
Theta_e
350 351 352 355 352 354 352 350 349 348 347 346 346 345 344 344 345 346 346 346 346 346 347 345 343 338 341 344 342 341 341 342 343 342 343 343 344 345 344 346 346 346 347 347 348 347 346 346 346 346 348 347 349 348 345 341 340 342 341 341 343 343
349 351 352 353 354 353 352 351 352 350 348 347 346 345 346 346 346 345 346 347 350 344 345 347 344 344 344 342 341 341 343 344 344 345 345 345 345 347 347 347 347 347 349 348 348 348 346 347 348 349 347 350 347 343 343 344 345 342 341 342 344 347
348 352 356 353 350 352 350 350 350 349 347 346 345 346 347 346 345 341 347 346 346 347 346 344 346 344 343 343 343 345 344 345 346 346 346 347 348 348 348 348 348 349 349 350 346 342 342 342 344 349 352 349 342 343 344 346 347 345 343 344 346 348
347 355 353 354 351 350 350 350 348 348 348 345 346 344 343 344 342 343 342 346 347 349 349 351 348 351 348 342 344 345 346 346 347 348 347 348 349 349 348 348 348 349 347 345 341 338 336 338 340 343 345 342 342 344 344 346 348 344 344 345 346 348
349 351 351 349 352 351 352 347 347 346 347 345 343 344 344 346 346 346 346 349 348 350 348 348 348 348 348 347 343 341 346 347 344 340 349 347 344 343 347 340 342 345 340 339 339 342 340 341 344 345 344 345 345 346 344 344 347 344 345 346 347 346
348 349 349 349 351 351 350 347 346 346 347 346 344 343 343 345 346 348 348 348 349 349 348 348 349 348 349 348 351 349 350 347 349 345 342 352 347 345 345 342 342 336 342 346 343 346 347 345 346 344 343 345 344 345 344 345 346 345 346 345 343 345
347 348 348 348 348 351 346 346 346 346 344 343 343 344 343 344 346 349 349 349 349 346 348 350 348 350 348 348 346 346 347 349 351 350 350 350 346 349 346 344 347 344 346 343 344 344 347 348 347 343 343 341 342 344 345 344 345 344 344 343 342 342
347 348 348 348 348 347 347 347 347 345 345 341 341 343 343 343 346 347 350 350 351 348 349 349 349 351 351 349 352 352 349 346 353 351 349 348 347 352 351 346 347 345 343 344 342 345 345 344 345 346 342 343 343 345 344 343 346 343 344 342 341 340
346 347 347 348 346 346 346 348 347 345 343 342 343 343 343 346 346 347 350 351 351 351 349 349 350 351 349 350 350 349 351 350 350 349 349 349 347 348 350 351 347 344 346 344 343 345 343 343 343 344 342 341 340 341 343 345 345 342 341 340 339 337
346 346 347 349 346 346 347 346 347 345 342 342 344 345 346 343 346 345 347 350 351 353 351 348 349 350 352 349 352 353 352 349 349 352 353 348 347 348 349 344 349 344 342 342 343 344 342 343 340 341 339 340 341 342 344 342 341 341 341 340 338 336
346 348 347 346 345 347 347 346 346 344 345 342 344 346 344 346 345 346 348 351 348 349 352 350 349 348 349 355 350 350 348 348 350 351 349 347 348 347 346 344 347 342 344 342 342 342 341 342 341 338 340 338 339 342 341 340 338 338 338 339 337 337
344 348 348 346 347 347 346 345 346 345 343 344 347 344 343 346 344 345 349 349 349 352 352 352 350 347 347 346 347 348 348 348 350 347 349 349 350 349 347 345 345 345 345 344 343 343 344 341 340 339 338 337 338 338 337 338 338 337 336 338 337 337
345 348 348 346 347 347 347 346 346 344 345 346 345 344 344 345 345 346 350 349 349 352 353 348 346 343 343 347 346 351 348 350 349 349 350 349 349 349 349 348 347 344 343 344 343 344 342 342 341 339 338 337 337 334 335 335 335 335 334 334 334 334
347 349 348 347 347 346 347 346 345 344 345 346 343 343 344 344 345 345 348 348 349 351 352 350 345 340 344 347 343 341 344 348 347 350 351 350 347 346 345 343 342 343 341 341 341 341 340 340 339 338 337 335 336 335 332 331 332 332 332 333 333 332
348 347 348 347 347 346 348 345 343 343 345 345 345 345 345 345 344 346 346 349 351 350 352 347 343 346 343 343 340 338 342 347 348 349 352 347 345 345 344 343 342 342 342 339 339 338 337 337 337 335 335 335 333 331 331 330 329 329 329 331 330 329
347 347 347 347 348 347 347 346 344 343 345 347 343 344 345 345 345 346 346 349 350 351 347 346 344 345 345 345 342 340 345 347 346 346 345 344 343 342 342 342 341 342 339 338 337 337 337 337 337 335 334 333 331 330 328 327 327 325 325 326 325 325
346 346 346 347 347 347 347 345 345 345 345 347 343 343 344 345 345 346 347 346 349 350 349 348 348 346 344 343 342 340 345 345 345 343 343 341 340 339 339 338 339 339 341 337 336 334 336 336 335 333 332 331 328 327 325 324 324 323 323 322 321 319
345 346 346 346 348 347 346 345 344 343 345 344 345 345 345 345 345 347 348 347 349 349 349 348 348 348 348 344 344 344 344 343 343 342 341 339 340 339 339 338 338 339 336 336 335 334 333 334 332 330 329 327 326 323 322 322 322 321 319 319 318 317
344 345 345 347 346 345 345 345 344 344 345 344 345 348 348 346 347 348 347 348 348 347 350 348 348 348 347 344 343 343 343 341 340 340 339 337 337 338 337 337 335 335 336 334 333 334 334 333 330 328 326 326 324 322 321 320 320 318 317 318 316 315
344 345 345 344 343 342 343 341 340 342 341 341 343 343 345 346 347 345 347 348 348 345 343 345 345 345 343 342 342 340 339 340 339 338 336 336 335 335 335 335 334 333 334 333 333 332 336 332 329 326 325 324 323 322 320 318 318 317 317 316 316 316
343 345 342 341 340 340 339 340 340 339 338 340 339 341 344 346 346 345 347 347 346 345 344 344 342 341 341 339 339 338 339 337 336 335 334 333 334 334 335 334 333 333 331 332 329 335 333 330 325 323 323 322 321 321 319 318 316 315 314 313 314 313
343 344 343 340 338 340 342 339 339 337 338 338 338 340 341 344 344 344 345 344 344 344 342 341 340 339 339 338 338 337 337 336 334 334 333 333 333 332 333 334 332 330 331 331 329 333 331 328 323 321 318 319 320 318 318 317 315 313 313 313 314 315
342 342 341 341 340 338 340 341 340 338 338 339 341 344 341 340 341 341 341 341 341 340 338 337 338 337 337 337 335 335 334 333 332 332 333 332 331 332 332 332 331 330 323 327 327 330 332 333 324 325 324 320 317 315 314 312 312 312 312 312 312 312
342 342 342 341 341 342 341 343 342 342 342 341 339 340 341 339 338 337 336 337 337 336 335 335 335 335 335 335 335 333 332 332 331 331 331 331 330 329 331 331 330 329 327 323 323 322 330 332 331 327 320 318 320 320 312 311 308 310 311 310 310 312
341 341 340 340 341 343 342 341 341 341 341 339 339 337 336 334 335 335 335 335 334 334 333 333 335 335 333 334 333 332 331 331 330 329 330 328 327 329 329 329 329 329 329 324 319 321 323 325 325 325 321 321 319 317 316 312 310 309 312 309 310 311
341 341 340 341 342 342 341 339 338 335 334 334 331 331 331 332 331 331 332 334 334 333 332 332 332 334 333 333 331 329 330 329 328 328 328 327 329 329 329 328 327 326 324 324 320 317 315 317 320 319 320 319 319 317 315 314 312 305 309 310 309 309
341 341 341 341 342 341 339 339 339 336 335 334 332 333 335 336 334 333 333 333 331 332 331 332 332 333 332 331 330 329 329 327 325 325 326 327 326 326 326 325 326 324 322 322 321 313 312 312 314 316 316 315 317 320 320 316 313 306 303 307 309 310
342 340 341 342 341 341 339 338 338 337 336 335 334 334 335 334 334 331 330 330 330 330 331 332 331 329 331 329 329 328 327 325 323 323 323 323 324 324 322 322 323 323 324 325 324 319 316 313 310 310 315 315 313 314 317 318 316 314 310 305 305 308
340 340 341 342 341 340 340 339 339 337 336 336 335 334 333 332 329 330 329 329 329 330 332 331 330 329 328 328 328 326 325 323 322 321 321 321 322 322 321 320 320 319 320 320 320 319 315 312 313 311 312 313 314 312 311 313 314 313 309 309 306 306
339 340 341 341 341 340 341 339 340 339 337 336 334 332 331 329 329 329 328 328 329 329 329 329 328 328 328 329 326 325 322 322 322 320 319 319 319 319 318 317 317 318 318 318 318 318 317 316 317 316 317 317 314 313 311 310 310 310 309 309 304 302
340 340 341 341 341 340 340 339 341 340 339 335 333 331 329 328 328 328 327 327 327 327 328 327 327 327 327 327 326 324 322 320 321 320 318 316 315 313 314 315 316 317 317 316 315 316 316 316 316 314 314 313 312 311 310 309 309 309 309 309 306 304
340 340 340 340 341 339 339 340 341 340 336 334 332 330 329 328 328 326 327 326 327 327 327 326 326 325 324 325 325 322 321 321 320 320 317 317 315 314 314 313 314 315 315 316 316 315 315 314 314 313 312 312 311 312 312 310 310 309 309 307 308 306
338 339 339 340 340 340 340 341 341 338 337 334 332 332 330 329 329 327 327 326 326 325 325 324 324 324 324 323 324 321 321 320 318 319 317 316 315 314 314 313 314 314 315 315 316 317 315 315 314 311 309 311 310 311 309 310 311 310 310 309 308 305
338 339 340 339 339 340 341 340 340 338 335 334 333 332 332 330 329 328 327 326 326 326 324 324 323 323 323 323 322 322 321 320 318 317 316 315 313 313 313 311 312 311 312 313 314 314 314 314 313 313 313 310 310 309 310 311 310 310 309 308 305 305
337 339 339 339 339 340 339 340 338 339 338 337 333 333 332 331 330 329 328 327 327 327 326 325 324 324 323 322 322 321 319 317 317 316 314 314 313 313 313 312 312 312 312 312 313 313 313 313 312 312 312 310 310 309 309 308 309 309 308 307 306 305
337 338 339 339 339 339 339 339 339 335 336 336 334 333 332 331 330 330 329 327 327 328 326 325 325 324 323 322 320 318 318 316 316 315 314 312 312 312 313 312 311 311 310 311 311 311 311 311 311 311 311 311 310 308 309 308 309 308 308 308 307 307
336 338 338 339 339 339 339 338 337 336 335 335 335 333 331 331 332 330 329 329 327 326 326 326 324 323 321 321 320 318 317 316 315 314 314 313 312 311 311 311 311 311 311 312 311 311 311 311 311 310 310 310 308 307 308 309 309 309 309 308 307 307

ECMWFFLT2_sfc_thetae_114.txt.gz
Theta_e
349 351 350 350 350 350 349 349 348 348 347 347 345 344 344 344 344 344 343 344 343 341 342 341 340 339 341 340 342 343 344 343 342 343 344 344 343 344 342 344 344 346 347 346 347 347 348 348 347 347 348 349 349 347 343 342 342 341 339 342 343 346
349 350 351 351 350 350 348 348 347 347 346 345 344 345 344 343 348 344 345 344 344 344 342 340 340 343 340 341 340 342 341 343 341 342 343 343 344 344 346 345 347 348 346 348 349 346 344 347 349 349 349 350 347 343 342 341 345 340 342 343 345 349
347 349 352 351 350 350 347 347 346 346 345 345 345 344 343 343 343 343 345 345 348 349 346 344 344 340 344 344 343 343 341 343 344 342 344 344 345 346 346 347 347 348 349 348 347 344 340 339 342 349 351 348 345 344 345 347 346 341 343 344 345 349
347 352 349 349 350 349 347 347 347 346 344 344 343 341 343 343 339 342 343 347 348 350 350 350 345 347 343 340 342 342 343 343 344 345 343 346 345 347 347 348 348 349 347 347 341 338 336 339 341 342 343 344 341 346 345 348 349 343 342 344 345 347
350 351 351 349 349 347 348 347 347 345 343 341 341 344 344 344 345 341 346 352 350 351 349 350 351 346 342 342 339 342 342 343 342 342 347 343 342 339 345 343 342 344 343 340 337 336 339 339 343 344 342 344 341 343 344 345 348 343 341 342 342 344
351 351 352 349 349 348 349 347 346 346 344 341 343 344 343 344 346 354 351 350 352 352 350 347 347 348 349 350 340 340 340 341 341 339 343 340 347 350 346 343 344 343 341 350 343 347 343 348 345 349 342 340 339 340 342 345 343 341 340 339 338 341
350 349 349 350 350 348 347 347 346 346 344 343 344 343 345 351 350 352 354 351 351 350 351 351 350 349 349 350 348 349 349 349 348 347 351 349 346 348 350 347 345 346 342 342 342 342 348 347 347 342 344 340 339 339 342 344 341 340 338 337 337 339
347 348 350 351 351 347 347 346 348 347 344 344 346 344 347 348 350 350 353 355 353 352 351 347 349 347 346 347 343 343 346 346 347 346 346 346 345 347 348 345 343 342 341 339 339 342 346 344 347 345 342 343 338 339 341 343 340 339 338 336 335 337
345 346 347 350 348 347 346 348 347 347 345 347 346 345 352 348 350 349 352 352 352 349 347 348 343 343 343 344 344 343 344 344 343 345 345 344 346 348 348 348 347 342 342 342 343 341 341 341 341 343 339 338 339 338 339 341 339 338 337 335 334 335
344 346 347 348 346 346 347 347 347 345 352 343 352 345 349 352 353 351 349 351 354 348 342 342 342 345 344 342 344 343 343 341 342 344 343 342 346 346 347 350 345 346 345 340 341 341 345 340 336 337 338 337 341 340 339 339 338 337 336 334 332 332
347 349 348 346 347 347 347 347 347 347 347 344 353 353 347 349 347 351 350 352 349 350 346 344 345 342 345 343 343 341 338 341 341 340 342 342 345 344 347 346 343 343 341 340 340 343 342 343 338 336 337 334 336 336 335 337 335 337 336 334 331 329
347 350 349 348 348 347 347 347 348 347 345 345 352 350 347 350 352 351 351 352 355 351 347 345 343 342 342 342 342 342 341 341 341 341 343 341 346 342 343 341 342 343 348 348 347 346 347 340 337 334 334 333 333 333 333 332 332 332 336 334 330 327
347 349 349 349 348 348 348 347 346 348 345 348 349 349 349 350 352 350 353 352 348 348 351 349 346 343 343 342 342 341 343 342 341 339 340 341 339 340 340 343 347 346 349 347 345 343 344 344 335 334 333 331 330 329 330 330 330 330 330 332 332 329
347 347 349 351 350 347 348 347 348 348 347 347 349 348 348 351 351 351 349 351 348 347 349 350 345 344 344 342 342 340 341 343 342 340 341 340 341 337 339 342 344 346 346 341 339 340 341 340 336 333 331 330 330 329 327 326 329 329 328 327 327 328
348 348 348 349 349 348 349 346 344 345 346 349 348 349 352 351 352 349 346 349 347 348 348 346 345 344 342 343 340 340 341 341 340 343 340 340 339 339 344 343 342 343 343 345 338 340 335 333 332 330 330 329 327 327 327 324 323 323 325 325 322 321
348 348 348 348 349 348 348 349 345 345 347 350 349 347 350 351 347 348 347 347 347 347 347 346 345 344 344 344 342 342 343 341 340 341 340 336 339 343 344 344 341 340 340 339 337 337 334 332 330 328 328 326 325 324 322 323 322 320 320 319 318 318
346 347 348 348 349 349 349 347 347 346 347 349 349 348 348 352 351 346 347 346 347 347 345 344 344 342 342 343 342 341 343 344 342 341 340 343 343 339 340 339 341 338 336 336 335 334 333 331 329 328 325 324 323 324 321 320 320 319 322 316 315 313
346 347 347 347 348 347 347 347 348 345 347 344 348 349 349 351 346 347 347 347 346 347 345 343 343 340 343 343 342 342 344 344 345 348 344 343 343 344 339 339 339 338 336 334 334 333 330 329 327 325 323 322 322 320 320 321 320 322 316 315 315 313
345 347 347 348 348 348 348 348 347 346 345 346 348 349 350 350 346 347 347 345 344 347 345 343 340 341 339 343 341 344 343 343 345 348 343 338 340 339 340 338 338 336 337 334 332 336 333 329 326 324 322 321 320 320 319 319 319 317 316 317 316 316
345 346 346 347 346 344 343 342 340 342 342 342 344 345 349 347 348 346 345 344 342 344 344 343 341 339 340 340 339 342 343 341 340 341 337 336 334 336 335 334 333 333 336 331 336 335 328 323 322 321 321 319 321 321 318 319 317 316 317 314 313 314
345 345 344 343 343 341 339 340 340 339 340 343 341 343 344 347 345 345 345 343 343 345 345 343 340 339 338 338 338 340 341 340 340 336 338 337 333 334 335 335 335 333 331 331 332 332 326 325 322 320 321 319 318 320 321 319 316 315 312 312 312 313
344 344 344 344 343 343 342 340 339 338 339 340 339 339 341 343 344 344 344 344 343 343 344 342 341 340 340 339 340 340 339 337 336 339 341 338 337 335 334 332 335 331 334 336 330 332 328 325 321 317 315 315 317 317 319 317 315 313 313 312 314 314
343 343 343 343 342 341 344 344 342 341 340 338 341 343 343 342 343 341 343 342 342 343 340 337 338 338 337 337 337 336 336 336 336 336 334 335 333 335 332 335 332 329 325 328 330 331 333 332 321 321 321 316 311 310 313 312 314 312 312 312 311 311
343 343 343 343 342 344 344 345 345 344 344 341 339 340 340 340 339 338 337 338 338 338 337 337 337 336 335 336 338 338 337 335 335 335 333 335 332 331 332 334 335 331 327 322 323 324 328 328 327 324 316 316 315 314 305 307 308 311 311 310 309 311
342 343 342 342 343 344 343 343 343 344 341 339 340 338 336 335 336 337 336 336 335 336 336 338 340 336 333 334 332 334 334 331 332 334 335 332 330 331 334 332 331 333 326 327 320 322 323 325 322 322 319 317 318 316 315 306 306 308 309 307 309 310
342 342 341 343 342 342 339 340 338 335 333 333 332 333 332 331 333 332 332 336 334 335 335 338 340 335 332 332 332 332 333 329 330 333 337 330 332 333 331 329 328 328 327 323 319 317 315 320 321 320 319 322 319 315 312 306 307 303 310 310 309 308
342 341 341 341 342 341 339 339 338 336 335 334 332 333 336 336 334 333 335 334 334 336 333 335 338 336 331 335 332 332 333 331 328 330 330 330 329 329 325 324 325 325 324 327 326 313 314 312 316 318 319 316 318 322 319 314 310 302 300 307 307 306
341 340 340 340 340 341 339 339 338 337 336 335 333 334 335 334 335 335 333 331 331 334 334 336 335 334 331 330 330 330 330 330 328 326 327 327 325 324 323 322 324 324 323 321 322 320 315 315 312 312 317 317 318 317 316 317 316 314 308 301 303 308
340 340 340 340 340 340 341 340 338 337 336 336 336 335 335 334 333 334 332 331 330 329 333 336 331 333 329 327 332 328 328 327 327 324 322 323 321 320 320 320 320 320 319 319 319 320 317 316 316 315 318 313 313 312 313 313 313 315 308 307 302 302
340 340 341 340 340 340 341 340 338 337 336 336 335 334 333 330 331 332 330 330 331 332 329 333 334 328 333 326 326 327 324 323 325 320 319 318 318 318 318 317 318 319 318 317 317 316 316 316 316 315 314 315 316 315 313 310 309 307 310 309 305 302
340 340 341 340 340 340 340 339 338 338 337 335 334 332 330 328 329 329 327 328 331 331 330 330 331 329 328 326 326 325 323 320 322 324 319 315 317 315 316 317 317 317 317 316 315 315 314 314 313 312 311 310 310 309 308 307 305 307 307 306 305 305
339 340 341 340 340 340 339 339 339 339 337 335 333 331 329 327 327 327 327 327 329 329 329 329 328 330 328 328 325 325 324 322 321 320 317 317 317 315 315 315 316 316 316 317 316 315 314 312 313 312 311 311 309 309 308 307 309 310 307 306 305 304
337 339 340 340 340 339 339 339 339 339 337 335 333 331 330 329 329 328 327 327 327 326 327 326 327 325 328 330 324 323 324 321 320 319 317 316 316 316 316 315 314 314 314 314 314 314 311 311 312 310 310 310 309 309 308 309 310 308 307 309 306 302
337 338 339 339 339 339 339 339 340 338 337 335 333 332 331 330 330 329 328 327 327 326 325 326 326 324 324 324 322 324 322 320 318 318 317 317 316 314 314 311 312 312 312 314 314 313 312 312 311 311 310 308 308 308 308 309 308 308 306 305 303 301
337 338 339 339 339 338 338 340 338 338 337 335 333 332 331 331 330 329 329 328 328 328 326 325 324 326 324 325 323 321 319 319 318 317 316 315 314 314 314 312 312 312 313 313 313 312 311 311 310 309 309 309 309 308 309 308 307 307 307 306 305 304
337 338 339 339 338 338 338 338 338 338 336 335 334 333 332 331 331 330 329 328 328 328 327 326 327 324 324 325 321 319 318 316 316 315 315 314 313 313 313 312 311 310 309 312 310 310 310 310 310 310 309 309 308 307 308 307 307 308 307 307 306 306
338 338 339 339 338 338 338 338 338 337 336 336 334 332 331 331 330 330 330 329 328 328 327 327 327 324 323 322 321 318 316 315 316 315 315 314 312 312 312 311 310 311 310 311 311 309 310 309 309 310 309 309 308 307 306 308 308 308 308 308 308 305

ECMWFFLT2_sfc_thetae_117.txt.gz
Theta_e
348 348 348 348 347 347 348 349 347 348 347 346 345 344 343 343 343 343 342 341 341 338 335 335 337 337 341 340 341 341 342 343 343 343 344 344 345 345 344 343 343 345 345 346 346 347 347 347 347 348 348 348 348 342 339 338 341 343 343 345 347 348
347 347 347 348 348 347 348 347 344 344 344 344 344 344 342 340 345 339 342 341 338 341 336 335 336 341 338 340 340 342 343 343 342 342 343 343 344 344 344 344 345 346 346 348 346 343 343 345 346 349 349 347 344 340 339 340 341 342 344 345 346 348
347 347 347 347 347 347 345 344 344 344 344 345 345 344 340 343 340 340 341 340 342 341 337 336 338 342 341 343 341 342 343 342 342 342 343 343 344 345 345 346 346 347 348 348 344 341 340 338 336 345 350 345 339 339 341 342 340 341 342 344 344 348
347 347 347 346 346 345 343 343 342 342 341 340 340 342 339 339 341 340 342 341 341 343 340 337 346 346 344 342 340 343 344 342 342 343 343 344 345 345 345 347 347 348 346 346 340 339 339 336 334 337 342 342 338 342 341 341 340 340 340 342 343 346
347 347 346 346 345 343 343 342 342 341 340 338 338 338 338 338 337 339 341 342 343 344 342 341 341 339 336 337 336 337 337 336 338 337 344 338 337 339 340 340 339 341 339 340 339 336 334 333 334 340 340 339 339 339 342 341 339 338 337 338 341 344
347 347 346 345 345 344 344 342 341 340 339 337 338 337 338 339 337 336 341 343 345 343 342 340 338 335 336 335 334 336 337 337 336 338 342 340 338 341 342 338 339 341 338 336 338 339 341 344 339 338 339 339 338 338 340 339 337 336 336 336 340 342
346 346 346 346 345 344 343 343 342 340 338 336 337 336 337 338 339 342 342 345 342 343 342 340 340 341 342 343 341 340 342 341 339 339 342 342 342 343 342 343 341 340 339 338 338 339 340 341 339 338 338 338 338 338 340 338 337 335 334 335 339 341
346 346 345 345 344 343 343 343 342 343 340 337 337 337 336 338 341 343 344 345 348 344 342 339 339 339 340 340 338 339 341 340 339 339 341 341 342 342 343 342 340 341 340 338 338 339 339 340 339 337 337 336 337 337 339 337 336 334 333 333 336 338
346 345 345 345 343 343 343 342 342 342 339 342 337 337 337 341 340 343 344 346 344 340 341 340 338 338 339 337 337 338 338 338 337 338 339 340 341 338 339 343 343 342 339 339 338 338 339 337 335 336 335 336 336 337 339 337 335 334 332 332 332 334
345 344 345 346 343 342 342 341 341 340 339 345 337 337 340 339 341 341 343 344 343 340 339 338 338 339 338 336 338 337 337 336 338 338 337 337 339 339 340 341 343 342 341 339 337 336 340 335 335 335 335 336 335 337 338 336 335 333 331 330 329 330
344 345 345 345 343 342 341 340 340 340 341 337 338 338 339 339 341 342 344 343 343 342 339 339 338 338 338 336 337 335 333 336 336 336 338 338 339 340 339 338 338 337 337 335 334 336 338 336 334 332 333 332 331 331 334 336 334 332 330 327 325 326
342 343 344 343 343 341 341 341 341 341 335 338 341 337 338 337 342 342 344 343 342 342 342 340 338 338 337 336 336 334 334 335 335 337 337 337 339 339 339 340 339 338 338 336 336 336 338 334 328 327 327 327 328 328 330 334 333 331 328 326 324 324
342 343 342 341 341 341 340 342 341 340 336 341 339 338 337 340 341 342 344 345 343 342 341 340 338 338 341 337 337 336 335 335 335 334 337 338 337 339 338 337 335 335 335 332 333 335 334 329 327 327 326 325 324 324 327 329 331 330 327 325 322 321
342 342 341 342 341 340 340 341 340 339 339 338 337 336 340 340 342 342 343 344 345 345 343 341 338 339 338 337 336 336 337 337 335 336 337 337 337 336 336 336 335 334 335 335 334 333 330 327 325 324 323 324 323 321 321 323 324 325 327 325 323 321
342 341 343 343 341 340 340 340 339 338 339 338 338 337 340 340 341 341 342 343 344 345 344 342 340 338 337 337 334 334 335 334 335 336 335 335 335 335 332 332 332 333 333 335 333 332 326 324 323 321 320 320 319 320 319 317 317 319 317 316 316 317
341 340 341 342 341 341 341 339 338 343 338 339 338 340 339 339 340 342 342 341 343 345 342 342 340 339 338 336 335 335 335 335 335 335 335 334 336 333 332 332 332 332 330 332 332 327 325 323 321 320 319 318 318 318 316 316 315 314 315 313 313 312
339 339 341 341 341 340 341 339 338 340 339 339 338 338 338 339 341 342 342 342 343 345 342 341 340 339 338 337 336 337 337 336 336 335 335 333 334 335 333 334 331 331 327 327 330 328 324 321 319 318 317 316 316 317 315 315 315 314 314 310 309 310
340 340 341 341 341 340 341 340 339 339 340 339 338 339 339 341 341 341 341 341 343 343 341 340 338 338 338 338 338 336 337 339 338 336 334 335 333 333 332 331 329 329 327 327 327 325 321 320 320 318 316 315 315 314 314 314 316 318 311 310 309 308
340 340 340 341 341 340 340 338 339 338 337 337 338 340 340 341 341 341 340 342 341 341 340 338 337 338 337 337 336 336 337 336 338 337 332 330 331 332 332 330 328 327 330 327 325 326 321 320 319 318 316 314 314 313 314 317 313 311 310 313 315 313
340 340 340 340 340 339 339 336 335 336 336 336 338 338 340 340 340 340 341 341 340 339 339 337 336 336 336 335 334 335 336 337 333 330 329 328 327 328 327 325 325 326 327 327 324 321 320 318 317 316 317 315 316 315 315 314 311 311 311 309 309 309
339 340 339 339 338 337 335 334 334 334 334 334 337 338 339 339 340 339 340 339 340 339 338 337 337 336 334 337 332 333 332 331 331 329 329 327 326 326 327 327 327 326 325 324 322 321 320 319 316 313 313 312 312 315 317 312 310 308 307 306 307 306
338 339 339 339 338 337 336 335 334 334 334 335 336 336 336 338 339 340 339 339 339 339 337 336 336 334 333 333 333 332 328 327 330 330 330 329 328 332 328 326 326 322 326 324 321 321 321 319 314 310 309 309 309 309 313 309 309 308 308 308 309 307
338 338 339 339 338 336 336 336 335 335 335 334 336 338 338 339 340 338 338 338 338 338 336 335 336 335 334 331 329 327 327 327 327 328 325 326 325 324 323 325 325 320 319 319 323 325 323 321 314 314 313 309 305 305 308 306 307 307 305 306 306 307
338 338 339 339 339 338 338 337 337 336 336 335 335 337 336 335 334 334 333 335 335 334 332 332 333 333 333 332 330 328 328 326 328 326 324 322 324 324 322 323 326 323 318 316 317 318 322 319 319 315 309 309 307 305 301 303 303 305 305 305 306 306
338 337 339 339 339 338 339 336 337 336 335 334 334 333 332 331 332 332 330 329 330 331 331 330 330 329 329 326 326 326 325 324 323 323 325 323 321 322 324 324 324 319 316 316 315 315 313 318 317 319 314 313 309 308 307 304 302 302 304 302 305 306
338 338 338 338 338 338 336 335 333 331 329 329 328 329 328 329 329 329 328 329 330 330 331 330 330 329 329 327 324 324 325 323 323 323 325 322 321 320 320 319 320 320 317 316 312 309 309 316 315 316 315 313 313 310 302 302 302 297 306 306 305 305
338 338 338 338 338 338 335 334 332 331 330 329 328 328 330 330 330 329 329 328 328 328 328 328 327 326 327 327 325 324 324 323 323 321 324 322 320 317 317 319 319 317 316 317 312 308 309 309 309 310 313 311 317 317 308 302 301 299 296 300 303 301
338 338 338 337 337 337 335 334 332 331 331 330 329 329 330 329 329 329 328 327 326 326 327 328 326 325 325 325 323 323 322 321 320 320 322 318 317 317 317 318 318 316 315 315 312 308 307 308 303 306 313 310 313 312 310 309 305 300 298 297 297 303
338 337 337 337 337 335 335 334 333 332 330 331 331 330 330 330 329 328 325 324 325 326 326 326 326 324 324 324 325 321 320 319 319 319 319 316 314 315 314 314 313 313 311 312 314 312 309 307 308 307 308 307 305 306 306 306 306 306 303 297 298 298
337 337 336 336 336 334 335 335 333 332 331 330 331 330 329 328 327 326 324 323 323 323 323 322 323 323 322 321 319 320 315 314 316 317 316 313 313 313 313 313 312 312 311 310 310 309 308 307 307 306 306 305 304 303 303 303 303 303 303 302 298 298
337 337 337 335 335 334 335 335 333 332 331 330 330 328 327 326 327 326 323 322 323 323 323 322 321 321 321 320 319 317 314 314 316 319 315 313 312 312 311 311 312 311 311 309 308 309 309 308 306 306 304 304 303 303 302 301 300 302 300 298 298 300
337 337 336 335 335 335 335 335 334 333 332 331 329 328 326 325 326 325 323 322 324 322 321 320 321 320 318 317 317 316 317 314 312 310 310 310 310 311 311 311 311 311 311 310 310 309 307 305 304 304 304 304 303 304 303 302 303 302 302 300 299 298
336 336 336 335 335 335 335 335 334 333 332 331 329 327 326 325 325 324 323 323 322 320 319 318 318 319 318 316 316 315 313 311 311 312 311 310 310 310 310 309 309 309 309 308 307 307 306 305 305 304 302 303 303 303 302 303 303 301 301 300 298 295
336 336 336 335 335 334 335 335 334 333 332 331 328 327 326 325 325 324 324 323 321 320 319 319 318 317 318 317 317 316 314 311 311 310 310 309 309 309 308 308 308 308 308 308 307 306 305 305 305 304 303 303 303 302 301 303 302 301 300 299 297 297
335 336 336 335 335 334 334 335 335 334 332 330 328 327 326 326 326 325 324 323 322 321 320 319 318 318 319 316 315 313 312 311 310 309 309 309 310 308 309 309 309 309 308 307 306 306 305 305 304 303 303 303 303 302 302 302 301 302 302 300 299 298
335 336 336 335 334 335 334 334 335 333 331 330 328 327 326 326 326 326 324 323 323 322 321 320 320 319 318 315 313 313 311 309 309 309 309 308 308 307 306 306 305 306 306 309 306 305 304 303 303 302 302 302 301 301 303 303 303 302 302 302 301 300
335 336 336 335 334 335 335 334 334 333 331 329 328 327 326 326 326 325 324 323 323 322 321 320 320 319 316 313 312 311 310 309 308 308 308 308 307 307 306 307 306 305 305 306 305 304 303 304 303 303 302 302 301 301 301 302 302 303 302 302 301 299

ECMWFFLT2_sfc_thetae_120.txt.gz
Theta_e
348 348 347 347 346 347 348 350 349 348 347 347 346 346 344 344 343 343 342 343 342 338 334 335 337 336 342 340 341 341 342 343 343 343 344 344 344 344 344 344 344 344 345 346 346 346 346 345 345 345 348 346 347 336 338 340 342 344 344 344 345 346
347 347 347 347 347 347 347 348 344 344 344 344 345 344 341 337 343 334 342 340 334 338 332 330 332 342 337 340 340 342 343 343 343 343 343 344 343 344 343 343 344 345 345 347 347 341 341 344 343 342 347 347 338 337 339 340 341 342 343 344 345 347
346 347 347 347 347 347 346 344 343 341 343 345 344 343 337 340 335 336 337 337 338 335 332 331 334 340 339 343 340 342 343 343 344 343 343 343 343 343 344 344 345 346 346 347 343 337 336 335 334 341 344 341 335 338 339 339 339 340 341 343 343 348
346 346 346 346 346 345 343 342 341 341 340 339 337 340 336 337 338 337 338 336 336 337 336 333 343 344 344 340 339 342 344 344 343 343 343 343 344 344 345 345 346 346 346 343 337 335 336 335 332 331 336 336 338 339 338 337 337 337 338 343 343 347
345 345 346 346 345 344 342 341 340 340 338 336 335 336 336 336 337 337 338 338 337 339 336 333 336 337 337 336 332 333 335 333 334 332 344 333 332 336 336 334 334 338 334 336 336 335 333 333 334 336 338 336 339 338 338 337 337 336 336 338 341 345
345 345 345 345 344 344 342 340 339 339 337 335 335 335 335 335 335 336 337 339 340 339 336 334 335 335 335 334 333 332 333 332 330 331 337 334 332 332 333 334 334 334 334 333 334 335 336 340 335 335 336 336 338 337 336 335 335 335 335 336 340 343
344 344 344 345 344 343 340 340 340 339 337 335 334 334 334 335 335 335 337 340 340 338 337 336 334 334 334 333 332 332 333 333 332 332 337 333 332 335 335 337 335 336 335 336 337 336 337 337 335 336 335 336 338 337 335 334 334 333 333 335 339 341
344 344 344 345 342 341 340 340 339 342 339 337 336 334 333 335 336 336 338 341 343 339 338 336 336 337 337 336 335 336 337 336 335 335 337 337 336 336 337 338 336 337 337 336 336 336 337 339 335 335 336 335 337 336 334 333 333 332 331 332 335 338
344 344 344 344 342 341 341 340 340 339 337 340 335 333 334 336 336 338 340 343 343 339 337 337 336 336 338 336 335 336 335 334 333 334 335 336 336 334 334 337 338 337 335 335 334 335 337 337 334 333 334 335 336 335 334 332 331 330 329 329 330 333
344 344 344 344 341 341 341 340 340 339 337 339 335 333 334 335 337 340 341 341 341 339 338 337 336 335 336 335 335 336 336 335 335 334 334 334 335 335 335 335 337 336 335 333 333 335 336 335 335 335 334 334 335 335 333 331 330 328 327 326 327 329
344 345 344 343 341 340 341 340 340 339 337 336 335 335 335 336 337 340 341 340 339 340 337 336 336 335 334 334 334 333 332 334 333 332 334 334 335 336 335 334 334 333 333 332 333 333 331 331 332 332 333 334 335 335 333 331 329 328 325 323 323 323
344 345 343 343 342 340 340 340 340 339 337 337 336 334 335 337 340 340 340 339 338 338 338 336 336 335 335 334 333 332 332 333 332 334 334 334 335 336 336 336 336 336 333 333 331 332 332 327 323 324 326 330 334 333 332 330 328 325 323 322 320 320
344 344 343 342 341 341 341 340 339 338 338 338 336 335 335 336 338 340 340 339 339 338 338 336 335 336 338 334 333 331 331 331 331 331 334 335 336 335 335 332 330 332 331 331 331 329 328 323 322 321 322 324 330 332 332 329 325 323 322 321 320 319
342 342 342 343 341 340 340 339 339 337 337 337 335 335 336 336 340 340 340 339 339 339 338 336 335 335 334 333 332 331 331 331 330 332 334 336 333 332 332 331 331 329 335 331 329 328 321 319 318 319 319 320 322 325 327 326 324 322 321 320 319 318
342 341 343 342 341 339 339 339 338 335 336 335 335 334 336 338 340 340 341 339 340 340 339 337 336 336 334 333 332 332 334 333 332 334 332 332 332 331 330 329 329 328 328 330 329 326 319 317 316 316 316 317 317 318 320 321 322 322 321 320 319 317
341 340 342 341 340 339 339 338 337 339 335 335 334 335 336 338 339 340 341 340 340 341 339 338 337 336 334 333 332 332 333 332 332 332 330 331 332 330 328 329 328 327 327 327 324 321 319 316 316 315 315 315 315 316 313 314 314 314 313 313 313 313
339 339 340 340 339 338 338 337 337 337 335 335 334 335 336 338 339 339 339 340 341 343 339 338 337 336 334 333 332 333 332 333 333 332 330 329 330 329 329 331 327 328 327 324 321 318 316 315 314 313 313 313 313 314 311 311 310 310 311 308 309 310
339 339 340 339 338 338 337 337 337 336 337 335 334 335 336 339 338 338 339 340 341 341 339 338 337 336 335 334 334 334 334 333 333 331 329 329 328 328 328 329 326 325 326 324 319 316 315 314 314 313 312 312 312 311 311 312 314 316 307 307 307 307
339 338 339 338 338 338 337 336 336 335 335 334 335 334 338 338 338 339 339 340 340 339 339 336 337 337 335 336 334 333 334 332 333 331 327 328 328 327 326 325 326 326 326 323 318 316 315 315 314 313 312 311 311 310 312 313 310 309 310 308 309 309
338 339 339 338 338 337 335 334 333 333 333 334 334 336 338 338 338 338 340 340 338 338 337 336 335 335 335 334 333 333 333 332 330 328 325 325 324 324 325 325 323 325 322 322 320 317 316 315 313 312 313 311 312 312 311 309 308 308 309 307 307 307
337 339 338 337 336 335 333 332 333 333 332 332 334 336 337 337 337 338 339 338 337 336 335 334 335 334 333 336 332 330 329 329 328 327 325 324 324 324 324 323 323 324 321 318 316 316 315 314 311 309 310 309 308 310 314 308 307 306 305 305 305 306
337 338 338 337 336 336 334 334 333 332 331 331 334 335 334 336 336 338 338 337 336 335 334 333 334 332 333 332 330 328 326 326 326 326 326 325 324 330 323 324 321 318 320 317 315 317 317 314 311 307 306 305 306 305 310 305 306 305 305 305 305 305
337 337 337 338 337 335 333 334 333 332 333 331 333 336 336 336 337 337 336 336 336 334 333 333 332 333 332 331 329 326 326 325 325 328 323 323 323 322 321 321 319 319 318 318 318 319 317 315 311 309 309 306 302 302 305 303 305 305 305 305 305 305
336 337 337 338 337 336 336 334 334 334 334 334 333 336 336 335 335 334 334 336 335 333 333 332 332 332 331 328 326 325 325 324 324 323 321 321 320 321 319 320 321 320 321 317 315 317 320 317 313 310 305 304 302 301 299 301 300 303 304 304 304 304
337 337 337 338 337 336 336 334 334 333 333 333 333 333 332 331 332 333 333 332 333 332 332 332 332 330 329 326 325 324 323 323 322 321 321 320 320 321 319 320 322 319 319 318 315 311 312 316 314 314 311 307 304 303 302 301 300 299 302 301 302 304
337 337 337 337 337 336 335 333 331 330 330 330 329 330 329 329 328 330 330 329 330 331 330 330 328 327 326 325 323 323 322 321 321 321 322 319 318 316 316 316 316 317 315 317 317 310 309 314 316 317 314 313 310 305 304 301 297 293 303 305 303 304
337 337 338 337 337 337 334 333 332 332 332 331 329 329 329 330 330 328 328 327 328 327 328 327 326 325 324 324 322 322 321 320 320 321 323 317 315 315 315 315 316 315 315 316 314 311 310 309 307 309 312 311 315 311 305 300 296 296 295 298 300 300
337 337 338 338 337 337 335 333 332 331 331 331 330 329 329 329 328 328 326 326 326 325 326 326 324 324 324 324 322 321 321 319 319 319 320 315 314 314 315 315 314 313 314 313 312 313 309 307 308 306 313 308 312 307 304 304 303 299 296 295 296 299
336 337 337 337 337 336 335 333 332 331 330 330 330 329 329 328 327 327 325 324 324 324 324 323 323 323 322 322 324 320 320 318 317 316 317 314 313 313 312 311 310 310 311 310 309 308 308 306 305 305 304 304 304 303 302 303 305 303 298 295 295 295
335 336 337 337 337 336 335 334 331 331 330 329 329 329 328 327 326 325 324 322 322 323 322 321 321 322 321 321 318 317 317 317 316 316 316 312 312 312 311 310 309 309 309 309 307 308 307 304 305 303 304 305 303 301 300 301 300 300 299 297 296 296
335 336 336 336 336 335 334 333 332 331 330 329 328 328 326 325 325 323 322 322 322 323 321 320 319 319 318 316 314 316 314 314 315 318 314 311 311 311 310 310 310 309 308 307 306 306 306 304 304 303 302 302 301 301 299 298 298 299 298 296 296 297
334 335 335 335 335 335 334 333 332 331 330 330 329 328 326 325 324 323 322 321 321 319 319 318 317 316 315 314 315 314 315 313 313 310 310 310 310 310 310 310 309 308 307 306 306 306 304 303 302 302 301 301 301 301 301 300 300 299 299 297 296 296
333 334 335 334 334 334 334 333 332 331 331 330 329 328 327 325 324 323 322 321 320 318 317 316 315 314 313 313 313 311 310 310 309 310 309 309 309 309 309 308 308 307 306 305 304 304 303 302 302 301 301 300 300 301 300 299 300 299 298 297 297 293
333 334 334 334 334 333 333 333 332 332 331 331 329 328 327 326 324 323 323 322 320 318 317 316 314 313 313 314 312 312 310 309 309 309 309 308 308 308 308 307 307 306 305 304 304 303 303 302 301 301 301 300 300 300 299 300 298 298 297 296 295 295
333 334 334 333 333 332 333 333 333 333 332 331 329 328 327 326 324 323 323 322 320 318 317 316 315 314 315 312 311 309 309 308 308 309 309 309 309 308 308 308 307 306 305 304 303 304 302 302 302 300 300 300 301 299 300 299 299 299 298 297 296 295
334 334 334 333 333 333 333 334 333 332 331 330 329 328 327 326 325 324 323 323 320 318 318 317 316 315 314 311 309 309 309 308 308 308 308 307 307 307 306 306 305 304 304 306 303 302 301 301 301 300 300 299 300 299 300 300 300 299 298 298 298 295
334 334 334 334 334 334 333 333 333 332 331 329 328 326 325 325 324 323 323 322 320 319 318 318 317 315 312 310 310 308 307 307 307 307 307 307 306 306 305 305 304 303 303 302 303 301 300 300 300 299 299 299 298 298 298 299 299 300 300 298 297 296

ECMWFFLT2_sfc_thetae_123.txt.gz
Theta_e
348 348 347 347 347 346 349 350 349 349 349 349 347 345 345 345 344 344 343 343 343 340 333 333 337 335 341 338 341 341 341 342 342 343 343 344 344 344 344 343 343 344 344 345 345 346 344 345 343 343 346 346 345 338 339 342 344 345 344 342 343 344
347 347 347 347 347 346 347 348 346 346 346 344 344 344 342 337 343 335 343 340 334 338 331 329 331 342 337 338 338 341 341 342 342 343 343 344 344 343 343 343 344 344 345 345 346 333 335 342 342 342 345 345 338 338 339 341 343 343 344 344 344 346
346 347 346 347 347 346 345 344 344 344 344 344 344 342 335 339 332 331 333 333 336 332 329 330 332 338 339 343 339 341 342 343 343 343 343 343 343 343 343 344 345 346 345 346 337 330 330 331 330 342 347 338 336 337 338 339 341 342 342 343 342 347
345 346 346 346 346 346 344 343 342 341 339 337 335 336 331 331 331 331 334 332 332 332 331 328 342 342 343 336 336 342 342 343 343 343 343 343 345 345 344 344 342 343 343 338 332 331 333 331 330 328 335 336 337 336 336 338 339 340 340 343 343 346
345 346 345 345 345 344 343 342 341 339 336 334 332 331 330 330 331 332 332 333 332 333 331 329 330 332 333 330 330 330 332 333 332 329 341 329 329 330 332 330 330 334 330 332 332 331 331 331 333 335 335 337 337 337 337 337 337 337 338 339 342 345
345 345 345 344 344 345 343 340 338 338 336 332 333 330 330 332 332 332 332 333 335 334 331 331 328 330 330 329 329 328 329 328 328 330 336 330 327 327 329 331 331 333 332 331 331 331 332 336 334 335 336 337 336 335 334 334 335 335 336 337 341 343
344 344 345 345 344 344 342 339 338 338 336 333 330 331 331 331 333 332 333 336 335 333 332 330 330 329 330 331 330 329 329 327 327 328 332 332 330 330 332 333 332 332 330 332 333 333 333 333 333 335 336 336 335 334 333 333 333 332 332 334 339 341
343 344 344 344 343 342 341 339 338 341 338 336 334 332 331 332 334 334 335 336 339 335 335 331 331 331 332 330 330 330 330 331 331 332 335 336 333 333 334 334 332 332 333 332 334 333 334 335 332 335 336 335 334 332 332 331 331 330 330 331 334 337
343 343 344 344 342 342 341 338 337 337 337 339 333 332 331 332 333 334 335 337 340 336 335 333 332 333 333 332 331 333 334 334 334 335 337 334 333 331 330 333 333 333 331 330 331 331 334 333 330 334 335 334 333 331 331 330 329 328 327 326 328 333
343 343 344 343 342 341 340 338 337 337 336 338 333 332 330 331 333 334 334 337 340 338 336 335 334 334 334 332 332 332 334 333 334 334 333 331 332 331 331 331 331 332 331 328 329 332 332 332 332 333 335 334 332 331 330 328 326 325 324 323 324 328
343 344 344 343 342 341 340 338 337 337 336 335 334 333 331 331 332 334 336 338 339 339 337 335 335 334 334 333 332 332 331 332 332 332 331 332 334 334 332 331 331 331 330 329 329 330 330 328 330 332 335 333 331 330 328 327 324 323 321 320 320 320
343 343 343 343 342 340 339 338 338 337 336 335 334 331 330 332 336 335 338 338 338 338 338 335 335 334 334 333 332 331 330 330 330 332 333 334 335 333 333 334 333 332 331 329 328 327 324 322 325 331 334 332 331 329 326 325 322 322 320 318 317 317
343 343 342 342 341 340 339 339 338 337 337 337 333 332 330 332 334 336 338 338 338 337 338 335 334 335 337 332 331 330 329 330 331 333 334 335 334 331 330 330 330 330 330 328 323 321 321 320 322 327 332 331 330 327 326 323 321 319 319 318 317 316
342 342 342 341 341 339 339 339 339 338 339 337 333 332 333 332 335 337 338 337 337 337 336 335 334 333 334 332 330 329 330 331 331 333 335 334 329 329 329 329 329 330 335 325 321 319 318 318 319 323 327 329 328 326 324 322 321 320 319 317 316 314
343 342 342 341 341 339 339 339 338 337 337 336 334 332 332 333 335 338 338 336 336 337 336 334 334 334 332 332 330 329 331 332 331 333 333 332 329 327 327 328 328 328 327 324 320 321 316 317 319 321 323 325 324 324 323 321 319 319 318 316 315 313
341 341 341 341 341 340 339 338 338 341 336 336 335 333 333 334 337 338 338 336 336 338 336 334 334 334 332 331 330 330 332 332 333 332 330 331 331 327 325 327 327 328 323 319 318 315 315 315 316 316 317 319 320 321 320 319 318 317 316 315 314 312
340 341 341 341 341 339 339 338 337 337 336 335 334 333 334 335 337 338 337 336 336 339 336 335 335 334 332 331 330 331 333 332 332 331 329 329 330 328 326 328 325 326 323 318 315 313 313 313 313 313 313 314 315 317 314 314 312 311 312 311 310 310
340 341 341 341 340 339 338 338 337 336 336 334 333 333 335 336 337 337 337 336 337 340 337 335 335 333 332 332 331 331 332 331 331 329 329 329 328 327 325 324 323 323 320 317 313 312 311 311 312 311 310 310 310 310 310 310 312 314 308 308 309 309
340 340 340 340 340 338 337 337 336 334 333 333 332 332 335 336 336 336 337 337 338 338 338 335 335 334 332 333 331 331 330 331 332 330 328 327 325 326 326 323 324 322 320 317 314 312 311 311 311 310 310 309 309 309 310 312 309 306 305 306 309 310
339 340 340 339 339 337 335 335 333 331 331 332 330 333 335 336 335 336 337 338 338 337 337 336 336 335 333 333 331 331 331 333 332 328 325 326 324 325 324 323 322 320 318 318 316 313 313 312 310 309 310 308 309 308 307 309 307 308 309 308 309 307
337 338 338 337 337 335 333 333 333 332 331 330 331 332 335 334 335 336 337 338 337 336 335 335 336 335 333 335 332 331 331 330 328 326 325 325 325 324 324 323 323 320 316 314 313 313 312 311 308 306 307 306 306 309 312 306 304 304 304 304 305 304
337 337 338 337 337 336 335 334 333 331 330 329 331 333 332 333 334 336 337 337 336 335 334 334 335 334 333 332 330 329 329 328 325 324 324 324 323 329 324 322 321 317 317 314 312 313 313 312 309 304 304 303 305 304 309 304 304 304 303 304 304 303
336 336 337 337 337 335 334 334 333 331 331 329 331 334 334 335 335 335 335 335 335 334 333 332 333 333 332 330 329 327 326 326 325 327 324 323 323 322 322 321 320 318 315 315 314 315 313 311 309 307 307 305 301 301 304 301 303 303 304 303 304 303
336 336 337 337 337 336 335 334 333 333 333 333 331 333 331 333 333 333 333 333 333 332 331 331 332 332 331 330 327 326 324 324 324 325 323 322 320 320 319 319 319 319 317 314 312 314 316 313 309 309 305 303 301 300 299 301 298 302 302 302 303 304
336 336 337 337 336 335 335 333 332 331 333 332 333 333 331 330 332 334 333 332 331 331 331 330 330 331 330 327 325 324 323 323 322 320 322 321 321 321 319 320 320 319 317 316 312 311 315 313 311 314 310 304 302 301 300 299 297 298 300 301 300 301
336 336 336 336 336 335 334 332 330 330 329 329 330 330 330 330 330 332 333 333 331 330 330 329 329 328 328 326 324 323 322 321 321 320 321 320 319 317 317 318 319 320 317 316 316 311 311 314 313 315 312 309 308 303 302 302 298 296 302 304 303 304
335 336 336 336 336 336 333 332 331 331 331 330 330 331 330 332 332 332 332 331 329 328 329 329 327 325 324 325 323 322 321 321 321 320 322 317 317 317 316 315 317 317 318 318 315 313 312 312 311 311 311 311 313 308 305 300 297 294 294 295 297 298
335 336 336 336 335 336 333 332 331 331 331 331 331 330 329 329 330 329 329 328 327 326 327 327 325 323 324 324 322 320 320 320 320 319 319 316 315 314 315 314 314 314 316 317 315 315 311 310 313 311 311 307 308 305 304 301 300 298 294 293 295 298
334 335 336 336 335 335 335 333 332 331 330 331 331 330 329 329 328 328 327 325 325 325 324 324 324 323 322 322 324 320 319 318 318 318 319 315 313 313 312 311 311 311 313 312 314 314 312 309 310 309 304 302 303 301 301 302 303 300 297 294 294 295
333 335 336 335 335 335 334 333 332 331 330 329 330 328 328 327 326 325 326 324 323 323 322 322 322 322 321 321 321 320 318 317 316 317 317 313 312 310 309 309 309 310 309 309 308 311 312 308 309 305 306 304 302 300 300 301 300 298 298 296 297 295
333 335 335 335 335 334 334 333 332 331 330 329 328 327 326 325 324 323 324 322 321 321 321 321 320 320 319 317 317 319 316 315 315 319 315 312 311 310 309 308 308 308 308 307 306 307 307 305 305 304 302 305 304 304 302 300 299 299 297 294 295 296
333 334 335 335 335 334 334 333 332 331 330 330 329 328 327 325 324 324 325 323 321 320 319 319 318 316 314 313 316 315 316 315 315 312 311 310 310 309 309 308 307 306 305 304 305 307 304 302 302 301 300 300 300 301 299 300 300 301 300 296 298 295
332 334 334 335 334 334 333 332 332 331 331 330 330 329 328 326 325 325 324 323 320 319 318 317 316 315 312 313 314 313 312 312 311 311 310 309 308 309 308 307 307 305 304 304 303 303 302 301 302 301 300 299 299 300 299 298 299 298 297 297 297 293
332 333 334 334 334 334 333 333 332 331 331 330 330 329 328 327 326 325 324 323 322 320 318 317 315 314 312 313 313 313 313 310 310 310 309 309 308 308 307 306 305 304 303 302 302 301 301 301 300 299 300 299 298 298 297 298 297 297 296 297 295 296
331 333 334 334 334 333 333 332 332 331 331 330 330 329 328 328 326 325 324 323 322 319 318 316 315 313 313 311 311 311 310 309 308 309 309 309 309 307 307 307 305 304 303 302 302 302 301 300 300 299 298 298 299 298 297 296 296 296 296 297 296 295
332 332 333 334 334 334 333 332 331 330 330 330 330 329 328 327 326 325 324 324 321 319 317 315 313 313 312 310 309 309 310 308 308 308 308 308 307 307 305 305 303 303 303 304 301 301 300 300 299 299 299 298 298 297 297 297 297 296 295 296 296 295
332 332 333 333 333 333 333 331 330 330 330 330 329 328 328 326 325 325 324 324 321 318 316 315 314 313 311 309 309 309 308 307 307 307 307 307 307 305 305 305 302 302 301 301 302 300 299 299 298 298 297 297 298 297 297 298 297 298 297 295 295 295

ECMWFFLT2_sfc_thetae_126.txt.gz
Theta_e
347 347 348 348 347 346 349 350 350 350 350 350 349 348 347 345 343 343 343 344 344 340 336 337 337 338 341 342 343 342 340 342 342 342 343 343 344 344 344 343 344 345 346 345 345 343 342 343 344 346 347 346 345 342 343 344 345 346 345 345 346 346
346 347 348 348 347 346 348 349 346 347 347 347 347 346 344 340 342 337 342 341 337 339 332 330 333 341 339 340 339 341 340 342 342 342 343 343 344 344 343 344 345 345 345 345 343 335 334 340 344 346 347 344 340 341 343 343 343 344 344 345 345 346
345 347 347 346 347 346 345 344 345 346 346 347 346 344 339 340 333 334 336 335 338 335 330 332 335 340 341 343 340 341 341 343 342 343 343 343 343 343 344 344 343 342 343 342 334 332 333 332 333 347 344 339 339 340 342 343 343 343 343 344 344 346
344 346 345 345 346 346 342 342 343 344 343 340 338 338 335 333 332 331 332 332 332 333 332 328 342 342 342 340 338 341 342 342 342 343 341 339 340 341 342 340 339 340 336 336 333 334 335 332 332 336 338 338 339 340 340 341 342 342 343 344 344 345
344 345 345 345 345 345 343 341 342 342 341 339 335 332 332 331 330 330 331 332 329 333 330 328 331 333 333 333 332 332 331 332 331 330 340 331 328 329 330 330 331 334 331 334 334 334 334 334 336 337 337 338 338 339 339 340 340 341 341 342 344 344
344 344 344 344 344 345 344 342 341 341 340 337 336 334 331 331 330 331 330 332 334 331 328 329 329 330 331 330 331 330 327 328 327 328 335 332 328 327 329 330 332 334 334 334 334 334 338 336 337 337 337 337 337 337 337 338 339 339 340 341 342 342
343 343 344 345 344 344 343 342 342 341 339 337 336 333 331 330 330 331 332 335 333 330 328 327 328 328 329 329 330 329 329 328 328 329 332 332 332 332 332 333 333 333 331 334 334 335 335 336 337 337 337 336 336 336 335 336 336 336 337 338 339 340
343 343 343 344 344 343 342 341 341 342 340 339 337 335 333 331 332 332 334 335 336 331 330 328 329 329 329 329 330 330 331 332 333 331 332 335 335 332 335 336 336 335 334 333 335 335 335 336 337 337 335 335 335 334 333 333 332 332 333 334 336 337
342 343 343 343 342 342 342 341 341 340 338 340 335 335 333 331 331 333 334 336 338 334 335 330 329 330 330 330 330 331 332 332 332 332 334 336 335 332 333 334 335 335 332 332 333 334 335 335 336 336 335 334 333 332 331 331 330 329 329 330 332 333
341 342 343 342 342 341 341 340 340 340 338 338 334 333 330 329 330 332 332 335 337 336 335 334 332 331 332 331 331 333 333 332 332 334 335 335 333 332 332 331 332 333 332 331 333 337 335 335 336 335 334 333 332 331 330 328 326 325 325 326 328 329
341 343 343 342 341 341 341 340 339 339 337 336 334 332 330 329 330 332 333 334 336 338 336 335 334 332 333 332 332 333 333 333 334 334 333 333 334 334 332 332 332 333 331 330 332 335 333 334 335 334 334 332 330 330 328 326 324 322 321 322 323 326
342 342 342 342 342 340 340 340 339 338 336 335 333 331 329 329 333 331 334 334 336 337 339 335 334 333 334 332 332 333 332 332 332 334 334 334 336 334 334 334 334 333 333 331 327 327 329 333 334 334 332 330 329 327 325 323 321 320 319 320 320 321
342 342 342 342 341 340 340 340 339 337 336 336 333 330 328 328 329 332 334 335 336 337 338 336 334 335 337 333 332 331 330 331 332 334 334 335 335 334 333 333 333 332 329 325 324 324 326 331 333 332 331 329 327 324 323 321 320 320 319 319 319 319
341 341 342 342 341 340 340 339 339 336 337 335 332 330 330 328 330 332 334 336 336 337 338 336 335 334 335 333 331 331 331 331 332 334 334 334 332 331 331 331 332 330 329 323 321 322 326 329 332 331 330 328 326 324 322 320 320 320 319 318 318 318
341 341 341 341 341 340 340 339 338 336 335 335 333 331 330 329 330 333 335 336 336 337 337 335 335 334 333 332 331 330 331 332 332 333 333 332 331 330 330 330 330 325 322 321 321 324 324 328 330 329 328 327 325 323 322 320 320 319 318 317 317 316
341 341 341 341 341 340 339 338 338 339 336 335 334 331 330 330 331 334 336 335 336 337 337 335 335 334 333 332 331 330 331 332 333 332 332 331 330 329 329 329 329 323 319 319 319 318 322 324 326 326 326 325 324 323 320 320 319 318 317 317 316 315
339 340 341 341 341 340 338 337 336 338 336 335 334 332 331 331 333 334 335 335 336 338 336 335 335 334 333 332 331 331 332 332 332 331 331 330 329 329 329 329 328 326 320 317 317 317 318 320 320 321 321 321 322 321 319 319 318 317 316 314 314 314
339 341 341 341 340 339 338 337 336 336 338 335 334 334 332 333 333 335 336 335 336 338 337 335 335 334 333 333 332 332 332 332 332 330 330 330 329 328 328 327 324 321 319 317 316 317 315 316 317 316 316 315 315 315 315 316 318 319 314 313 313 314
339 340 340 340 340 339 338 336 336 335 335 334 333 333 333 333 334 335 336 336 337 338 338 335 334 334 332 334 332 332 332 332 332 330 329 328 328 329 327 325 323 319 318 317 316 316 314 314 313 313 312 312 313 313 314 316 315 313 313 313 314 314
338 339 340 339 339 338 336 335 333 332 332 333 332 332 332 334 335 335 336 337 337 337 337 336 335 334 333 333 332 332 331 332 331 329 328 328 327 328 326 323 320 317 316 316 315 314 314 313 311 311 312 310 311 311 311 312 311 311 313 313 314 311
338 339 339 338 338 337 335 334 333 332 332 332 331 331 332 333 334 336 337 337 337 338 337 337 337 335 332 335 332 332 331 332 331 329 328 329 328 327 326 324 321 319 315 313 313 314 313 312 309 307 308 308 308 312 314 310 309 309 310 310 310 308
337 338 338 338 338 337 336 335 334 333 332 331 331 331 331 332 334 335 336 337 337 337 337 337 337 335 333 333 331 331 331 331 330 328 328 328 327 329 325 322 319 317 318 314 312 313 312 311 310 305 304 305 308 309 313 308 308 308 308 308 308 308
336 337 338 338 338 337 336 336 335 331 333 329 331 333 333 334 335 334 335 336 336 336 336 336 336 335 333 332 331 331 330 330 329 328 326 325 327 325 323 321 319 317 315 318 316 314 313 314 311 309 309 306 303 303 307 308 308 307 308 308 307 306
336 337 337 338 338 337 337 334 333 333 333 332 330 333 332 333 334 334 334 336 335 334 334 335 336 335 333 332 331 331 329 328 327 327 325 325 324 323 322 321 320 319 317 314 313 313 316 315 311 310 308 308 305 304 302 303 303 305 306 306 307 307
335 336 337 338 338 337 336 333 332 331 332 331 332 332 331 331 333 334 334 334 334 333 333 333 334 334 333 330 329 329 328 327 326 326 325 325 324 323 323 322 321 319 317 316 313 313 315 316 314 318 312 306 306 305 305 305 301 303 306 305 304 306
335 336 336 337 338 337 335 333 330 329 328 329 328 328 329 329 330 332 333 334 334 333 331 332 332 332 332 330 328 326 327 326 325 324 325 324 324 322 322 321 321 320 318 319 316 312 312 318 316 318 314 313 313 310 306 306 304 301 306 308 307 309
335 335 336 337 337 336 334 334 332 332 331 330 329 329 329 331 332 334 335 333 332 331 330 330 330 330 329 329 327 325 325 325 324 323 325 323 322 322 321 322 322 320 319 319 317 313 313 313 316 315 314 314 315 312 310 305 304 299 299 304 304 303
334 335 336 336 336 336 335 333 332 332 332 331 330 329 329 330 332 334 333 332 330 329 329 329 328 327 327 327 325 323 323 323 323 322 324 322 322 321 320 320 322 321 320 320 318 317 314 314 316 314 313 312 310 309 307 306 306 308 302 300 300 302
334 335 335 336 336 335 336 334 333 332 331 332 331 329 330 330 331 332 331 330 329 328 328 327 327 326 326 326 327 323 322 322 322 322 324 320 320 319 319 319 318 317 319 319 318 318 316 314 316 312 309 306 306 306 305 306 305 305 304 300 299 299
333 334 335 335 335 335 335 334 332 332 331 329 329 329 329 329 329 330 329 328 328 326 326 325 324 324 324 324 325 323 321 321 321 321 322 318 317 316 316 316 317 317 318 318 317 318 317 315 316 314 314 309 307 306 306 306 305 302 302 304 304 299
332 334 335 335 335 334 334 334 333 332 331 329 328 328 328 327 328 328 328 326 326 325 325 325 323 322 323 323 322 323 321 320 320 323 320 315 315 315 314 314 313 314 315 316 314 315 315 313 314 312 310 310 311 309 308 307 305 304 305 301 301 300
331 333 334 335 334 334 334 334 333 332 331 330 329 329 328 327 327 328 327 325 325 324 323 322 321 320 320 320 321 320 320 319 319 318 315 315 314 313 312 311 311 311 310 310 312 314 312 310 309 309 308 309 310 309 309 310 307 306 305 304 306 301
330 332 333 334 334 334 334 333 333 332 332 331 330 330 329 328 328 327 327 325 323 323 321 320 319 319 318 317 319 318 316 316 316 316 314 312 312 311 310 310 310 309 308 309 310 311 310 309 308 309 308 304 306 306 307 304 306 306 304 303 303 299
330 331 333 333 334 333 333 334 333 333 332 331 330 330 330 328 327 328 327 325 324 323 321 322 320 319 317 316 318 318 317 316 315 314 313 312 311 310 310 309 308 307 307 306 306 307 307 306 305 305 304 304 303 303 302 302 303 303 302 302 301 302
329 331 332 333 333 333 333 333 333 333 332 331 331 330 330 329 328 328 327 326 325 324 323 322 320 319 316 316 316 316 315 314 312 312 312 312 311 310 310 309 307 306 306 304 304 305 304 304 303 302 302 302 302 301 301 300 301 302 302 305 303 301
330 331 332 332 333 333 333 333 333 331 331 331 331 330 329 329 329 328 327 326 324 323 323 321 319 317 315 315 314 314 314 312 311 311 311 310 309 309 308 307 306 305 305 305 304 303 303 303 302 302 302 302 302 300 301 300 300 300 299 300 301 302
330 331 331 332 333 333 333 332 332 331 331 330 330 329 329 328 328 327 327 326 324 322 321 320 318 316 314 313 313 313 312 310 310 310 310 310 309 308 307 307 305 304 304 304 304 302 302 302 302 301 301 301 301 301 301 302 301 300 299 299 299 301

ECMWFFLT2_sfc_thetae_129.txt.gz
Theta_e
350 351 351 352 352 352 351 351 351 351 350 350 350 350 349 349 347 347 345 344 344 344 344 343 342 343 341 346 346 344 344 344 344 344 344 344 345 345 345 345 346 345 345 345 341 342 344 346 347 347 346 345 346 348 348 349 349 349 349 349 349 348
349 350 351 351 350 351 351 351 352 352 351 351 350 349 348 346 344 345 344 344 346 344 344 343 344 343 346 345 344 342 342 344 344 343 344 344 344 344 345 345 343 344 343 342 341 345 346 347 347 347 345 344 346 346 347 348 348 348 348 349 349 347
348 349 350 349 349 350 349 351 350 350 350 350 350 349 347 346 344 343 344 343 345 346 343 342 344 342 343 342 342 342 342 343 343 344 343 343 345 345 344 341 341 343 342 341 346 345 345 347 347 345 344 346 346 345 347 347 348 349 348 349 348 344
347 348 348 347 348 349 350 351 350 350 349 349 349 347 346 346 344 343 343 345 344 345 344 344 342 342 341 343 342 341 341 342 343 343 344 344 343 342 340 339 341 341 344 345 345 345 345 347 347 347 346 345 345 345 346 346 346 347 348 345 346 344
347 347 348 347 347 347 349 349 349 348 349 348 348 347 345 346 345 344 344 344 343 343 342 341 343 343 343 343 342 342 344 343 345 344 342 345 344 341 341 337 344 345 345 345 344 347 346 347 346 344 344 344 344 345 344 345 345 345 346 348 347 344
347 347 347 346 346 347 347 347 347 347 347 347 346 345 344 343 342 344 341 341 342 341 341 340 341 343 343 343 341 340 341 344 344 343 344 342 341 341 341 340 345 345 344 347 346 347 347 347 344 343 342 343 343 344 343 344 343 344 345 346 344 342
345 346 347 347 347 347 346 347 347 346 345 343 344 342 341 340 339 339 339 340 339 338 338 339 340 341 342 342 340 340 341 343 341 343 343 340 341 345 344 346 347 346 345 344 344 346 347 346 345 342 342 341 342 342 342 342 341 341 343 343 342 340
344 345 346 347 346 345 346 346 346 345 344 343 342 340 338 338 339 339 340 341 341 339 339 339 340 340 341 341 340 341 341 340 340 341 342 342 344 344 345 346 346 345 343 343 343 345 344 343 343 343 341 341 341 341 342 340 340 340 340 341 339 338
343 345 345 345 345 345 346 346 345 344 343 343 341 339 338 339 339 340 341 342 341 340 340 341 341 340 340 339 340 340 340 339 339 341 341 343 344 344 344 344 346 345 345 344 345 345 344 342 343 343 341 340 340 340 340 339 338 338 339 338 337 335
342 343 344 345 344 344 345 344 344 344 344 343 340 339 339 338 341 341 341 342 343 342 341 341 341 342 340 339 340 339 339 339 339 341 342 342 344 346 344 346 346 346 344 343 343 345 344 342 341 342 341 340 340 340 339 338 336 334 335 335 333 332
342 345 344 343 344 344 345 344 343 344 344 342 340 339 338 341 341 341 343 344 343 343 342 342 342 342 342 341 340 339 339 339 340 341 342 343 345 345 346 346 345 344 344 344 344 344 344 342 341 340 341 339 339 339 337 335 332 330 328 331 331 330
342 344 344 343 344 344 344 344 344 343 343 342 341 338 339 341 339 340 344 345 344 344 345 344 343 343 343 343 342 340 340 341 341 342 343 344 345 345 345 346 345 345 345 345 345 345 343 342 341 340 340 338 339 336 332 330 328 327 326 328 328 330
343 343 343 343 343 343 344 343 343 343 342 343 340 340 341 340 339 342 345 345 346 345 346 344 345 345 344 344 344 342 341 342 343 344 344 344 345 344 344 344 345 343 341 341 342 342 341 342 340 339 339 338 336 330 327 326 326 325 324 326 326 326
342 342 343 344 344 343 343 343 344 343 342 342 341 341 341 341 339 340 343 345 346 346 345 346 345 345 345 345 344 342 342 343 343 343 344 344 343 343 343 343 342 339 336 337 338 340 339 339 337 338 338 337 332 328 326 324 325 325 324 324 325 325
342 342 343 344 343 343 343 343 342 342 342 343 342 342 342 340 338 339 342 344 346 346 345 345 345 346 344 344 343 343 343 343 342 343 343 343 343 342 342 343 340 337 335 336 337 339 339 338 336 337 336 334 329 326 326 325 324 322 322 323 324 322
342 342 343 343 344 343 342 343 342 342 342 343 341 343 342 340 338 339 342 344 346 346 346 345 345 345 345 345 343 343 343 342 341 341 341 342 343 342 342 341 338 336 333 333 335 338 338 336 336 336 336 331 327 326 325 324 323 321 321 322 320 322
341 341 342 343 343 343 342 342 343 342 342 343 342 343 342 342 339 339 341 342 345 346 346 344 346 346 346 345 344 344 342 341 342 341 341 342 341 342 342 339 335 335 337 334 335 335 336 335 334 334 333 328 326 326 325 324 323 322 322 320 319 318
342 342 342 342 342 342 342 342 342 342 343 341 343 344 344 342 340 338 341 342 345 346 345 345 345 345 346 346 344 344 341 340 341 341 341 341 342 342 342 340 334 333 334 335 334 335 334 333 333 330 327 325 325 325 323 323 323 321 319 319 318 318
341 342 342 343 343 343 343 342 342 342 342 342 343 344 344 342 340 340 340 343 345 347 346 345 345 345 345 344 343 343 341 341 341 341 341 340 340 340 340 339 333 331 332 335 335 335 334 332 330 325 322 322 323 323 322 323 322 320 318 319 317 317
341 342 343 342 342 341 341 339 338 340 341 341 342 341 344 342 343 340 342 345 346 348 346 345 345 345 345 344 342 342 342 341 341 341 340 339 338 338 338 336 332 330 330 329 331 332 331 329 325 321 320 320 321 320 321 322 322 320 319 319 319 318
340 342 340 339 339 339 338 338 339 338 338 340 340 341 342 344 343 342 344 344 347 347 348 346 344 344 344 344 343 342 342 341 341 341 341 341 342 340 340 336 331 331 329 328 328 330 329 327 322 318 318 317 317 320 321 322 322 321 318 318 318 316
341 341 341 341 340 341 341 340 339 338 339 340 339 338 340 344 345 345 345 346 347 347 346 345 344 344 343 344 342 341 341 340 340 341 342 343 343 339 337 333 330 327 330 329 327 328 328 328 324 320 317 314 315 316 318 319 320 321 320 318 317 317
341 341 341 342 341 340 343 343 342 341 341 340 342 344 344 345 346 346 346 346 346 346 344 343 343 342 342 343 343 342 341 341 340 341 340 340 340 338 336 332 330 327 325 328 327 327 328 331 325 324 323 317 312 310 312 313 316 318 319 318 316 315
341 342 342 343 343 344 344 344 345 345 345 343 341 344 346 346 346 345 343 344 345 345 344 343 343 343 343 344 344 342 342 341 340 341 341 339 338 337 336 333 331 330 328 323 323 323 326 326 324 321 316 317 314 314 310 310 311 314 316 316 315 314
342 342 343 343 343 344 343 343 343 344 344 343 343 342 342 340 342 342 341 342 342 343 343 343 343 343 344 344 343 343 342 343 341 341 342 340 339 339 336 334 333 331 328 326 322 323 322 327 324 329 323 315 312 311 316 316 311 311 313 311 312 315
342 343 343 344 344 343 342 340 339 337 336 337 335 336 336 336 337 338 339 341 342 342 342 342 342 342 343 343 342 343 344 342 342 341 340 340 340 339 337 334 333 332 330 332 327 322 320 324 326 326 328 329 328 321 319 313 312 308 313 314 313 312
342 342 344 344 344 343 342 341 340 338 339 338 336 337 341 342 340 340 341 340 340 341 341 341 341 342 343 343 343 343 343 342 342 341 340 340 339 338 337 335 334 332 332 331 329 322 322 321 325 325 325 328 328 327 325 314 312 313 308 310 310 312
342 342 343 344 343 343 341 340 340 340 340 339 339 339 340 341 343 342 340 339 339 338 340 341 341 342 343 343 343 342 342 342 340 340 337 337 338 339 338 337 335 334 333 332 330 327 325 323 322 322 325 324 324 324 325 322 322 319 319 311 308 311
342 343 344 344 343 342 342 342 341 340 339 340 341 342 342 341 340 341 340 339 338 337 338 340 342 342 342 342 341 340 340 340 340 338 336 337 338 337 338 336 334 333 333 331 331 331 330 325 325 326 323 323 323 321 319 321 322 322 320 319 314 308
341 342 344 344 343 343 342 342 340 340 339 340 341 341 341 338 339 339 338 338 337 336 337 337 340 342 342 342 341 340 338 339 339 337 335 336 336 336 336 335 336 335 335 333 333 331 330 330 328 329 327 325 321 320 320 319 319 318 317 319 317 310
340 342 343 343 343 343 342 342 340 340 340 340 340 339 337 337 337 337 336 336 335 335 336 337 339 340 341 340 340 339 338 338 339 337 334 334 334 333 334 334 335 335 335 334 332 331 330 331 330 329 327 326 324 322 322 321 320 319 321 318 316 315
340 341 342 343 343 342 341 341 342 342 340 340 341 338 337 336 336 336 336 334 334 334 334 336 338 338 339 338 338 337 337 336 335 336 334 334 334 334 334 333 331 331 332 333 334 331 331 329 329 329 328 327 326 326 326 325 326 323 322 321 320 317
338 341 341 343 342 343 342 342 341 341 341 342 342 339 338 338 337 336 335 334 333 332 333 333 335 337 338 337 337 336 335 334 334 334 334 332 332 331 331 330 329 329 330 329 329 331 329 330 329 328 327 328 327 327 326 328 328 325 324 324 321 316
337 340 341 342 342 342 342 342 342 341 341 341 341 340 339 338 338 337 337 335 334 334 333 334 336 337 336 335 334 334 333 333 334 333 331 331 329 328 329 327 328 327 326 328 328 330 330 330 329 329 330 327 325 324 324 325 325 324 323 320 318 317
337 339 340 341 341 342 341 341 342 341 341 341 341 339 339 340 340 338 338 337 337 337 336 337 337 338 334 333 333 332 332 333 332 331 329 328 327 327 327 325 325 326 325 324 324 325 326 327 325 325 324 324 324 323 322 321 320 321 322 321 320 318
336 338 339 340 340 341 342 342 341 341 341 342 341 340 339 339 340 340 339 339 338 339 338 338 338 337 332 332 332 331 331 331 330 329 328 327 326 325 324 324 323 323 322 319 322 321 322 322 323 323 323 322 321 319 319 317 317 319 318 321 320 319
337 338 339 340 341 341 341 341 342 342 342 342 341 340 338 339 340 340 340 340 340 339 339 338 337 334 331 331 332 331 330 329 328 327 327 326 325 325 324 324 323 321 321 319 319 319 319 319 320 319 319 318 319 317 315 316 315 316 317 317 317 317